Date,Time       Air       Air     % Relative           Wind           Wind    Wind
                        Temp F    Temp C       Humidity      Speed mph     Speed km/h Dir Deg
---------------------------------------------------------------------------------------------
      01/01/11, 1:00      15.1     -10.4             76           10.9           17.5   208.7
      01/01/11, 2:00      12.0     -12.1             75           11.1           17.9   203.6
      01/01/11, 3:00      10.4     -13.0             58           11.8           19.0   204.8
      01/01/11, 4:00       9.1     -13.7             55           10.7           17.2   216.3
      01/01/11, 5:00       8.8     -13.9             57           10.2           16.4   205.9
      01/01/11, 6:00       9.2     -13.7             60            9.1           14.7   205.2
      01/01/11, 7:00       9.6     -13.4             64            8.4           13.5   201.8
      01/01/11, 8:00      10.2     -13.1             67            8.6           13.9   205.3
      01/01/11, 9:00      10.7     -12.9             79            7.8           12.6   219.7
     01/01/11, 10:00      10.6     -12.9             85            8.2           13.1   227.3
     01/01/11, 11:00      10.9     -12.7             73            8.8           14.1   238.6
     01/01/11, 12:00      11.8     -12.2             58           10.5           16.9   241.4
     01/01/11, 13:00      12.3     -12.0             64           10.9           17.5   236.8
     01/01/11, 14:00      13.2     -11.5             67           10.4           16.8   240.8
     01/01/11, 15:00      14.1     -10.9             70            9.8           15.8   252.4
     01/01/11, 16:00      14.8     -10.6             72            9.5           15.2     254
     01/01/11, 17:00      15.8     -10.0             73            9.6           15.4   251.9
     01/01/11, 18:00      15.6     -10.1             72            8.8           14.1   247.2
     01/01/11, 19:00      15.0     -10.4             71            7.6           12.2   253.3
     01/01/11, 20:00      14.6     -10.7             72            6.3           10.1   254.4
     01/01/11, 21:00      14.2     -10.9             72            6.1            9.8   261.7
     01/01/11, 22:00      13.9     -11.0             71            6.9           11.1   257.1
     01/01/11, 23:00      13.7     -11.2             73            6.4           10.3   250.1
      01/02/11, 0:00      13.4     -11.3             74            5.0            8.0   250.5
      01/02/11, 1:00      13.8     -11.1             73            4.8            7.8   247.7
      01/02/11, 2:00      13.2     -11.5             76            4.1            6.6   248.6
      01/02/11, 3:00      11.7     -12.3             79            2.0            3.3   229.7
      01/02/11, 4:00      10.6     -12.9             83            2.2            3.5     203
      01/02/11, 5:00       9.9     -13.3             85            3.9            6.3   188.8
      01/02/11, 6:00       9.2     -13.6             85            3.6            5.8   196.4
      01/02/11, 7:00       9.2     -13.7             85            4.0            6.4     194
      01/02/11, 8:00       9.0     -13.8             85            5.0            8.1   187.7
      01/02/11, 9:00       8.9     -13.8             85            3.8            6.1   184.8
     01/02/11, 10:00      11.0     -12.6             85            6.0            9.6   169.8
     01/02/11, 11:00      15.9      -9.9             82            8.5           13.7   176.2
     01/02/11, 12:00      19.9      -7.7             74           10.7           17.2   188.3
     01/02/11, 13:00      23.7      -5.6             67           10.9           17.5     185
     01/02/11, 14:00      28.4      -3.0             61            9.7           15.6     191
     01/02/11, 15:00      31.0      -1.6             51           11.5           18.5   193.6
     01/02/11, 16:00      33.1      -0.4             48           10.8           17.4   196.6
     01/02/11, 17:00      34.1       0.2             48            8.4           13.5   196.4
     01/02/11, 18:00      32.7      -0.6             58            4.9            7.8   203.8
     01/02/11, 19:00      28.9      -2.7             65            2.2            3.5   200.4
     01/02/11, 20:00      26.8      -3.9             69            4.4            7.1   177.8
     01/02/11, 21:00      26.4      -4.1             70            3.4            5.5   185.7
     01/02/11, 22:00      25.2      -4.8             72            3.1            5.0     181
     01/02/11, 23:00      24.4      -5.2             74            3.5            5.7   181.2
      01/03/11, 0:00      24.0      -5.4             75            4.1            6.6   185.7


  

                                                                                             
           Date,Time       Air       Air     % Relative           Wind           Wind    Wind
                        Temp F    Temp C       Humidity      Speed mph     Speed km/h Dir Deg
---------------------------------------------------------------------------------------------
      01/03/11, 1:00      22.3      -6.4             80            3.1            4.9   188.8
      01/03/11, 2:00      21.4      -6.9             82            1.4            2.3   215.2
      01/03/11, 3:00      21.2      -7.0             79            2.8            4.5   195.3
      01/03/11, 4:00      20.7      -7.3             80            2.9            4.6   194.9
      01/03/11, 5:00      19.8      -7.8             82            2.4            3.9   180.6
      01/03/11, 6:00      18.6      -8.4             85            2.5            4.1     174
      01/03/11, 7:00      18.3      -8.6             87            2.4            3.9   218.9
      01/03/11, 8:00      19.0      -8.2             86            1.1            1.7   225.2
      01/03/11, 9:00      17.2      -9.2             89            3.4            5.5   166.9
     01/03/11, 10:00      20.2      -7.6             85            2.3            3.7   170.5
     01/03/11, 11:00      23.9      -5.5             84            5.1            8.2   187.3
     01/03/11, 12:00      29.1      -2.6             77            2.4            3.8   174.4
     01/03/11, 13:00      31.3      -1.4             70            3.6            5.9   174.6
     01/03/11, 14:00      32.5      -0.7             70            3.6            5.8   177.1
     01/03/11, 15:00      35.5       0.9             62            2.2            3.6   209.2
     01/03/11, 16:00      36.8       1.7             55            3.3            5.4   184.6
     01/03/11, 17:00      35.7       1.1             60            5.4            8.7   176.5
     01/03/11, 18:00      33.7      -0.1             68            3.2            5.1   190.3
     01/03/11, 19:00      32.2      -0.9             71            1.6            2.6   219.7
     01/03/11, 20:00      31.3      -1.4             74            1.4            2.3     198
     01/03/11, 21:00      30.0      -2.1             76            2.0            3.2   203.4
     01/03/11, 22:00      29.1      -2.6             82            2.5            4.1     225
     01/03/11, 23:00      31.5      -1.3             82            6.8           10.9   285.4
      01/04/11, 0:00      29.4      -2.5             80           11.7           18.8   283.5
      01/04/11, 1:00      23.7      -5.6             80           10.3           16.6     293
      01/04/11, 2:00      20.5      -7.4             81           10.0           16.0   289.9
      01/04/11, 3:00      17.8      -8.9             84            8.0           12.9   278.1
      01/04/11, 4:00      15.2     -10.4             84            5.6            9.0   274.5
      01/04/11, 5:00      13.4     -11.3             86            5.2            8.4   272.5
      01/04/11, 6:00      12.0     -12.1             86            5.9            9.5   273.1
      01/04/11, 7:00      10.7     -12.8             84            6.7           10.8   278.4
      01/04/11, 8:00       9.8     -13.3             83            5.5            8.8   277.5
      01/04/11, 9:00       9.1     -13.7             85            4.7            7.6   277.3
     01/04/11, 10:00      10.1     -13.2             83            4.6            7.4   274.8
     01/04/11, 11:00      12.2     -12.0             80            6.0            9.7   268.9
     01/04/11, 12:00      15.0     -10.4             76            5.6            9.0   269.7
     01/04/11, 13:00      17.7      -8.9             70            5.7            9.2   271.6
     01/04/11, 14:00      20.2      -7.5             66            5.3            8.5   266.1
     01/04/11, 15:00      22.5      -6.3             64            4.6            7.4   248.7
     01/04/11, 16:00      24.7      -5.1             60            4.3            6.9   228.6
     01/04/11, 17:00      25.6      -4.5             59            4.3            7.0   217.1
     01/04/11, 18:00      24.9      -4.9             66            2.5            4.0   191.6
     01/04/11, 19:00      23.1      -5.9             72            1.4            2.3    85.9
     01/04/11, 20:00      21.1      -7.1             76            1.9            3.1    75.2
     01/04/11, 21:00      19.8      -7.8             78            1.9            3.0   108.6
     01/04/11, 22:00      18.5      -8.5             81            2.4            3.9   108.4
     01/04/11, 23:00      18.3      -8.6             80            3.3            5.3   119.7
      01/05/11, 0:00      17.9      -8.9             81            3.2            5.2   110.7


  

                                                                                             
           Date,Time       Air       Air     % Relative           Wind           Wind    Wind
                        Temp F    Temp C       Humidity      Speed mph     Speed km/h Dir Deg
---------------------------------------------------------------------------------------------
      01/05/11, 1:00      17.3      -9.2             85            2.9            4.6   116.6
      01/05/11, 2:00      16.5      -9.6             86            2.5            3.9   129.7
      01/05/11, 3:00      16.2      -9.8             87            2.6            4.2   140.3
      01/05/11, 4:00      16.1      -9.8             89            2.5            4.0   120.7
      01/05/11, 5:00      15.5     -10.2             91            1.9            3.0   119.1
      01/05/11, 6:00      15.9     -10.0             91            2.9            4.7     142
      01/05/11, 7:00      16.5      -9.6             91            2.5            4.1   134.5
      01/05/11, 8:00      16.8      -9.4             91            2.8            4.5   131.1
      01/05/11, 9:00      17.4      -9.1             93            2.1            3.4   145.1
     01/05/11, 10:00      19.1      -8.1             91            2.4            3.9   164.5
     01/05/11, 11:00      24.2      -5.3             89            3.9            6.3     197
     01/05/11, 12:00      28.9      -2.7             79            4.5            7.2   251.8
     01/05/11, 13:00      32.0      -1.0             73            4.6            7.3   255.4
     01/05/11, 14:00      35.7       1.1             66            4.6            7.4   240.4
     01/05/11, 15:00      37.7       2.1             59            4.3            6.9   232.7
     01/05/11, 16:00      38.3       2.5             58            5.2            8.3   253.9
     01/05/11, 17:00      38.5       2.6             61            5.4            8.7   257.1
     01/05/11, 18:00      38.0       2.3             64            4.6            7.5   270.5
     01/05/11, 19:00      36.6       1.6             67            2.9            4.7   255.3
     01/05/11, 20:00      35.8       1.1             72            2.9            4.6   271.5
     01/05/11, 21:00      35.6       1.0             81            7.6           12.3   294.4
     01/05/11, 22:00      33.8       0.0             85            7.0           11.3   297.9
     01/05/11, 23:00      32.2      -0.9             86            8.0           12.8   300.1
      01/06/11, 0:00      30.3      -1.9             85            5.9            9.6   309.5
      01/06/11, 1:00      29.2      -2.5             85            7.7           12.3   301.8
      01/06/11, 2:00      28.1      -3.1             86            7.8           12.6   294.9
      01/06/11, 3:00      27.2      -3.7             86            8.0           12.9   294.3
      01/06/11, 4:00      26.7      -4.0             85            7.0           11.2   300.3
      01/06/11, 5:00      27.0      -3.8             86            5.6            9.0   285.9
      01/06/11, 6:00      27.4      -3.5             86            6.3           10.1   270.2
      01/06/11, 7:00      27.3      -3.6             84            7.8           12.5   291.1
      01/06/11, 8:00      27.0      -3.8             80            5.5            8.9   287.4
      01/06/11, 9:00      25.9      -4.4             94            5.0            8.0     284
     01/06/11, 10:00      25.8      -4.4             94            5.2            8.4     285
     01/06/11, 11:00      27.0      -3.8             91            5.4            8.7   281.2
     01/06/11, 12:00      28.0      -3.2             89            5.3            8.6   288.6
     01/06/11, 13:00      28.4      -3.0             87            5.1            8.1     294
     01/06/11, 14:00      28.9      -2.7             84            5.4            8.7     301
     01/06/11, 15:00      29.3      -2.5             84            5.3            8.5   294.3
     01/06/11, 16:00      29.2      -2.5             87            4.4            7.0   292.1
     01/06/11, 17:00      29.3      -2.5             91            4.5            7.3   279.8
     01/06/11, 18:00      29.0      -2.7             95            2.7            4.3   296.1
     01/06/11, 19:00      28.3      -3.0             97            2.1            3.3   315.2
     01/06/11, 20:00      27.9      -3.3             98            2.3            3.7   336.5
     01/06/11, 21:00      27.6      -3.4             97            0.6            1.0   303.8
     01/06/11, 22:00      27.5      -3.5             96            0.0            0.0     240
     01/06/11, 23:00      27.5      -3.5             97            0.4            0.7   161.9
      01/07/11, 0:00      27.3      -3.6             98            1.3            2.1   11.67


  

                                                                                             
           Date,Time       Air       Air     % Relative           Wind           Wind    Wind
                        Temp F    Temp C       Humidity      Speed mph     Speed km/h Dir Deg
---------------------------------------------------------------------------------------------
      01/07/11, 1:00      27.0      -3.8             99            1.5            2.4   11.13
      01/07/11, 2:00      26.9      -3.8             99            1.2            2.0    8.37
      01/07/11, 3:00      26.8      -3.9             98            1.4            2.2    7.58
      01/07/11, 4:00      26.5      -4.0             98            2.6            4.2      23
      01/07/11, 5:00      25.5      -4.6             98            2.2            3.6   57.64
      01/07/11, 6:00      25.0      -4.9             99            0.8            1.4   117.5
      01/07/11, 7:00      25.0      -4.9             99            0.7            1.1   348.3
      01/07/11, 8:00      24.6      -5.1             99            2.8            4.6   348.8
      01/07/11, 9:00      23.7      -5.6             99            4.1            6.6   329.2
     01/07/11, 10:00      23.0      -6.0             98            4.7            7.5   309.5
     01/07/11, 11:00      23.8      -5.6             96            6.3           10.1   297.9
     01/07/11, 12:00      23.8      -5.6             90            8.0           12.9   297.3
     01/07/11, 13:00      23.0      -6.0             86            9.1           14.6   296.3
     01/07/11, 14:00      23.3      -5.8             84            9.8           15.7   300.8
     01/07/11, 15:00      23.0      -6.0             82           11.0           17.7   295.6
     01/07/11, 16:00      23.0      -6.0             82           11.0           17.7   291.7
     01/07/11, 17:00      22.2      -6.4             80           12.9           20.8   293.3
     01/07/11, 18:00      20.3      -7.5             82           12.4           19.9   294.3
     01/07/11, 19:00      18.5      -8.5             84           13.5           21.7   292.5
     01/07/11, 20:00      16.6      -9.5             90           12.5           20.1   293.4
     01/07/11, 21:00      15.6     -10.1             90           10.9           17.5   303.1
     01/07/11, 22:00      11.8     -12.2             90           12.0           19.3   308.1
     01/07/11, 23:00       9.4     -13.6             78           10.8           17.3   296.8
      01/08/11, 0:00       8.6     -14.0             82            9.9           16.0   297.5
      01/08/11, 1:00       8.3     -14.2             86            8.8           14.2   292.3
      01/08/11, 2:00       7.8     -14.4             85            8.4           13.5   290.7
      01/08/11, 3:00       7.5     -14.6             88            8.9           14.3   290.6
      01/08/11, 4:00       6.9     -14.9             83            8.6           13.9   295.4
      01/08/11, 5:00       7.4     -14.7             83            7.1           11.5   304.8
      01/08/11, 6:00       6.9     -14.9             82            6.9           11.1   300.4
      01/08/11, 7:00       5.7     -15.6             84            6.0            9.6   303.6
      01/08/11, 8:00       4.8     -16.1             85            5.5            8.9   295.4
      01/08/11, 9:00       4.0     -16.5             84            5.9            9.4   297.5
     01/08/11, 10:00       4.8     -16.1             84            6.1            9.8   301.9
     01/08/11, 11:00       7.5     -14.6             81            5.8            9.4   313.4
     01/08/11, 12:00      10.1     -13.2             78            6.7           10.9   325.2
     01/08/11, 13:00      12.9     -11.6             73            6.1            9.8   317.9
     01/08/11, 14:00      14.4     -10.8             70            6.3           10.1   316.2
     01/08/11, 15:00      15.4     -10.2             67            5.4            8.6     316
     01/08/11, 16:00      16.0      -9.9             67            4.9            7.9   303.6
     01/08/11, 17:00      15.6     -10.1             67            4.5            7.2   310.7
     01/08/11, 18:00      14.2     -10.9             72            3.2            5.1   300.4
     01/08/11, 19:00      11.7     -12.3             79            1.6            2.6   318.5
     01/08/11, 20:00       9.5     -13.5             81            1.2            1.9   344.1
     01/08/11, 21:00       8.0     -14.3             82            1.3            2.1   351.8
     01/08/11, 22:00       6.8     -15.0             83            1.6            2.5   349.7
     01/08/11, 23:00       5.5     -15.7             84            1.7            2.8   283.4
      01/09/11, 0:00       3.8     -16.7             87            1.7            2.8   289.4


  

                                                                                             
           Date,Time       Air       Air     % Relative           Wind           Wind    Wind
                        Temp F    Temp C       Humidity      Speed mph     Speed km/h Dir Deg
---------------------------------------------------------------------------------------------
      01/09/11, 1:00       1.7     -17.9             88            2.7            4.4   326.5
      01/09/11, 2:00       1.4     -18.0             88            1.6            2.7   315.5
      01/09/11, 3:00       0.6     -18.4             89            2.8            4.5   347.7
      01/09/11, 4:00       1.2     -18.1             88            2.3            3.6   333.2
      01/09/11, 5:00       0.8     -18.3             88            2.1            3.3   356.5
      01/09/11, 6:00       2.7     -17.3             87            2.9            4.7   17.19
      01/09/11, 7:00       2.9     -17.2             85            3.2            5.2   25.91
      01/09/11, 8:00       3.8     -16.7             84            3.6            5.7   39.67
      01/09/11, 9:00       3.6     -16.8             83            2.8            4.5    70.4
     01/09/11, 10:00       5.3     -15.9             83            2.7            4.3     131
     01/09/11, 11:00       8.1     -14.3             82            4.4            7.0   111.1
     01/09/11, 12:00      11.2     -12.6             79            4.3            6.9    86.6
     01/09/11, 13:00      15.1     -10.4             73            4.0            6.4    85.7
     01/09/11, 14:00      17.3      -9.2             66            5.0            8.0   104.3
     01/09/11, 15:00      19.2      -8.1             67            5.4            8.7   120.4
     01/09/11, 16:00      20.4      -7.4             62            5.1            8.2   102.5
     01/09/11, 17:00      20.9      -7.2             62            5.1            8.1    78.8
     01/09/11, 18:00      21.1      -7.1             66            5.7            9.2   68.88
     01/09/11, 19:00      21.1      -7.1             70            5.4            8.7   69.47
     01/09/11, 20:00      21.4      -6.9             70            5.1            8.3    74.5
     01/09/11, 21:00      21.7      -6.7             71            6.6           10.5    70.8
     01/09/11, 22:00      22.0      -6.6             70            7.2           11.6    80.5
     01/09/11, 23:00      22.3      -6.4             69            7.7           12.3    86.4
      01/10/11, 0:00      22.3      -6.4             72            6.5           10.5    82.8
      01/10/11, 1:00      22.4      -6.3             73            7.0           11.2    85.4
      01/10/11, 2:00      22.5      -6.3             74            7.1           11.5    86.5
      01/10/11, 3:00      22.7      -6.2             75            7.1           11.3    87.5
      01/10/11, 4:00      22.8      -6.1             76            6.5           10.5      82
      01/10/11, 5:00      23.1      -6.0             76            6.5           10.5    85.9
      01/10/11, 6:00      23.3      -5.8             76            6.6           10.6    87.6
      01/10/11, 7:00      23.2      -5.9             77            6.0            9.7      70
      01/10/11, 8:00      23.0      -6.0             77            5.1            8.2    73.1
      01/10/11, 9:00      22.9      -6.1             77            5.2            8.4    65.9
     01/10/11, 10:00      22.9      -6.0             78            5.4            8.7   65.52
     01/10/11, 11:00      23.9      -5.5             78            6.8           10.9    71.5
     01/10/11, 12:00      25.1      -4.8             75            7.5           12.1    73.8
     01/10/11, 13:00      26.4      -4.1             73            7.5           12.1   67.65
     01/10/11, 14:00      27.1      -3.7             75            7.7           12.3    72.1
     01/10/11, 15:00      26.3      -4.1             81            8.3           13.3   63.84
     01/10/11, 16:00      26.7      -4.0             86            9.2           14.9    78.6
     01/10/11, 17:00      24.7      -5.0             96            7.3           11.8      74
     01/10/11, 18:00      24.5      -5.2             97            6.6           10.5   64.13
     01/10/11, 19:00      24.4      -5.2             98            5.8            9.3      59
     01/10/11, 20:00      24.4      -5.2             98            6.0            9.6   60.64
     01/10/11, 21:00      24.4      -5.2             98            5.9            9.6   65.73
     01/10/11, 22:00      24.5      -5.2             98            5.4            8.7    65.7
     01/10/11, 23:00      24.4      -5.2             99            4.1            6.7   46.41
      01/11/11, 0:00      24.2      -5.3             99            4.1            6.7   49.27


  

                                                                                             
           Date,Time       Air       Air     % Relative           Wind           Wind    Wind
                        Temp F    Temp C       Humidity      Speed mph     Speed km/h Dir Deg
---------------------------------------------------------------------------------------------
      01/11/11, 1:00      24.5      -5.1             99            4.2            6.7   55.13
      01/11/11, 2:00      24.5      -5.2             99            4.1            6.7   54.27
      01/11/11, 3:00      24.2      -5.3             99            5.1            8.2   51.08
      01/11/11, 4:00      24.1      -5.4             99            6.0            9.6    38.2
      01/11/11, 5:00      24.0      -5.4             99            5.7            9.2   40.46
      01/11/11, 6:00      23.8      -5.6             99            5.3            8.6   35.64
      01/11/11, 7:00      23.5      -5.7             99            4.5            7.3   24.57
      01/11/11, 8:00      23.2      -5.9             98            3.9            6.3   10.96
      01/11/11, 9:00      22.5      -6.3             98            2.4            3.8   348.3
     01/11/11, 10:00      22.5      -6.3             98            2.6            4.2   322.2
     01/11/11, 11:00      24.0      -5.5             98            3.2            5.2     329
     01/11/11, 12:00      24.6      -5.1             98            3.8            6.2     316
     01/11/11, 13:00      25.0      -4.9             99            5.1            8.2   305.9
     01/11/11, 14:00      25.2      -4.8             99            6.2            9.9   304.3
     01/11/11, 15:00      25.3      -4.7             99            6.3           10.2   288.2
     01/11/11, 16:00      22.2      -6.4             98            6.4           10.3   263.2
     01/11/11, 17:00      19.4      -8.0             97            7.0           11.3     265
     01/11/11, 18:00      14.8     -10.6             95            7.3           11.8   258.9
     01/11/11, 19:00      11.4     -12.5             93            7.6           12.2     263
     01/11/11, 20:00       9.5     -13.5             92            7.1           11.5   273.1
     01/11/11, 21:00      10.3     -13.0             92            9.3           15.0     281
     01/11/11, 22:00      10.7     -12.9             92           10.2           16.4   284.9
     01/11/11, 23:00       9.4     -13.6             91            9.1           14.6   283.6
      01/12/11, 0:00       8.2     -14.2             91            8.8           14.2   288.5
      01/12/11, 1:00       7.2     -14.8             91            7.8           12.5   279.2
      01/12/11, 2:00       6.2     -15.3             90            7.7           12.4   270.9
      01/12/11, 3:00       6.1     -15.4             89            7.6           12.3   280.7
      01/12/11, 4:00       6.9     -15.0             89            8.3           13.4   285.4
      01/12/11, 5:00       7.9     -14.4             89            9.4           15.2   277.8
      01/12/11, 6:00       8.7     -13.9             88            9.9           15.9   284.6
      01/12/11, 7:00       9.1     -13.7             88            8.2           13.2   293.6
      01/12/11, 8:00       9.3     -13.6             88            7.9           12.7   284.5
      01/12/11, 9:00      10.4     -13.0             90            7.6           12.2   292.1
     01/12/11, 10:00      12.2     -12.0             90            8.0           12.9   295.5
     01/12/11, 11:00      14.1     -11.0             91            8.3           13.4   293.1
     01/12/11, 12:00      14.6     -10.7             88            8.8           14.1   289.4
     01/12/11, 13:00      15.7     -10.1             86            8.3           13.4   284.2
     01/12/11, 14:00      15.4     -10.2             85            7.7           12.4   279.8
     01/12/11, 15:00      14.3     -10.8             83            8.5           13.7   283.7
     01/12/11, 16:00      14.7     -10.6             83            7.0           11.3   282.7
     01/12/11, 17:00      14.6     -10.7             82            6.4           10.3   277.7
     01/12/11, 18:00      13.1     -11.5             86            6.0            9.7   281.8
     01/12/11, 19:00      11.7     -12.3             88            4.5            7.3   266.2
     01/12/11, 20:00      11.3     -12.5             88            5.0            8.0   259.2
     01/12/11, 21:00      10.5     -13.0             90            4.5            7.2   270.8
     01/12/11, 22:00       9.2     -13.7             91            4.3            7.0   291.1
     01/12/11, 23:00       5.8     -15.5             90            3.5            5.7   280.6
      01/13/11, 0:00       2.9     -17.2             89            2.8            4.6   279.9


  

                                                                                             
           Date,Time       Air       Air     % Relative           Wind           Wind    Wind
                        Temp F    Temp C       Humidity      Speed mph     Speed km/h Dir Deg
---------------------------------------------------------------------------------------------
      01/13/11, 1:00       0.5     -18.5             88            2.5            4.0     253
      01/13/11, 2:00      -0.8     -19.2             87            2.5            4.0   256.5
      01/13/11, 3:00      -1.6     -19.7             87            1.6            2.6   258.4
      01/13/11, 4:00      -2.2     -20.0             88            1.5            2.5   249.1
      01/13/11, 5:00      -1.3     -19.5             89            2.3            3.7   248.7
      01/13/11, 6:00      -0.6     -19.1             88            0.6            0.9   275.9
      01/13/11, 7:00      -1.4     -19.6             88            0.7            1.2   148.8
      01/13/11, 8:00      -1.0     -19.3             88            3.0            4.9   170.6
      01/13/11, 9:00      -0.1     -18.8             88            3.0            4.8     139
     01/13/11, 10:00       1.6     -17.9             89            4.0            6.4   144.1
     01/13/11, 11:00       4.8     -16.1             91            4.3            6.9   166.5
     01/13/11, 12:00       7.4     -14.7             91            4.9            7.9   144.7
     01/13/11, 13:00       9.2     -13.7             92            7.9           12.8   139.9
     01/13/11, 14:00      10.6     -12.9             92           10.1           16.2   144.6
     01/13/11, 15:00      13.2     -11.5             92           11.1           17.9   141.3
     01/13/11, 16:00      16.2      -9.8             86           12.6           20.3   139.2
     01/13/11, 17:00      17.4      -9.1             81           11.2           18.1   148.1
     01/13/11, 18:00      16.3      -9.7             83            5.1            8.1   150.9
     01/13/11, 19:00      13.2     -11.5             85            4.7            7.6   149.2
     01/13/11, 20:00      11.6     -12.3             86            4.4            7.0   153.6
     01/13/11, 21:00      11.7     -12.3             84            4.4            7.1     166
     01/13/11, 22:00      11.1     -12.6             85            4.7            7.5   163.6
     01/13/11, 23:00      10.4     -13.0             86            5.1            8.2   167.2
      01/14/11, 0:00      10.3     -13.1             87            3.7            5.9   170.7
      01/14/11, 1:00       9.7     -13.4             90            1.7            2.7   154.6
      01/14/11, 2:00       9.3     -13.6             91            1.0            1.6   151.7
      01/14/11, 3:00       8.5     -14.0             91            0.6            1.0   170.8
      01/14/11, 4:00       7.7     -14.5             92            0.6            0.9   195.4
      01/14/11, 5:00       6.8     -15.0             93            0.2            0.4   307.6
      01/14/11, 6:00       5.5     -15.7             93            1.0            1.6     322
      01/14/11, 7:00       4.8     -16.1             92            0.7            1.1   302.3
      01/14/11, 8:00       4.6     -16.2             93            1.5            2.5   309.7
      01/14/11, 9:00       5.8     -15.6             92            2.0            3.1   325.4
     01/14/11, 10:00       7.5     -14.6             92            1.3            2.1   328.3
     01/14/11, 11:00      10.0     -13.2             92            1.8            2.9   288.3
     01/14/11, 12:00      11.9     -12.2             91            3.2            5.2     290
     01/14/11, 13:00      13.8     -11.1             86            3.6            5.9   274.8
     01/14/11, 14:00      16.5      -9.6             83            2.9            4.7   341.1
     01/14/11, 15:00      19.3      -8.0             81            2.2            3.6   119.7
     01/14/11, 16:00      19.1      -8.2             85            4.5            7.2   166.4
     01/14/11, 17:00      19.0      -8.2             88            5.5            8.8   152.8
     01/14/11, 18:00      19.0      -8.2             87            6.7           10.7   150.8
     01/14/11, 19:00      19.4      -8.0             87            5.6            9.1   128.3
     01/14/11, 20:00      20.3      -7.5             88            3.9            6.3   187.3
     01/14/11, 21:00      20.8      -7.2             89            1.9            3.1   167.6
     01/14/11, 22:00      21.2      -7.0             90            4.4            7.1   146.5
     01/14/11, 23:00      21.3      -6.9             91            4.9            7.9   174.2
      01/15/11, 0:00      18.9      -8.3             94            2.0            3.2   204.8


  

                                                                                             
           Date,Time       Air       Air     % Relative           Wind           Wind    Wind
                        Temp F    Temp C       Humidity      Speed mph     Speed km/h Dir Deg
---------------------------------------------------------------------------------------------
      01/15/11, 1:00      19.2      -8.1             95            2.4            3.9   217.7
      01/15/11, 2:00      21.4      -6.9             94            4.6            7.4     249
      01/15/11, 3:00      22.5      -6.3             90            9.3           15.0   290.2
      01/15/11, 4:00      21.9      -6.6             88           10.3           16.6   296.8
      01/15/11, 5:00      21.8      -6.6             88            8.9           14.3   297.6
      01/15/11, 6:00      21.2      -7.0             88            9.7           15.7   296.6
      01/15/11, 7:00      18.5      -8.5             85           10.4           16.8   299.1
      01/15/11, 8:00      16.3      -9.7             85            9.5           15.3   302.3
      01/15/11, 9:00      14.3     -10.8             83            9.2           14.7   301.9
     01/15/11, 10:00      13.8     -11.1             83            9.0           14.5     306
     01/15/11, 11:00      14.6     -10.6             82            6.4           10.4   316.2
     01/15/11, 12:00      15.1     -10.4             81            5.9            9.5   305.4
     01/15/11, 13:00      16.2      -9.8             80            6.9           11.1   297.8
     01/15/11, 14:00      16.8      -9.4             79            7.4           12.0   298.7
     01/15/11, 15:00      17.0      -9.3             80            7.9           12.7   296.5
     01/15/11, 16:00      16.9      -9.4             81            7.5           12.0   301.5
     01/15/11, 17:00      17.0      -9.3             82            6.5           10.4   302.5
     01/15/11, 18:00      16.7      -9.5             83            6.0            9.6   303.8
     01/15/11, 19:00      16.0      -9.9             84            6.1            9.9   316.3
     01/15/11, 20:00      13.9     -11.1             83            7.4           11.9   313.3
     01/15/11, 21:00      11.4     -12.4             84            5.0            8.0   316.6
     01/15/11, 22:00       9.2     -13.7             86            3.8            6.0   311.9
     01/15/11, 23:00       8.0     -14.3             87            3.3            5.3   290.2
      01/16/11, 0:00       6.0     -15.4             89            2.3            3.7   276.4
      01/16/11, 1:00       5.1     -15.9             89            3.2            5.2   299.8
      01/16/11, 2:00       3.5     -16.9             89            3.0            4.8   307.2
      01/16/11, 3:00       2.0     -17.7             89            3.3            5.2   316.7
      01/16/11, 4:00       1.5     -18.0             88            2.4            3.8   302.8
      01/16/11, 5:00       0.0     -18.8             88            3.4            5.5   326.9
      01/16/11, 6:00       0.6     -18.4             88            2.9            4.6   331.5
      01/16/11, 7:00       1.8     -17.8             87            3.6            5.9   326.2
      01/16/11, 8:00       3.1     -17.0             87            3.3            5.3   333.3
      01/16/11, 9:00       4.7     -16.1             87            2.7            4.3   355.8
     01/16/11, 10:00       6.4     -15.2             86            1.6            2.6   37.84
     01/16/11, 11:00       9.0     -13.8             84            1.5            2.4   108.1
     01/16/11, 12:00      11.2     -12.6             82            2.2            3.6   115.1
     01/16/11, 13:00      13.1     -11.5             80            2.2            3.5   140.3
     01/16/11, 14:00      13.5     -11.3             81            3.6            5.8   137.2
     01/16/11, 15:00      14.6     -10.7             81            4.0            6.4   134.2
     01/16/11, 16:00      15.4     -10.2             82            5.2            8.3   131.4
     01/16/11, 17:00      15.9      -9.9             83            5.2            8.3   132.1
     01/16/11, 18:00      16.0      -9.9             83            4.9            7.8   126.6
     01/16/11, 19:00      16.2      -9.8             83            4.3            6.9   120.8
     01/16/11, 20:00      16.8      -9.4             83            4.7            7.5   116.2
     01/16/11, 21:00      17.4      -9.1             85            6.9           11.1   120.9
     01/16/11, 22:00      17.6      -9.0             85            8.4           13.6   122.7
     01/16/11, 23:00      18.0      -8.8             85            9.8           15.8   124.6
      01/17/11, 0:00      18.9      -8.3             85            9.7           15.6   130.7


  

                                                                                             
           Date,Time       Air       Air     % Relative           Wind           Wind    Wind
                        Temp F    Temp C       Humidity      Speed mph     Speed km/h Dir Deg
---------------------------------------------------------------------------------------------
      01/17/11, 1:00      19.5      -7.9             85            9.4           15.2   131.9
      01/17/11, 2:00      19.9      -7.7             88            9.3           14.9   137.3
      01/17/11, 3:00      20.1      -7.6             93           10.7           17.3   135.8
      01/17/11, 4:00      20.6      -7.3             93           10.9           17.6   136.3
      01/17/11, 5:00      21.2      -7.0             95           12.1           19.4   138.6
      01/17/11, 6:00      22.9      -6.1             96           13.3           21.5   139.1
      01/17/11, 7:00      24.7      -5.1             97           13.9           22.4   145.2
      01/17/11, 8:00      26.2      -4.2             98           12.7           20.4   147.2
      01/17/11, 9:00      27.9      -3.3             98           11.4           18.3   156.7
     01/17/11, 10:00      29.3      -2.5             96            9.3           15.0   156.4
     01/17/11, 11:00      30.9      -1.6             96            8.3           13.3   154.2
     01/17/11, 12:00      32.5      -0.7             94            8.7           14.0   157.7
     01/17/11, 13:00      34.7       0.5             93            9.2           14.8   169.8
     01/17/11, 14:00      35.1       0.7             94            9.1           14.6   173.6
     01/17/11, 15:00      35.2       0.8             97            8.4           13.5   172.7
     01/17/11, 16:00      35.2       0.8             99            5.7            9.2   172.2
     01/17/11, 17:00      35.1       0.7            100            3.0            4.9   178.9
     01/17/11, 18:00      35.2       0.8            100            1.1            1.7   200.6
     01/17/11, 19:00      34.8       0.6            100            0.0            0.0   252.1
     01/17/11, 20:00      34.7       0.5            100            0.8            1.2   281.4
     01/17/11, 21:00      34.7       0.5            100            3.5            5.6   292.6
     01/17/11, 22:00      34.1       0.2            100            4.5            7.3   307.7
     01/17/11, 23:00      33.1      -0.4            100            6.7           10.8   325.1
      01/18/11, 0:00      31.4      -1.3             93            7.2           11.6   324.7
      01/18/11, 1:00      30.0      -2.1             92            7.3           11.7   315.7
      01/18/11, 2:00      28.3      -3.1             92            9.2           14.9   306.3
      01/18/11, 3:00      26.4      -4.1             92            8.9           14.3   307.3
      01/18/11, 4:00      25.5      -4.6             93            7.8           12.5   308.6
      01/18/11, 5:00      21.8      -6.7             93            9.8           15.8   303.6
      01/18/11, 6:00      19.1      -8.2             90            9.2           14.7   304.7
      01/18/11, 7:00      18.0      -8.8             90            8.4           13.6   306.6
      01/18/11, 8:00      17.9      -8.8             89            7.7           12.4   304.8
      01/18/11, 9:00      17.5      -9.1             91            8.9           14.3   305.4
     01/18/11, 10:00      16.9      -9.4             91            8.4           13.6   307.3
     01/18/11, 11:00      16.6      -9.6             90            8.4           13.5   304.3
     01/18/11, 12:00      16.2      -9.8             88            7.9           12.7   299.3
     01/18/11, 13:00      16.3      -9.7             85            8.0           12.9   302.3
     01/18/11, 14:00      16.3      -9.7             83            7.4           11.9   306.5
     01/18/11, 15:00      16.4      -9.7             82            8.1           13.1   308.7
     01/18/11, 16:00      16.2      -9.8             80            7.7           12.4   300.5
     01/18/11, 17:00      15.1     -10.4             81            7.0           11.3   311.2
     01/18/11, 18:00      13.0     -11.6             83            6.4           10.4   305.7
     01/18/11, 19:00      11.3     -12.5             83            5.5            8.8   304.8
     01/18/11, 20:00       9.9     -13.3             84            6.4           10.3   296.8
     01/18/11, 21:00       9.2     -13.7             84            7.4           11.8   292.1
     01/18/11, 22:00       9.5     -13.5             84            6.0            9.6   307.3
     01/18/11, 23:00      10.0     -13.2             88            6.2           10.0   301.6
      01/19/11, 0:00       9.8     -13.3             90            5.3            8.6   296.4


  

                                                                                             
           Date,Time       Air       Air     % Relative           Wind           Wind    Wind
                        Temp F    Temp C       Humidity      Speed mph     Speed km/h Dir Deg
---------------------------------------------------------------------------------------------
      01/19/11, 1:00       9.2     -13.7             90            6.0            9.6   290.8
      01/19/11, 2:00       8.7     -13.9             88            6.2           10.1   293.6
      01/19/11, 3:00       8.5     -14.0             88            7.3           11.7   287.1
      01/19/11, 4:00       8.0     -14.4             86            6.3           10.2     292
      01/19/11, 5:00       6.9     -14.9             86            5.8            9.3   293.5
      01/19/11, 6:00       6.3     -15.3             85            6.2           10.0   291.1
      01/19/11, 7:00       5.5     -15.7             85            5.6            9.0   292.3
      01/19/11, 8:00       3.5     -16.8             86            4.5            7.2   286.2
      01/19/11, 9:00       1.8     -17.8             87            2.9            4.7   269.1
     01/19/11, 10:00       2.2     -17.6             86            3.5            5.6   272.8
     01/19/11, 11:00       3.7     -16.7             83            5.8            9.3   311.7
     01/19/11, 12:00       5.1     -15.9             79            5.3            8.6   324.7
     01/19/11, 13:00       7.0     -14.9             76            4.9            7.8   310.6
     01/19/11, 14:00       8.9     -13.8             74            4.5            7.3     299
     01/19/11, 15:00       8.1     -14.3             76            4.5            7.3   304.6
     01/19/11, 16:00       8.6     -14.0             75            4.3            6.9   253.3
     01/19/11, 17:00       8.5     -14.0             76            4.2            6.7   267.1
     01/19/11, 18:00       8.1     -14.3             78            5.2            8.4   304.1
     01/19/11, 19:00       7.6     -14.6             81            4.7            7.5   325.4
     01/19/11, 20:00       7.5     -14.6             82            4.1            6.6   335.4
     01/19/11, 21:00       7.9     -14.4             82            4.3            7.0   335.6
     01/19/11, 22:00       8.3     -14.2             82            3.8            6.1   314.4
     01/19/11, 23:00       8.4     -14.1             82            3.6            5.9   300.4
      01/20/11, 0:00       8.6     -14.0             79            3.7            6.0   297.9
      01/20/11, 1:00       8.8     -13.9             80            3.8            6.0   292.4
      01/20/11, 2:00       8.7     -14.0             80            4.4            7.1   291.2
      01/20/11, 3:00       8.4     -14.1             81            3.3            5.2   277.7
      01/20/11, 4:00       8.8     -13.9             80            2.7            4.4   253.6
      01/20/11, 5:00       9.3     -13.6             80            3.3            5.3   239.7
      01/20/11, 6:00       9.8     -13.3             79            3.8            6.1   278.9
      01/20/11, 7:00      10.3     -13.1             81            3.3            5.3   257.8
      01/20/11, 8:00      10.6     -12.9             80            2.6            4.2   233.2
      01/20/11, 9:00      10.5     -13.0             80            3.2            5.1   232.6
     01/20/11, 10:00      10.3     -13.0             80            3.8            6.1     250
     01/20/11, 11:00      12.5     -11.8             76            6.5           10.5     269
     01/20/11, 12:00      14.3     -10.8             71            6.8           11.0   291.9
     01/20/11, 13:00      16.0      -9.9             73            8.7           14.0   296.9
     01/20/11, 14:00      16.8      -9.4             72            9.8           15.7   295.2
     01/20/11, 15:00      17.3      -9.1             73           10.2           16.5   294.3
     01/20/11, 16:00      17.0      -9.4             72           11.0           17.7   292.8
     01/20/11, 17:00      15.0     -10.4             73           11.2           18.0     298
     01/20/11, 18:00      11.2     -12.6             72           10.7           17.2   295.4
     01/20/11, 19:00       6.6     -15.1             71            9.1           14.7   295.8
     01/20/11, 20:00       3.7     -16.7             76            7.0           11.3   301.4
     01/20/11, 21:00       1.7     -17.9             80            6.3           10.1   295.4
     01/20/11, 22:00       0.3     -18.6             79            7.1           11.4   296.2
     01/20/11, 23:00      -1.1     -19.4             76            6.3           10.1   296.7
      01/21/11, 0:00      -2.6     -20.2             77            5.3            8.6   288.1


  

                                                                                             
           Date,Time       Air       Air     % Relative           Wind           Wind    Wind
                        Temp F    Temp C       Humidity      Speed mph     Speed km/h Dir Deg
---------------------------------------------------------------------------------------------
      01/21/11, 1:00      -4.1     -21.1             80            4.4            7.1   283.1
      01/21/11, 2:00      -4.8     -21.4             81            4.4            7.1   286.2
      01/21/11, 3:00      -6.1     -22.1             82            1.8            2.9     313
      01/21/11, 4:00      -6.8     -22.6             83            1.7            2.7   286.6
      01/21/11, 5:00      -7.2     -22.8             81            1.7            2.7   301.1
      01/21/11, 6:00      -7.6     -23.0             82            1.7            2.8   309.5
      01/21/11, 7:00      -7.3     -22.8             81            3.6            5.8   354.1
      01/21/11, 8:00      -7.1     -22.7             77            1.8            2.9   21.56
      01/21/11, 9:00      -6.9     -22.6             77            2.2            3.5      53
     01/21/11, 10:00      -5.4     -21.8             77            2.1            3.4    92.3
     01/21/11, 11:00      -3.8     -20.9             77            4.2            6.7   117.1
     01/21/11, 12:00      -1.7     -19.7             79            5.1            8.2   100.9
     01/21/11, 13:00      -0.2     -18.9             81            5.0            8.1   122.2
     01/21/11, 14:00       1.7     -17.9             83            5.3            8.6   108.9
     01/21/11, 15:00       3.3     -16.9             84            6.4           10.4      98
     01/21/11, 16:00       5.1     -15.9             84            6.7           10.8   109.3
     01/21/11, 17:00       5.8     -15.6             84            6.3           10.1    95.7
     01/21/11, 18:00       6.2     -15.3             85            7.8           12.6   124.5
     01/21/11, 19:00       6.9     -14.9             86            6.2           10.0   126.1
     01/21/11, 20:00       7.6     -14.5             86            6.8           11.0   140.8
     01/21/11, 21:00       8.3     -14.2             88            6.7           10.8   144.4
     01/21/11, 22:00       9.0     -13.8             88            7.1           11.5   151.2
     01/21/11, 23:00       9.4     -13.6             87            6.6           10.7   163.9
      01/22/11, 0:00       9.6     -13.4             88            6.4           10.3   165.2
      01/22/11, 1:00      10.2     -13.1             88            5.0            8.0   177.7
      01/22/11, 2:00      10.9     -12.7             89            4.9            7.9   169.7
      01/22/11, 3:00      11.7     -12.3             89            4.0            6.5   188.8
      01/22/11, 4:00      12.4     -11.9             90            3.6            5.7   193.6
      01/22/11, 5:00      13.1     -11.5             90            3.0            4.8   201.6
      01/22/11, 6:00      14.0     -11.0             90            2.9            4.7   211.1
      01/22/11, 7:00      14.7     -10.6             89            2.8            4.4   236.7
      01/22/11, 8:00      15.2     -10.3             89            2.2            3.6   251.4
      01/22/11, 9:00      15.6     -10.1             92            2.3            3.8   273.8
     01/22/11, 10:00      16.1      -9.8             92            3.2            5.2   272.6
     01/22/11, 11:00      17.2      -9.2             91            3.3            5.3   298.5
     01/22/11, 12:00      18.3      -8.6             87            3.7            6.0   311.9
     01/22/11, 13:00      19.3      -8.1             78            4.1            6.7   305.6
     01/22/11, 14:00      17.9      -8.8             79            5.9            9.5   313.8
     01/22/11, 15:00      16.1      -9.9             77            6.0            9.7   318.9
     01/22/11, 16:00      15.1     -10.4             74            5.5            8.8   327.9
     01/22/11, 17:00      14.1     -11.0             74            7.7           12.3   3.778
     01/22/11, 18:00      12.5     -11.9             76            6.0            9.6   357.7
     01/22/11, 19:00      11.7     -12.3             77            5.3            8.5   4.787
     01/22/11, 20:00      11.2     -12.5             75            6.2           10.0   351.6
     01/22/11, 21:00      10.4     -13.0             77            6.3           10.1   346.5
     01/22/11, 22:00      10.0     -13.2             78            7.0           11.3   351.7
     01/22/11, 23:00       9.7     -13.4             80            7.8           12.5    .483
      01/23/11, 0:00       8.7     -13.9             80           10.4           16.8   15.82


  

                                                                                             
           Date,Time       Air       Air     % Relative           Wind           Wind    Wind
                        Temp F    Temp C       Humidity      Speed mph     Speed km/h Dir Deg
---------------------------------------------------------------------------------------------
      01/23/11, 1:00       7.8     -14.4             78            9.8           15.8   17.01
      01/23/11, 2:00       6.7     -15.1             77            8.6           13.8   15.83
      01/23/11, 3:00       6.0     -15.4             76            7.8           12.5   16.65
      01/23/11, 4:00       5.7     -15.6             75            5.4            8.6   19.23
      01/23/11, 5:00       4.7     -16.2             75            4.3            6.9   16.46
      01/23/11, 6:00       3.6     -16.8             76            5.4            8.7   6.151
      01/23/11, 7:00       2.7     -17.3             75            4.8            7.7    7.13
      01/23/11, 8:00       1.2     -18.1             74            5.5            8.8    8.75
      01/23/11, 9:00       0.2     -18.7             75            7.0           11.2    8.21
     01/23/11, 10:00       1.2     -18.1             75            6.6           10.7   21.56
     01/23/11, 11:00       4.2     -16.5             75            3.8            6.1   19.22
     01/23/11, 12:00       6.2     -15.3             71            4.0            6.4    70.7
     01/23/11, 13:00       8.3     -14.2             70            4.4            7.1    72.7
     01/23/11, 14:00      11.5     -12.4             68            4.0            6.4   69.51
     01/23/11, 15:00      12.2     -12.0             68            3.1            4.9    76.4
     01/23/11, 16:00      13.3     -11.4             69            4.1            6.6   30.26
     01/23/11, 17:00      13.9     -11.0             70            4.5            7.2   57.66
     01/23/11, 18:00      13.9     -11.0             69            2.9            4.6    80.4
     01/23/11, 19:00      12.4     -11.9             74            1.7            2.8   62.66
     01/23/11, 20:00      12.6     -11.8             77            0.8            1.3    93.8
     01/23/11, 21:00      13.6     -11.2             78            3.4            5.5   117.5
     01/23/11, 22:00      14.8     -10.6             78            6.0            9.6     129
     01/23/11, 23:00      15.3     -10.3             81            5.7            9.2   141.5
      01/24/11, 0:00      15.6     -10.1             83            5.8            9.3     154
      01/24/11, 1:00      15.9      -9.9             86            4.8            7.7   164.1
      01/24/11, 2:00      16.2      -9.8             86            6.5           10.5   163.6
      01/24/11, 3:00      16.2      -9.8             86            7.4           11.9   161.5
      01/24/11, 4:00      16.4      -9.7             88            8.2           13.2   165.5
      01/24/11, 5:00      16.4      -9.7             91            8.3           13.3   175.2
      01/24/11, 6:00      16.5      -9.6             94            6.6           10.6   188.5
      01/24/11, 7:00      16.5      -9.6             95            7.4           12.0   189.4
      01/24/11, 8:00      16.7      -9.5             96            7.3           11.7   191.7
      01/24/11, 9:00      17.2      -9.2             96            7.7           12.4   188.7
     01/24/11, 10:00      17.9      -8.8             96            8.4           13.6     188
     01/24/11, 11:00      19.1      -8.2             96            6.7           10.8   198.4
     01/24/11, 12:00      20.2      -7.6             91            6.4           10.2   199.8
     01/24/11, 13:00      21.4      -6.9             89            6.1            9.9   203.6
     01/24/11, 14:00      23.3      -5.8             85            6.4           10.3   198.6
     01/24/11, 15:00      25.5      -4.6             81            6.3           10.1   190.6
     01/24/11, 16:00      27.3      -3.6             78            5.7            9.2   197.7
     01/24/11, 17:00      28.3      -3.0             77            5.5            8.9   193.1
     01/24/11, 18:00      28.1      -3.2             81            3.3            5.4   202.2
     01/24/11, 19:00      25.4      -4.7             88            2.0            3.2   197.3
     01/24/11, 20:00      29.1      -2.6             91            3.5            5.7     269
     01/24/11, 21:00      30.1      -2.0             91            3.3            5.3     253
     01/24/11, 22:00      30.3      -2.0             90            2.1            3.4   228.9
     01/24/11, 23:00      29.4      -2.5             92            1.7            2.7   219.4
      01/25/11, 0:00      29.6      -2.3             92            1.8            2.9   201.9


  

                                                                                             
           Date,Time       Air       Air     % Relative           Wind           Wind    Wind
                        Temp F    Temp C       Humidity      Speed mph     Speed km/h Dir Deg
---------------------------------------------------------------------------------------------
      01/25/11, 1:00      29.8      -2.2             92            2.5            4.1   212.3
      01/25/11, 2:00      30.4      -1.9             92            2.5            4.1     232
      01/25/11, 3:00      30.2      -2.0             93            5.1            8.2   280.8
      01/25/11, 4:00      23.4      -5.8             94            8.7           14.0   305.6
      01/25/11, 5:00      21.5      -6.8             86            6.8           10.9   311.7
      01/25/11, 6:00      20.2      -7.6             83            6.1            9.9   302.6
      01/25/11, 7:00      19.5      -8.0             84            4.6            7.4   304.5
      01/25/11, 8:00      19.1      -8.2             84            3.9            6.3   301.2
      01/25/11, 9:00      18.9      -8.3             84            2.7            4.3   294.4
     01/25/11, 10:00      19.2      -8.1             83            2.6            4.2   299.7
     01/25/11, 11:00      19.8      -7.8             82            2.6            4.3     317
     01/25/11, 12:00      20.8      -7.2             79            2.9            4.6   335.4
     01/25/11, 13:00      22.1      -6.5             77            2.3            3.7   251.6
     01/25/11, 14:00      22.8      -6.1             77            3.2            5.1   267.4
     01/25/11, 15:00      23.5      -5.7             77            1.9            3.1   239.1
     01/25/11, 16:00      23.8      -5.6             80            3.0            4.8   168.8
     01/25/11, 17:00      24.3      -5.3             81            3.1            5.0   187.8
     01/25/11, 18:00      24.3      -5.3             83            2.9            4.7   152.8
     01/25/11, 19:00      24.0      -5.5             85            2.6            4.1   143.3
     01/25/11, 20:00      23.7      -5.6             86            1.7            2.7   139.5
     01/25/11, 21:00      23.7      -5.6             87            1.6            2.5   131.9
     01/25/11, 22:00      23.2      -5.9             88            1.9            3.1   111.6
     01/25/11, 23:00      22.5      -6.3             90            1.5            2.4   100.6
      01/26/11, 0:00      21.3      -7.0             93            1.5            2.5     158
      01/26/11, 1:00      20.3      -7.5             93            2.4            3.9   186.7
      01/26/11, 2:00      19.5      -7.9             94            1.2            1.9   299.2
      01/26/11, 3:00      18.8      -8.3             96            2.4            3.9   331.5
      01/26/11, 4:00      19.0      -8.2             96            2.7            4.4   340.2
      01/26/11, 5:00      19.1      -8.2             96            2.7            4.3   334.9
      01/26/11, 6:00      17.4      -9.1             97            2.9            4.7   335.8
      01/26/11, 7:00      15.4     -10.2             97            2.8            4.4   330.7
      01/26/11, 8:00      16.6      -9.5             96            1.8            2.9   320.7
      01/26/11, 9:00      18.2      -8.7             97            2.7            4.3   311.7
     01/26/11, 10:00      20.4      -7.5             97            3.5            5.7   307.8
     01/26/11, 11:00      21.4      -6.9             98            4.1            6.6   321.1
     01/26/11, 12:00      22.7      -6.2             98            4.5            7.2   316.5
     01/26/11, 13:00      22.9      -6.0             98            5.9            9.5   307.8
     01/26/11, 14:00      21.8      -6.7             98            6.3           10.2   296.1
     01/26/11, 15:00      21.1      -7.1             97            5.4            8.7   296.6
     01/26/11, 16:00      21.2      -7.0             96            5.8            9.4   300.7
     01/26/11, 17:00      21.2      -7.0             92            4.4            7.1   277.7
     01/26/11, 18:00      19.9      -7.7             92            4.9            7.9   295.7
     01/26/11, 19:00      19.1      -8.2             92            4.8            7.7   282.7
     01/26/11, 20:00      18.6      -8.4             93            3.7            6.0   281.3
     01/26/11, 21:00      18.2      -8.7             93            4.1            6.6     284
     01/26/11, 22:00      17.7      -9.0             94            3.4            5.5   268.3
     01/26/11, 23:00      17.9      -8.8             95            2.9            4.6   221.3
      01/27/11, 0:00      18.2      -8.7             95            4.9            7.9   195.2


  

                                                                                             
           Date,Time       Air       Air     % Relative           Wind           Wind    Wind
                        Temp F    Temp C       Humidity      Speed mph     Speed km/h Dir Deg
---------------------------------------------------------------------------------------------
      01/27/11, 1:00      18.6      -8.4             97            7.5           12.1   192.1
      01/27/11, 2:00      19.0      -8.2             97            9.0           14.4   186.6
      01/27/11, 3:00      19.1      -8.2             98            8.9           14.3   182.9
      01/27/11, 4:00      19.3      -8.1             98            8.4           13.5   181.4
      01/27/11, 5:00      19.2      -8.1             98            7.7           12.5   174.5
      01/27/11, 6:00      19.0      -8.2             97            5.5            8.8     166
      01/27/11, 7:00      19.0      -8.2             97            5.4            8.7   155.2
      01/27/11, 8:00      19.3      -8.1             97            7.7           12.4   161.6
      01/27/11, 9:00      19.8      -7.8             97            8.2           13.2   166.5
     01/27/11, 10:00      21.3      -7.0             96            7.6           12.2   176.4
     01/27/11, 11:00      23.5      -5.7             90            4.4            7.1   188.5
     01/27/11, 12:00      26.5      -4.0             86            4.1            6.6   200.5
     01/27/11, 13:00      29.4      -2.4             78            3.7            5.9     233
     01/27/11, 14:00      32.3      -0.8             75            4.7            7.6   268.1
     01/27/11, 15:00      32.9      -0.5             77            5.8            9.3   304.8
     01/27/11, 16:00      33.6      -0.1             78            4.9            7.8   316.7
     01/27/11, 17:00      33.4      -0.2             80            4.3            6.9   304.8
     01/27/11, 18:00      32.7      -0.6             83            4.3            6.9   293.7
     01/27/11, 19:00      31.1      -1.5             89            3.1            5.0   285.9
     01/27/11, 20:00      29.6      -2.3             92            3.0            4.8   276.9
     01/27/11, 21:00      29.6      -2.3             92            2.5            4.0   282.3
     01/27/11, 22:00      30.3      -1.9             91            2.7            4.3     292
     01/27/11, 23:00      29.9      -2.1             92            3.1            4.9   276.6
      01/28/11, 0:00      28.9      -2.7             93            3.1            5.0   280.9
      01/28/11, 1:00      28.1      -3.2             95            3.5            5.7   281.2
      01/28/11, 2:00      25.6      -4.6             97            1.6            2.6     263
      01/28/11, 3:00      25.0      -4.9             98            2.1            3.3   278.3
      01/28/11, 4:00      23.3      -5.8             99            1.4            2.3   282.6
      01/28/11, 5:00      22.4      -6.3             99            2.2            3.6   301.3
      01/28/11, 6:00      22.8      -6.1             99            1.4            2.2   312.5
      01/28/11, 7:00      22.7      -6.2             99            1.5            2.4   20.07
      01/28/11, 8:00      22.0      -6.5             98            2.0            3.2      82
      01/28/11, 9:00      21.2      -7.0             98            2.3            3.7    83.7
     01/28/11, 10:00      22.1      -6.5             98            2.5            4.0   108.9
     01/28/11, 11:00      23.9      -5.5             99            3.8            6.1   134.3
     01/28/11, 12:00      26.1      -4.3            100            6.1            9.8   150.8
     01/28/11, 13:00      28.2      -3.1            100            6.3           10.2   143.6
     01/28/11, 14:00      29.8      -2.2            100            7.9           12.7   144.4
     01/28/11, 15:00      33.0      -0.4             99            9.7           15.6   148.4
     01/28/11, 16:00      35.6       1.0             85            8.6           13.8   143.9
     01/28/11, 17:00      37.2       1.9             82            7.4           12.0   134.9
     01/28/11, 18:00      36.6       1.6             86            6.9           11.0   148.6
     01/28/11, 19:00      34.5       0.4             91            5.9            9.5     163
     01/28/11, 20:00      33.7      -0.0             92            5.3            8.5   174.1
     01/28/11, 21:00      34.0       0.1             90            4.7            7.6   193.3
     01/28/11, 22:00      32.9      -0.5             94            3.4            5.5   200.7
     01/28/11, 23:00      33.2      -0.3             93            3.8            6.1   243.5
      01/29/11, 0:00      34.1       0.2             86            7.0           11.3   279.9


  

                                                                                             
           Date,Time       Air       Air     % Relative           Wind           Wind    Wind
                        Temp F    Temp C       Humidity      Speed mph     Speed km/h Dir Deg
---------------------------------------------------------------------------------------------
      01/29/11, 1:00      33.8       0.0             85            7.5           12.0   284.6
      01/29/11, 2:00      33.3      -0.3             87            7.1           11.4   283.1
      01/29/11, 3:00      32.9      -0.5             87            7.9           12.8   295.1
      01/29/11, 4:00      31.4      -1.4             89            7.5           12.1   285.4
      01/29/11, 5:00      30.4      -1.9             89            8.7           14.0   295.9
      01/29/11, 6:00      28.7      -2.8             92            6.2           10.0   280.8
      01/29/11, 7:00      29.4      -2.5             91            7.0           11.2   285.1
      01/29/11, 8:00      28.1      -3.2             92            4.6            7.5   307.2
      01/29/11, 9:00      25.4      -4.6             95            1.9            3.0   282.4
     01/29/11, 10:00      25.7      -4.5             94            2.7            4.3   245.1
     01/29/11, 11:00      29.4      -2.4             91            3.9            6.2   304.5
     01/29/11, 12:00      31.3      -1.4             87            3.1            5.0   337.4
     01/29/11, 13:00      33.1      -0.4             83            4.4            7.0   331.6
     01/29/11, 14:00      34.0       0.1             81            4.7            7.6   319.6
     01/29/11, 15:00      34.1       0.2             82            4.9            7.9   306.8
     01/29/11, 16:00      34.6       0.4             82            4.5            7.3   313.3
     01/29/11, 17:00      32.7      -0.6             85            4.4            7.2   314.8
     01/29/11, 18:00      31.7      -1.1             84            4.3            6.8   313.8
     01/29/11, 19:00      30.4      -1.9             87            4.2            6.7   314.9
     01/29/11, 20:00      28.7      -2.8             90            5.2            8.3   311.3
     01/29/11, 21:00      27.1      -3.7             92            5.5            8.8   312.9
     01/29/11, 22:00      24.9      -4.9             91            6.5           10.4     310
     01/29/11, 23:00      22.3      -6.4             90            6.8           10.9   305.4
      01/30/11, 0:00      20.0      -7.6             90            7.0           11.2     310
      01/30/11, 1:00      18.5      -8.5             91            6.9           11.1   307.3
      01/30/11, 2:00      16.1      -9.8             88            7.0           11.2   303.3
      01/30/11, 3:00      13.6     -11.2             87            6.2           10.0   309.3
      01/30/11, 4:00      12.6     -11.8             87            6.6           10.6   301.7
      01/30/11, 5:00      13.2     -11.5             87            5.1            8.3   301.8
      01/30/11, 6:00      13.9     -11.0             87            6.0            9.6   309.8
      01/30/11, 7:00      14.5     -10.7             87            5.4            8.7   323.3
      01/30/11, 8:00      15.1     -10.4             87            4.5            7.3   318.6
      01/30/11, 9:00      15.6     -10.1             87            4.6            7.3     305
     01/30/11, 10:00      16.2      -9.8             87            4.8            7.7   312.4
     01/30/11, 11:00      17.3      -9.2             87            5.8            9.4   322.7
     01/30/11, 12:00      18.9      -8.3             86            5.5            8.9   328.9
     01/30/11, 13:00      20.5      -7.4             87            5.9            9.5   338.7
     01/30/11, 14:00      21.8      -6.6             88            5.8            9.4   344.4
     01/30/11, 15:00      23.6      -5.7             88            5.3            8.5   355.9
     01/30/11, 16:00      25.0      -4.9             87            5.9            9.5   6.497
     01/30/11, 17:00      26.3      -4.2             87            4.0            6.4   352.9
     01/30/11, 18:00      26.9      -3.8             89            4.0            6.5   353.2
     01/30/11, 19:00      28.3      -3.0             89            5.5            8.9   43.23
     01/30/11, 20:00      28.1      -3.2             86            6.2           10.0   61.42
     01/30/11, 21:00      27.2      -3.7             85            7.7           12.4   65.13
     01/30/11, 22:00      26.6      -4.0             83            7.4           11.8   67.46
     01/30/11, 23:00      26.2      -4.2             77            6.9           11.1      75
      01/31/11, 0:00      25.9      -4.4             81            6.2           10.0    70.4


  

                                                                                             
           Date,Time       Air       Air     % Relative           Wind           Wind    Wind
                        Temp F    Temp C       Humidity      Speed mph     Speed km/h Dir Deg
---------------------------------------------------------------------------------------------
      01/31/11, 1:00      26.1      -4.3             82            5.4            8.7   67.24
      01/31/11, 2:00      25.8      -4.5             82            6.0            9.6   67.51
      01/31/11, 3:00      26.0      -4.4             82            6.0            9.7    71.8
      01/31/11, 4:00      25.9      -4.4             85            7.1           11.4    70.2
      01/31/11, 5:00      25.9      -4.4             86            7.0           11.2   69.88
      01/31/11, 6:00      25.7      -4.5             88            7.7           12.4      76
      01/31/11, 7:00      25.4      -4.7             88            7.5           12.0    81.8
      01/31/11, 8:00      24.8      -5.0             87            8.1           13.1    80.2
      01/31/11, 9:00      24.5      -5.1             86            8.1           13.1    79.5
     01/31/11, 10:00      24.8      -5.0             85            9.6           15.4    70.1
     01/31/11, 11:00      24.8      -5.0             86            8.9           14.4    76.4
     01/31/11, 12:00      24.9      -5.0             87            8.2           13.2    79.4
     01/31/11, 13:00      24.8      -5.0             89            8.3           13.4    72.6
     01/31/11, 14:00      24.5      -5.2             89            8.3           13.4    60.6
     01/31/11, 15:00      23.9      -5.5             82            9.2           14.7   53.38
     01/31/11, 16:00      22.7      -6.2             91            9.5           15.3   33.05
     01/31/11, 17:00      21.8      -6.7             93            9.2           14.8   32.24
     01/31/11, 18:00      21.7      -6.7             92            7.8           12.5   28.77
     01/31/11, 19:00      21.9      -6.6             93            6.4           10.3   26.18
     01/31/11, 20:00      22.2      -6.4             94            7.7           12.4   26.81
     01/31/11, 21:00      21.5      -6.8             93            8.3           13.4   25.33
     01/31/11, 22:00      20.8      -7.2             93            8.7           14.0   15.05
     01/31/11, 23:00      20.3      -7.5             93           10.4           16.7   10.91
      02/01/11, 0:00      19.9      -7.7             91           10.4           16.7   11.27
      02/01/11, 1:00      19.2      -8.1             92            9.8           15.8   11.41
      02/01/11, 2:00      18.5      -8.5             93            8.9           14.4   5.266
      02/01/11, 3:00      18.2      -8.7             91            8.8           14.2   3.604
      02/01/11, 4:00      18.1      -8.7             91           10.5           16.9   5.692
      02/01/11, 5:00      17.6      -9.0             91           11.4           18.3     8.8
      02/01/11, 6:00      17.2      -9.2             89           11.9           19.2   11.53
      02/01/11, 7:00      17.0      -9.3             87           11.4           18.3    7.88
      02/01/11, 8:00      16.6      -9.5             87           13.9           22.4    9.46
      02/01/11, 9:00      16.2      -9.8             85           14.2           22.8   11.16
     02/01/11, 10:00      16.1      -9.9             84           15.0           24.1   6.952
     02/01/11, 11:00      16.3      -9.7             84           16.3           26.2    6.39
     02/01/11, 12:00      16.3      -9.7             84           17.6           28.3    7.66
     02/01/11, 13:00      16.2      -9.8             86           16.4           26.4    8.03
     02/01/11, 14:00      16.5      -9.6             88           15.9           25.5   5.402
     02/01/11, 15:00      16.6      -9.6             90           15.2           24.5   1.986
     02/01/11, 16:00      16.0      -9.9             91           14.8           23.9   356.1
     02/01/11, 17:00      15.5     -10.2             92           13.5           21.7     352
     02/01/11, 18:00      15.6     -10.1             93           14.1           22.7     348
     02/01/11, 19:00      15.7     -10.1             94           13.4           21.6   335.9
     02/01/11, 20:00      15.7     -10.1             94           15.0           24.2   339.8
     02/01/11, 21:00      15.6     -10.1             94           15.7           25.3   337.1
     02/01/11, 22:00      14.7     -10.6             94           15.0           24.1   339.3
     02/01/11, 23:00      13.6     -11.2             93           15.6           25.0   332.2
      02/02/11, 0:00      13.1     -11.5             93           15.4           24.8   328.4


  

                                                                                             
           Date,Time       Air       Air     % Relative           Wind           Wind    Wind
                        Temp F    Temp C       Humidity      Speed mph     Speed km/h Dir Deg
---------------------------------------------------------------------------------------------
      02/02/11, 1:00      12.8     -11.7             93           15.4           24.8   322.8
      02/02/11, 2:00      12.6     -11.8             92           15.0           24.1   324.2
      02/02/11, 3:00      12.1     -12.0             92           13.5           21.8   324.2
      02/02/11, 4:00      11.9     -12.2             91           12.8           20.7   320.9
      02/02/11, 5:00      11.9     -12.2             91           12.6           20.3   318.2
      02/02/11, 6:00      10.8     -12.8             90           11.1           17.8   309.3
      02/02/11, 7:00       8.6     -14.0             89           10.5           16.9   305.4
      02/02/11, 8:00       7.4     -14.7             86           10.3           16.7   312.4
      02/02/11, 9:00       6.4     -15.2             84            8.8           14.2   311.1
     02/02/11, 10:00       5.5     -15.7             82            8.3           13.4   304.6
     02/02/11, 11:00       4.8     -16.1             81            9.7           15.6   302.7
     02/02/11, 12:00       4.2     -16.4             77           10.3           16.5   301.1
     02/02/11, 13:00       4.6     -16.2             71           11.5           18.6   303.3
     02/02/11, 14:00       6.2     -15.3             68            9.4           15.2   302.4
     02/02/11, 15:00       7.3     -14.7             67            9.3           15.0   302.4
     02/02/11, 16:00       8.5     -14.1             64            9.2           14.8   294.6
     02/02/11, 17:00       8.0     -14.4             66            8.1           13.1   298.7
     02/02/11, 18:00       7.9     -14.4             66            6.8           10.9     305
     02/02/11, 19:00       6.8     -15.0             70            6.7           10.7   296.4
     02/02/11, 20:00       5.7     -15.6             70            7.4           11.9   294.8
     02/02/11, 21:00       4.8     -16.1             68            6.9           11.1   288.6
     02/02/11, 22:00       3.4     -16.9             70            5.7            9.2   275.7
     02/02/11, 23:00       1.7     -17.8             73            4.6            7.4   272.8
      02/03/11, 0:00       0.1     -18.7             77            3.1            4.9   256.3
      02/03/11, 1:00      -0.9     -19.3             76            3.8            6.1   270.8
      02/03/11, 2:00      -2.7     -20.3             77            1.8            2.9   236.8
      02/03/11, 3:00      -4.3     -21.2             79            2.0            3.3   216.5
      02/03/11, 4:00      -5.1     -21.6             80            2.0            3.2   196.7
      02/03/11, 5:00      -5.2     -21.6             80            2.6            4.1   197.4
      02/03/11, 6:00      -5.1     -21.6             79            2.5            4.1   188.4
      02/03/11, 7:00      -5.9     -22.1             78            3.9            6.3   183.8
      02/03/11, 8:00      -5.7     -22.0             78            5.7            9.2   185.6
      02/03/11, 9:00      -4.6     -21.3             77            4.8            7.7   193.5
     02/03/11, 10:00      -1.0     -19.3             75            6.5           10.5   183.5
     02/03/11, 11:00       3.7     -16.7             71            7.4           11.9   181.6
     02/03/11, 12:00      10.0     -13.2             65            8.2           13.2   183.4
     02/03/11, 13:00      14.6     -10.7             61            9.5           15.2   182.9
     02/03/11, 14:00      17.2      -9.2             59           12.0           19.4   182.3
     02/03/11, 15:00      19.9      -7.7             54           11.7           18.9   190.8
     02/03/11, 16:00      21.4      -6.9             52           10.7           17.2   188.9
     02/03/11, 17:00      20.9      -7.2             53           12.0           19.2   185.1
     02/03/11, 18:00      20.1      -7.6             54           12.1           19.5   181.9
     02/03/11, 19:00      18.5      -8.5             55           10.5           16.9   183.8
     02/03/11, 20:00      16.9      -9.4             57           10.7           17.3   185.2
     02/03/11, 21:00      15.4     -10.2             59           11.8           19.1     182
     02/03/11, 22:00      14.3     -10.8             61            9.7           15.6   188.2
     02/03/11, 23:00      14.0     -11.0             62            8.0           12.8   188.9
      02/04/11, 0:00      13.1     -11.5             64            5.7            9.2   189.3


  

                                                                                             
           Date,Time       Air       Air     % Relative           Wind           Wind    Wind
                        Temp F    Temp C       Humidity      Speed mph     Speed km/h Dir Deg
---------------------------------------------------------------------------------------------
      02/04/11, 1:00      11.9     -12.2             68            8.2           13.3   182.9
      02/04/11, 2:00      11.8     -12.2             68            9.2           14.7   186.9
      02/04/11, 3:00      11.6     -12.3             70            8.0           12.9   187.9
      02/04/11, 4:00      11.0     -12.6             71            6.1            9.8   191.4
      02/04/11, 5:00       9.6     -13.5             74            5.3            8.6     189
      02/04/11, 6:00       8.8     -13.9             75            3.3            5.3   191.5
      02/04/11, 7:00       8.0     -14.4             76            3.6            5.8   177.8
      02/04/11, 8:00       8.6     -14.0             77            9.5           15.3   172.4
      02/04/11, 9:00       9.4     -13.5             75            9.1           14.7   180.7
     02/04/11, 10:00      11.6     -12.3             73            8.7           13.9   180.8
     02/04/11, 11:00      15.0     -10.4             68            7.7           12.4   188.1
     02/04/11, 12:00      17.8      -8.9             67            8.8           14.2   177.2
     02/04/11, 13:00      21.9      -6.6             64           10.1           16.2   173.3
     02/04/11, 14:00      26.2      -4.2             60            9.8           15.7   180.1
     02/04/11, 15:00      29.1      -2.6             57            9.4           15.2   184.2
     02/04/11, 16:00      30.5      -1.8             54            9.7           15.7   183.7
     02/04/11, 17:00      32.1      -0.9             54            8.6           13.8   188.3
     02/04/11, 18:00      30.7      -1.7             58            9.5           15.3   180.6
     02/04/11, 19:00      28.0      -3.2             61            8.7           14.0   178.2
     02/04/11, 20:00      26.1      -4.3             65            6.6           10.7   175.6
     02/04/11, 21:00      24.0      -5.5             67            6.7           10.8   173.3
     02/04/11, 22:00      22.2      -6.5             69            4.0            6.5   171.3
     02/04/11, 23:00      20.9      -7.2             75            4.1            6.7     171
      02/05/11, 0:00      18.6      -8.4             76            4.0            6.5   166.8
      02/05/11, 1:00      16.9      -9.4             77            4.6            7.4   165.6
      02/05/11, 2:00      17.0      -9.4             76            5.3            8.5   169.1
      02/05/11, 3:00      17.9      -8.8             75            4.1            6.7   175.2
      02/05/11, 4:00      18.6      -8.4             75            2.8            4.6   156.6
      02/05/11, 5:00      18.9      -8.3             77            2.0            3.2   148.6
      02/05/11, 6:00      18.6      -8.4             80            3.4            5.4   151.2
      02/05/11, 7:00      18.5      -8.5             80            3.2            5.2   157.6
      02/05/11, 8:00      18.9      -8.3             81            3.1            5.0   170.4
      02/05/11, 9:00      19.7      -7.8             81            3.2            5.2     180
     02/05/11, 10:00      20.0      -7.6             82            3.6            5.8     180
     02/05/11, 11:00      22.3      -6.4             80            3.7            6.0   192.3
     02/05/11, 12:00      24.5      -5.2             76            2.0            3.2   199.7
     02/05/11, 13:00      27.5      -3.5             71            3.0            4.9   165.2
     02/05/11, 14:00      27.7      -3.4             74            4.5            7.2     178
     02/05/11, 15:00      29.0      -2.7             72            5.4            8.8   172.1
     02/05/11, 16:00      30.5      -1.8             71            4.2            6.8   165.4
     02/05/11, 17:00      30.4      -1.9             74            3.6            5.8   170.2
     02/05/11, 18:00      30.5      -1.8             74            3.0            4.9     131
     02/05/11, 19:00      29.0      -2.6             78            1.7            2.8    97.8
     02/05/11, 20:00      28.6      -2.9             79            2.0            3.2    92.3
     02/05/11, 21:00      28.9      -2.7             79            2.6            4.2   119.8
     02/05/11, 22:00      29.0      -2.6             80            3.3            5.3     114
     02/05/11, 23:00      28.8      -2.8             82            2.7            4.4   123.2
      02/06/11, 0:00      28.6      -2.9             82            1.6            2.6   105.5


  

                                                                                             
           Date,Time       Air       Air     % Relative           Wind           Wind    Wind
                        Temp F    Temp C       Humidity      Speed mph     Speed km/h Dir Deg
---------------------------------------------------------------------------------------------
      02/06/11, 1:00      28.1      -3.2             91            0.7            1.1    96.8
      02/06/11, 2:00      27.2      -3.6             96            0.6            0.9   108.2
      02/06/11, 3:00      26.9      -3.9             98            1.4            2.3   17.93
      02/06/11, 4:00      26.7      -3.9             99            2.4            3.9   357.3
      02/06/11, 5:00      25.9      -4.4             99            3.7            6.0   3.873
      02/06/11, 6:00      24.2      -5.4             98            3.7            6.0   352.9
      02/06/11, 7:00      24.2      -5.3             97            3.1            5.0   348.9
      02/06/11, 8:00      23.6      -5.7             96            3.2            5.2   349.1
      02/06/11, 9:00      21.6      -6.8             97            2.4            3.9   332.6
     02/06/11, 10:00      23.2      -5.9             97            3.6            5.8   309.2
     02/06/11, 11:00      25.3      -4.7             94            4.4            7.1   316.5
     02/06/11, 12:00      26.1      -4.3             90            6.8           11.0   302.4
     02/06/11, 13:00      28.5      -3.0             87            6.1            9.8   319.7
     02/06/11, 14:00      30.8      -1.7             85            6.0            9.7   330.5
     02/06/11, 15:00      31.9      -1.1             83            5.7            9.2   322.9
     02/06/11, 16:00      32.6      -0.7             85            5.6            9.0   320.6
     02/06/11, 17:00      32.2      -0.9             87            7.1           11.4   321.5
     02/06/11, 18:00      31.9      -1.1             89            7.2           11.6   328.9
     02/06/11, 19:00      30.8      -1.7             89            6.6           10.6   331.8
     02/06/11, 20:00      30.4      -1.9             82            8.5           13.7   334.6
     02/06/11, 21:00      29.5      -2.4             77            7.8           12.5   339.1
     02/06/11, 22:00      29.1      -2.6             78            6.4           10.3   325.2
     02/06/11, 23:00      28.8      -2.8             81            6.2           10.0   324.6
      02/07/11, 0:00      28.2      -3.1             80            6.5           10.4   325.9
      02/07/11, 1:00      27.7      -3.4             81            4.1            6.6   306.7
      02/07/11, 2:00      27.4      -3.6             82            6.8           11.0   298.4
      02/07/11, 3:00      26.2      -4.2             85            8.2           13.2   303.6
      02/07/11, 4:00      25.3      -4.7             83            5.9            9.5   304.6
      02/07/11, 5:00      24.8      -5.0             90            6.6           10.6   299.6
      02/07/11, 6:00      21.9      -6.6             90            7.8           12.6   297.4
      02/07/11, 7:00      20.2      -7.6             94            6.3           10.2   299.1
      02/07/11, 8:00      18.5      -8.5             92            6.9           11.1   297.4
      02/07/11, 9:00      16.5      -9.6             88            7.3           11.7   293.7
     02/07/11, 10:00      15.0     -10.4             84            6.9           11.1   294.4
     02/07/11, 11:00      14.7     -10.6             82            8.0           12.9   289.3
     02/07/11, 12:00      14.8     -10.5             81            8.3           13.3   289.3
     02/07/11, 13:00      15.3     -10.3             80            9.2           14.8   288.5
     02/07/11, 14:00      15.2     -10.3             79            9.4           15.1   289.2
     02/07/11, 15:00      14.2     -10.9             79            9.2           14.7   295.6
     02/07/11, 16:00      13.3     -11.4             80            8.5           13.6   295.5
     02/07/11, 17:00      12.8     -11.7             80            9.1           14.7   288.9
     02/07/11, 18:00      12.1     -12.1             79            7.7           12.4   299.1
     02/07/11, 19:00       9.5     -13.5             79            7.5           12.0   298.6
     02/07/11, 20:00       7.2     -14.8             80            7.4           11.9   294.1
     02/07/11, 21:00       5.2     -15.9             80            6.4           10.3   297.9
     02/07/11, 22:00       2.9     -17.1             82            5.5            8.9     309
     02/07/11, 23:00       0.6     -18.4             80            7.4           11.9   299.1
      02/08/11, 0:00      -1.3     -19.5             77            8.5           13.7   296.3


  

                                                                                             
           Date,Time       Air       Air     % Relative           Wind           Wind    Wind
                        Temp F    Temp C       Humidity      Speed mph     Speed km/h Dir Deg
---------------------------------------------------------------------------------------------
      02/08/11, 1:00      -3.0     -20.4             77            7.8           12.6   302.7
      02/08/11, 2:00      -4.3     -21.1             77            7.7           12.4   303.8
      02/08/11, 3:00      -5.3     -21.7             77            7.3           11.8   295.1
      02/08/11, 4:00      -5.9     -22.0             76            7.6           12.2     293
      02/08/11, 5:00      -6.3     -22.3             76            8.3           13.4   298.6
      02/08/11, 6:00      -6.3     -22.3             75            7.8           12.5   300.9
      02/08/11, 7:00      -6.1     -22.1             74            6.9           11.2   300.5
      02/08/11, 8:00      -7.1     -22.7             75            5.6            9.1   300.6
      02/08/11, 9:00      -7.3     -22.8             75            5.5            8.9   283.9
     02/08/11, 10:00      -6.2     -22.2             73            5.4            8.7     268
     02/08/11, 11:00      -4.3     -21.1             71            6.3           10.1   296.7
     02/08/11, 12:00      -2.3     -20.1             67            5.7            9.1   302.8
     02/08/11, 13:00      -0.5     -19.1             66            7.0           11.2   297.5
     02/08/11, 14:00       1.3     -18.1             64            6.6           10.6   291.6
     02/08/11, 15:00       1.9     -17.7             65            7.5           12.1   304.8
     02/08/11, 16:00       2.9     -17.1             64            6.5           10.4   296.7
     02/08/11, 17:00       3.1     -17.0             65            4.5            7.3   301.2
     02/08/11, 18:00       2.8     -17.2             68            4.5            7.3   308.7
     02/08/11, 19:00       2.2     -17.6             71            4.7            7.5   274.7
     02/08/11, 20:00       2.1     -17.6             71            5.1            8.2   278.8
     02/08/11, 21:00       2.1     -17.6             74            4.7            7.6   277.5
     02/08/11, 22:00       1.9     -17.7             75            5.1            8.2   266.3
     02/08/11, 23:00       2.0     -17.7             75            5.0            8.1   264.7
      02/09/11, 0:00       2.2     -17.6             74            5.4            8.6   259.5
      02/09/11, 1:00       2.1     -17.6             73            4.2            6.8   261.3
      02/09/11, 2:00       2.0     -17.6             74            4.2            6.7   250.3
      02/09/11, 3:00       2.1     -17.6             75            3.8            6.1   251.3
      02/09/11, 4:00       2.2     -17.6             75            4.0            6.5   248.2
      02/09/11, 5:00       2.4     -17.4             75            3.7            5.9     239
      02/09/11, 6:00       2.7     -17.3             74            4.5            7.2   258.5
      02/09/11, 7:00       2.7     -17.3             73            6.2            9.9   279.5
      02/09/11, 8:00       2.1     -17.6             74            2.7            4.4   253.8
      02/09/11, 9:00       1.7     -17.9             74            2.5            4.1   235.5
     02/09/11, 10:00       1.8     -17.8             73            5.5            8.8   273.9
     02/09/11, 11:00       3.2     -17.0             71            6.4           10.3   277.2
     02/09/11, 12:00       5.2     -15.9             65            6.8           11.0   286.5
     02/09/11, 13:00       6.5     -15.2             63            7.0           11.3   298.5
     02/09/11, 14:00       8.3     -14.1             62            6.8           11.0   294.3
     02/09/11, 15:00       9.8     -13.3             63            7.0           11.3   282.8
     02/09/11, 16:00      11.0     -12.7             63            7.5           12.1     278
     02/09/11, 17:00      11.5     -12.4             62            6.1            9.7   276.5
     02/09/11, 18:00      11.2     -12.6             62            5.2            8.4   275.6
     02/09/11, 19:00       8.5     -14.1             70            2.6            4.1   274.2
     02/09/11, 20:00       5.6     -15.7             74            1.8            2.8   273.3
     02/09/11, 21:00       3.7     -16.7             77            1.5            2.4   253.7
     02/09/11, 22:00       2.5     -17.4             77            2.3            3.8   249.2
     02/09/11, 23:00       1.3     -18.0             78            1.6            2.6   221.3
      02/10/11, 0:00      -0.1     -18.8             81            1.5            2.5   222.8


  

                                                                                             
           Date,Time       Air       Air     % Relative           Wind           Wind    Wind
                        Temp F    Temp C       Humidity      Speed mph     Speed km/h Dir Deg
---------------------------------------------------------------------------------------------
      02/10/11, 1:00      -0.3     -19.0             80            1.7            2.7   215.2
      02/10/11, 2:00      -1.0     -19.3             81            2.3            3.7   191.5
      02/10/11, 3:00      -2.6     -20.2             84            1.9            3.1   195.5
      02/10/11, 4:00      -3.0     -20.5             85            1.9            3.1   172.9
      02/10/11, 5:00      -3.9     -20.9             84            3.2            5.2   168.1
      02/10/11, 6:00      -6.0     -22.1             85            3.7            5.9   148.4
      02/10/11, 7:00      -5.8     -22.0             85            5.9            9.5   148.6
      02/10/11, 8:00      -5.2     -21.6             84            7.3           11.7   148.5
      02/10/11, 9:00      -3.0     -20.4             83            7.1           11.4   147.5
     02/10/11, 10:00       0.2     -18.7             82            7.0           11.3   162.4
     02/10/11, 11:00       5.7     -15.6             77            7.9           12.7   181.4
     02/10/11, 12:00      12.2     -12.0             67            7.4           12.0   200.7
     02/10/11, 13:00      15.7     -10.0             64            6.5           10.5   203.8
     02/10/11, 14:00      19.6      -7.9             62            7.2           11.6   212.4
     02/10/11, 15:00      22.5      -6.3             59            7.5           12.0   214.3
     02/10/11, 16:00      24.2      -5.3             60            6.7           10.7   213.9
     02/10/11, 17:00      24.9      -4.9             59            6.2            9.9   227.3
     02/10/11, 18:00      23.8      -5.6             61            5.5            8.9   249.6
     02/10/11, 19:00      21.2      -7.0             66            3.9            6.3   255.3
     02/10/11, 20:00      18.6      -8.5             72            1.7            2.7   232.8
     02/10/11, 21:00      16.3      -9.7             76            2.0            3.2   204.9
     02/10/11, 22:00      14.8     -10.6             80            2.4            3.9   201.8
     02/10/11, 23:00      15.8     -10.0             78            4.3            6.8   196.6
      02/11/11, 0:00      13.8     -11.1             84            2.6            4.2   157.1
      02/11/11, 1:00      13.6     -11.2             83            2.6            4.1   156.3
      02/11/11, 2:00      16.8      -9.4             80            2.8            4.5   188.2
      02/11/11, 3:00      15.6     -10.1             81            3.3            5.3     184
      02/11/11, 4:00      16.0      -9.9             82            2.1            3.4   168.7
      02/11/11, 5:00      17.5      -9.1             82            2.5            4.0   166.8
      02/11/11, 6:00      19.0      -8.2             83            3.1            5.0   175.7
      02/11/11, 7:00      20.3      -7.5             83            3.8            6.2     189
      02/11/11, 8:00      21.6      -6.8             82            3.4            5.4   190.4
      02/11/11, 9:00      22.4      -6.3             82            3.8            6.2   188.9
     02/11/11, 10:00      23.3      -5.8             81            4.3            6.9   205.5
     02/11/11, 11:00      25.1      -4.8             79            5.4            8.6   206.5
     02/11/11, 12:00      27.1      -3.7             77            6.4           10.3   202.8
     02/11/11, 13:00      29.1      -2.6             77            5.1            8.1     204
     02/11/11, 14:00      31.7      -1.2             75            8.0           12.9   190.5
     02/11/11, 15:00      34.1       0.1             75            7.7           12.4   197.1
     02/11/11, 16:00      35.7       1.0             75            6.6           10.7   202.2
     02/11/11, 17:00      36.2       1.4             80            5.8            9.4   210.5
     02/11/11, 18:00      35.4       0.9             86            4.4            7.0   228.5
     02/11/11, 19:00      35.5       0.9             85            4.6            7.4   214.1
     02/11/11, 20:00      36.8       1.6             83            6.5           10.5   248.2
     02/11/11, 21:00      36.1       1.3             87            6.3           10.1   257.3
     02/11/11, 22:00      35.0       0.7             89            5.0            8.1   261.9
     02/11/11, 23:00      33.7      -0.1             90            5.1            8.2   264.7
      02/12/11, 0:00      32.9      -0.5             91            4.7            7.6   256.4


  

                                                                                             
           Date,Time       Air       Air     % Relative           Wind           Wind    Wind
                        Temp F    Temp C       Humidity      Speed mph     Speed km/h Dir Deg
---------------------------------------------------------------------------------------------
      02/12/11, 1:00      32.2      -0.9             91            5.1            8.2   247.8
      02/12/11, 2:00      31.3      -1.4             92            4.4            7.1   251.3
      02/12/11, 3:00      30.8      -1.7             93            4.3            6.9   250.9
      02/12/11, 4:00      29.7      -2.3             93            4.1            6.6   249.5
      02/12/11, 5:00      27.7      -3.4             96            2.9            4.7     229
      02/12/11, 6:00      27.1      -3.7             96            2.1            3.3     242
      02/12/11, 7:00      25.8      -4.4             97            2.1            3.3   206.7
      02/12/11, 8:00      24.6      -5.1             98            3.6            5.8   192.1
      02/12/11, 9:00      24.2      -5.3             99            4.0            6.5   179.3
     02/12/11, 10:00      26.5      -4.1             98            5.1            8.2   169.9
     02/12/11, 11:00      29.6      -2.3             94            6.9           11.2   155.9
     02/12/11, 12:00      33.8       0.0             85            9.0           14.5     159
     02/12/11, 13:00      37.5       2.0             81            9.8           15.8   166.7
     02/12/11, 14:00      40.3       3.6             74           11.2           18.0   178.4
     02/12/11, 15:00      41.8       4.5             69           10.9           17.6   181.4
     02/12/11, 16:00      43.1       5.2             66            8.3           13.3   196.7
     02/12/11, 17:00      42.5       4.8             63            5.7            9.2   205.6
     02/12/11, 18:00      42.1       4.6             65            6.1            9.8   197.4
     02/12/11, 19:00      40.3       3.6             72            4.9            8.0   207.3
     02/12/11, 20:00      38.9       2.8             73            3.9            6.3   199.6
     02/12/11, 21:00      37.5       2.0             78            5.2            8.4   194.7
     02/12/11, 22:00      36.4       1.4             81            4.9            7.8   195.9
     02/12/11, 23:00      36.4       1.4             81            4.8            7.8   196.6
      02/13/11, 0:00      36.0       1.2             83            3.6            5.8   203.7
      02/13/11, 1:00      35.6       1.0             84            3.1            5.0   193.5
      02/13/11, 2:00      35.8       1.1             83            5.4            8.7     196
      02/13/11, 3:00      36.0       1.2             84            3.0            4.8   200.3
      02/13/11, 4:00      35.7       1.1             86            3.6            5.8   198.4
      02/13/11, 5:00      36.4       1.4             84            5.9            9.5   192.8
      02/13/11, 6:00      35.9       1.2             85            6.1            9.8   185.2
      02/13/11, 7:00      35.8       1.1             85            5.1            8.2   190.2
      02/13/11, 8:00      34.8       0.6             87            4.3            6.9     179
      02/13/11, 9:00      34.4       0.3             86            3.8            6.1     173
     02/13/11, 10:00      35.8       1.1             85            5.8            9.3   178.1
     02/13/11, 11:00      38.3       2.5             82            7.3           11.7   176.7
     02/13/11, 12:00      41.3       4.2             78            8.7           14.1   179.9
     02/13/11, 13:00      43.4       5.3             72            8.2           13.3   183.7
     02/13/11, 14:00      45.5       6.5             70           10.2           16.4   179.8
     02/13/11, 15:00      48.6       8.2             61           10.5           16.9   186.4
     02/13/11, 16:00      49.9       8.9             58           10.9           17.5   184.8
     02/13/11, 17:00      51.0       9.6             57            7.6           12.3   188.7
     02/13/11, 18:00      50.8       9.4             55            6.8           10.9   208.1
     02/13/11, 19:00      49.4       8.7             57            6.5           10.5   243.2
     02/13/11, 20:00      46.8       7.3             63            7.9           12.8   265.3
     02/13/11, 21:00      43.9       5.6             68            5.6            9.1   249.6
     02/13/11, 22:00      42.8       5.0             69            6.7           10.7   268.1
     02/13/11, 23:00      42.8       5.0             69            7.1           11.5     258
      02/14/11, 0:00      42.5       4.8             69            7.8           12.6   259.1


  

                                                                                             
           Date,Time       Air       Air     % Relative           Wind           Wind    Wind
                        Temp F    Temp C       Humidity      Speed mph     Speed km/h Dir Deg
---------------------------------------------------------------------------------------------
      02/14/11, 1:00      40.9       4.0             75            8.0           12.8   264.4
      02/14/11, 2:00      40.7       3.8             75           12.2           19.7   282.3
      02/14/11, 3:00      40.4       3.7             77           14.6           23.4   282.2
      02/14/11, 4:00      40.6       3.8             77           14.7           23.7     284
      02/14/11, 5:00      40.5       3.7             77           14.2           22.9   284.8
      02/14/11, 6:00      40.3       3.6             77           13.5           21.7   288.6
      02/14/11, 7:00      39.7       3.3             79           12.1           19.5   296.9
      02/14/11, 8:00      38.1       2.4             84           10.5           17.0   296.6
      02/14/11, 9:00      36.9       1.7             85            9.5           15.3   304.4
     02/14/11, 10:00      37.0       1.8             85            8.2           13.2   302.5
     02/14/11, 11:00      38.4       2.5             84            7.9           12.8   302.9
     02/14/11, 12:00      39.4       3.1             81            8.3           13.4   307.9
     02/14/11, 13:00      40.5       3.7             79            7.2           11.6   296.6
     02/14/11, 14:00      41.0       4.0             80            6.7           10.8   286.5
     02/14/11, 15:00      41.9       4.5             79            5.4            8.7   283.4
     02/14/11, 16:00      41.7       4.4             79            5.0            8.0   303.7
     02/14/11, 17:00      41.4       4.2             82            4.0            6.4   317.5
     02/14/11, 18:00      39.7       3.3             85            3.8            6.0   335.9
     02/14/11, 19:00      38.2       2.4             88            3.2            5.1   341.5
     02/14/11, 20:00      36.4       1.4             91            3.4            5.4   6.275
     02/14/11, 21:00      35.0       0.6             94            2.6            4.2   15.71
     02/14/11, 22:00      33.5      -0.1             96            3.2            5.1   53.78
     02/14/11, 23:00      32.6      -0.7             97            2.6            4.2     100
      02/15/11, 0:00      31.4      -1.3             98            2.3            3.8   124.5
      02/15/11, 1:00      31.0      -1.5             99            4.1            6.6   113.9
      02/15/11, 2:00      31.0      -1.6            100            5.8            9.4   118.8
      02/15/11, 3:00      31.0      -1.6            100            5.8            9.4   121.4
      02/15/11, 4:00      31.4      -1.3            100            5.9            9.5   121.6
      02/15/11, 5:00      31.7      -1.1             99            7.4           11.9   122.9
      02/15/11, 6:00      31.9      -1.0             98            8.7           14.0   124.6
      02/15/11, 7:00      32.2      -0.9             97            9.1           14.7   122.2
      02/15/11, 8:00      32.5      -0.7             96            9.5           15.3   126.6
      02/15/11, 9:00      33.4      -0.2             94           10.1           16.3   129.3
     02/15/11, 10:00      35.5       1.0             92           11.6           18.7   131.7
     02/15/11, 11:00      37.4       2.0             89           13.4           21.6   139.7
     02/15/11, 12:00      38.9       2.8             85           13.8           22.3   146.3
     02/15/11, 13:00      41.0       4.0             82           11.7           18.8   147.6
     02/15/11, 14:00      43.1       5.2             79            9.0           14.6   147.1
     02/15/11, 15:00      42.6       4.9             81            8.3           13.3   141.3
     02/15/11, 16:00      43.4       5.3             80           10.5           17.0   141.3
     02/15/11, 17:00      43.1       5.2             82            9.7           15.6     146
     02/15/11, 18:00      42.8       5.0             83            9.0           14.5   147.4
     02/15/11, 19:00      41.1       4.1             86            9.4           15.1   146.7
     02/15/11, 20:00      38.7       2.7             89            6.9           11.1   157.1
     02/15/11, 21:00      36.8       1.7             93            5.1            8.2   164.3
     02/15/11, 22:00      36.2       1.3             94            5.2            8.4   170.8
     02/15/11, 23:00      35.9       1.1             94            4.8            7.8   168.3
      02/16/11, 0:00      35.0       0.7             95            4.8            7.7   163.7


  

                                                                                             
           Date,Time       Air       Air     % Relative           Wind           Wind    Wind
                        Temp F    Temp C       Humidity      Speed mph     Speed km/h Dir Deg
---------------------------------------------------------------------------------------------
      02/16/11, 1:00      35.1       0.7             96            3.3            5.2   159.2
      02/16/11, 2:00      36.1       1.3             98            5.2            8.4   178.4
      02/16/11, 3:00      37.5       2.0             99            5.5            8.9   186.7
      02/16/11, 4:00      38.1       2.4            100            3.8            6.1   190.6
      02/16/11, 5:00      36.7       1.6            100            2.5            4.1   197.9
      02/16/11, 6:00      35.3       0.8            100            4.1            6.6   183.8
      02/16/11, 7:00      34.6       0.5            100            4.6            7.4   175.5
      02/16/11, 8:00      33.2      -0.4            100            4.1            6.6   160.7
      02/16/11, 9:00      32.7      -0.6            100            4.7            7.6   160.5
     02/16/11, 10:00      32.9      -0.5            100            6.6           10.6   147.5
     02/16/11, 11:00      34.2       0.2            100            7.3           11.8   140.3
     02/16/11, 12:00      35.9       1.2            100            6.8           10.9   132.6
     02/16/11, 13:00      37.7       2.1            100            6.6           10.6   123.4
     02/16/11, 14:00      40.4       3.7            100            8.0           12.9   134.8
     02/16/11, 15:00      44.8       6.1            100            8.8           14.2   144.5
     02/16/11, 16:00      47.7       7.7             99            8.4           13.6   140.7
     02/16/11, 17:00      47.3       7.5             97            7.3           11.7   129.2
     02/16/11, 18:00      46.2       6.9             99            7.2           11.6   127.9
     02/16/11, 19:00      45.0       6.2            100            8.9           14.3   127.3
     02/16/11, 20:00      44.7       6.1            100            8.0           12.9   134.6
     02/16/11, 21:00      45.5       6.5            100            9.3           15.0     130
     02/16/11, 22:00      45.6       6.6            100            9.3           15.0   130.8
     02/16/11, 23:00      45.1       6.3            100            7.2           11.6   137.8
      02/17/11, 0:00      44.8       6.1            100            6.7           10.8   125.1
      02/17/11, 1:00      45.0       6.2            100            6.9           11.2   127.9
      02/17/11, 2:00      44.7       6.0            100            7.0           11.3   133.7
      02/17/11, 3:00      45.9       6.7            100            7.7           12.3   145.5
      02/17/11, 4:00      50.3       9.2            100            9.7           15.5   165.5
      02/17/11, 5:00      51.6       9.9            100            7.6           12.3   160.1
      02/17/11, 6:00      50.5       9.3             99            7.6           12.3   149.2
      02/17/11, 7:00      50.3       9.2             99            8.1           13.1   143.9
      02/17/11, 8:00      50.3       9.2             99            8.6           13.8   144.5
      02/17/11, 9:00      51.5       9.8             99           10.3           16.5     148
     02/17/11, 10:00      54.0      11.2             97           11.5           18.5   163.9
     02/17/11, 11:00      54.5      11.5             95           11.3           18.2   172.1
     02/17/11, 12:00      58.0      13.4             94           13.8           22.2     179
     02/17/11, 13:00      62.3      15.9             85           18.6           30.0   187.8
     02/17/11, 14:00      63.0      16.2             80           13.1           21.1     193
     02/17/11, 15:00      65.6      17.7             75           14.2           22.9   189.7
     02/17/11, 16:00      66.9      18.4             72           12.6           20.3   192.9
     02/17/11, 17:00      68.3      19.2             68            8.5           13.7   201.2
     02/17/11, 18:00      67.0      18.5             70            5.4            8.7   228.6
     02/17/11, 19:00      62.9      16.2             79            4.9            7.9   253.3
     02/17/11, 20:00      58.6      13.8             78           12.4           20.0   289.9
     02/17/11, 21:00      52.1      10.2             61           11.3           18.2   297.4
     02/17/11, 22:00      47.2       7.4             65            9.3           15.0     297
     02/17/11, 23:00      44.9       6.1             68            7.4           12.0   293.7
      02/18/11, 0:00      42.9       5.0             72            6.7           10.8   287.5


  

                                                                                             
           Date,Time       Air       Air     % Relative           Wind           Wind    Wind
                        Temp F    Temp C       Humidity      Speed mph     Speed km/h Dir Deg
---------------------------------------------------------------------------------------------
      02/18/11, 1:00      40.1       3.5             77            5.9            9.5   280.3
      02/18/11, 2:00      40.1       3.5             78            7.1           11.4   283.2
      02/18/11, 3:00      38.3       2.5             77            7.7           12.5   289.9
      02/18/11, 4:00      36.4       1.4             86            7.7           12.4   284.9
      02/18/11, 5:00      34.9       0.6             84            7.7           12.5   279.6
      02/18/11, 6:00      34.5       0.4             82            7.4           11.8   286.2
      02/18/11, 7:00      33.6      -0.1             86            4.3            7.0   261.1
      02/18/11, 8:00      33.1      -0.4             86            4.9            8.0   267.8
      02/18/11, 9:00      33.1      -0.4             87            6.1            9.8   288.3
     02/18/11, 10:00      35.6       1.0             80            7.3           11.8   281.1
     02/18/11, 11:00      38.2       2.4             73            6.2            9.9   269.5
     02/18/11, 12:00      41.2       4.1             66            7.5           12.0     289
     02/18/11, 13:00      43.7       5.5             60            6.9           11.0   295.4
     02/18/11, 14:00      46.2       6.9             57            6.8           10.9   275.9
     02/18/11, 15:00      47.8       7.8             54            6.2           10.0   271.5
     02/18/11, 16:00      49.7       8.8             50            6.4           10.3   272.1
     02/18/11, 17:00      50.0       9.0             51            5.9            9.5   286.4
     02/18/11, 18:00      49.0       8.5             50            5.1            8.2   287.9
     02/18/11, 19:00      45.7       6.6             63            2.9            4.7   311.4
     02/18/11, 20:00      41.6       4.3             74            2.2            3.6   317.1
     02/18/11, 21:00      38.4       2.6             80            2.0            3.3   339.5
     02/18/11, 22:00      37.0       1.8             80            2.3            3.7   348.4
     02/18/11, 23:00      36.1       1.3             82            3.1            4.9    8.51
      02/19/11, 0:00      34.4       0.3             85            5.1            8.2   4.451
      02/19/11, 1:00      33.2      -0.4             86            4.3            7.0   5.823
      02/19/11, 2:00      31.7      -1.2             86            3.9            6.2   4.805
      02/19/11, 3:00      30.6      -1.8             87            5.2            8.3    7.74
      02/19/11, 4:00      29.9      -2.2             86            6.1            9.8   19.44
      02/19/11, 5:00      29.4      -2.4             80            6.2           10.0   21.14
      02/19/11, 6:00      29.0      -2.7             77            5.2            8.4   29.41
      02/19/11, 7:00      28.1      -3.2             79            3.0            4.9   64.43
      02/19/11, 8:00      27.1      -3.7             82            3.3            5.3   53.93
      02/19/11, 9:00      26.7      -4.0             85            4.0            6.4   42.25
     02/19/11, 10:00      28.9      -2.7             84            4.5            7.3   61.34
     02/19/11, 11:00      32.7      -0.6             73            6.9           11.1    86.5
     02/19/11, 12:00      35.9       1.2             63            7.8           12.5    89.1
     02/19/11, 13:00      39.0       2.9             58            8.4           13.5    86.2
     02/19/11, 14:00      41.9       4.5             53            8.8           14.2    96.6
     02/19/11, 15:00      44.1       5.7             51            8.6           13.9    95.5
     02/19/11, 16:00      44.5       5.9             52            9.2           14.9    92.4
     02/19/11, 17:00      45.3       6.4             52            8.7           14.1     101
     02/19/11, 18:00      44.1       5.7             61            8.8           14.2    87.8
     02/19/11, 19:00      40.9       3.9             67            7.8           12.5    84.5
     02/19/11, 20:00      38.2       2.4             72            6.7           10.7      83
     02/19/11, 21:00      37.1       1.8             74            6.0            9.7    78.1
     02/19/11, 22:00      37.9       2.3             73            7.6           12.2    81.1
     02/19/11, 23:00      38.2       2.4             73            7.9           12.7    85.9
      02/20/11, 0:00      37.8       2.2             74            8.4           13.5      87


  

                                                                                             
           Date,Time       Air       Air     % Relative           Wind           Wind    Wind
                        Temp F    Temp C       Humidity      Speed mph     Speed km/h Dir Deg
---------------------------------------------------------------------------------------------
      02/20/11, 1:00      37.4       2.0             79            8.8           14.2    96.5
      02/20/11, 2:00      37.3       1.9             88            8.7           14.0   100.9
      02/20/11, 3:00      36.3       1.4             95            8.5           13.6   101.8
      02/20/11, 4:00      35.7       1.0             99            8.0           12.9    90.4
      02/20/11, 5:00      36.1       1.3             99            9.6           15.5   100.1
      02/20/11, 6:00      36.6       1.5            100            9.0           14.4    96.5
      02/20/11, 7:00      36.5       1.5            100            7.3           11.7    85.6
      02/20/11, 8:00      37.1       1.8             99            7.5           12.1    97.4
      02/20/11, 9:00      37.8       2.2             95            9.3           14.9     110
     02/20/11, 10:00      37.9       2.3             93            9.6           15.4   111.7
     02/20/11, 11:00      37.8       2.2             97            9.1           14.6   115.7
     02/20/11, 12:00      38.7       2.7             98            8.4           13.6   113.1
     02/20/11, 13:00      40.1       3.5             97            6.9           11.1   107.4
     02/20/11, 14:00      41.7       4.4             95            5.5            8.8    87.3
     02/20/11, 15:00      42.3       4.7             95            5.3            8.6   49.09
     02/20/11, 16:00      42.4       4.8             96            6.0            9.6   57.89
     02/20/11, 17:00      43.0       5.1             96            6.4           10.3   53.02
     02/20/11, 18:00      43.4       5.3             97            7.2           11.7   68.91
     02/20/11, 19:00      43.6       5.4             98            6.9           11.1   56.92
     02/20/11, 20:00      42.4       4.8             99            5.9            9.5   45.11
     02/20/11, 21:00      41.3       4.2             99            5.4            8.7   5.317
     02/20/11, 22:00      39.2       3.0             99            4.1            6.6   316.5
     02/20/11, 23:00      38.3       2.5            100            5.4            8.7   286.5
      02/21/11, 0:00      37.2       1.9            100            5.9            9.5   281.8
      02/21/11, 1:00      36.4       1.5            100            6.1            9.7     289
      02/21/11, 2:00      36.0       1.2            100            4.2            6.7   290.6
      02/21/11, 3:00      35.8       1.1            100            3.2            5.1   273.6
      02/21/11, 4:00      35.5       1.0            100            3.5            5.6   277.3
      02/21/11, 5:00      35.3       0.8            100            3.9            6.3   264.3
      02/21/11, 6:00      34.2       0.2            100            4.8            7.7   268.9
      02/21/11, 7:00      34.1       0.1            100            5.2            8.3     275
      02/21/11, 8:00      32.9      -0.5            100            4.8            7.7   264.1
      02/21/11, 9:00      31.8      -1.1            100            5.3            8.5   258.6
     02/21/11, 10:00      30.8      -1.6            100            6.1            9.9   260.4
     02/21/11, 11:00      29.6      -2.3            100            6.5           10.5   251.6
     02/21/11, 12:00      28.5      -3.0             99            6.6           10.7   254.2
     02/21/11, 13:00      28.2      -3.1             97            6.7           10.8   257.4
     02/21/11, 14:00      27.7      -3.4             92            6.7           10.9   263.3
     02/21/11, 15:00      27.4      -3.6             89            6.6           10.7   259.7
     02/21/11, 16:00      27.0      -3.8             88            6.8           10.9   253.1
     02/21/11, 17:00      26.3      -4.2             87            7.2           11.6   254.9
     02/21/11, 18:00      25.6      -4.6             87            7.6           12.2     248
     02/21/11, 19:00      25.9      -4.4             88            7.0           11.3   247.1
     02/21/11, 20:00      26.5      -4.0             85            7.6           12.3     260
     02/21/11, 21:00      26.5      -4.1             83            7.0           11.3   254.1
     02/21/11, 22:00      25.7      -4.5             84            7.9           12.7   252.8
     02/21/11, 23:00      24.8      -5.0             84            7.1           11.4   249.8
      02/22/11, 0:00      24.6      -5.1             86            6.6           10.5   242.4


  

                                                                                             
           Date,Time       Air       Air     % Relative           Wind           Wind    Wind
                        Temp F    Temp C       Humidity      Speed mph     Speed km/h Dir Deg
---------------------------------------------------------------------------------------------
      02/22/11, 1:00      25.4      -4.7             89            6.0            9.6   246.5
      02/22/11, 2:00      26.2      -4.2             93            6.0            9.7   253.1
      02/22/11, 3:00      27.1      -3.7             93            6.8           11.0   285.9
      02/22/11, 4:00      27.8      -3.3             92            4.3            6.9   291.8
      02/22/11, 5:00      26.5      -4.0             93            8.8           14.2   289.9
      02/22/11, 6:00      26.0      -4.4             93            7.6           12.3   296.1
      02/22/11, 7:00      26.1      -4.3             94            5.8            9.4   298.7
      02/22/11, 8:00      26.1      -4.3             94            4.8            7.7   300.1
      02/22/11, 9:00      26.4      -4.1             93            5.5            8.8   346.5
     02/22/11, 10:00      26.8      -3.9             92            3.4            5.5   324.7
     02/22/11, 11:00      27.4      -3.6             90            2.7            4.4   320.6
     02/22/11, 12:00      28.2      -3.1             88            1.9            3.0   326.7
     02/22/11, 13:00      29.1      -2.6             84            1.6            2.6   185.7
     02/22/11, 14:00      29.5      -2.4             82            2.6            4.1     162
     02/22/11, 15:00      29.8      -2.2             82            3.9            6.3   180.3
     02/22/11, 16:00      29.9      -2.2             82            4.0            6.5   187.6
     02/22/11, 17:00      30.1      -2.0             80            3.5            5.6   135.5
     02/22/11, 18:00      29.9      -2.2             81            4.4            7.0   136.8
     02/22/11, 19:00      29.5      -2.4             82            5.8            9.4   136.7
     02/22/11, 20:00      29.4      -2.4             83            6.3           10.1     137
     02/22/11, 21:00      29.1      -2.6             85            6.2            9.9   117.1
     02/22/11, 22:00      28.2      -3.1             88            5.7            9.2   111.1
     02/22/11, 23:00      27.6      -3.4             89            7.2           11.5   118.4
      02/23/11, 0:00      27.0      -3.8             91            6.8           10.9   122.9
      02/23/11, 1:00      26.8      -3.9             91            7.4           11.9   126.2
      02/23/11, 2:00      26.6      -4.0             92            7.8           12.5     129
      02/23/11, 3:00      26.1      -4.3             94            7.5           12.0   126.4
      02/23/11, 4:00      25.9      -4.4             94            7.6           12.3   130.8
      02/23/11, 5:00      25.4      -4.7             94            6.2           10.0   133.7
      02/23/11, 6:00      24.8      -5.0             95            4.9            7.9     113
      02/23/11, 7:00      24.8      -5.0             95            5.7            9.2    98.1
      02/23/11, 8:00      25.6      -4.5             95            8.1           13.1   114.1
      02/23/11, 9:00      26.9      -3.8             94            8.1           13.0   112.6
     02/23/11, 10:00      29.4      -2.4             92           10.0           16.1   116.8
     02/23/11, 11:00      30.9      -1.6             88           11.5           18.6   123.4
     02/23/11, 12:00      32.3      -0.9             88           13.3           21.5   128.5
     02/23/11, 13:00      33.5      -0.2             86           11.7           18.9   125.1
     02/23/11, 14:00      34.2       0.2             84            9.8           15.8   125.5
     02/23/11, 15:00      35.1       0.7             84            8.9           14.3   124.3
     02/23/11, 16:00      37.2       1.9             83            7.7           12.3   140.1
     02/23/11, 17:00      38.4       2.6             81            6.2            9.9   123.8
     02/23/11, 18:00      38.8       2.8             81            5.5            8.8   122.8
     02/23/11, 19:00      36.9       1.7             88            3.0            4.8   118.5
     02/23/11, 20:00      35.2       0.8             91            1.2            2.0   51.06
     02/23/11, 21:00      33.7      -0.1             94            1.1            1.7   345.9
     02/23/11, 22:00      32.6      -0.7             96            1.5            2.4   333.9
     02/23/11, 23:00      31.9      -1.1             97            2.0            3.2   311.1
      02/24/11, 0:00      30.2      -2.0             99            2.8            4.5   324.2


  

                                                                                             
           Date,Time       Air       Air     % Relative           Wind           Wind    Wind
                        Temp F    Temp C       Humidity      Speed mph     Speed km/h Dir Deg
---------------------------------------------------------------------------------------------
      02/24/11, 1:00      32.6      -0.7             99            2.8            4.5   304.8
      02/24/11, 2:00      34.1       0.2             95            5.0            8.1   305.2
      02/24/11, 3:00      32.0      -1.0             93            7.9           12.6   311.6
      02/24/11, 4:00      29.5      -2.4             93            8.2           13.2   328.7
      02/24/11, 5:00      28.6      -2.9             93            8.3           13.3     338
      02/24/11, 6:00      28.3      -3.0             93            8.8           14.2   349.2
      02/24/11, 7:00      26.8      -3.9             96            8.3           13.4   349.6
      02/24/11, 8:00      25.6      -4.5             97            7.1           11.4   341.3
      02/24/11, 9:00      25.6      -4.6             97            7.1           11.4   355.6
     02/24/11, 10:00      25.4      -4.7             97            6.2           10.0     355
     02/24/11, 11:00      25.7      -4.5             95            6.8           10.9   354.9
     02/24/11, 12:00      26.2      -4.2             94            6.7           10.8   2.822
     02/24/11, 13:00      26.9      -3.8             93            7.4           11.9   13.61
     02/24/11, 14:00      27.6      -3.5             91            6.5           10.5   23.17
     02/24/11, 15:00      27.7      -3.4             91            8.1           13.0   11.93
     02/24/11, 16:00      28.1      -3.2             89            6.8           11.0   6.641
     02/24/11, 17:00      28.5      -3.0             89            6.8           11.0   1.615
     02/24/11, 18:00      28.7      -2.8             88            8.0           12.8   13.44
     02/24/11, 19:00      28.9      -2.7             90            9.7           15.6     9.1
     02/24/11, 20:00      29.3      -2.5             90            8.8           14.2     .16
     02/24/11, 21:00      29.5      -2.4             95            7.6           12.3   351.3
     02/24/11, 22:00      29.0      -2.7             96            7.9           12.7   349.2
     02/24/11, 23:00      28.2      -3.1             97            7.7           12.4   336.5
      02/25/11, 0:00      27.5      -3.5             97            7.5           12.0   338.9
      02/25/11, 1:00      26.6      -4.0             96            7.0           11.2   334.2
      02/25/11, 2:00      25.4      -4.7             91            6.2           10.0     331
      02/25/11, 3:00      23.5      -5.7             89            6.1            9.8   321.8
      02/25/11, 4:00      21.3      -7.0             86            6.8           11.0     316
      02/25/11, 5:00      20.0      -7.7             81            7.0           11.3   314.6
      02/25/11, 6:00      18.5      -8.5             81            6.9           11.2   303.2
      02/25/11, 7:00      16.9      -9.4             81            7.4           11.9   314.5
      02/25/11, 8:00      15.7     -10.1             83            6.6           10.6   308.6
      02/25/11, 9:00      15.3     -10.3             83            7.9           12.7   307.5
     02/25/11, 10:00      17.0      -9.3             80            7.7           12.3   315.1
     02/25/11, 11:00      18.7      -8.4             78            7.8           12.6   316.2
     02/25/11, 12:00      20.5      -7.4             76            6.7           10.8   338.7
     02/25/11, 13:00      22.1      -6.5             74            5.4            8.6   326.2
     02/25/11, 14:00      24.7      -5.0             71            5.1            8.3   314.1
     02/25/11, 15:00      26.4      -4.1             70            4.8            7.8   304.4
     02/25/11, 16:00      27.5      -3.5             65            4.7            7.5   310.6
     02/25/11, 17:00      26.1      -4.3             67            6.2           10.0     303
     02/25/11, 18:00      24.5      -5.2             68            5.5            8.8   304.5
     02/25/11, 19:00      23.5      -5.7             78            4.5            7.2   313.6
     02/25/11, 20:00      22.0      -6.6             89            4.4            7.1   309.9
     02/25/11, 21:00      21.1      -7.1             92            4.2            6.7     313
     02/25/11, 22:00      20.1      -7.6             94            3.9            6.2     324
     02/25/11, 23:00      19.3      -8.1             94            4.6            7.4   328.6
      02/26/11, 0:00      17.1      -9.3             94            7.0           11.2   349.1


  

                                                                                             
           Date,Time       Air       Air     % Relative           Wind           Wind    Wind
                        Temp F    Temp C       Humidity      Speed mph     Speed km/h Dir Deg
---------------------------------------------------------------------------------------------
      02/26/11, 1:00      15.2     -10.3             92            7.0           11.3   351.3
      02/26/11, 2:00      14.1     -10.9             92            5.1            8.2   358.7
      02/26/11, 3:00      13.9     -11.1             91            4.2            6.8   5.242
      02/26/11, 4:00      13.5     -11.3             89            4.7            7.5    10.4
      02/26/11, 5:00      13.3     -11.4             89            4.3            7.0   15.56
      02/26/11, 6:00      13.4     -11.3             89            4.1            6.5   16.68
      02/26/11, 7:00      13.4     -11.3             88            4.9            7.9    8.41
      02/26/11, 8:00      13.2     -11.4             89            5.4            8.6   17.46
      02/26/11, 9:00      13.2     -11.4             89            5.5            8.8   26.51
     02/26/11, 10:00      14.1     -11.0             89            4.3            6.9    57.4
     02/26/11, 11:00      15.0     -10.5             87            4.6            7.5   62.45
     02/26/11, 12:00      15.7     -10.0             88            4.9            7.9   38.74
     02/26/11, 13:00      16.5      -9.6             94            4.6            7.4    45.8
     02/26/11, 14:00      17.0      -9.3             96            5.7            9.1   30.58
     02/26/11, 15:00      18.0      -8.8             96            4.7            7.6   35.01
     02/26/11, 16:00      18.7      -8.4             97            3.2            5.2   49.51
     02/26/11, 17:00      19.3      -8.1             97            2.4            3.9    70.9
     02/26/11, 18:00      19.6      -7.9             97            2.1            3.4    87.3
     02/26/11, 19:00      19.7      -7.8             97            1.6            2.5   127.3
     02/26/11, 20:00      19.8      -7.8             97            2.4            3.8   170.8
     02/26/11, 21:00      19.7      -7.9             97            2.0            3.3     202
     02/26/11, 22:00      18.6      -8.4             97            1.8            2.9   201.2
     02/26/11, 23:00      18.9      -8.3             97            1.8            2.9   202.3
      02/27/11, 0:00      19.2      -8.1             97            2.0            3.2   196.3
      02/27/11, 1:00      19.6      -7.9             97            3.2            5.2   162.7
      02/27/11, 2:00      19.9      -7.7             98            2.6            4.2   144.3
      02/27/11, 3:00      20.4      -7.5             98            2.4            3.9   130.7
      02/27/11, 4:00      20.6      -7.3             98            2.0            3.2     121
      02/27/11, 5:00      20.7      -7.3             98            3.8            6.2   112.6
      02/27/11, 6:00      20.9      -7.1             98            4.3            6.9   127.9
      02/27/11, 7:00      21.3      -7.0             98            4.4            7.1   115.7
      02/27/11, 8:00      20.9      -7.2             98            4.0            6.5   112.3
      02/27/11, 9:00      21.5      -6.8             98            4.2            6.8   103.4
     02/27/11, 10:00      22.8      -6.1             97            3.9            6.2    91.7
     02/27/11, 11:00      24.2      -5.4             97            5.7            9.2   117.8
     02/27/11, 12:00      25.8      -4.4             95            5.0            8.1   115.7
     02/27/11, 13:00      27.2      -3.7             96            4.4            7.1    86.3
     02/27/11, 14:00      28.4      -3.0             97            4.5            7.3   67.96
     02/27/11, 15:00      28.9      -2.7             97            4.3            6.9   49.39
     02/27/11, 16:00      29.5      -2.4             98            4.7            7.5   34.04
     02/27/11, 17:00      29.6      -2.4             99            6.3           10.2   12.95
     02/27/11, 18:00      29.9      -2.2            100            6.2            9.9    8.04
     02/27/11, 19:00      30.0      -2.1            100            4.9            7.9    9.01
     02/27/11, 20:00      30.0      -2.1            100            5.4            8.7   355.6
     02/27/11, 21:00      30.2      -2.0            100            8.1           13.1   355.8
     02/27/11, 22:00      30.6      -1.8            100            8.3           13.4   347.1
     02/27/11, 23:00      30.4      -1.9             98            9.8           15.7   350.1
      02/28/11, 0:00      29.6      -2.3             94            8.1           13.1   339.3


  

                                                                                             
           Date,Time       Air       Air     % Relative           Wind           Wind    Wind
                        Temp F    Temp C       Humidity      Speed mph     Speed km/h Dir Deg
---------------------------------------------------------------------------------------------
      02/28/11, 1:00      28.5      -3.0             92            5.8            9.4     324
      02/28/11, 2:00      27.9      -3.3             91            5.9            9.5   332.6
      02/28/11, 3:00      26.6      -4.0             89            7.3           11.8   319.7
      02/28/11, 4:00      23.1      -6.0             88            7.4           11.8   320.6
      02/28/11, 5:00      19.5      -8.0             85            7.4           11.9   307.4
      02/28/11, 6:00      17.2      -9.2             83            6.8           11.0   306.3
      02/28/11, 7:00      15.9     -10.0             84            6.3           10.1     313
      02/28/11, 8:00      14.5     -10.7             85            5.5            8.9   308.9
      02/28/11, 9:00      14.5     -10.7             85            5.5            8.8   302.5
     02/28/11, 10:00      16.4      -9.6             82            6.9           11.0   304.3
     02/28/11, 11:00      19.2      -8.1             79            6.3           10.1   311.2
     02/28/11, 12:00      22.1      -6.5             79            7.1           11.4   313.8
     02/28/11, 13:00      25.4      -4.7             77            6.4           10.3   318.5
     02/28/11, 14:00      28.4      -3.0             75            5.6            9.1   326.5
     02/28/11, 15:00      31.2      -1.5             72            4.7            7.6   308.5
     02/28/11, 16:00      33.4      -0.2             69            3.8            6.1   282.3
     02/28/11, 17:00      35.1       0.7             64            2.9            4.6   282.5
     02/28/11, 18:00      35.9       1.2             59            2.2            3.6   187.5
     02/28/11, 19:00      32.9      -0.5             78            5.0            8.0     164
     02/28/11, 20:00      29.4      -2.5             80            5.4            8.6   169.3
     02/28/11, 21:00      27.9      -3.3             81            4.9            7.9   170.8
     02/28/11, 22:00      26.8      -3.9             82            5.1            8.2   161.3
     02/28/11, 23:00      25.4      -4.7             86            4.3            6.9   147.4
      03/01/11, 0:00      24.2      -5.3             88            4.2            6.8   145.5
      03/01/11, 1:00      24.3      -5.3             88            5.0            8.1   147.1
      03/01/11, 2:00      25.0      -4.9             88            6.6           10.6   150.9
      03/01/11, 3:00      24.5      -5.2             89            7.2           11.6     143
      03/01/11, 4:00      24.0      -5.4             89            7.0           11.2   152.6
      03/01/11, 5:00      24.4      -5.2             88            7.0           11.2   146.2
      03/01/11, 6:00      24.9      -4.9             87            9.0           14.5   145.3
      03/01/11, 7:00      24.5      -5.2             89            6.4           10.3   146.5
      03/01/11, 8:00      23.8      -5.6             90            3.2            5.1   132.8
      03/01/11, 9:00      24.3      -5.3             90            4.5            7.2   138.5
     03/01/11, 10:00      29.4      -2.4             87            9.0           14.6   147.9
     03/01/11, 11:00      34.4       0.3             80            9.8           15.8   167.4
     03/01/11, 12:00      38.6       2.6             73            9.9           15.9   180.5
     03/01/11, 13:00      42.5       4.8             66            7.2           11.5   199.8
     03/01/11, 14:00      43.9       5.6             61            5.6            9.1   206.4
     03/01/11, 15:00      46.5       7.1             59            5.3            8.6   209.5
     03/01/11, 16:00      48.6       8.2             55            4.5            7.3   217.4
     03/01/11, 17:00      50.4       9.2             54            4.0            6.4   223.7
     03/01/11, 18:00      51.0       9.5             51            3.7            6.0   256.6
     03/01/11, 19:00      48.7       8.3             61            2.7            4.4   301.5
     03/01/11, 20:00      45.4       6.5             76            2.6            4.1   296.1
     03/01/11, 21:00      38.5       2.6             82            6.5           10.5   304.2
     03/01/11, 22:00      34.0       0.1             88            7.5           12.0   311.3
     03/01/11, 23:00      30.4      -1.9             90            9.5           15.2   305.3
      03/02/11, 0:00      27.2      -3.7             88            9.7           15.6   313.2


  

                                                                                             
           Date,Time       Air       Air     % Relative           Wind           Wind    Wind
                        Temp F    Temp C       Humidity      Speed mph     Speed km/h Dir Deg
---------------------------------------------------------------------------------------------
      03/02/11, 1:00      23.7      -5.6             89            9.8           15.9   320.7
      03/02/11, 2:00      21.1      -7.0             84            9.0           14.5   323.2
      03/02/11, 3:00      18.8      -8.3             82            8.8           14.1   326.6
      03/02/11, 4:00      17.2      -9.2             82            8.1           13.1   327.6
      03/02/11, 5:00      16.1      -9.9             80            7.3           11.8   326.3
      03/02/11, 6:00      15.3     -10.3             78            6.4           10.3   323.3
      03/02/11, 7:00      14.2     -10.9             78            6.9           11.2   329.6
      03/02/11, 8:00      12.9     -11.6             78            6.5           10.5   341.5
      03/02/11, 9:00      12.8     -11.7             77            7.0           11.3   340.7
     03/02/11, 10:00      14.3     -10.8             75            8.5           13.7   353.1
     03/02/11, 11:00      16.7      -9.5             70            8.6           13.8   358.7
     03/02/11, 12:00      20.3      -7.5             65            7.1           11.3   5.524
     03/02/11, 13:00      24.1      -5.4             61            7.6           12.3   24.37
     03/02/11, 14:00      27.5      -3.5             58            6.7           10.7    24.6
     03/02/11, 15:00      30.2      -2.0             55            6.9           11.1   31.95
     03/02/11, 16:00      32.3      -0.8             53            6.2            9.9   35.42
     03/02/11, 17:00      33.3      -0.3             53            6.5           10.4    50.8
     03/02/11, 18:00      33.6      -0.1             57            6.6           10.6   56.89
     03/02/11, 19:00      32.7      -0.6             61            7.2           11.6   61.94
     03/02/11, 20:00      31.3      -1.4             69            5.7            9.2   65.75
     03/02/11, 21:00      29.9      -2.1             77            5.5            8.8   66.15
     03/02/11, 22:00      29.6      -2.3             78            6.4           10.4    72.9
     03/02/11, 23:00      29.1      -2.6             79            6.0            9.6    76.4
      03/03/11, 0:00      29.0      -2.6             81            6.9           11.1    86.1
      03/03/11, 1:00      29.1      -2.6             84            8.6           13.9    93.8
      03/03/11, 2:00      29.7      -2.3             83            9.3           14.9   101.9
      03/03/11, 3:00      29.8      -2.2             86            8.5           13.6   103.6
      03/03/11, 4:00      29.9      -2.2             88            8.9           14.3     103
      03/03/11, 5:00      30.3      -2.0             89            9.0           14.4   112.6
      03/03/11, 6:00      30.7      -1.7             89            9.2           14.9   116.1
      03/03/11, 7:00      31.0      -1.6             89            9.7           15.6   118.2
      03/03/11, 8:00      31.0      -1.6             88            9.7           15.6   118.7
      03/03/11, 9:00      31.2      -1.4             88           10.6           17.0   122.1
     03/03/11, 10:00      33.6      -0.1             87           12.2           19.7   126.5
     03/03/11, 11:00      35.3       0.8             82           11.9           19.1   131.4
     03/03/11, 12:00      37.3       2.0             80           11.9           19.1   135.8
     03/03/11, 13:00      40.5       3.7             77           10.4           16.8   130.6
     03/03/11, 14:00      43.6       5.5             73           11.4           18.3   136.6
     03/03/11, 15:00      45.0       6.2             72           10.0           16.2     132
     03/03/11, 16:00      46.2       6.9             72           10.3           16.6   126.2
     03/03/11, 17:00      49.0       8.5             69            7.8           12.6   123.2
     03/03/11, 18:00      50.0       9.0             70            6.0            9.7     113
     03/03/11, 19:00      48.0       7.9             74            5.4            8.6   100.6
     03/03/11, 20:00      44.4       5.9             81            5.2            8.4   101.8
     03/03/11, 21:00      43.7       5.5             82            5.6            9.1     109
     03/03/11, 22:00      44.0       5.7             82            5.0            8.0   103.5
     03/03/11, 23:00      43.7       5.5             85            3.7            5.9      96
      03/04/11, 0:00      44.7       6.1             84            6.1            9.7   102.7


  

                                                                                             
           Date,Time       Air       Air     % Relative           Wind           Wind    Wind
                        Temp F    Temp C       Humidity      Speed mph     Speed km/h Dir Deg
---------------------------------------------------------------------------------------------
      03/04/11, 1:00      44.7       6.0             84            5.7            9.2   110.4
      03/04/11, 2:00      44.3       5.8             87            4.3            6.9    91.2
      03/04/11, 3:00      44.1       5.7             88            3.5            5.7   66.96
      03/04/11, 4:00      43.5       5.4             88            3.8            6.1   65.63
      03/04/11, 5:00      42.9       5.1             90            3.6            5.7   61.73
      03/04/11, 6:00      42.1       4.6             93            4.0            6.4   340.4
      03/04/11, 7:00      39.8       3.3             94            4.1            6.6    .268
      03/04/11, 8:00      38.8       2.8             96            5.3            8.5    1.95
      03/04/11, 9:00      38.8       2.8             96            4.6            7.4   353.8
     03/04/11, 10:00      39.1       3.0             95            5.8            9.3   353.9
     03/04/11, 11:00      41.0       4.0             93            5.9            9.5   359.2
     03/04/11, 12:00      43.4       5.3             89            7.0           11.3   351.7
     03/04/11, 13:00      44.5       5.9             86            7.1           11.4   345.4
     03/04/11, 14:00      43.4       5.3             94            7.3           11.7   331.6
     03/04/11, 15:00      41.3       4.1             96            8.1           13.1   332.9
     03/04/11, 16:00      39.6       3.2             96           10.2           16.5     340
     03/04/11, 17:00      38.3       2.5             96           10.1           16.2   336.1
     03/04/11, 18:00      37.1       1.8             97            8.4           13.5   320.4
     03/04/11, 19:00      35.9       1.2             97            8.5           13.7   325.9
     03/04/11, 20:00      34.6       0.4             95            8.9           14.3   331.3
     03/04/11, 21:00      33.3      -0.3             94           10.1           16.3     326
     03/04/11, 22:00      32.4      -0.8             95           10.3           16.5   320.1
     03/04/11, 23:00      31.9      -1.1             95           10.1           16.3   320.3
      03/05/11, 0:00      31.1      -1.5             94            9.8           15.7   317.7
      03/05/11, 1:00      30.2      -2.0             92           10.0           16.1   319.5
      03/05/11, 2:00      29.2      -2.5             92            9.1           14.6   312.5
      03/05/11, 3:00      27.7      -3.4             92            8.7           14.0   303.4
      03/05/11, 4:00      26.3      -4.2             90            9.7           15.6     302
      03/05/11, 5:00      25.3      -4.7             89            9.2           14.8   306.3
      03/05/11, 6:00      25.0      -4.9             87            9.2           14.8   304.2
      03/05/11, 7:00      24.9      -5.0             87            8.7           13.9     308
      03/05/11, 8:00      25.1      -4.8             88            8.3           13.4   314.3
      03/05/11, 9:00      25.2      -4.8             87            9.0           14.5   313.4
     03/05/11, 10:00      25.4      -4.7             91            8.4           13.5   307.6
     03/05/11, 11:00      25.1      -4.9             94            7.8           12.5     304
     03/05/11, 12:00      26.3      -4.2             91            7.5           12.1   312.4
     03/05/11, 13:00      27.7      -3.4             84            7.3           11.7   310.6
     03/05/11, 14:00      28.8      -2.8             82            7.5           12.1   308.6
     03/05/11, 15:00      29.4      -2.5             82            7.5           12.1   305.4
     03/05/11, 16:00      29.9      -2.1             80            7.3           11.8   307.8
     03/05/11, 17:00      30.1      -2.0             79            7.3           11.7   322.7
     03/05/11, 18:00      29.9      -2.2             76            6.8           10.9   320.7
     03/05/11, 19:00      29.4      -2.4             76            6.2           10.0   331.6
     03/05/11, 20:00      28.5      -3.0             77            5.4            8.7   325.3
     03/05/11, 21:00      27.9      -3.3             77            5.0            8.1     341
     03/05/11, 22:00      27.2      -3.6             77            5.1            8.3   332.8
     03/05/11, 23:00      26.4      -4.1             79            4.9            7.8   346.2
      03/06/11, 0:00      26.2      -4.2             79            4.3            6.9   357.6


  

                                                                                             
           Date,Time       Air       Air     % Relative           Wind           Wind    Wind
                        Temp F    Temp C       Humidity      Speed mph     Speed km/h Dir Deg
---------------------------------------------------------------------------------------------
      03/06/11, 1:00      26.1      -4.3             79            4.6            7.3   20.73
      03/06/11, 2:00      26.0      -4.3             80            2.4            3.8   19.47
      03/06/11, 3:00      25.7      -4.5             79            2.9            4.7   21.73
      03/06/11, 4:00      24.8      -5.0             82            1.8            2.9   64.71
      03/06/11, 5:00      23.9      -5.5             87            1.1            1.8   121.3
      03/06/11, 6:00      22.5      -6.3             90            1.7            2.8   5.883
      03/06/11, 7:00      21.6      -6.8             92            1.0            1.6   334.2
      03/06/11, 8:00      21.9      -6.6             93            1.2            1.9   5.833
      03/06/11, 9:00      23.2      -5.9             93            1.5            2.4    80.7
     03/06/11, 10:00      25.7      -4.5             92            2.9            4.6   116.4
     03/06/11, 11:00      27.5      -3.5             87            5.3            8.5   139.1
     03/06/11, 12:00      29.5      -2.4             80            5.9            9.5   157.1
     03/06/11, 13:00      30.8      -1.6             79            7.1           11.5   146.3
     03/06/11, 14:00      32.4      -0.8             79            7.7           12.4   143.9
     03/06/11, 15:00      33.0      -0.4             76            7.9           12.6   139.5
     03/06/11, 16:00      34.6       0.5             74            7.5           12.0   145.1
     03/06/11, 17:00      35.1       0.7             74            5.8            9.4   149.6
     03/06/11, 18:00      32.9      -0.5             96            5.7            9.1   142.8
     03/06/11, 19:00      31.2      -1.4             99            5.9            9.5      91
     03/06/11, 20:00      31.5      -1.3             99            7.5           12.1   102.6
     03/06/11, 21:00      32.0      -1.0             99            6.7           10.9   109.6
     03/06/11, 22:00      32.1      -0.9             98            8.5           13.7   127.3
     03/06/11, 23:00      32.0      -1.0             99            6.5           10.5   121.8
      03/07/11, 0:00      30.6      -1.8             98            2.8            4.5   116.5
      03/07/11, 1:00      29.1      -2.6             99            2.9            4.6   107.9
      03/07/11, 2:00      28.5      -2.9             99            2.6            4.1     100
      03/07/11, 3:00      28.0      -3.2             98            2.0            3.3    73.5
      03/07/11, 4:00      28.2      -3.1             96            2.0            3.3    77.2
      03/07/11, 5:00      28.5      -3.0             95            2.2            3.6    63.1
      03/07/11, 6:00      28.2      -3.1             97            2.3            3.7   55.37
      03/07/11, 7:00      27.9      -3.3             98            3.1            5.0   63.46
      03/07/11, 8:00      28.8      -2.8             99            3.6            5.8    80.9
      03/07/11, 9:00      30.7      -1.7            100            4.6            7.3   106.9
     03/07/11, 10:00      31.5      -1.3            100            6.0            9.6   113.8
     03/07/11, 11:00      31.9      -1.1            100            5.7            9.1   116.9
     03/07/11, 12:00      32.3      -0.8             99            5.8            9.4   119.4
     03/07/11, 13:00      32.9      -0.5             99            5.1            8.2   127.9
     03/07/11, 14:00      33.4      -0.2             99            4.3            6.9   117.7
     03/07/11, 15:00      34.7       0.5             99            5.5            8.8   118.8
     03/07/11, 16:00      35.1       0.7             97            5.2            8.4   104.9
     03/07/11, 17:00      35.2       0.8             95            5.3            8.6    91.2
     03/07/11, 18:00      35.2       0.8             94            5.5            8.9   68.36
     03/07/11, 19:00      35.1       0.7             94            4.9            7.9    82.7
     03/07/11, 20:00      35.1       0.7             95            4.5            7.2    77.2
     03/07/11, 21:00      35.0       0.7             96            3.4            5.4   61.46
     03/07/11, 22:00      34.9       0.6             97            3.8            6.1    59.6
     03/07/11, 23:00      34.8       0.5             98            3.3            5.3   49.49
      03/08/11, 0:00      34.5       0.4             98            3.8            6.2   52.32


  

                                                                                             
           Date,Time       Air       Air     % Relative           Wind           Wind    Wind
                        Temp F    Temp C       Humidity      Speed mph     Speed km/h Dir Deg
---------------------------------------------------------------------------------------------
      03/08/11, 1:00      34.2       0.2             98            4.3            7.0   52.63
      03/08/11, 2:00      34.2       0.2             98            4.2            6.7   55.44
      03/08/11, 3:00      34.1       0.2             97            4.7            7.5   51.77
      03/08/11, 4:00      34.2       0.2             97            4.0            6.4   46.54
      03/08/11, 5:00      34.2       0.2             97            4.0            6.5   53.68
      03/08/11, 6:00      34.0       0.1             98            4.7            7.6   53.74
      03/08/11, 7:00      33.8       0.0             99            7.1           11.4   57.61
      03/08/11, 8:00      33.7      -0.1            100            6.0            9.7   50.15
      03/08/11, 9:00      33.8       0.0            100            7.1           11.5   67.07
     03/08/11, 10:00      34.6       0.4            100            7.7           12.5    55.6
     03/08/11, 11:00      36.3       1.4             97            8.5           13.7   58.96
     03/08/11, 12:00      38.7       2.7             91            9.9           15.9   64.63
     03/08/11, 13:00      40.5       3.7             86           10.2           16.4   58.32
     03/08/11, 14:00      41.4       4.2             81           10.7           17.2   58.92
     03/08/11, 15:00      42.0       4.6             79           10.1           16.2   65.32
     03/08/11, 16:00      42.1       4.6             80            9.9           16.0   60.06
     03/08/11, 17:00      41.4       4.2             90            8.4           13.5   53.84
     03/08/11, 18:00      39.9       3.4             93            8.8           14.2    52.4
     03/08/11, 19:00      38.4       2.6             96            9.5           15.3   47.48
     03/08/11, 20:00      37.4       2.0             97           10.6           17.1    47.6
     03/08/11, 21:00      35.4       0.9             99            9.6           15.4   36.74
     03/08/11, 22:00      34.3       0.3            100            7.6           12.2   35.99
     03/08/11, 23:00      34.5       0.4            100            9.0           14.4   30.86
      03/09/11, 0:00      34.9       0.6            100           10.5           16.9   33.21
      03/09/11, 1:00      35.0       0.7             99            9.4           15.1   38.51
      03/09/11, 2:00      35.1       0.7             99            9.5           15.3   29.47
      03/09/11, 3:00      35.3       0.8            100            8.7           14.0   23.62
      03/09/11, 4:00      35.1       0.7            100            7.0           11.2   18.33
      03/09/11, 5:00      34.9       0.6            100            5.4            8.7   5.825
      03/09/11, 6:00      34.3       0.3            100            5.0            8.1   350.5
      03/09/11, 7:00      34.0       0.1            100            5.7            9.2   341.4
      03/09/11, 8:00      34.1       0.2            100            5.5            8.8     337
      03/09/11, 9:00      34.0       0.1            100            5.4            8.7   326.8
     03/09/11, 10:00      34.0       0.1            100            5.3            8.5   321.1
     03/09/11, 11:00      34.3       0.3            100            5.7            9.2   311.3
     03/09/11, 12:00      34.8       0.5             99            6.0            9.7   311.6
     03/09/11, 13:00      35.2       0.8             98            6.7           10.8   306.6
     03/09/11, 14:00      35.6       1.0             96            7.6           12.2   305.1
     03/09/11, 15:00      36.0       1.2             95            8.6           13.8     307
     03/09/11, 16:00      36.4       1.4             93            9.1           14.7   307.3
     03/09/11, 17:00      35.9       1.2             91            9.1           14.6   300.8
     03/09/11, 18:00      35.7       1.0             91            8.9           14.3   302.7
     03/09/11, 19:00      35.2       0.8             92           10.2           16.4     301
     03/09/11, 20:00      34.7       0.5             93            9.6           15.5   298.1
     03/09/11, 21:00      34.5       0.4             93            8.5           13.6   306.9
     03/09/11, 22:00      34.5       0.4             93            8.0           12.9   302.5
     03/09/11, 23:00      34.4       0.3             93            8.3           13.3   295.1
      03/10/11, 0:00      34.2       0.2             93            8.8           14.2   295.1


  

                                                                                             
           Date,Time       Air       Air     % Relative           Wind           Wind    Wind
                        Temp F    Temp C       Humidity      Speed mph     Speed km/h Dir Deg
---------------------------------------------------------------------------------------------
      03/10/11, 1:00      33.8       0.0             92            9.7           15.6   295.1
      03/10/11, 2:00      33.5      -0.2             93            9.0           14.5   294.9
      03/10/11, 3:00      33.3      -0.3             93            8.8           14.2   295.8
      03/10/11, 4:00      33.1      -0.4             92           10.0           16.1   299.9
      03/10/11, 5:00      32.2      -0.9             91            9.3           14.9   293.9
      03/10/11, 6:00      31.5      -1.3             91            9.1           14.6   301.2
      03/10/11, 7:00      30.5      -1.8             92            9.1           14.6   299.8
      03/10/11, 8:00      29.6      -2.4             92            9.2           14.9   299.7
      03/10/11, 9:00      29.5      -2.4             92            8.1           13.0   304.3
     03/10/11, 10:00      29.6      -2.3             92            7.2           11.6   292.8
     03/10/11, 11:00      31.1      -1.5             90            7.7           12.3   290.5
     03/10/11, 12:00      30.5      -1.8             91            7.6           12.3   300.5
     03/10/11, 13:00      31.1      -1.5             90            7.4           11.8   295.3
     03/10/11, 14:00      31.9      -1.1             89            7.6           12.3   290.6
     03/10/11, 15:00      33.0      -0.4             88            6.5           10.5   291.2
     03/10/11, 16:00      33.1      -0.4             87            7.2           11.6   282.3
     03/10/11, 17:00      32.3      -0.8             88            6.6           10.6   278.4
     03/10/11, 18:00      32.2      -0.9             88            5.3            8.5     287
     03/10/11, 19:00      30.8      -1.7             91            3.8            6.1   293.1
     03/10/11, 20:00      29.8      -2.2             94            2.9            4.6   287.5
     03/10/11, 21:00      28.9      -2.7             95            2.8            4.6   293.2
     03/10/11, 22:00      28.2      -3.1             97            2.7            4.3   336.6
     03/10/11, 23:00      27.3      -3.6             99            3.1            4.9   345.3
      03/11/11, 0:00      26.5      -4.0            100            2.9            4.7   3.441
      03/11/11, 1:00      25.9      -4.4            100            3.4            5.5    29.3
      03/11/11, 2:00      25.6      -4.6            100            3.0            4.8   33.24
      03/11/11, 3:00      25.1      -4.8            100            2.8            4.5   49.09
      03/11/11, 4:00      24.7      -5.1            100            2.3            3.6    80.1
      03/11/11, 5:00      24.5      -5.2            100            2.3            3.8     129
      03/11/11, 6:00      24.6      -5.1            100            3.0            4.9    85.4
      03/11/11, 7:00      24.5      -5.2             99            3.4            5.5   101.2
      03/11/11, 8:00      24.9      -4.9            100            4.0            6.5     121
      03/11/11, 9:00      25.6      -4.5            100            4.1            6.6   110.3
     03/11/11, 10:00      28.1      -3.2            100            5.5            8.9   125.4
     03/11/11, 11:00      31.9      -1.0            100            9.1           14.7   126.3
     03/11/11, 12:00      37.2       1.9            100           11.5           18.6   126.4
     03/11/11, 13:00      42.7       4.9             81           13.2           21.2   127.1
     03/11/11, 14:00      45.3       6.4             73           13.3           21.5   127.4
     03/11/11, 15:00      49.4       8.7             72           12.3           19.8   126.2
     03/11/11, 16:00      54.6      11.6             62           14.1           22.6   136.5
     03/11/11, 17:00      56.9      12.8             59           11.0           17.7   142.2
     03/11/11, 18:00      59.8      14.4             57            8.4           13.6   182.3
     03/11/11, 19:00      56.7      12.7             64            4.8            7.7   184.2
     03/11/11, 20:00      53.1      10.7             66            3.3            5.4   218.7
     03/11/11, 21:00      49.2       8.5             81           10.2           16.4   284.6
     03/11/11, 22:00      43.5       5.4             84            6.6           10.7     273
     03/11/11, 23:00      40.9       4.0             85            3.2            5.2   209.7
      03/12/11, 0:00      39.7       3.3             87            5.5            8.8   193.2


  

                                                                                             
           Date,Time       Air       Air     % Relative           Wind           Wind    Wind
                        Temp F    Temp C       Humidity      Speed mph     Speed km/h Dir Deg
---------------------------------------------------------------------------------------------
      03/12/11, 1:00      39.9       3.4             85            5.6            9.0   205.2
      03/12/11, 2:00      42.1       4.6             77            7.3           11.7   244.7
      03/12/11, 3:00      40.3       3.6             79            8.9           14.3   260.8
      03/12/11, 4:00      37.8       2.2             80            9.1           14.6   259.9
      03/12/11, 5:00      36.8       1.6             81           10.2           16.4   268.4
      03/12/11, 6:00      35.4       0.9             80           13.6           21.8   276.1
      03/12/11, 7:00      35.1       0.7             81           12.6           20.3   279.9
      03/12/11, 8:00      34.7       0.5             81           11.8           19.0   281.5
      03/12/11, 9:00      33.7      -0.0             81           10.5           16.9     281
     03/12/11, 10:00      34.4       0.3             77           13.6           21.8   285.2
     03/12/11, 11:00      35.0       0.7             74           12.1           19.5     284
     03/12/11, 12:00      36.0       1.2             73           12.4           20.0   292.1
     03/12/11, 13:00      37.0       1.8             72           12.2           19.6   287.7
     03/12/11, 14:00      39.3       3.1             69           11.8           18.9   283.9
     03/12/11, 15:00      41.3       4.2             66           11.4           18.4   285.5
     03/12/11, 16:00      41.2       4.1             66           11.4           18.3   283.2
     03/12/11, 17:00      41.0       4.0             68           10.5           16.9   289.6
     03/12/11, 18:00      39.6       3.2             72            9.1           14.6   298.2
     03/12/11, 19:00      36.2       1.3             77            7.8           12.6     301
     03/12/11, 20:00      33.4      -0.2             81            6.8           11.0     304
     03/12/11, 21:00      32.1      -1.0             82            6.4           10.3   301.7
     03/12/11, 22:00      31.4      -1.3             81            7.8           12.6   296.8
     03/12/11, 23:00      30.3      -2.0             82            8.2           13.2   294.6
      03/13/11, 0:00      29.3      -2.5             84            8.0           12.8   299.7
      03/13/11, 1:00      28.1      -3.2             87            7.7           12.4   301.2
      03/13/11, 2:00      26.8      -3.9             89            7.1           11.5     307
      03/13/11, 3:00      25.5      -4.6             91            6.8           11.0     317
      03/13/11, 4:00      23.9      -5.5             91            7.1           11.5   320.6
      03/13/11, 5:00      22.8      -6.1             92            7.0           11.3   323.3
      03/13/11, 6:00      21.8      -6.7             92            6.0            9.6   330.4
      03/13/11, 7:00      20.5      -7.4             90            5.4            8.7   335.2
      03/13/11, 8:00      19.5      -7.9             90            5.6            8.9   333.3
      03/13/11, 9:00      20.2      -7.6             91            6.4           10.2   336.8
     03/13/11, 10:00      20.7      -7.3             90            6.8           10.9   347.4
     03/13/11, 11:00      21.7      -6.7             88            5.7            9.2   352.4
     03/13/11, 12:00      23.1      -5.9             87            5.7            9.2   347.1
     03/13/11, 13:00      25.5      -4.6             83            5.3            8.5   352.5
     03/13/11, 14:00      27.4      -3.5             81            4.0            6.5   347.4
     03/13/11, 15:00      29.6      -2.3             78            4.5            7.2   353.4
     03/13/11, 16:00      30.7      -1.7             76            4.8            7.7   347.7
     03/13/11, 17:00      31.7      -1.2             76            5.5            8.8   349.9
     03/13/11, 18:00      31.7      -1.2             78            6.3           10.2   350.2
     03/13/11, 19:00      31.2      -1.4             81            8.2           13.2    .337
     03/13/11, 20:00      29.8      -2.2             87            5.4            8.6    9.09
     03/13/11, 21:00      28.9      -2.7             88            1.3            2.1   270.5
     03/13/11, 22:00      28.4      -3.0             93            0.8            1.2   353.4
     03/13/11, 23:00      28.5      -2.9             93            1.5            2.4   330.6
      03/14/11, 0:00      28.5      -2.9             93            2.1            3.3   329.6


  

                                                                                             
           Date,Time       Air       Air     % Relative           Wind           Wind    Wind
                        Temp F    Temp C       Humidity      Speed mph     Speed km/h Dir Deg
---------------------------------------------------------------------------------------------
      03/14/11, 1:00      28.1      -3.2             94            3.1            5.0   354.1
      03/14/11, 2:00      28.0      -3.2             93            3.6            5.7   358.4
      03/14/11, 3:00      27.7      -3.4             94            4.3            6.9   3.664
      03/14/11, 4:00      27.4      -3.6             94            5.6            9.0   3.986
      03/14/11, 5:00      27.0      -3.8             94            5.3            8.6   2.271
      03/14/11, 6:00      26.1      -4.3             96            4.7            7.6   355.9
      03/14/11, 7:00      25.2      -4.8             96            3.9            6.3   346.8
      03/14/11, 8:00      24.6      -5.1             97            3.6            5.8   339.6
      03/14/11, 9:00      25.8      -4.5             97            3.6            5.7   354.2
     03/14/11, 10:00      30.2      -2.0             95            3.7            5.9   45.14
     03/14/11, 11:00      36.4       1.5             87            5.9            9.4    83.2
     03/14/11, 12:00      40.3       3.6             78            6.6           10.7   118.9
     03/14/11, 13:00      42.7       4.9             73            6.2           10.0   127.8
     03/14/11, 14:00      44.7       6.0             64            5.2            8.4   129.9
     03/14/11, 15:00      47.0       7.3             57            4.9            7.8   112.6
     03/14/11, 16:00      48.0       7.9             53            4.7            7.6    88.1
     03/14/11, 17:00      48.3       8.0             50            4.0            6.5    82.1
     03/14/11, 18:00      47.7       7.7             53            4.4            7.1    59.9
     03/14/11, 19:00      45.9       6.7             56            4.5            7.2   58.82
     03/14/11, 20:00      42.6       4.9             63            3.1            5.0    81.8
     03/14/11, 21:00      40.5       3.7             69            2.2            3.5      74
     03/14/11, 22:00      38.0       2.3             73            2.5            4.0   2.023
     03/14/11, 23:00      36.1       1.3             77            2.6            4.1   32.99
      03/15/11, 0:00      34.8       0.5             79            2.5            4.1    90.6
      03/15/11, 1:00      33.8       0.0             81            0.7            1.1   42.19
      03/15/11, 2:00      34.4       0.3             79            1.4            2.2   350.8
      03/15/11, 3:00      32.9      -0.5             82            1.3            2.1   316.9
      03/15/11, 4:00      29.7      -2.3             93            1.1            1.8    80.1
      03/15/11, 5:00      28.2      -3.1             94            0.9            1.4   63.44
      03/15/11, 6:00      28.2      -3.1             94            1.7            2.7   347.7
      03/15/11, 7:00      26.4      -4.1             96            2.5            4.0    70.3
      03/15/11, 8:00      28.1      -3.1             93            2.1            3.4    85.4
      03/15/11, 9:00      29.5      -2.4             93            1.7            2.8   308.6
     03/15/11, 10:00      34.4       0.3             90            2.5            4.1   230.9
     03/15/11, 11:00      40.8       3.9             81            3.7            5.9   167.5
     03/15/11, 12:00      44.3       5.8             67            4.5            7.2   215.8
     03/15/11, 13:00      47.4       7.5             55            3.9            6.2   209.8
     03/15/11, 14:00      49.6       8.8             49            4.7            7.6   198.2
     03/15/11, 15:00      52.1      10.2             42            4.6            7.4   236.4
     03/15/11, 16:00      54.2      11.3             38            4.6            7.4   218.7
     03/15/11, 17:00      54.9      11.7             40            4.2            6.8     209
     03/15/11, 18:00      55.5      12.1             39            3.6            5.7   215.1
     03/15/11, 19:00      54.3      11.4             46            2.1            3.4   214.3
     03/15/11, 20:00      52.0      10.1             49            0.7            1.2   209.4
     03/15/11, 21:00      49.2       8.5             55            0.7            1.1     234
     03/15/11, 22:00      46.9       7.3             64            2.0            3.1   294.6
     03/15/11, 23:00      43.6       5.4             68            1.5            2.4   313.8
      03/16/11, 0:00      40.8       3.9             78            1.8            2.9   329.9


  

                                                                                             
           Date,Time       Air       Air     % Relative           Wind           Wind    Wind
                        Temp F    Temp C       Humidity      Speed mph     Speed km/h Dir Deg
---------------------------------------------------------------------------------------------
      03/16/11, 1:00      41.9       4.5             76            1.6            2.5    3.81
      03/16/11, 2:00      39.9       3.4             82            1.3            2.0   326.5
      03/16/11, 3:00      38.9       2.8             89            2.3            3.7   296.8
      03/16/11, 4:00      35.9       1.1             95            2.3            3.6   299.6
      03/16/11, 5:00      33.8      -0.0             98            2.2            3.5   313.9
      03/16/11, 6:00      33.6      -0.1             99            1.6            2.6   266.7
      03/16/11, 7:00      32.8      -0.6             99            0.2            0.4   213.8
      03/16/11, 8:00      31.5      -1.3            100            0.5            0.9   204.6
      03/16/11, 9:00      31.1      -1.5            100            1.7            2.7     127
     03/16/11, 10:00      37.7       2.2            100            2.6            4.2     188
     03/16/11, 11:00      46.1       6.8            100            5.3            8.5   157.6
     03/16/11, 12:00      50.9       9.5             79            8.8           14.2   152.3
     03/16/11, 13:00      55.6      12.1             68            9.4           15.2   150.2
     03/16/11, 14:00      60.2      14.7             59           11.4           18.4   155.5
     03/16/11, 15:00      63.6      16.6             50           13.0           20.9   165.7
     03/16/11, 16:00      66.0      17.9             45           13.7           22.0     172
     03/16/11, 17:00      66.3      18.1             42           13.7           22.1   171.4
     03/16/11, 18:00      65.4      17.6             48           11.5           18.5   165.1
     03/16/11, 19:00      61.6      15.4             56            8.9           14.3   158.5
     03/16/11, 20:00      58.1      13.5             62            9.0           14.5   151.6
     03/16/11, 21:00      55.4      12.0             64            8.3           13.4   154.1
     03/16/11, 22:00      53.3      10.8             72            7.8           12.6   148.6
     03/16/11, 23:00      53.6      11.0             73            9.2           14.8   156.2
      03/17/11, 0:00      53.3      10.8             75            8.7           14.0   154.3
      03/17/11, 1:00      50.6       9.3             82            6.2           10.0   150.1
      03/17/11, 2:00      51.2       9.7             82            7.4           12.0     153
      03/17/11, 3:00      49.6       8.8             87            5.6            8.9   140.5
      03/17/11, 4:00      48.4       8.1             89            5.2            8.4   145.8
      03/17/11, 5:00      52.6      10.4             90            9.2           14.9   158.8
      03/17/11, 6:00      55.3      11.9             87           10.5           17.0   168.1
      03/17/11, 7:00      55.0      11.8             90           10.6           17.0   163.1
      03/17/11, 8:00      55.3      12.0             91           10.3           16.6   158.2
      03/17/11, 9:00      57.1      12.9             90            9.5           15.3     159
     03/17/11, 10:00      60.5      14.8             88            9.4           15.1   167.1
     03/17/11, 11:00      62.7      16.1             85           10.8           17.5   171.1
     03/17/11, 12:00      65.5      17.6             79           13.2           21.3   179.5
     03/17/11, 13:00      67.7      18.8             76           11.8           19.0   192.1
     03/17/11, 14:00      68.1      19.1             75            7.6           12.2   197.9
     03/17/11, 15:00      70.4      20.3             70            8.4           13.5   216.2
     03/17/11, 16:00      71.9      21.2             66            8.1           13.0   257.4
     03/17/11, 17:00      68.9      19.5             67           11.4           18.3   287.5
     03/17/11, 18:00      64.5      17.1             69           10.5           17.0   297.7
     03/17/11, 19:00      59.9      14.5             69           10.8           17.3   301.5
     03/17/11, 20:00      54.6      11.6             76            5.8            9.4   308.9
     03/17/11, 21:00      50.9       9.5             84            4.7            7.5   312.7
     03/17/11, 22:00      48.2       8.0             88            4.7            7.6   301.2
     03/17/11, 23:00      46.6       7.1             89            5.2            8.3   299.6
      03/18/11, 0:00      46.0       6.8             90            7.4           11.9   293.5


  

                                                                                             
           Date,Time       Air       Air     % Relative           Wind           Wind    Wind
                        Temp F    Temp C       Humidity      Speed mph     Speed km/h Dir Deg
---------------------------------------------------------------------------------------------
      03/18/11, 1:00      44.6       6.0             76            7.7           12.3   293.8
      03/18/11, 2:00      42.6       4.9             77            5.3            8.6   299.1
      03/18/11, 3:00      39.8       3.3             82            2.8            4.5   302.9
      03/18/11, 4:00      37.5       2.1             86            2.4            3.9   312.5
      03/18/11, 5:00      37.0       1.8             86            3.6            5.8   302.1
      03/18/11, 6:00      37.4       2.0             86            3.7            6.0     299
      03/18/11, 7:00      36.7       1.6             88            3.2            5.2   301.1
      03/18/11, 8:00      37.3       2.0             87            3.3            5.3   290.8
      03/18/11, 9:00      37.8       2.2             86            3.1            5.0   311.9
     03/18/11, 10:00      39.6       3.2             85            4.3            6.9   302.7
     03/18/11, 11:00      41.2       4.1             80            5.5            8.8   301.8
     03/18/11, 12:00      43.8       5.5             73            6.2           10.0   292.5
     03/18/11, 13:00      45.8       6.7             66            7.7           12.5     296
     03/18/11, 14:00      46.4       7.0             65            7.3           11.8   301.6
     03/18/11, 15:00      48.8       8.4             65            6.8           10.9   306.5
     03/18/11, 16:00      48.8       8.3             63            6.8           11.0   305.7
     03/18/11, 17:00      49.6       8.8             61            6.5           10.5   310.4
     03/18/11, 18:00      50.2       9.1             60            5.3            8.5   312.7
     03/18/11, 19:00      49.2       8.6             65            4.1            6.6   304.6
     03/18/11, 20:00      45.9       6.7             73            4.1            6.6   297.4
     03/18/11, 21:00      43.5       5.4             78            3.5            5.6   297.9
     03/18/11, 22:00      40.7       3.8             86            2.0            3.3   317.5
     03/18/11, 23:00      38.4       2.6             90            2.1            3.4   320.6
      03/19/11, 0:00      37.1       1.8             92            2.7            4.3   339.1
      03/19/11, 1:00      35.5       0.9             94            3.2            5.2   335.8
      03/19/11, 2:00      33.9       0.1             96            2.7            4.4   348.1
      03/19/11, 3:00      33.2      -0.3             97            4.0            6.4     358
      03/19/11, 4:00      32.7      -0.6             96            3.8            6.1   16.18
      03/19/11, 5:00      32.4      -0.8             96            4.5            7.3   13.37
      03/19/11, 6:00      31.4      -1.3             97            3.7            6.0   33.95
      03/19/11, 7:00      31.1      -1.5             97            4.5            7.2    38.9
      03/19/11, 8:00      31.1      -1.5             96            4.9            7.8    77.9
      03/19/11, 9:00      32.7      -0.6             95            5.3            8.5   102.6
     03/19/11, 10:00      36.9       1.7             93            7.9           12.7   101.8
     03/19/11, 11:00      42.5       4.8             84            8.7           13.9     112
     03/19/11, 12:00      47.9       7.8             68            9.7           15.6     107
     03/19/11, 13:00      52.7      10.5             54           10.5           17.0    96.9
     03/19/11, 14:00      55.3      11.9             42           11.7           18.9   102.4
     03/19/11, 15:00      56.3      12.5             39           11.5           18.5   112.3
     03/19/11, 16:00      56.8      12.8             39           12.9           20.8     124
     03/19/11, 17:00      56.9      12.8             42           14.1           22.7   126.7
     03/19/11, 18:00      56.2      12.5             45           12.2           19.6   121.1
     03/19/11, 19:00      54.6      11.5             51            9.8           15.7   115.2
     03/19/11, 20:00      52.4      10.3             53           10.9           17.6   113.1
     03/19/11, 21:00      51.2       9.7             57           12.1           19.6   122.3
     03/19/11, 22:00      51.0       9.6             62           12.8           20.6   126.4
     03/19/11, 23:00      50.2       9.1             66           12.7           20.5   125.6
      03/20/11, 0:00      50.4       9.2             65           12.6           20.3   127.6


  

                                                                                             
           Date,Time       Air       Air     % Relative           Wind           Wind    Wind
                        Temp F    Temp C       Humidity      Speed mph     Speed km/h Dir Deg
---------------------------------------------------------------------------------------------
      03/20/11, 1:00      50.4       9.2             67           12.2           19.6   123.2
      03/20/11, 2:00      50.1       9.0             70           13.0           20.9   126.4
      03/20/11, 3:00      49.0       8.5             80           12.5           20.2   140.4
      03/20/11, 4:00      47.4       7.6             89           10.3           16.6   141.2
      03/20/11, 5:00      46.9       7.3             90            9.3           15.0   123.7
      03/20/11, 6:00      46.9       7.3             93           11.1           17.9   130.5
      03/20/11, 7:00      47.1       7.4             94           11.6           18.7     137
      03/20/11, 8:00      47.7       7.7             96           11.7           18.8     139
      03/20/11, 9:00      47.9       7.8             99           13.2           21.3     139
     03/20/11, 10:00      49.4       8.7             99           12.6           20.3   137.6
     03/20/11, 11:00      51.7      10.0             94           13.0           20.9   143.7
     03/20/11, 12:00      54.4      11.4             92            8.8           14.2   136.8
     03/20/11, 13:00      60.3      14.7             88            8.4           13.6     128
     03/20/11, 14:00      65.1      17.4             83            9.6           15.5   164.8
     03/20/11, 15:00      67.0      18.4             77            8.0           12.9   175.6
     03/20/11, 16:00      66.8      18.3             80            3.5            5.6   178.2
     03/20/11, 17:00      66.9      18.4             83            3.7            6.0   191.8
     03/20/11, 18:00      65.3      17.5             86            5.8            9.4   307.9
     03/20/11, 19:00      62.9      16.1             88            4.3            6.9   315.6
     03/20/11, 20:00      59.7      14.4             94            3.0            4.9   320.5
     03/20/11, 21:00      57.0      12.9             98            3.8            6.2   313.9
     03/20/11, 22:00      54.8      11.7             98            4.2            6.8   310.7
     03/20/11, 23:00      52.1      10.1             98            2.7            4.3   324.8
      03/21/11, 0:00      50.7       9.4             99            1.8            2.9   283.3
      03/21/11, 1:00      50.0       9.0             99            2.4            3.9     280
      03/21/11, 2:00      48.3       8.1            100            1.3            2.1   255.3
      03/21/11, 3:00      45.9       6.7            100            2.2            3.5   297.5
      03/21/11, 4:00      43.4       5.4            100            1.5            2.4   287.1
      03/21/11, 5:00      41.4       4.2            100            2.9            4.7   311.1
      03/21/11, 6:00      42.1       4.6            100            4.3            7.0   328.3
      03/21/11, 7:00      41.1       4.1            100            4.2            6.7   337.7
      03/21/11, 8:00      39.4       3.1            100            6.2           10.0   352.5
      03/21/11, 9:00      39.4       3.1            100            6.1            9.8   359.2
     03/21/11, 10:00      40.2       3.5            100            5.1            8.2   5.321
     03/21/11, 11:00      42.5       4.9            100            6.9           11.1   15.74
     03/21/11, 12:00      47.1       7.4            100            6.0            9.7   33.87
     03/21/11, 13:00      50.9       9.5             83            4.2            6.8   45.93
     03/21/11, 14:00      53.0      10.7             74            3.9            6.2    93.6
     03/21/11, 15:00      55.0      11.8             70            5.0            8.1   50.88
     03/21/11, 16:00      55.6      12.1             67            5.1            8.2   42.67
     03/21/11, 17:00      55.5      12.0             69            5.9            9.5   45.28
     03/21/11, 18:00      55.4      12.0             68            6.7           10.8   57.95
     03/21/11, 19:00      55.0      11.8             68            5.9            9.6   58.12
     03/21/11, 20:00      54.5      11.5             68            6.2           10.0   31.84
     03/21/11, 21:00      54.0      11.2             73            7.1           11.5   40.22
     03/21/11, 22:00      54.0      11.3             73            8.2           13.2   57.03
     03/21/11, 23:00      53.5      11.0             77            8.4           13.5   56.41
      03/22/11, 0:00      53.2      10.8             76            8.7           14.1   65.58


  

                                                                                             
           Date,Time       Air       Air     % Relative           Wind           Wind    Wind
                        Temp F    Temp C       Humidity      Speed mph     Speed km/h Dir Deg
---------------------------------------------------------------------------------------------
      03/22/11, 1:00      53.0      10.6             77           10.5           16.9    70.8
      03/22/11, 2:00      52.6      10.4             79           10.9           17.6    73.9
      03/22/11, 3:00      51.8      10.0             89           11.7           18.8    90.5
      03/22/11, 4:00      49.5       8.8             92           12.8           20.6    86.4
      03/22/11, 5:00      49.4       8.7             92           11.8           19.0    90.7
      03/22/11, 6:00      48.8       8.4             91           11.7           18.8    86.8
      03/22/11, 7:00      47.7       7.7             91           12.4           20.0    90.6
      03/22/11, 8:00      47.0       7.4             91           11.9           19.2    93.5
      03/22/11, 9:00      47.4       7.5             90           12.2           19.7    91.6
     03/22/11, 10:00      47.9       7.8             89           11.0           17.7      93
     03/22/11, 11:00      48.6       8.3             88           10.8           17.3    87.8
     03/22/11, 12:00      49.9       8.9             86           11.1           17.9    85.4
     03/22/11, 13:00      51.3       9.7             85            9.8           15.7      76
     03/22/11, 14:00      51.0       9.5             88           11.0           17.7   68.24
     03/22/11, 15:00      52.2      10.2             88           10.7           17.2    71.7
     03/22/11, 16:00      52.8      10.6             91            7.8           12.5    74.5
     03/22/11, 17:00      54.4      11.4             91            9.0           14.5    81.9
     03/22/11, 18:00      54.2      11.4             93           11.0           17.7    84.5
     03/22/11, 19:00      52.7      10.5             95            9.3           15.0    77.7
     03/22/11, 20:00      51.2       9.7             96           11.8           19.0    79.8
     03/22/11, 21:00      51.7       9.9             96           10.0           16.1   22.04
     03/22/11, 22:00      51.8      10.0             98            7.4           11.8   109.9
     03/22/11, 23:00      52.4      10.3             96            5.0            8.1     114
      03/23/11, 0:00      51.0       9.5             98            3.5            5.6   144.5
      03/23/11, 1:00      51.8      10.0             99            4.6            7.3   213.2
      03/23/11, 2:00      51.1       9.6             99            5.6            9.0   227.4
      03/23/11, 3:00      49.1       8.5             98            6.7           10.7   242.6
      03/23/11, 4:00      47.4       7.5             95            7.1           11.5   257.3
      03/23/11, 5:00      46.1       6.8             96            5.4            8.7     253
      03/23/11, 6:00      45.2       6.4             95            6.2           10.0   251.7
      03/23/11, 7:00      44.2       5.8             94            6.8           11.0   264.2
      03/23/11, 8:00      43.2       5.2             92            7.4           11.8   263.5
      03/23/11, 9:00      42.7       4.9             95            7.4           12.0   268.7
     03/23/11, 10:00      41.7       4.4             96            7.8           12.5   258.2
     03/23/11, 11:00      41.4       4.2             91            8.1           13.1   260.7
     03/23/11, 12:00      41.9       4.5             87            9.6           15.5   263.5
     03/23/11, 13:00      42.8       5.0             84            8.5           13.7   262.9
     03/23/11, 14:00      43.7       5.5             81            8.9           14.4   264.8
     03/23/11, 15:00      44.1       5.7             82            9.0           14.5   261.9
     03/23/11, 16:00      43.2       5.2             86           12.4           20.0   285.7
     03/23/11, 17:00      41.6       4.4             89           12.0           19.3   289.6
     03/23/11, 18:00      40.1       3.5             91           10.1           16.3   313.7
     03/23/11, 19:00      37.6       2.1             92            8.6           13.8   322.9
     03/23/11, 20:00      35.0       0.6             92            8.4           13.6   332.4
     03/23/11, 21:00      33.2      -0.3             90            8.9           14.3   335.2
     03/23/11, 22:00      31.9      -1.0             86            8.8           14.2   336.5
     03/23/11, 23:00      30.9      -1.6             84            8.9           14.4   341.6
      03/24/11, 0:00      30.6      -1.8             81            7.6           12.2     336


  

                                                                                             
           Date,Time       Air       Air     % Relative           Wind           Wind    Wind
                        Temp F    Temp C       Humidity      Speed mph     Speed km/h Dir Deg
---------------------------------------------------------------------------------------------
      03/24/11, 1:00      30.1      -2.1             81            8.4           13.5   338.9
      03/24/11, 2:00      29.6      -2.4             80           10.0           16.0   358.3
      03/24/11, 3:00      29.4      -2.5             81            9.3           14.9   359.4
      03/24/11, 4:00      29.4      -2.5             79            7.3           11.8   351.2
      03/24/11, 5:00      29.1      -2.6             80            7.5           12.1   351.4
      03/24/11, 6:00      28.0      -3.2             82            4.2            6.8   351.6
      03/24/11, 7:00      28.5      -2.9             81            2.7            4.4   352.5
      03/24/11, 8:00      29.1      -2.6             84            4.6            7.4   341.8
      03/24/11, 9:00      29.3      -2.5             84            5.3            8.4   323.9
     03/24/11, 10:00      30.7      -1.7             80            5.0            8.0   311.8
     03/24/11, 11:00      31.9      -1.0             76            5.7            9.2   321.4
     03/24/11, 12:00      33.0      -0.5             71            5.8            9.4   316.6
     03/24/11, 13:00      34.5       0.4             69            5.3            8.5   313.1
     03/24/11, 14:00      35.4       0.9             66            4.9            7.9   309.6
     03/24/11, 15:00      37.1       1.8             62            4.6            7.4   296.4
     03/24/11, 16:00      37.5       2.1             60            4.0            6.4   328.3
     03/24/11, 17:00      37.7       2.2             58            2.8            4.6   285.6
     03/24/11, 18:00      38.5       2.6             55            2.4            3.8   189.8
     03/24/11, 19:00      38.1       2.4             57            2.1            3.3   299.2
     03/24/11, 20:00      35.9       1.2             63            1.4            2.3   295.1
     03/24/11, 21:00      34.2       0.2             71            1.5            2.4   10.79
     03/24/11, 22:00      32.4      -0.8             71            3.2            5.1   33.52
     03/24/11, 23:00      32.5      -0.7             79            2.5            4.0   246.8
      03/25/11, 0:00      32.7      -0.6             80            2.6            4.1   291.7
      03/25/11, 1:00      32.3      -0.8             83            3.3            5.3   4.824
      03/25/11, 2:00      32.3      -0.8             82            3.1            4.9   36.51
      03/25/11, 3:00      32.4      -0.8             76            3.1            4.9   46.79
      03/25/11, 4:00      32.5      -0.7             77            2.8            4.6    75.3
      03/25/11, 5:00      32.2      -0.9             90            3.3            5.3   114.8
      03/25/11, 6:00      30.8      -1.7             97            3.0            4.8    95.6
      03/25/11, 7:00      30.5      -1.8             99            1.3            2.1   32.35
      03/25/11, 8:00      30.6      -1.8             99            3.1            4.9   4.966
      03/25/11, 9:00      31.3      -1.4             99            3.7            5.9   11.27
     03/25/11, 10:00      32.1      -0.9             98            4.0            6.4    9.66
     03/25/11, 11:00      33.2      -0.3             96            4.1            6.7   24.06
     03/25/11, 12:00      34.8       0.6             91            3.2            5.1   39.83
     03/25/11, 13:00      36.6       1.5             85            3.2            5.2    78.1
     03/25/11, 14:00      38.3       2.5             77            4.1            6.6     113
     03/25/11, 15:00      38.2       2.4             74            2.9            4.7    88.3
     03/25/11, 16:00      38.1       2.4             74            3.2            5.1    98.6
     03/25/11, 17:00      38.9       2.8             74            3.0            4.9    92.8
     03/25/11, 18:00      39.4       3.1             70            4.2            6.8   60.24
     03/25/11, 19:00      38.5       2.6             70            5.5            8.8   61.33
     03/25/11, 20:00      37.7       2.2             75            4.7            7.5    73.2
     03/25/11, 21:00      36.7       1.6             78            3.5            5.7    75.9
     03/25/11, 22:00      35.9       1.2             80            2.5            4.1    78.2
     03/25/11, 23:00      35.3       0.8             83            2.8            4.6    76.7
      03/26/11, 0:00      35.4       0.9             80            4.4            7.0   68.23


  

                                                                                             
           Date,Time       Air       Air     % Relative           Wind           Wind    Wind
                        Temp F    Temp C       Humidity      Speed mph     Speed km/h Dir Deg
---------------------------------------------------------------------------------------------
      03/26/11, 1:00      35.0       0.7             81            5.1            8.3   67.87
      03/26/11, 2:00      34.2       0.2             75            5.9            9.5      72
      03/26/11, 3:00      33.1      -0.4             75            6.6           10.6    73.7
      03/26/11, 4:00      31.6      -1.2             80            8.6           13.8   60.19
      03/26/11, 5:00      29.9      -2.1             87            7.9           12.7   57.31
      03/26/11, 6:00      29.2      -2.5             89            8.0           12.9   65.27
      03/26/11, 7:00      28.8      -2.8             88            8.9           14.4   68.23
      03/26/11, 8:00      28.1      -3.2             87            9.3           15.0    68.1
      03/26/11, 9:00      28.8      -2.8             87            8.9           14.4   51.78
     03/26/11, 10:00      30.0      -2.1             83           10.8           17.4   45.51
     03/26/11, 11:00      30.1      -2.0             76           10.8           17.4   63.03
     03/26/11, 12:00      33.0      -0.4             66           10.4           16.7   62.66
     03/26/11, 13:00      34.5       0.4             57           10.9           17.6   56.33
     03/26/11, 14:00      35.9       1.2             51           10.6           17.1    50.4
     03/26/11, 15:00      36.6       1.6             47            9.6           15.4   55.39
     03/26/11, 16:00      36.2       1.3             48            9.2           14.8   47.06
     03/26/11, 17:00      36.3       1.4             47            9.2           14.9   41.24
     03/26/11, 18:00      35.8       1.1             48            8.0           12.9   50.84
     03/26/11, 19:00      35.5       0.9             49            8.6           13.8   45.65
     03/26/11, 20:00      34.1       0.2             52            7.5           12.1    39.6
     03/26/11, 21:00      32.3      -0.8             56            6.9           11.2   30.11
     03/26/11, 22:00      31.0      -1.6             63            4.0            6.5   46.17
     03/26/11, 23:00      30.4      -1.9             66            3.9            6.3   34.21
      03/27/11, 0:00      29.6      -2.3             69            5.7            9.2   48.43
      03/27/11, 1:00      27.9      -3.3             73            5.6            9.0   37.84
      03/27/11, 2:00      26.5      -4.1             78            4.8            7.7   38.86
      03/27/11, 3:00      25.6      -4.5             79            4.1            6.7   29.31
      03/27/11, 4:00      25.5      -4.6             78            6.3           10.1   36.58
      03/27/11, 5:00      24.0      -5.4             83            6.4           10.2   37.78
      03/27/11, 6:00      22.9      -6.0             86            4.9            7.9   44.41
      03/27/11, 7:00      22.1      -6.5             87            5.1            8.2   30.82
      03/27/11, 8:00      22.1      -6.5             87            5.3            8.5   31.46
      03/27/11, 9:00      25.3      -4.7             84            5.2            8.4    41.9
     03/27/11, 10:00      28.8      -2.8             75            6.3           10.2   63.55
     03/27/11, 11:00      31.2      -1.5             69            6.1            9.8      79
     03/27/11, 12:00      33.5      -0.2             62            6.3           10.2    77.3
     03/27/11, 13:00      34.8       0.6             58            6.4           10.3   66.98
     03/27/11, 14:00      37.5       2.0             53            7.1           11.5    73.1
     03/27/11, 15:00      39.4       3.1             43            6.9           11.2    71.2
     03/27/11, 16:00      40.2       3.5             40            7.4           11.8   64.84
     03/27/11, 17:00      40.6       3.8             38            8.1           13.0   62.32
     03/27/11, 18:00      39.8       3.3             37            6.8           11.0   66.66
     03/27/11, 19:00      39.1       2.9             38            6.3           10.1    73.7
     03/27/11, 20:00      38.0       2.3             43            4.6            7.4    74.7
     03/27/11, 21:00      36.9       1.7             51            4.7            7.5   55.62
     03/27/11, 22:00      35.8       1.1             54            5.1            8.3   49.51
     03/27/11, 23:00      34.5       0.4             55            4.6            7.4   60.38
      03/28/11, 0:00      33.6      -0.1             57            4.6            7.4   68.61


  

                                                                                             
           Date,Time       Air       Air     % Relative           Wind           Wind    Wind
                        Temp F    Temp C       Humidity      Speed mph     Speed km/h Dir Deg
---------------------------------------------------------------------------------------------
      03/28/11, 1:00      32.2      -0.9             61            3.7            6.0   64.39
      03/28/11, 2:00      31.3      -1.4             63            6.3           10.1   65.12
      03/28/11, 3:00      29.6      -2.3             68            6.6           10.6   69.28
      03/28/11, 4:00      27.8      -3.3             74            5.8            9.3    70.6
      03/28/11, 5:00      26.6      -4.0             79            5.2            8.4   64.38
      03/28/11, 6:00      25.8      -4.4             82            4.8            7.7   60.26
      03/28/11, 7:00      25.0      -4.9             86            5.5            8.8   62.99
      03/28/11, 8:00      25.3      -4.7             88            4.9            7.9    73.9
      03/28/11, 9:00      28.7      -2.9             83            6.4           10.3      89
     03/28/11, 10:00      32.1      -0.9             60            8.0           12.9    86.8
     03/28/11, 11:00      35.1       0.7             50            7.9           12.7    95.6
     03/28/11, 12:00      37.9       2.3             45            7.2           11.6      85
     03/28/11, 13:00      39.8       3.3             36            7.4           11.9    76.5
     03/28/11, 14:00      40.9       3.9             33            7.7           12.3   68.64
     03/28/11, 15:00      41.4       4.2             32            7.4           11.9    73.8
     03/28/11, 16:00      41.7       4.4             31            7.7           12.5   56.55
     03/28/11, 17:00      42.5       4.8             32            7.5           12.1   61.24
     03/28/11, 18:00      41.2       4.1             33            6.9           11.0   62.21
     03/28/11, 19:00      40.3       3.6             35            5.9            9.5   58.46
     03/28/11, 20:00      39.2       3.0             38            5.3            8.6   55.19
     03/28/11, 21:00      38.1       2.4             44            4.8            7.7   52.16
     03/28/11, 22:00      37.6       2.1             46            5.7            9.1   44.06
     03/28/11, 23:00      37.2       1.9             48            4.3            7.0    77.5
      03/29/11, 0:00      35.6       1.0             73            8.0           12.8   134.7
      03/29/11, 1:00      33.7      -0.1             81            5.1            8.2   108.7
      03/29/11, 2:00      33.4      -0.2             84            3.6            5.8    80.7
      03/29/11, 3:00      32.1      -0.9             91            5.0            8.0   58.59
      03/29/11, 4:00      31.3      -1.4             97            4.7            7.6   55.74
      03/29/11, 5:00      30.5      -1.8             99            3.9            6.2   48.41
      03/29/11, 6:00      30.3      -1.9            100            4.1            6.6   52.33
      03/29/11, 7:00      30.2      -2.0            100            5.0            8.1   52.89
      03/29/11, 8:00      30.3      -2.0            100            5.3            8.5   53.11
      03/29/11, 9:00      30.6      -1.8            100            6.8           10.9   63.35
     03/29/11, 10:00      30.9      -1.6            100            6.7           10.8    80.3
     03/29/11, 11:00      32.1      -1.0             94            7.3           11.8    87.9
     03/29/11, 12:00     -94.7     -71.4             88            6.2           10.1   105.1
     03/29/11, 13:00    -122.4     -86.8            -33            5.8            9.3    89.1
     03/29/11, 14:00    -122.3     -86.7            -33            5.4            8.7      76
     03/29/11, 15:00    -122.1     -86.6            -33            3.1            4.9    80.7
     03/29/11, 16:00    -122.1     -86.6            -33            3.1            5.0   66.47
     03/29/11, 17:00    -122.1     -86.6            -33            4.0            6.4    42.4
     03/29/11, 18:00    -122.1     -86.6            -33            3.4            5.5   59.21
     03/29/11, 19:00    -122.1     -86.6            -33            3.1            4.9   56.23
     03/29/11, 20:00    -122.3     -86.7            -33            1.6            2.6    87.6
     03/29/11, 21:00    -122.6     -86.9            -33            0.6            1.0   297.9
     03/29/11, 22:00    -122.8     -87.0            -33            2.1            3.4   304.4
     03/29/11, 23:00    -123.0     -87.1            -34            3.0            4.9     321
      03/30/11, 0:00    -123.0     -87.1            -34            2.7            4.3   325.8


  

                                                                                             
           Date,Time       Air       Air     % Relative           Wind           Wind    Wind
                        Temp F    Temp C       Humidity      Speed mph     Speed km/h Dir Deg
---------------------------------------------------------------------------------------------
      03/30/11, 1:00    -123.2     -87.2            -34            1.1            1.7   347.2
      03/30/11, 2:00    -123.2     -87.2            -34            1.1            1.8   356.4
      03/30/11, 3:00    -123.3     -87.3            -34            2.7            4.3   329.4
      03/30/11, 4:00    -123.3     -87.3            -34            2.3            3.6   333.9
      03/30/11, 5:00    -123.3     -87.3            -34            2.2            3.6   328.7
      03/30/11, 6:00    -123.5     -87.4            -34            3.4            5.5   329.9
      03/30/11, 7:00    -123.5     -87.4            -34            3.0            4.8   339.2
      03/30/11, 8:00    -123.5     -87.4            -34            1.8            2.9   341.5
      03/30/11, 9:00    -123.2     -87.2            -34            2.9            4.7    9.88
     03/30/11, 10:00    -122.8     -87.0            -33            3.4            5.5   36.99
     03/30/11, 11:00    -122.3     -86.7            -33            4.1            6.7    20.7
     03/30/11, 12:00    -121.7     -86.4            -33            3.7            5.9   48.48
     03/30/11, 13:00    -121.2     -86.1            -33            3.8            6.1   62.62
     03/30/11, 14:00    -120.8     -85.9            -33            3.9            6.3    83.6
     03/30/11, 15:00    -120.5     -85.7            -33            4.3            6.9    83.9
     03/30/11, 16:00    -120.3     -85.6            -33            4.4            7.1   113.3
     03/30/11, 17:00    -120.1     -85.5            -33            3.6            5.9   113.8
     03/30/11, 18:00    -120.1     -85.5            -33            2.7            4.4   154.4
     03/30/11, 19:00    -120.8     -85.9            -33            1.3            2.1   230.3
     03/30/11, 20:00    -121.5     -86.3            -33            0.6            1.0   236.4
     03/30/11, 21:00    -122.4     -86.8            -33            1.7            2.7   245.4
     03/30/11, 22:00    -122.6     -86.9            -33            1.6            2.6   258.6
     03/30/11, 23:00    -122.8     -87.0            -33            0.2            0.2   316.5
      03/31/11, 0:00    -123.0     -87.1            -34            0.0            0.1   316.5
      03/31/11, 1:00    -123.2     -87.2            -34            0.0            0.0   316.6
      03/31/11, 2:00    -123.2     -87.2            -34            1.5            2.4   307.9
      03/31/11, 3:00    -123.2     -87.2            -34            1.4            2.3   330.6
      03/31/11, 4:00    -123.3     -87.3            -34            0.5            0.8   336.4
      03/31/11, 5:00    -123.3     -87.3            -34            0.5            0.8   25.01
      03/31/11, 6:00    -123.3     -87.3            -34            0.8            1.3   251.9
      03/31/11, 7:00    -123.3     -87.3            -34            1.4            2.3   270.7
      03/31/11, 8:00    -123.2     -87.2            -34            1.0            1.6   308.9
      03/31/11, 9:00    -123.2     -87.2            -34            1.0            1.6   27.63
     03/31/11, 10:00    -122.8     -87.0            -34            3.3            5.3   117.4
     03/31/11, 11:00    -122.4     -86.8            -33            5.4            8.7   125.8
     03/31/11, 12:00    -121.9     -86.5            -33            5.7            9.2   133.3
     03/31/11, 13:00    -121.0     -86.0            -33            6.5           10.4   136.4
     03/31/11, 14:00    -120.5     -85.7            -33            5.6            9.1   148.3
     03/31/11, 15:00    -120.1     -85.5            -33            5.7            9.2   134.3
     03/31/11, 16:00    -120.1     -85.5            -33            4.3            6.9   149.9
     03/31/11, 17:00    -120.1     -85.5            -33            3.8            6.2   181.8
     03/31/11, 18:00    -120.5     -85.7            -33            4.7            7.5   181.2
     03/31/11, 19:00    -121.0     -86.0            -33            2.5            4.1   184.7
     03/31/11, 20:00    -121.4     -86.2            -33            2.5            4.0   164.8
     03/31/11, 21:00    -121.7     -86.4            -33            2.1            3.4   156.1
     03/31/11, 22:00    -122.1     -86.6            -33            3.9            6.3   164.6
     03/31/11, 23:00    -122.3     -86.7            -33            5.1            8.1   183.5
      04/01/11, 0:00    -122.3     -86.7            -33            3.8            6.1   190.6


  

                                                                                             
           Date,Time       Air       Air     % Relative           Wind           Wind    Wind
                        Temp F    Temp C       Humidity      Speed mph     Speed km/h Dir Deg
---------------------------------------------------------------------------------------------
      04/01/11, 1:00    -122.3     -86.7            -33            3.4            5.4   229.5
      04/01/11, 2:00    -122.3     -86.7            -33            2.8            4.5   206.4
      04/01/11, 3:00    -122.4     -86.8            -33            3.6            5.8   192.2
      04/01/11, 4:00    -122.4     -86.8            -33            4.4            7.1   199.3
      04/01/11, 5:00    -122.3     -86.7            -33            4.2            6.8   232.6
      04/01/11, 6:00    -122.3     -86.7            -33            5.9            9.5   251.4
      04/01/11, 7:00    -122.3     -86.7            -33            7.5           12.1   272.2
      04/01/11, 8:00    -122.4     -86.8            -33            7.4           11.9   284.7
      04/01/11, 9:00    -122.3     -86.7            -33            5.3            8.6   263.3
     04/01/11, 10:00    -122.1     -86.6            -33            6.3           10.2   257.3
     04/01/11, 11:00    -121.7     -86.4            -33            9.9           15.9   275.6
     04/01/11, 12:00    -121.2     -86.1            -33           10.9           17.5   288.5
     04/01/11, 13:00    -120.6     -85.8            -33           11.3           18.2   281.2
     04/01/11, 14:00    -119.9     -85.4            -33           12.2           19.7   294.2
     04/01/11, 15:00    -119.7     -85.3            -33           13.7           22.0   294.3
     04/01/11, 16:00    -119.6     -85.2            -33           14.5           23.3   297.7
     04/01/11, 17:00    -119.6     -85.2            -33           14.0           22.5   292.7
     04/01/11, 18:00    -119.7     -85.3            -33           14.2           22.9     291
     04/01/11, 19:00    -120.3     -85.6            -33           12.8           20.5   291.2
     04/01/11, 20:00    -120.6     -85.8            -33            9.7           15.6   295.4
     04/01/11, 21:00    -121.2     -86.1            -33            7.6           12.2   294.8
     04/01/11, 22:00    -121.7     -86.4            -33            6.1            9.8   286.6
     04/01/11, 23:00    -122.1     -86.6            -33            5.0            8.0     279
      04/02/11, 0:00    -122.3     -86.7            -33            3.4            5.5   268.3
      04/02/11, 1:00    -122.6     -86.9            -33            3.4            5.5   261.9
      04/02/11, 2:00    -122.8     -87.0            -33            4.4            7.1   276.9
      04/02/11, 3:00    -122.8     -87.0            -33            3.9            6.4   258.6
      04/02/11, 4:00    -123.0     -87.1            -34            3.9            6.3   262.4
      04/02/11, 5:00    -123.0     -87.1            -34            3.7            5.9   270.5
      04/02/11, 6:00    -123.0     -87.1            -34            4.0            6.5   263.6
      04/02/11, 7:00    -123.0     -87.1            -34            5.5            8.9   280.6
      04/02/11, 8:00    -123.0     -87.1            -34            3.9            6.2   267.5
      04/02/11, 9:00    -122.6     -86.9            -33            5.3            8.5     278
     04/02/11, 10:00    -122.1     -86.6            -33            5.7            9.1   283.3
     04/02/11, 11:00    -121.4     -86.2            -33            5.7            9.1   294.6
     04/02/11, 12:00    -120.6     -85.8            -33            7.0           11.3   299.6
     04/02/11, 13:00    -119.9     -85.4            -33            7.8           12.5   299.7
     04/02/11, 14:00    -119.2     -85.0            -33            6.6           10.6     291
     04/02/11, 15:00    -118.3     -84.5            -32            5.1            8.2   263.1
     04/02/11, 16:00    -117.8     -84.2            -32            4.6            7.4   266.1
     04/02/11, 17:00    -118.1     -84.4            -32            3.3            5.3   197.4
     04/02/11, 18:00    -118.8     -84.8            -32            4.1            6.6   158.5
     04/02/11, 19:00    -119.2     -85.0            -33            3.6            5.8   137.8
     04/02/11, 20:00    -119.9     -85.4            -33            2.3            3.7   121.7
     04/02/11, 21:00    -120.3     -85.6            -33            4.3            6.9   117.8
     04/02/11, 22:00    -120.8     -85.9            -33            6.2            9.9   113.6
     04/02/11, 23:00    -121.0     -86.0            -33            6.9           11.0   114.6
      04/03/11, 0:00    -121.2     -86.1            -33            7.8           12.6   112.1


  

                                                                                             
           Date,Time       Air       Air     % Relative           Wind           Wind    Wind
                        Temp F    Temp C       Humidity      Speed mph     Speed km/h Dir Deg
---------------------------------------------------------------------------------------------
      04/03/11, 1:00    -121.2     -86.1            -33           11.3           18.2   118.6
      04/03/11, 2:00    -121.0     -86.0            -33           13.1           21.0   121.6
      04/03/11, 3:00    -121.0     -86.0            -33           13.9           22.4   122.2
      04/03/11, 4:00    -121.2     -86.1            -33           16.0           25.8   126.3
      04/03/11, 5:00    -121.0     -86.0            -33           15.9           25.5   128.8
      04/03/11, 6:00    -121.0     -86.0            -33           14.5           23.3   124.5
      04/03/11, 7:00    -121.0     -86.0            -33           13.8           22.1   126.4
      04/03/11, 8:00    -121.0     -86.0            -33           11.0           17.7   134.3
      04/03/11, 9:00    -120.6     -85.8            -33           14.4           23.1   140.2
     04/03/11, 10:00    -119.7     -85.3            -33           15.9           25.7   150.4
     04/03/11, 11:00    -118.3     -84.5            -32           15.7           25.3     161
     04/03/11, 12:00    -116.7     -83.6            -32           18.6           30.0   178.8
     04/03/11, 13:00    -114.2     -82.2            -31           16.8           27.1   187.3
     04/03/11, 14:00    -112.2     -81.1            -31           12.1           19.5   191.7
     04/03/11, 15:00    -111.3     -80.6            -30            9.5           15.2   199.9
     04/03/11, 16:00    -107.0     -78.2            -28           10.2           16.4   198.1
     04/03/11, 17:00    -101.7     -75.3            -26           10.2           16.4   195.3
     04/03/11, 18:00    -101.6     -75.2            -26            6.0            9.6   225.5
     04/03/11, 19:00    -107.0     -78.2            -28           13.0           20.9     291
     04/03/11, 20:00    -113.4     -81.8            -30           14.6           23.6   296.6
     04/03/11, 21:00    -117.6     -84.1            -32           16.3           26.3   301.9
     04/03/11, 22:00    -119.7     -85.3            -33           16.6           26.7     302
     04/03/11, 23:00    -120.6     -85.8            -33           11.1           17.9   303.4
      04/04/11, 0:00    -121.5     -86.3            -33           11.8           18.9   293.8
      04/04/11, 1:00    -121.9     -86.5            -33           13.5           21.8   294.5
      04/04/11, 2:00    -121.9     -86.5            -33           12.1           19.5   294.8
      04/04/11, 3:00    -122.1     -86.6            -33           11.9           19.1   293.8
      04/04/11, 4:00    -122.3     -86.7            -33           10.3           16.6     288
      04/04/11, 5:00    -122.3     -86.7            -33           12.2           19.7   286.4
      04/04/11, 6:00    -122.1     -86.6            -33           13.9           22.4   285.6
      04/04/11, 7:00    -122.3     -86.7            -33           14.8           23.8   286.2
      04/04/11, 8:00    -122.3     -86.7            -33           15.6           25.1   292.5
      04/04/11, 9:00    -122.3     -86.7            -33           16.2           26.1   292.8
     04/04/11, 10:00    -122.1     -86.6            -33           17.0           27.3   295.3
     04/04/11, 11:00    -122.1     -86.6            -33           16.2           26.1   296.6
     04/04/11, 12:00    -122.1     -86.6            -33           15.6           25.1     297
     04/04/11, 13:00    -122.1     -86.6            -33           15.0           24.2   301.2
     04/04/11, 14:00    -121.7     -86.4            -33           13.2           21.3   310.5
     04/04/11, 15:00    -121.4     -86.2            -33           14.5           23.3     303
     04/04/11, 16:00    -121.2     -86.1            -33           15.3           24.6   301.8
     04/04/11, 17:00    -120.8     -85.9            -33           15.3           24.6   297.1
     04/04/11, 18:00    -121.0     -86.0            -33           15.5           25.0   295.7
     04/04/11, 19:00    -121.2     -86.1            -33           15.1           24.3   298.7
     04/04/11, 20:00    -121.5     -86.3            -33           13.1           21.1   295.1
     04/04/11, 21:00    -122.1     -86.6            -33           10.2           16.5   297.3
     04/04/11, 22:00    -122.4     -86.8            -33            9.0           14.5   290.5
     04/04/11, 23:00    -122.6     -86.9            -33            6.9           11.1   292.9
      04/05/11, 0:00    -122.8     -87.0            -33            5.8            9.4   284.7


  

                                                                                             
           Date,Time       Air       Air     % Relative           Wind           Wind    Wind
                        Temp F    Temp C       Humidity      Speed mph     Speed km/h Dir Deg
---------------------------------------------------------------------------------------------
      04/05/11, 1:00    -123.0     -87.1            -33            2.9            4.6   265.9
      04/05/11, 2:00    -123.2     -87.2            -34            1.9            3.0   243.5
      04/05/11, 3:00    -123.2     -87.2            -34            1.7            2.7   219.9
      04/05/11, 4:00    -123.3     -87.3            -34            1.2            1.9   215.4
      04/05/11, 5:00    -123.3     -87.3            -34            1.2            1.9   210.7
      04/05/11, 6:00    -123.3     -87.3            -34            1.4            2.2   209.9
      04/05/11, 7:00    -123.3     -87.3            -34            1.1            1.8     196
      04/05/11, 8:00    -123.3     -87.3            -34            0.7            1.2   221.3
      04/05/11, 9:00    -123.0     -87.1            -34            2.1            3.4   144.3
     04/05/11, 10:00    -122.4     -86.8            -33            6.5           10.4   173.7
     04/05/11, 11:00    -121.7     -86.4            -33            9.1           14.6   179.4
     04/05/11, 12:00    -121.0     -86.0            -33           11.2           18.1   179.8
     04/05/11, 13:00    -120.1     -85.5            -33           11.9           19.1   182.9
     04/05/11, 14:00    -119.2     -85.0            -32            9.5           15.3   192.4
     04/05/11, 15:00    -118.1     -84.4            -32            7.7           12.4   213.9
     04/05/11, 16:00    -117.0     -83.8            -32            8.1           13.1   251.3
     04/05/11, 17:00    -116.9     -83.7            -32            6.3           10.1   235.7
     04/05/11, 18:00    -117.2     -83.9            -32            6.4           10.3   243.3
     04/05/11, 19:00    -117.0     -83.8            -32            5.0            8.1   235.3
     04/05/11, 20:00    -118.3     -84.5            -32            1.4            2.3   239.4
     04/05/11, 21:00    -119.6     -85.2            -33            1.2            1.9   146.1
     04/05/11, 22:00    -120.3     -85.6            -33            2.1            3.4   106.2
     04/05/11, 23:00    -120.6     -85.8            -33            3.2            5.2   117.9
      04/06/11, 0:00    -120.6     -85.8            -33            3.0            4.8    85.8
      04/06/11, 1:00    -120.8     -85.9            -33            4.3            7.0   139.1
      04/06/11, 2:00    -121.0     -86.0            -33            4.1            6.7   141.5
      04/06/11, 3:00    -121.0     -86.0            -33            2.3            3.8   53.69
      04/06/11, 4:00    -121.2     -86.1            -33            2.2            3.6      19
      04/06/11, 5:00    -121.2     -86.1            -33            2.1            3.4    80.4
      04/06/11, 6:00    -121.4     -86.2            -33            1.8            2.9   129.3
      04/06/11, 7:00    -121.5     -86.3            -33            9.2           14.8   357.3
      04/06/11, 8:00    -121.5     -86.3            -33           10.5           17.0   16.92
      04/06/11, 9:00    -121.4     -86.2            -33            8.0           12.9   20.14
     04/06/11, 10:00    -120.8     -85.9            -33            6.7           10.8   39.66
     04/06/11, 11:00    -120.3     -85.6            -33            7.1           11.4   41.52
     04/06/11, 12:00    -119.2     -85.0            -32            8.7           13.9   357.8
     04/06/11, 13:00    -118.1     -84.4            -32            9.4           15.0   349.7
     04/06/11, 14:00    -117.9     -84.3            -32            8.3           13.4   347.1
     04/06/11, 15:00    -117.6     -84.1            -32            9.1           14.7   347.9
     04/06/11, 16:00    -117.0     -83.8            -32            8.2           13.1     350
     04/06/11, 17:00    -116.3     -83.4            -32            7.0           11.2   340.1
     04/06/11, 18:00    -116.1     -83.3            -32            5.6            8.9   336.7
     04/06/11, 19:00    -117.0     -83.8            -32            4.0            6.4   341.2
     04/06/11, 20:00    -118.7     -84.7            -32            2.9            4.7   309.6
     04/06/11, 21:00    -120.1     -85.5            -33            2.4            3.8   298.3
     04/06/11, 22:00    -121.2     -86.1            -33            1.9            3.0     303
     04/06/11, 23:00    -121.7     -86.4            -33            1.3            2.0   304.3
      04/07/11, 0:00    -121.9     -86.5            -33            0.9            1.5   320.2


  

                                                                                             
           Date,Time       Air       Air     % Relative           Wind           Wind    Wind
                        Temp F    Temp C       Humidity      Speed mph     Speed km/h Dir Deg
---------------------------------------------------------------------------------------------
      04/07/11, 1:00    -122.1     -86.6            -33            0.4            0.6   307.4
      04/07/11, 2:00    -122.3     -86.7            -33            1.1            1.8     337
      04/07/11, 3:00    -122.4     -86.8            -33            3.1            4.9   11.24
      04/07/11, 4:00    -122.4     -86.8            -33            3.0            4.9   12.22
      04/07/11, 5:00    -122.4     -86.8            -33            1.7            2.7   45.17
      04/07/11, 6:00    -122.4     -86.8            -33            2.1            3.3   38.45
      04/07/11, 7:00    -122.4     -86.8            -33            2.9            4.7   68.54
      04/07/11, 8:00    -122.4     -86.8            -33            2.7            4.3    85.4
      04/07/11, 9:00    -121.9     -86.5            -33            4.7            7.5    78.6
     04/07/11, 10:00    -121.2     -86.1            -33            7.0           11.3    86.1
     04/07/11, 11:00    -120.5     -85.7            -33            8.4           13.5   101.1
     04/07/11, 12:00    -120.1     -85.5            -33            7.9           12.8   104.4
     04/07/11, 13:00    -119.7     -85.3            -33            9.3           14.9   104.2
     04/07/11, 14:00    -119.6     -85.2            -33           10.0           16.1   109.8
     04/07/11, 15:00    -119.7     -85.3            -33            8.9           14.4   114.6
     04/07/11, 16:00    -119.7     -85.3            -33            8.9           14.4   114.1
     04/07/11, 17:00    -120.1     -85.5            -33           11.9           19.1   138.5
     04/07/11, 18:00    -121.0     -86.0            -33            9.9           16.0   136.6
     04/07/11, 19:00    -121.5     -86.3            -33            7.1           11.4    87.8
     04/07/11, 20:00    -121.7     -86.4            -33            4.2            6.8   48.75
     04/07/11, 21:00    -121.7     -86.4            -33            4.0            6.4    44.8
     04/07/11, 22:00    -121.7     -86.4            -33            5.1            8.2   67.16
     04/07/11, 23:00    -121.7     -86.4            -33            5.8            9.3      83
      04/08/11, 0:00    -121.7     -86.4            -33            9.2           14.7   66.25
      04/08/11, 1:00    -121.7     -86.4            -33            8.5           13.7   61.94
      04/08/11, 2:00    -121.7     -86.4            -33            8.4           13.5   69.61
      04/08/11, 3:00    -121.7     -86.4            -33            8.1           13.0   66.88
      04/08/11, 4:00    -121.7     -86.4            -33            7.1           11.5   68.19
      04/08/11, 5:00    -121.7     -86.4            -33            7.9           12.7   60.03
      04/08/11, 6:00    -121.7     -86.4            -33            5.9            9.5   58.17
      04/08/11, 7:00    -121.7     -86.4            -33            6.4           10.3   53.31
      04/08/11, 8:00    -121.7     -86.4            -33            6.2            9.9   48.04
      04/08/11, 9:00    -121.7     -86.4            -33            7.4           11.9   41.17
     04/08/11, 10:00    -121.5     -86.3            -33            7.6           12.2   32.61
     04/08/11, 11:00    -121.4     -86.2            -33            7.8           12.5   45.52
     04/08/11, 12:00    -121.4     -86.2            -33            7.1           11.5   53.89
     04/08/11, 13:00    -121.0     -86.0            -33            6.5           10.4    71.2
     04/08/11, 14:00    -120.8     -85.9            -33            6.3           10.2    77.7
     04/08/11, 15:00    -120.8     -85.9            -33            6.1            9.8   61.47
     04/08/11, 16:00    -120.6     -85.8            -33            6.6           10.6    87.9
     04/08/11, 17:00    -120.5     -85.7            -33            6.7           10.8    97.6
     04/08/11, 18:00    -120.3     -85.6            -33            7.8           12.6    74.6
     04/08/11, 19:00    -120.6     -85.8            -33            7.5           12.0    88.9
     04/08/11, 20:00    -120.8     -85.9            -33            6.6           10.6   101.6
     04/08/11, 21:00    -121.0     -86.0            -33            6.6           10.7    92.6
     04/08/11, 22:00    -121.2     -86.1            -33            6.9           11.0    87.8
     04/08/11, 23:00    -121.2     -86.1            -33            7.1           11.4    95.6
      04/09/11, 0:00    -121.2     -86.1            -33            7.1           11.4    97.5


  

                                                                                             
           Date,Time       Air       Air     % Relative           Wind           Wind    Wind
                        Temp F    Temp C       Humidity      Speed mph     Speed km/h Dir Deg
---------------------------------------------------------------------------------------------
      04/09/11, 1:00    -121.2     -86.1            -33            7.4           11.8      90
      04/09/11, 2:00    -121.2     -86.1            -33            8.2           13.1    96.3
      04/09/11, 3:00    -121.4     -86.2            -33            7.1           11.4   100.9
      04/09/11, 4:00    -121.4     -86.2            -33            7.4           11.9    93.5
      04/09/11, 5:00    -121.4     -86.2            -33            7.5           12.0    91.8
      04/09/11, 6:00    -121.4     -86.2            -33            6.5           10.4    79.4
      04/09/11, 7:00    -121.5     -86.3            -33            5.7            9.2    91.9
      04/09/11, 8:00    -121.5     -86.3            -33            4.4            7.0    90.4
      04/09/11, 9:00    -121.4     -86.2            -33            5.4            8.8    81.3
     04/09/11, 10:00    -121.2     -86.1            -33            6.2           10.0      89
     04/09/11, 11:00    -121.0     -86.0            -33            6.0            9.7   100.8
     04/09/11, 12:00    -120.3     -85.6            -33            7.5           12.0     113
     04/09/11, 13:00    -118.8     -84.8            -32            8.2           13.2   112.8
     04/09/11, 14:00    -117.0     -83.8            -32            9.6           15.5   119.2
     04/09/11, 15:00    -114.9     -82.6            -31            9.5           15.3   117.6
     04/09/11, 16:00    -112.4     -81.2            -30           10.1           16.2     107
     04/09/11, 17:00    -110.0     -79.9            -29           11.6           18.7   113.9
     04/09/11, 18:00    -108.2     -78.9            -29           12.9           20.8   118.9
     04/09/11, 19:00    -108.4     -79.0            -29           12.2           19.7   122.2
     04/09/11, 20:00    -110.0     -79.9            -29           11.2           18.0   129.2
     04/09/11, 21:00    -112.2     -81.1            -30           10.0           16.2   123.9
     04/09/11, 22:00    -113.4     -81.8            -31           11.6           18.6   129.4
     04/09/11, 23:00    -114.3     -82.3            -31           12.1           19.4     148
      04/10/11, 0:00    -115.1     -82.7            -31           10.6           17.0   161.3
      04/10/11, 1:00    -115.6     -83.0            -31           10.3           16.6   165.6
      04/10/11, 2:00    -115.6     -83.0            -31           13.0           20.9   163.6
      04/10/11, 3:00    -115.6     -83.0            -31           13.5           21.8   167.5
      04/10/11, 4:00    -115.4     -82.9            -31           13.6           21.9   170.7
      04/10/11, 5:00    -115.6     -83.0            -31           11.8           19.0   166.6
      04/10/11, 6:00    -116.3     -83.4            -32           11.6           18.7   172.5
      04/10/11, 7:00    -116.9     -83.7            -32            9.7           15.6   174.7
      04/10/11, 8:00    -117.0     -83.8            -32            9.0           14.5   166.4
      04/10/11, 9:00    -116.1     -83.3            -31           11.0           17.7   163.4
     04/10/11, 10:00    -113.6     -81.9            -30           15.8           25.4   169.5
     04/10/11, 11:00    -110.4     -80.1            -29           18.3           29.5   177.7
     04/10/11, 12:00    -106.6     -78.0            -28           18.5           29.8   182.7
     04/10/11, 13:00    -102.3     -75.6            -26           17.9           28.8     187
     04/10/11, 14:00     -98.5     -73.5            -24           17.4           28.1     185
     04/10/11, 15:00     -92.7     -70.3            -21           18.7           30.1   188.6
     04/10/11, 16:00     -89.9     -68.7            -20           19.1           30.7   188.1
     04/10/11, 17:00     -92.6     -70.2            -22           16.6           26.6   200.7
     04/10/11, 18:00     -94.7     -71.4            -23           12.3           19.8   239.3
     04/10/11, 19:00    -104.3     -76.7            -25            9.4           15.2   256.3
     04/10/11, 20:00    -111.6     -80.8            -29            9.0           14.5     258
     04/10/11, 21:00    -116.3     -83.4            -31            9.2           14.8   272.1
     04/10/11, 22:00    -118.7     -84.7            -32            8.0           12.9   275.2
     04/10/11, 23:00    -119.7     -85.3            -33           10.8           17.3   286.8
      04/11/11, 0:00    -120.5     -85.7            -33           12.6           20.3   292.3


  

                                                                                             
           Date,Time       Air       Air     % Relative           Wind           Wind    Wind
                        Temp F    Temp C       Humidity      Speed mph     Speed km/h Dir Deg
---------------------------------------------------------------------------------------------
      04/11/11, 1:00    -121.0     -86.0            -33           11.1           17.8   291.1
      04/11/11, 2:00    -121.4     -86.2            -33            8.1           13.0   277.4
      04/11/11, 3:00    -121.7     -86.4            -33            5.6            8.9   276.8
      04/11/11, 4:00    -121.9     -86.5            -33            3.6            5.8   266.7
      04/11/11, 5:00    -122.1     -86.6            -33            4.1            6.6     268
      04/11/11, 6:00    -122.1     -86.6            -33            6.3           10.2   279.7
      04/11/11, 7:00    -122.1     -86.6            -33            7.1           11.5   286.4
      04/11/11, 8:00    -122.1     -86.6            -33            5.9            9.4   273.2
      04/11/11, 9:00    -121.9     -86.5            -33            9.2           14.8   289.5
     04/11/11, 10:00    -121.4     -86.2            -33            9.9           15.9   297.6
     04/11/11, 11:00    -120.8     -85.9            -33            9.4           15.2   299.7
     04/11/11, 12:00    -119.9     -85.4            -33           10.2           16.4   308.3
     04/11/11, 13:00    -118.8     -84.8            -32            9.6           15.5     309
     04/11/11, 14:00    -117.9     -84.3            -32           10.2           16.4     308
     04/11/11, 15:00    -116.9     -83.7            -32           11.8           18.9   301.9
     04/11/11, 16:00    -116.3     -83.4            -32           13.2           21.3   302.4
     04/11/11, 17:00    -116.3     -83.4            -32           12.3           19.9   305.7
     04/11/11, 18:00    -116.7     -83.6            -32           11.7           18.8   309.5
     04/11/11, 19:00    -117.4     -84.0            -32           10.6           17.0   311.4
     04/11/11, 20:00    -118.7     -84.7            -32            8.5           13.7   316.8
     04/11/11, 21:00    -119.9     -85.4            -33            5.0            8.1   316.8
     04/11/11, 22:00    -120.8     -85.9            -33            4.1            6.7     307
     04/11/11, 23:00    -121.4     -86.2            -33            3.3            5.4   299.3
      04/12/11, 0:00    -121.5     -86.3            -33            5.8            9.3     289
      04/12/11, 1:00    -121.7     -86.4            -33            5.7            9.3   296.6
      04/12/11, 2:00    -121.9     -86.5            -33            2.8            4.5   311.6
      04/12/11, 3:00    -122.3     -86.7            -33            2.5            4.0     295
      04/12/11, 4:00    -122.3     -86.7            -33            1.6            2.6     305
      04/12/11, 5:00    -122.4     -86.8            -33            2.1            3.3   308.2
      04/12/11, 6:00    -122.6     -86.9            -33            2.4            3.8   321.8
      04/12/11, 7:00    -122.6     -86.9            -33            2.7            4.3   312.6
      04/12/11, 8:00    -122.6     -86.9            -33            1.4            2.3   295.7
      04/12/11, 9:00    -122.1     -86.6            -33            1.9            3.1   311.9
     04/12/11, 10:00    -121.0     -86.0            -33            1.7            2.7    87.4
     04/12/11, 11:00    -119.7     -85.3            -33            3.4            5.5   148.8
     04/12/11, 12:00    -118.5     -84.6            -32            3.8            6.1   157.7
     04/12/11, 13:00    -117.4     -84.0            -32            4.0            6.4   207.5
     04/12/11, 14:00    -116.3     -83.4            -32            5.4            8.8   170.8
     04/12/11, 15:00    -115.2     -82.8            -31            3.9            6.2   202.8
     04/12/11, 16:00    -113.8     -82.0            -31            3.8            6.1   170.1
     04/12/11, 17:00    -112.7     -81.4            -31            3.6            5.8   188.6
     04/12/11, 18:00    -112.9     -81.5            -31            5.1            8.2   166.9
     04/12/11, 19:00    -114.3     -82.3            -31            4.9            7.9   160.9
     04/12/11, 20:00    -116.7     -83.6            -32            2.4            3.9   156.4
     04/12/11, 21:00    -119.2     -85.0            -32            1.5            2.4   117.1
     04/12/11, 22:00    -120.3     -85.6            -33            2.0            3.2   129.5
     04/12/11, 23:00    -120.8     -85.9            -33            2.0            3.2   125.7
      04/13/11, 0:00    -121.0     -86.0            -33            2.0            3.2     137


  

                                                                                             
           Date,Time       Air       Air     % Relative           Wind           Wind    Wind
                        Temp F    Temp C       Humidity      Speed mph     Speed km/h Dir Deg
---------------------------------------------------------------------------------------------
      04/13/11, 1:00    -121.2     -86.1            -33            3.2            5.2   116.7
      04/13/11, 2:00    -121.2     -86.1            -33            4.0            6.5   123.9
      04/13/11, 3:00    -121.4     -86.2            -33            3.9            6.3   126.3
      04/13/11, 4:00    -121.5     -86.3            -33            4.5            7.2   124.7
      04/13/11, 5:00    -121.7     -86.4            -33            4.3            6.9   119.1
      04/13/11, 6:00    -121.7     -86.4            -33            4.7            7.6     133
      04/13/11, 7:00    -121.9     -86.5            -33            3.8            6.0   136.1
      04/13/11, 8:00    -121.9     -86.5            -33            3.2            5.1     137
      04/13/11, 9:00    -121.2     -86.1            -33            4.6            7.4   132.6
     04/13/11, 10:00    -120.1     -85.5            -33            5.4            8.7   145.3
     04/13/11, 11:00    -118.7     -84.7            -32            5.7            9.2   152.4
     04/13/11, 12:00    -116.5     -83.5            -32            5.4            8.7   133.9
     04/13/11, 13:00    -114.7     -82.5            -31            4.8            7.7     127
     04/13/11, 14:00    -112.5     -81.3            -30            5.0            8.1   100.1
     04/13/11, 15:00    -110.7     -80.3            -30            5.4            8.7    97.2
     04/13/11, 16:00    -110.7     -80.3            -30            5.2            8.4   100.7
     04/13/11, 17:00    -109.1     -79.4            -29            6.2           10.0   103.5
     04/13/11, 18:00    -112.0     -81.0            -30            5.8            9.4   130.7
     04/13/11, 19:00    -114.5     -82.4            -31            5.7            9.1   133.4
     04/13/11, 20:00    -115.6     -83.0            -31            2.9            4.6   112.1
     04/13/11, 21:00    -117.9     -84.3            -32           10.0           16.1   2.743
     04/13/11, 22:00    -119.4     -85.1            -33           10.1           16.2    8.37
     04/13/11, 23:00    -119.9     -85.4            -33           10.1           16.3   10.78
      04/14/11, 0:00    -120.3     -85.6            -33            9.6           15.4   23.17
      04/14/11, 1:00    -120.5     -85.7            -33            7.3           11.8   30.77
      04/14/11, 2:00    -120.6     -85.8            -33            6.8           10.9   41.34
      04/14/11, 3:00    -120.6     -85.8            -33            4.5            7.3   56.47
      04/14/11, 4:00    -120.8     -85.9            -33            3.8            6.1   54.92
      04/14/11, 5:00    -121.2     -86.1            -33            4.6            7.3   20.18
      04/14/11, 6:00    -121.4     -86.2            -33            5.2            8.4    21.8
      04/14/11, 7:00    -121.4     -86.2            -33            5.1            8.2   50.08
      04/14/11, 8:00    -121.4     -86.2            -33            6.5           10.4   56.09
      04/14/11, 9:00    -121.2     -86.1            -33            5.9            9.5   56.05
     04/14/11, 10:00    -120.8     -85.9            -33            7.6           12.2   65.49
     04/14/11, 11:00    -120.5     -85.7            -33           12.0           19.3   68.15
     04/14/11, 12:00    -120.3     -85.6            -33           12.2           19.7   62.56
     04/14/11, 13:00    -120.5     -85.7            -33           10.7           17.2   59.75
     04/14/11, 14:00    -120.5     -85.7            -33           12.3           19.8   54.83
     04/14/11, 15:00    -120.1     -85.5            -33           14.8           23.8    53.2
     04/14/11, 16:00    -119.6     -85.2            -33           15.4           24.7   58.87
     04/14/11, 17:00    -119.0     -84.9            -33           16.5           26.6   57.92
     04/14/11, 18:00    -119.0     -84.9            -33           15.4           24.8   55.06
     04/14/11, 19:00    -119.4     -85.1            -33           16.3           26.2   57.13
     04/14/11, 20:00    -120.1     -85.5            -33           13.8           22.2   57.61
     04/14/11, 21:00    -120.8     -85.9            -33           11.1           17.9   56.83
     04/14/11, 22:00    -121.2     -86.1            -33           12.4           20.0   62.39
     04/14/11, 23:00    -121.4     -86.2            -33           14.1           22.7   62.93
      04/15/11, 0:00    -121.7     -86.4            -33           14.8           23.8   66.36


  

                                                                                             
           Date,Time       Air       Air     % Relative           Wind           Wind    Wind
                        Temp F    Temp C       Humidity      Speed mph     Speed km/h Dir Deg
---------------------------------------------------------------------------------------------
      04/15/11, 1:00    -121.7     -86.4            -33           15.2           24.5   66.72
      04/15/11, 2:00    -121.9     -86.5            -33           15.7           25.2   66.95
      04/15/11, 3:00    -121.9     -86.5            -33           16.4           26.3   64.38
      04/15/11, 4:00    -122.1     -86.6            -33           15.9           25.6   65.39
      04/15/11, 5:00    -122.1     -86.6            -33           16.9           27.1   62.86
      04/15/11, 6:00    -122.1     -86.6            -33           16.1           26.0   62.13
      04/15/11, 7:00    -122.1     -86.6            -33           18.5           29.7   59.03
      04/15/11, 8:00    -122.1     -86.6            -33           17.1           27.5   55.52
      04/15/11, 9:00    -122.1     -86.6            -33           16.9           27.1   56.52
     04/15/11, 10:00    -122.1     -86.6            -33           13.9           22.4   66.04
     04/15/11, 11:00    -122.3     -86.7            -33           13.3           21.4    51.1
     04/15/11, 12:00    -122.3     -86.7            -33           16.7           26.9   44.38
     04/15/11, 13:00    -122.3     -86.7            -33           18.5           29.7   48.11
     04/15/11, 14:00    -122.3     -86.7            -33           15.5           24.9   55.87
     04/15/11, 15:00    -122.3     -86.7            -33           14.2           22.9   55.23
     04/15/11, 16:00    -122.1     -86.6            -33           15.7           25.3   58.91
     04/15/11, 17:00    -122.1     -86.6            -33           16.1           25.9      55
     04/15/11, 18:00    -122.1     -86.6            -33           15.3           24.7   48.69
     04/15/11, 19:00    -122.1     -86.6            -33           16.9           27.2   44.59
     04/15/11, 20:00    -122.1     -86.6            -33           14.0           22.5   38.48
     04/15/11, 21:00    -122.1     -86.6            -33           12.0           19.3   30.81
     04/15/11, 22:00    -122.1     -86.6            -33           12.4           19.9   28.37
     04/15/11, 23:00    -122.1     -86.6            -33           10.8           17.3   24.94
      04/16/11, 0:00    -122.1     -86.6            -33            7.6           12.3   5.565
      04/16/11, 1:00    -122.1     -86.6            -33            7.5           12.1   331.8
      04/16/11, 2:00    -122.1     -86.6            -33            9.3           14.9   324.3
      04/16/11, 3:00    -122.3     -86.7            -33           10.6           17.1   317.3
      04/16/11, 4:00    -122.4     -86.8            -33           12.2           19.6   319.5
      04/16/11, 5:00    -122.6     -86.9            -33           11.6           18.6   313.6
      04/16/11, 6:00    -122.6     -86.9            -33           11.2           18.0   307.5
      04/16/11, 7:00    -122.8     -87.0            -33           11.4           18.3   302.7
      04/16/11, 8:00    -122.8     -87.0            -34           12.8           20.6   296.4
      04/16/11, 9:00    -122.6     -86.9            -33           13.2           21.3   296.5
     04/16/11, 10:00    -122.6     -86.9            -33           13.3           21.4   293.1
     04/16/11, 11:00    -122.4     -86.8            -33           15.6           25.1   296.7
     04/16/11, 12:00    -122.3     -86.7            -33           14.1           22.8   293.9
     04/16/11, 13:00    -122.3     -86.7            -33           15.4           24.8   290.8
     04/16/11, 14:00    -122.1     -86.6            -33           14.9           24.0   286.7
     04/16/11, 15:00    -121.5     -86.3            -33           14.0           22.5   277.1
     04/16/11, 16:00    -120.8     -85.9            -33           13.1           21.1   272.8
     04/16/11, 17:00    -120.5     -85.7            -33           11.7           18.8   266.9
     04/16/11, 18:00    -120.1     -85.5            -33           10.6           17.1   271.6
     04/16/11, 19:00    -120.1     -85.5            -33            9.9           15.9   271.5
     04/16/11, 20:00    -120.6     -85.8            -33            6.8           11.0   274.6
     04/16/11, 21:00    -121.4     -86.2            -33            8.4           13.5   277.1
     04/16/11, 22:00    -121.7     -86.4            -33           11.1           17.9     285
     04/16/11, 23:00    -121.9     -86.5            -33            9.1           14.6   287.9
      04/17/11, 0:00    -122.3     -86.7            -33            6.1            9.8   288.3


  

                                                                                             
           Date,Time       Air       Air     % Relative           Wind           Wind    Wind
                        Temp F    Temp C       Humidity      Speed mph     Speed km/h Dir Deg
---------------------------------------------------------------------------------------------
      04/17/11, 1:00    -122.4     -86.8            -33            6.2           10.0   290.6
      04/17/11, 2:00    -122.6     -86.9            -33            5.8            9.4   278.2
      04/17/11, 3:00    -122.8     -87.0            -33            4.3            6.9   269.3
      04/17/11, 4:00    -122.8     -87.0            -33            2.9            4.7   269.6
      04/17/11, 5:00    -122.8     -87.0            -33            2.3            3.8   262.9
      04/17/11, 6:00    -123.0     -87.1            -34            2.2            3.6     257
      04/17/11, 7:00    -123.2     -87.2            -34            2.3            3.7   256.8
      04/17/11, 8:00    -123.0     -87.1            -34            5.6            9.0     283
      04/17/11, 9:00    -122.6     -86.9            -33            5.8            9.4   302.9
     04/17/11, 10:00    -122.3     -86.7            -33            4.8            7.7   302.3
     04/17/11, 11:00    -122.1     -86.6            -33            4.3            7.0   275.9
     04/17/11, 12:00    -121.7     -86.4            -33            4.5            7.2   324.5
     04/17/11, 13:00    -121.2     -86.1            -33            3.3            5.4   316.1
     04/17/11, 14:00    -120.3     -85.6            -33            4.3            7.0   321.3
     04/17/11, 15:00    -119.6     -85.2            -33            4.8            7.7   344.1
     04/17/11, 16:00    -119.9     -85.4            -33            4.4            7.0    8.77
     04/17/11, 17:00    -120.3     -85.6            -33            4.9            7.8   44.05
     04/17/11, 18:00    -121.0     -86.0            -33            5.7            9.1   45.51
     04/17/11, 19:00    -121.5     -86.3            -33            4.7            7.5    72.3
     04/17/11, 20:00    -121.7     -86.4            -33            4.9            7.8   52.16
     04/17/11, 21:00    -121.7     -86.4            -33            6.3           10.1   45.75
     04/17/11, 22:00    -121.7     -86.4            -33            8.1           13.1   27.81
     04/17/11, 23:00    -121.9     -86.5            -33            8.8           14.2   38.71
      04/18/11, 0:00    -122.1     -86.6            -33            9.2           14.9   24.36
      04/18/11, 1:00    -122.3     -86.7            -33            9.1           14.7   13.61
      04/18/11, 2:00    -122.3     -86.7            -33           10.2           16.4   21.93
      04/18/11, 3:00    -122.3     -86.7            -33            9.3           14.9   21.22
      04/18/11, 4:00    -122.4     -86.8            -33            9.4           15.1   25.65
      04/18/11, 5:00    -122.4     -86.8            -33            8.2           13.2   26.36
      04/18/11, 6:00    -122.4     -86.8            -33            6.7           10.8   36.52
      04/18/11, 7:00    -122.4     -86.8            -33            6.5           10.5    25.7
      04/18/11, 8:00    -122.4     -86.8            -33            6.0            9.6   33.64
      04/18/11, 9:00    -122.4     -86.8            -33            6.0            9.7   41.17
     04/18/11, 10:00    -122.3     -86.7            -33            7.3           11.8    35.2
     04/18/11, 11:00    -122.1     -86.6            -33            7.7           12.4    51.2
     04/18/11, 12:00    -121.9     -86.5            -33            8.0           12.9   50.25
     04/18/11, 13:00    -121.9     -86.5            -33            7.7           12.4   51.57
     04/18/11, 14:00    -121.7     -86.4            -33            7.4           11.9   68.33
     04/18/11, 15:00    -121.7     -86.4            -33            7.5           12.1   57.62
     04/18/11, 16:00    -121.5     -86.3            -33            7.8           12.6   41.93
     04/18/11, 17:00    -121.4     -86.2            -33            8.6           13.8   36.55
     04/18/11, 18:00    -121.5     -86.3            -33            9.0           14.4   44.76
     04/18/11, 19:00    -121.5     -86.3            -33            9.7           15.7   40.51
     04/18/11, 20:00    -121.7     -86.4            -33            9.1           14.6    38.1
     04/18/11, 21:00    -121.9     -86.5            -33            7.3           11.8   46.38
     04/18/11, 22:00    -121.9     -86.5            -33            8.3           13.4   45.39
     04/18/11, 23:00    -121.9     -86.5            -33            9.7           15.5    46.8
      04/19/11, 0:00    -122.1     -86.6            -33            9.1           14.7      55


  

                                                                                             
           Date,Time       Air       Air     % Relative           Wind           Wind    Wind
                        Temp F    Temp C       Humidity      Speed mph     Speed km/h Dir Deg
---------------------------------------------------------------------------------------------
      04/19/11, 1:00    -122.1     -86.6            -33            9.0           14.5   42.52
      04/19/11, 2:00    -122.1     -86.6            -33            8.9           14.3   50.55
      04/19/11, 3:00    -122.3     -86.7            -33            9.4           15.2      59
      04/19/11, 4:00    -122.3     -86.7            -33           10.2           16.4   57.44
      04/19/11, 5:00    -122.4     -86.8            -33           12.6           20.3   45.37
      04/19/11, 6:00    -122.4     -86.8            -33           13.4           21.6    35.7
      04/19/11, 7:00    -122.4     -86.8            -33           16.2           26.0   41.65
      04/19/11, 8:00    -122.4     -86.8            -33           15.7           25.3   39.39
      04/19/11, 9:00    -122.6     -86.9            -33           12.1           19.4   39.57
     04/19/11, 10:00    -122.6     -86.9            -33           14.0           22.5   11.35
     04/19/11, 11:00    -122.6     -86.9            -33           15.9           25.5   33.81
     04/19/11, 12:00    -122.6     -86.9            -33           14.9           24.0   32.54
     04/19/11, 13:00    -122.4     -86.8            -33           15.4           24.8   35.33
     04/19/11, 14:00    -122.4     -86.8            -33           13.4           21.5   30.85
     04/19/11, 15:00    -122.4     -86.8            -33           12.8           20.6   28.59
     04/19/11, 16:00    -122.3     -86.7            -33           12.6           20.2   24.15
     04/19/11, 17:00    -122.3     -86.7            -33           12.2           19.6   17.49
     04/19/11, 18:00    -122.4     -86.8            -33           12.7           20.4   22.27
     04/19/11, 19:00    -122.4     -86.8            -33           11.3           18.2   16.02
     04/19/11, 20:00    -122.6     -86.9            -33            9.6           15.4   4.356
     04/19/11, 21:00    -122.6     -86.9            -33           10.0           16.1   1.086
     04/19/11, 22:00    -122.6     -86.9            -33            7.6           12.2   348.2
     04/19/11, 23:00    -122.6     -86.9            -33            7.2           11.6   333.3
      04/20/11, 0:00    -122.6     -86.9            -33            7.0           11.2   348.6
      04/20/11, 1:00    -122.8     -87.0            -33            6.1            9.8   328.4
      04/20/11, 2:00    -122.8     -87.0            -34            5.0            8.1     311
      04/20/11, 3:00    -122.8     -87.0            -34            5.1            8.3   301.1
      04/20/11, 4:00    -122.8     -87.0            -34            4.3            6.9   297.8
      04/20/11, 5:00    -123.0     -87.1            -34            4.1            6.6     282
      04/20/11, 6:00    -122.8     -87.0            -34            5.8            9.3   287.9
      04/20/11, 7:00    -122.8     -87.0            -34            3.4            5.5   266.8
      04/20/11, 8:00    -122.8     -87.0            -33            3.6            5.8   273.1
      04/20/11, 9:00    -122.6     -86.9            -33            4.6            7.4     275
     04/20/11, 10:00    -122.4     -86.8            -33            6.2            9.9   280.3
     04/20/11, 11:00    -121.9     -86.5            -33            7.4           11.9   272.1
     04/20/11, 12:00    -121.7     -86.4            -33            8.1           13.1     278
     04/20/11, 13:00    -121.4     -86.2            -33            6.1            9.8   246.5
     04/20/11, 14:00    -121.0     -86.0            -33            5.6            9.0     251
     04/20/11, 15:00    -121.2     -86.1            -33            4.6            7.4   241.6
     04/20/11, 16:00    -120.8     -85.9            -33            6.4           10.2   261.1
     04/20/11, 17:00    -120.5     -85.7            -33            6.8           10.9   269.5
     04/20/11, 18:00    -120.3     -85.6            -33            6.1            9.9   271.1
     04/20/11, 19:00    -120.3     -85.6            -33            8.0           12.8     285
     04/20/11, 20:00    -121.0     -86.0            -33            7.5           12.0   284.8
     04/20/11, 21:00    -121.5     -86.3            -33            2.6            4.2   289.3
     04/20/11, 22:00    -122.3     -86.7            -33            1.1            1.8   210.5
     04/20/11, 23:00    -122.6     -86.9            -33            0.9            1.4   291.8
      04/21/11, 0:00    -122.8     -87.0            -33            1.3            2.1   269.1


  

                                                                                             
           Date,Time       Air       Air     % Relative           Wind           Wind    Wind
                        Temp F    Temp C       Humidity      Speed mph     Speed km/h Dir Deg
---------------------------------------------------------------------------------------------
      04/21/11, 1:00    -122.8     -87.0            -34            2.2            3.6     338
      04/21/11, 2:00    -123.0     -87.1            -34            1.1            1.7   286.7
      04/21/11, 3:00    -123.0     -87.1            -34            0.8            1.4   226.6
      04/21/11, 4:00    -123.0     -87.1            -34            0.9            1.4   212.8
      04/21/11, 5:00    -123.0     -87.1            -34            0.5            0.8     136
      04/21/11, 6:00    -123.0     -87.1            -34            0.8            1.4   22.65
      04/21/11, 7:00    -123.0     -87.1            -34            1.8            2.8   51.46
      04/21/11, 8:00    -123.0     -87.1            -34            1.8            3.0   57.68
      04/21/11, 9:00    -122.6     -86.9            -33            3.6            5.7    78.7
     04/21/11, 10:00    -122.4     -86.8            -33            5.6            9.0      82
     04/21/11, 11:00    -122.1     -86.6            -33            8.8           14.2    96.9
     04/21/11, 12:00    -121.5     -86.3            -33           10.1           16.2    99.2
     04/21/11, 13:00    -121.4     -86.2            -33            9.7           15.6    99.1
     04/21/11, 14:00    -121.4     -86.2            -33           12.1           19.4    99.6
     04/21/11, 15:00    -121.4     -86.2            -33           11.1           17.8   101.6
     04/21/11, 16:00    -121.2     -86.1            -33            9.5           15.3    85.7
     04/21/11, 17:00    -121.2     -86.1            -33           10.1           16.2    77.1
     04/21/11, 18:00    -121.2     -86.1            -33           11.0           17.6    74.1
     04/21/11, 19:00    -121.4     -86.2            -33           10.5           16.9    73.1
     04/21/11, 20:00    -121.5     -86.3            -33            6.8           11.0    89.4
     04/21/11, 21:00    -121.7     -86.4            -33            4.7            7.6    78.6
     04/21/11, 22:00    -121.9     -86.5            -33            6.2            9.9    76.7
     04/21/11, 23:00    -121.9     -86.5            -33            7.7           12.4      76
      04/22/11, 0:00    -121.9     -86.5            -33            8.2           13.1    72.7
      04/22/11, 1:00    -121.9     -86.5            -33            9.4           15.2    83.1
      04/22/11, 2:00    -121.9     -86.5            -33           10.7           17.2    86.6
      04/22/11, 3:00    -121.9     -86.5            -33           11.0           17.7    91.1
      04/22/11, 4:00    -121.9     -86.5            -33            9.8           15.7    94.1
      04/22/11, 5:00    -121.9     -86.5            -33            9.0           14.5    89.7
      04/22/11, 6:00    -121.9     -86.5            -33           10.0           16.0    91.7
      04/22/11, 7:00    -121.9     -86.5            -33           10.1           16.3    88.1
      04/22/11, 8:00    -121.9     -86.5            -33           10.5           16.9    89.6
      04/22/11, 9:00    -121.9     -86.5            -33            8.7           13.9    81.7
     04/22/11, 10:00    -121.9     -86.5            -33            9.0           14.6   69.44
     04/22/11, 11:00    -121.7     -86.4            -33            8.4           13.5      82
     04/22/11, 12:00    -121.5     -86.3            -33            9.3           14.9    73.3
     04/22/11, 13:00    -121.4     -86.2            -33           10.2           16.4    81.8
     04/22/11, 14:00    -121.4     -86.2            -33           11.1           17.8    84.4
     04/22/11, 15:00    -121.2     -86.1            -33            9.4           15.1    88.9
     04/22/11, 16:00    -121.2     -86.1            -33            6.1            9.8     103
     04/22/11, 17:00    -121.2     -86.1            -33            5.2            8.4   114.4
     04/22/11, 18:00    -121.2     -86.1            -33            4.5            7.3   142.6
     04/22/11, 19:00    -121.4     -86.2            -33            2.0            3.3   174.5
     04/22/11, 20:00    -121.2     -86.1            -33            1.9            3.0   201.4
     04/22/11, 21:00    -121.2     -86.1            -33            1.2            2.0   195.3
     04/22/11, 22:00    -121.4     -86.2            -33            1.9            3.0   194.2
     04/22/11, 23:00    -121.4     -86.2            -33            3.6            5.8   165.6
      04/23/11, 0:00    -121.5     -86.3            -33            3.3            5.3   192.8


  

                                                                                             
           Date,Time       Air       Air     % Relative           Wind           Wind    Wind
                        Temp F    Temp C       Humidity      Speed mph     Speed km/h Dir Deg
---------------------------------------------------------------------------------------------
      04/23/11, 1:00    -121.5     -86.3            -33            7.6           12.2   172.9
      04/23/11, 2:00    -121.5     -86.3            -33            5.9            9.5   176.7
      04/23/11, 3:00    -121.5     -86.3            -33            2.9            4.7   223.8
      04/23/11, 4:00    -121.9     -86.5            -33            4.5            7.2     167
      04/23/11, 5:00    -122.1     -86.6            -33            7.4           11.9   186.4
      04/23/11, 6:00    -122.1     -86.6            -33            3.1            5.0   221.6
      04/23/11, 7:00    -122.3     -86.7            -33            6.0            9.6   262.9
      04/23/11, 8:00    -122.1     -86.6            -33            9.6           15.4   273.4
      04/23/11, 9:00    -121.5     -86.3            -33           12.6           20.2   277.3
     04/23/11, 10:00    -121.0     -86.0            -33           13.7           22.1   283.7
     04/23/11, 11:00    -120.5     -85.7            -33           10.6           17.0   279.2
     04/23/11, 12:00    -120.3     -85.6            -33            8.4           13.5   284.9
     04/23/11, 13:00    -120.5     -85.7            -33            5.8            9.4   261.5
     04/23/11, 14:00    -120.5     -85.7            -33            5.2            8.3   257.7
     04/23/11, 15:00    -120.5     -85.7            -33            6.0            9.6   267.9
     04/23/11, 16:00    -120.5     -85.7            -33            5.8            9.3   257.3
     04/23/11, 17:00    -120.3     -85.6            -33            7.2           11.7   287.3
     04/23/11, 18:00    -120.6     -85.8            -33            7.9           12.6   287.8
     04/23/11, 19:00    -120.8     -85.9            -33            7.7           12.4   295.8
     04/23/11, 20:00    -121.2     -86.1            -33            5.7            9.1   303.9
     04/23/11, 21:00    -121.4     -86.2            -33            3.2            5.2     309
     04/23/11, 22:00    -121.5     -86.3            -33            1.8            2.9   286.3
     04/23/11, 23:00    -121.7     -86.4            -33            3.2            5.2   298.1
      04/24/11, 0:00    -121.7     -86.4            -33            2.7            4.3   309.1
      04/24/11, 1:00    -121.9     -86.5            -33            0.9            1.4   294.2
      04/24/11, 2:00    -122.1     -86.6            -33            0.8            1.4   246.7
      04/24/11, 3:00    -122.4     -86.8            -33            1.5            2.4   247.2
      04/24/11, 4:00    -122.4     -86.8            -33            2.4            3.8   286.5
      04/24/11, 5:00    -122.4     -86.8            -33            1.1            1.8   289.8
      04/24/11, 6:00    -122.4     -86.8            -33            1.3            2.1   304.3
      04/24/11, 7:00    -122.4     -86.8            -33            2.5            4.0   296.1
      04/24/11, 8:00    -122.3     -86.7            -33            2.0            3.2   318.9
      04/24/11, 9:00    -121.9     -86.5            -33            3.9            6.3   322.4
     04/24/11, 10:00    -121.0     -86.0            -33            5.0            8.1   338.5
     04/24/11, 11:00    -120.5     -85.7            -33            4.8            7.8   343.7
     04/24/11, 12:00    -119.9     -85.4            -33            4.1            6.7   333.2
     04/24/11, 13:00    -119.6     -85.2            -33            4.3            6.9   19.07
     04/24/11, 14:00    -119.2     -85.0            -33            4.7            7.5   339.2
     04/24/11, 15:00    -119.2     -85.0            -33            3.8            6.1   356.3
     04/24/11, 16:00    -119.2     -85.0            -33            4.0            6.4    9.28
     04/24/11, 17:00    -118.3     -84.5            -32            4.8            7.8   37.54
     04/24/11, 18:00    -117.9     -84.3            -32            4.2            6.7   30.34
     04/24/11, 19:00    -118.3     -84.5            -32            5.1            8.1   40.23
     04/24/11, 20:00    -119.2     -85.0            -32            3.6            5.8   62.08
     04/24/11, 21:00    -120.3     -85.6            -33            2.6            4.2   61.96
     04/24/11, 22:00    -120.8     -85.9            -33            2.8            4.5    33.7
     04/24/11, 23:00    -121.4     -86.2            -33            2.6            4.3   1.306
      04/25/11, 0:00    -121.5     -86.3            -33            2.5            4.0   5.725


  

                                                                                             
           Date,Time       Air       Air     % Relative           Wind           Wind    Wind
                        Temp F    Temp C       Humidity      Speed mph     Speed km/h Dir Deg
---------------------------------------------------------------------------------------------
      04/25/11, 1:00    -121.5     -86.3            -33            3.2            5.2   17.98
      04/25/11, 2:00    -121.5     -86.3            -33            3.1            5.0   10.95
      04/25/11, 3:00    -121.5     -86.3            -33            3.1            4.9   6.383
      04/25/11, 4:00    -121.7     -86.4            -33            3.4            5.5   1.574
      04/25/11, 5:00    -121.7     -86.4            -33            3.4            5.4   14.03
      04/25/11, 6:00    -121.9     -86.5            -33            5.0            8.1   13.94
      04/25/11, 7:00    -121.9     -86.5            -33            3.3            5.3   13.62
      04/25/11, 8:00    -121.9     -86.5            -33            6.2            9.9   19.73
      04/25/11, 9:00    -121.4     -86.2            -33            8.7           14.0   45.73
     04/25/11, 10:00    -120.5     -85.7            -33            9.4           15.2   50.12
     04/25/11, 11:00    -119.7     -85.3            -33            9.1           14.6   52.67
     04/25/11, 12:00    -119.6     -85.2            -33            8.9           14.3   66.15
     04/25/11, 13:00    -119.7     -85.3            -33            9.1           14.7   64.77
     04/25/11, 14:00    -119.7     -85.3            -33           10.5           17.0   63.26
     04/25/11, 15:00    -119.9     -85.4            -33           10.8           17.4   58.17
     04/25/11, 16:00    -120.1     -85.5            -33            9.9           16.0   60.55
     04/25/11, 17:00    -120.6     -85.8            -33            9.8           15.7   60.72
     04/25/11, 18:00    -121.0     -86.0            -33           10.0           16.1   57.87
     04/25/11, 19:00    -121.2     -86.1            -33           10.2           16.4   61.47
     04/25/11, 20:00    -121.2     -86.1            -33            9.9           15.9   65.96
     04/25/11, 21:00    -121.2     -86.1            -33            9.6           15.4   69.25
     04/25/11, 22:00    -121.2     -86.1            -33            7.7           12.4    71.3
     04/25/11, 23:00    -121.2     -86.1            -33            6.3           10.1   65.71
      04/26/11, 0:00    -121.2     -86.1            -33            4.9            8.0   52.19
      04/26/11, 1:00    -121.2     -86.1            -33            4.4            7.1   44.54
      04/26/11, 2:00    -121.2     -86.1            -33            3.9            6.4   15.72
      04/26/11, 3:00    -121.2     -86.1            -33            3.2            5.1   345.9
      04/26/11, 4:00    -121.0     -86.0            -33            3.6            5.8   357.3
      04/26/11, 5:00    -121.0     -86.0            -33            3.1            5.1   347.6
      04/26/11, 6:00    -121.0     -86.0            -33            2.1            3.4   318.4
      04/26/11, 7:00    -121.2     -86.1            -33            2.1            3.4   304.2
      04/26/11, 8:00    -121.0     -86.0            -33            2.5            4.0   261.3
      04/26/11, 9:00    -121.0     -86.0            -33            3.0            4.9   247.5
     04/26/11, 10:00    -121.0     -86.0            -33            3.5            5.7     231
     04/26/11, 11:00    -121.0     -86.0            -33            5.6            9.1   214.5
     04/26/11, 12:00    -120.8     -85.9            -33            7.0           11.3   208.3
     04/26/11, 13:00    -120.8     -85.9            -33            7.1           11.4   213.9
     04/26/11, 14:00    -121.0     -86.0            -33            6.3           10.1   214.4
     04/26/11, 15:00    -121.0     -86.0            -33            7.7           12.3   215.6
     04/26/11, 16:00    -121.0     -86.0            -33            7.8           12.6   217.8
     04/26/11, 17:00    -121.0     -86.0            -33            7.2           11.6   214.1
     04/26/11, 18:00    -120.8     -85.9            -33            6.8           10.9   211.5
     04/26/11, 19:00    -120.6     -85.8            -33            4.7            7.6   221.9
     04/26/11, 20:00    -120.8     -85.9            -33            3.6            5.8     210
     04/26/11, 21:00    -121.0     -86.0            -33            2.1            3.5   226.6
     04/26/11, 22:00    -121.2     -86.1            -33            6.8           11.0   288.1
     04/26/11, 23:00    -121.2     -86.1            -33            6.4           10.3   308.7
      04/27/11, 0:00    -121.5     -86.3            -33            3.3            5.2   314.4


  

                                                                                             
           Date,Time       Air       Air     % Relative           Wind           Wind    Wind
                        Temp F    Temp C       Humidity      Speed mph     Speed km/h Dir Deg
---------------------------------------------------------------------------------------------
      04/27/11, 1:00    -121.9     -86.5            -33            1.0            1.6   239.4
      04/27/11, 2:00    -122.1     -86.6            -33            1.7            2.7   240.8
      04/27/11, 3:00    -122.1     -86.6            -33            3.6            5.8   281.3
      04/27/11, 4:00    -122.1     -86.6            -33            5.0            8.1   296.2
      04/27/11, 5:00    -122.1     -86.6            -33            6.0            9.6   300.1
      04/27/11, 6:00    -122.3     -86.7            -33            7.1           11.5   296.3
      04/27/11, 7:00    -122.3     -86.7            -33            6.6           10.5   316.9
      04/27/11, 8:00    -122.3     -86.7            -33            6.6           10.6   331.3
      04/27/11, 9:00    -122.3     -86.7            -33            6.3           10.2   324.4
     04/27/11, 10:00    -122.1     -86.6            -33            6.4           10.3   309.8
     04/27/11, 11:00    -121.9     -86.5            -33            9.7           15.6   310.3
     04/27/11, 12:00    -121.5     -86.3            -33            9.3           15.0   313.2
     04/27/11, 13:00    -121.2     -86.1            -33            8.0           12.8   306.5
     04/27/11, 14:00    -121.0     -86.0            -33            9.6           15.4   294.6
     04/27/11, 15:00    -121.0     -86.0            -33           10.5           16.9     295
     04/27/11, 16:00    -120.6     -85.8            -33           10.5           16.9   296.5
     04/27/11, 17:00    -120.3     -85.6            -33            6.4           10.4   294.5
     04/27/11, 18:00    -120.6     -85.8            -33            2.8            4.5   272.7
     04/27/11, 19:00    -120.5     -85.7            -33            2.0            3.3   263.8
     04/27/11, 20:00    -120.1     -85.5            -33            1.6            2.6   230.5
     04/27/11, 21:00    -121.2     -86.1            -33            1.4            2.2   240.3
     04/27/11, 22:00    -121.9     -86.5            -33            2.7            4.3   326.8
     04/27/11, 23:00    -122.1     -86.6            -33            2.7            4.4   293.2
      04/28/11, 0:00    -122.3     -86.7            -33            7.8           12.5     292
      04/28/11, 1:00    -122.1     -86.6            -33            7.1           11.4   285.4
      04/28/11, 2:00    -122.3     -86.7            -33            7.9           12.7   282.8
      04/28/11, 3:00    -122.4     -86.8            -33            7.0           11.2   279.8
      04/28/11, 4:00    -122.4     -86.8            -33            9.3           15.0   289.2
      04/28/11, 5:00    -122.3     -86.7            -33            8.4           13.6   285.4
      04/28/11, 6:00    -122.4     -86.8            -33            6.0            9.7   279.8
      04/28/11, 7:00    -122.4     -86.8            -33            5.7            9.1   279.7
      04/28/11, 8:00    -122.3     -86.7            -33            4.9            7.9   267.2
      04/28/11, 9:00    -122.1     -86.6            -33            9.2           14.7   279.7
     04/28/11, 10:00    -121.7     -86.4            -33           13.1           21.0   293.7
     04/28/11, 11:00    -121.5     -86.3            -33           11.2           18.1   294.6
     04/28/11, 12:00    -121.4     -86.2            -33           11.9           19.1   292.7
     04/28/11, 13:00    -120.8     -85.9            -33           12.0           19.3   290.9
     04/28/11, 14:00    -120.1     -85.5            -33           11.4           18.4   282.9
     04/28/11, 15:00    -119.6     -85.2            -32           10.7           17.3   286.3
     04/28/11, 16:00  -12564.4   -6999.0             43           11.1           17.9   285.4
     04/28/11, 17:00      60.9      15.1             44           11.0           17.6   292.7
     04/28/11, 18:00      61.9      15.6             43           13.5           21.8   297.4
     04/28/11, 19:00      60.7      14.9             53           11.8           19.1   304.4
     04/28/11, 20:00      56.0      12.3             64            9.2           14.8   320.6
     04/28/11, 21:00      50.4       9.2             71            5.6            9.0   324.5
     04/28/11, 22:00      47.7       7.7             73            3.2            5.2   334.4
     04/28/11, 23:00      46.4       7.0             77            2.9            4.7   345.9
      04/29/11, 0:00      46.2       6.9             78            5.2            8.4   3.249


  

                                                                                             
           Date,Time       Air       Air     % Relative           Wind           Wind    Wind
                        Temp F    Temp C       Humidity      Speed mph     Speed km/h Dir Deg
---------------------------------------------------------------------------------------------
      04/29/11, 1:00      45.7       6.6             81            3.4            5.6   17.14
      04/29/11, 2:00      44.3       5.8             85            1.0            1.6   117.6
      04/29/11, 3:00      41.4       4.2             90            0.9            1.4   163.3
      04/29/11, 4:00      39.9       3.4             94            1.7            2.8    74.8
      04/29/11, 5:00      38.3       2.5             95            2.4            3.8   171.2
      04/29/11, 6:00      36.4       1.4             98            1.5            2.5    90.9
      04/29/11, 7:00      36.7       1.6             98            2.0            3.2     105
      04/29/11, 8:00      40.1       3.5             96            4.2            6.8   114.2
      04/29/11, 9:00      45.7       6.6             88            7.7           12.3     122
     04/29/11, 10:00      50.0       9.0             77            9.5           15.4   119.9
     04/29/11, 11:00      54.6      11.6             67           10.5           16.9   122.8
     04/29/11, 12:00      58.5      13.7             55           11.5           18.5   125.2
     04/29/11, 13:00      62.0      15.7             48           12.1           19.4   121.2
     04/29/11, 14:00      65.5      17.6             42           13.4           21.5   119.2
     04/29/11, 15:00      67.5      18.7             40           15.6           25.2     123
     04/29/11, 16:00      67.7      18.8             41           15.8           25.5   125.1
     04/29/11, 17:00      69.4      19.8             39           15.7           25.2   121.1
     04/29/11, 18:00      69.0      19.6             41           17.4           28.0   117.9
     04/29/11, 19:00      66.8      18.3             47           14.6           23.5   115.9
     04/29/11, 20:00      64.7      17.1             52           13.6           22.0   117.5
     04/29/11, 21:00      62.8      16.1             54           11.9           19.1   111.9
     04/29/11, 22:00      61.5      15.4             58           10.7           17.2   109.3
     04/29/11, 23:00      59.8      14.4             64           11.5           18.5     108
      04/30/11, 0:00      58.9      14.0             65           12.2           19.6   108.8
      04/30/11, 1:00      58.5      13.7             67           12.0           19.4   109.8
      04/30/11, 2:00      57.5      13.2             70           11.4           18.3   113.5
      04/30/11, 3:00      57.1      13.0             71           10.5           16.9   117.9
      04/30/11, 4:00      57.1      12.9             78           11.1           17.8   120.3
      04/30/11, 5:00      55.9      12.3             84           13.5           21.8   126.4
      04/30/11, 6:00      56.1      12.4             84           16.2           26.1   129.3
      04/30/11, 7:00      56.7      12.7             83           16.0           25.7   125.8
      04/30/11, 8:00      57.2      13.0             82           14.5           23.4   135.5
      04/30/11, 9:00      57.2      13.0             83           11.5           18.5   133.9
     04/30/11, 10:00      60.0      14.5             81           11.9           19.2   136.4
     04/30/11, 11:00      65.6      17.6             70           14.9           23.9     154
     04/30/11, 12:00      70.0      20.1             57           15.5           24.9   182.2
     04/30/11, 13:00      72.2      21.3             51           12.2           19.6   195.8
     04/30/11, 14:00      72.2      21.4             53            8.6           13.9     218
     04/30/11, 15:00      69.6      19.9             56            7.0           11.3   233.5
     04/30/11, 16:00      69.6      19.9             55            7.0           11.2   247.4
     04/30/11, 17:00      69.6      19.9             50            7.4           11.9     257
     04/30/11, 18:00      69.5      19.8             48            7.1           11.4   240.2
     04/30/11, 19:00      67.6      18.8             39            5.6            9.0   244.3
     04/30/11, 20:00      63.5      16.5             34            3.9            6.2   210.6
     04/30/11, 21:00      59.5      14.3             39            3.9            6.3   198.5
     04/30/11, 22:00      55.4      12.0             49            2.0            3.2   213.3
     04/30/11, 23:00      56.2      12.4             47            5.0            8.1   286.1
      05/01/11, 0:00      54.9      11.7             50            6.4           10.3   287.1


  

                                                                                             
           Date,Time       Air       Air     % Relative           Wind           Wind    Wind
                        Temp F    Temp C       Humidity      Speed mph     Speed km/h Dir Deg
---------------------------------------------------------------------------------------------
      05/01/11, 1:00      52.3      10.3             51            8.1           13.1   291.6
      05/01/11, 2:00      48.6       8.2             56            6.5           10.4     285
      05/01/11, 3:00      47.2       7.4             58            6.2           10.0   263.7
      05/01/11, 4:00      45.5       6.5             56            6.4           10.3     267
      05/01/11, 5:00      44.0       5.7             56            5.8            9.3   249.3
      05/01/11, 6:00      43.2       5.2             56            6.4           10.4   261.5
      05/01/11, 7:00      41.8       4.5             56            9.3           14.9   269.1
      05/01/11, 8:00      42.4       4.8             57            9.1           14.6   261.6
      05/01/11, 9:00      43.8       5.6             54            9.9           16.0   263.2
     05/01/11, 10:00      46.3       6.9             51            9.3           14.9   258.7
     05/01/11, 11:00      48.6       8.2             44            9.0           14.5   256.6
     05/01/11, 12:00      51.3       9.7             41            9.0           14.4   250.5
     05/01/11, 13:00      55.2      11.9             36            8.8           14.2   252.1
     05/01/11, 14:00      58.0      13.4             31           10.0           16.0   261.5
     05/01/11, 15:00      59.8      14.5             27           10.1           16.2   269.6
     05/01/11, 16:00      61.6      15.4             21           10.2           16.4   278.6
     05/01/11, 17:00      62.2      15.8             20            9.1           14.6   258.4
     05/01/11, 18:00      62.3      15.8             20            9.1           14.6     278
     05/01/11, 19:00      61.3      15.3             20            9.7           15.6   282.8
     05/01/11, 20:00      58.7      13.9             20            8.8           14.2   287.7
     05/01/11, 21:00      55.0      11.8             25            6.8           11.0   292.1
     05/01/11, 22:00      52.4      10.3             27            6.4           10.3   293.1
     05/01/11, 23:00      50.3       9.2             30            5.3            8.5   290.2
      05/02/11, 0:00      47.2       7.4             39            3.0            4.8   262.5
      05/02/11, 1:00      44.6       6.0             43            1.2            1.9   230.9
      05/02/11, 2:00      42.4       4.8             45            1.4            2.2   205.6
      05/02/11, 3:00      41.8       4.4             50            1.9            3.0   220.4
      05/02/11, 4:00      38.9       2.9             56            1.2            2.0   234.9
      05/02/11, 5:00      35.9       1.2             76            1.9            3.0   305.5
      05/02/11, 6:00      35.6       1.0             75            2.9            4.6   306.2
      05/02/11, 7:00      36.3       1.4             73            2.5            4.1   320.2
      05/02/11, 8:00      39.9       3.4             73            3.5            5.6   343.3
      05/02/11, 9:00      44.4       5.9             65            6.1            9.8   343.2
     05/02/11, 10:00      47.0       7.3             55            6.4           10.3   331.9
     05/02/11, 11:00      49.2       8.5             52            6.1            9.9   304.2
     05/02/11, 12:00      51.3       9.7             48            8.0           12.9     295
     05/02/11, 13:00      53.0      10.7             43            8.4           13.6   292.7
     05/02/11, 14:00      54.9      11.7             40            9.3           14.9   288.1
     05/02/11, 15:00      56.7      12.7             35            9.9           16.0   287.9
     05/02/11, 16:00      57.5      13.2             31           10.8           17.4   294.8
     05/02/11, 17:00      57.9      13.4             30           10.0           16.1   305.4
     05/02/11, 18:00      57.7      13.3             28            8.7           14.1   294.7
     05/02/11, 19:00      57.2      13.0             28            7.5           12.0   303.1
     05/02/11, 20:00      55.4      12.0             32            6.5           10.5     301
     05/02/11, 21:00      50.6       9.3             49            7.2           11.5   335.5
     05/02/11, 22:00      45.7       6.6             59            8.6           13.9     353
     05/02/11, 23:00      42.2       4.7             65            7.1           11.4   345.1
      05/03/11, 0:00      39.2       3.0             71            4.1            6.6   339.8


  

                                                                                             
           Date,Time       Air       Air     % Relative           Wind           Wind    Wind
                        Temp F    Temp C       Humidity      Speed mph     Speed km/h Dir Deg
---------------------------------------------------------------------------------------------
      05/03/11, 1:00      36.6       1.5             76            2.7            4.4   329.7
      05/03/11, 2:00      34.4       0.4             80            1.7            2.7   291.4
      05/03/11, 3:00      32.9      -0.5             84            2.9            4.7   275.7
      05/03/11, 4:00      32.3      -0.8             82            4.4            7.0   284.3
      05/03/11, 5:00      31.5      -1.3             81            4.1            6.7   290.3
      05/03/11, 6:00      31.0      -1.5             81            4.9            7.9   294.5
      05/03/11, 7:00      30.8      -1.6             80            5.1            8.2   294.8
      05/03/11, 8:00      33.0      -0.5             80            4.9            7.9   295.3
      05/03/11, 9:00      36.5       1.5             77            5.4            8.7   299.2
     05/03/11, 10:00      39.4       3.1             66            6.7           10.8   314.4
     05/03/11, 11:00      42.1       4.6             58            7.5           12.0   328.2
     05/03/11, 12:00      45.9       6.7             51            7.7           12.3     327
     05/03/11, 13:00      48.9       8.4             45            8.6           13.9   310.4
     05/03/11, 14:00      52.1      10.2             38            8.1           13.1   308.3
     05/03/11, 15:00      54.6      11.6             34            8.2           13.2     314
     05/03/11, 16:00      57.0      12.9             32            9.0           14.4   308.3
     05/03/11, 17:00      58.7      13.8             29            8.2           13.1   310.4
     05/03/11, 18:00      58.6      13.8             28            7.7           12.3   315.7
     05/03/11, 19:00      58.8      13.9             28            7.8           12.5   318.5
     05/03/11, 20:00      56.7      12.7             31            5.2            8.3   323.2
     05/03/11, 21:00      52.7      10.5             33            4.0            6.5   343.3
     05/03/11, 22:00      49.4       8.7             48            4.9            7.9   5.038
     05/03/11, 23:00      47.0       7.3             54            5.0            8.1   25.04
      05/04/11, 0:00      44.9       6.2             59            3.0            4.8   32.99
      05/04/11, 1:00      42.7       4.9             62            2.4            3.9   65.69
      05/04/11, 2:00      41.0       4.0             65            3.2            5.1   69.85
      05/04/11, 3:00      39.2       3.0             73            1.8            2.9   102.8
      05/04/11, 4:00      38.4       2.6             71            1.0            1.6   106.2
      05/04/11, 5:00      37.0       1.8             76            0.9            1.4   120.6
      05/04/11, 6:00      34.7       0.5             82            1.7            2.7    91.2
      05/04/11, 7:00      35.7       1.1             81            1.9            3.0   100.6
      05/04/11, 8:00      39.9       3.4             76            2.8            4.5   142.7
      05/04/11, 9:00      45.5       6.5             69            6.0            9.7   153.9
     05/04/11, 10:00      49.7       8.8             55            8.6           13.8   167.8
     05/04/11, 11:00      54.3      11.4             47            9.7           15.6     142
     05/04/11, 12:00      56.7      12.7             35           11.0           17.7   130.3
     05/04/11, 13:00      58.3      13.6             32           11.5           18.4   125.9
     05/04/11, 14:00      59.1      14.1             32           11.9           19.1   120.9
     05/04/11, 15:00      60.9      15.0             31           12.9           20.8     121
     05/04/11, 16:00      62.4      15.9             29           13.3           21.5   119.8
     05/04/11, 17:00      63.2      16.4             28           14.0           22.6   122.4
     05/04/11, 18:00      63.0      16.2             28           15.1           24.3   124.6
     05/04/11, 19:00      61.8      15.6             31           14.2           22.8   122.1
     05/04/11, 20:00      59.6      14.3             37           11.4           18.3   121.5
     05/04/11, 21:00      56.0      12.3             41            8.8           14.1   127.9
     05/04/11, 22:00      54.6      11.6             42           10.3           16.6     122
     05/04/11, 23:00      53.6      11.0             45           10.7           17.1   124.2
      05/05/11, 0:00      53.3      10.8             48           12.6           20.2   127.7


  

                                                                                             
           Date,Time       Air       Air     % Relative           Wind           Wind    Wind
                        Temp F    Temp C       Humidity      Speed mph     Speed km/h Dir Deg
---------------------------------------------------------------------------------------------
      05/05/11, 1:00      52.9      10.6             49           13.7           22.0     128
      05/05/11, 2:00      52.3      10.3             52           13.9           22.4   129.5
      05/05/11, 3:00      52.0      10.1             53           13.2           21.3   132.2
      05/05/11, 4:00      52.1      10.2             55           14.7           23.7   138.9
      05/05/11, 5:00      51.6       9.9             58           14.7           23.6     139
      05/05/11, 6:00      51.5       9.8             64           13.3           21.3   145.3
      05/05/11, 7:00      50.8       9.5             72           10.3           16.5   157.1
      05/05/11, 8:00      52.0      10.1             75            8.6           13.8   175.3
      05/05/11, 9:00      55.1      11.8             73            9.6           15.4   188.4
     05/05/11, 10:00      56.1      12.4             74            6.7           10.7   218.4
     05/05/11, 11:00      56.8      12.8             74            5.6            9.0   248.1
     05/05/11, 12:00      59.9      14.5             67            6.5           10.5   260.2
     05/05/11, 13:00      62.6      16.0             56            6.6           10.6   265.5
     05/05/11, 14:00      64.5      17.1             49            8.4           13.6   285.1
     05/05/11, 15:00      67.0      18.5             37            8.3           13.4   283.5
     05/05/11, 16:00      67.0      18.5             34            6.8           10.9   291.2
     05/05/11, 17:00      59.8      14.5             68            7.0           11.2   273.9
     05/05/11, 18:00      61.1      15.2             61            6.6           10.6   262.3
     05/05/11, 19:00      59.4      14.2             62            5.7            9.2   316.2
     05/05/11, 20:00      60.1      14.6             55            1.4            2.2   295.3
     05/05/11, 21:00      56.5      12.6             64            1.6            2.6     200
     05/05/11, 22:00      54.0      11.2             75            2.9            4.7   187.1
     05/05/11, 23:00      51.6       9.9             76            3.6            5.9   183.3
      05/06/11, 0:00      49.4       8.7             76            1.9            3.0   206.4
      05/06/11, 1:00      47.6       7.7             79            1.1            1.8   231.8
      05/06/11, 2:00      45.7       6.6             82            0.5            0.7   228.1
      05/06/11, 3:00      44.8       6.1             86            0.6            0.9   234.4
      05/06/11, 4:00      42.5       4.9             89            0.6            1.0   213.1
      05/06/11, 5:00      41.9       4.5             90            1.3            2.0   227.9
      05/06/11, 6:00      41.1       4.0             92            0.8            1.3   220.5
      05/06/11, 7:00      41.3       4.2             93            0.3            0.5   230.1
      05/06/11, 8:00      46.6       7.1             87            1.4            2.2   191.7
      05/06/11, 9:00      55.3      12.0             74            3.2            5.1   233.7
     05/06/11, 10:00      62.1      15.7             51            5.5            8.9   217.9
     05/06/11, 11:00      66.4      18.1             40            7.1           11.4   213.3
     05/06/11, 12:00      69.0      19.5             28            5.8            9.4   225.8
     05/06/11, 13:00      70.4      20.3             24            6.4           10.4     200
     05/06/11, 14:00      71.0      20.7             24            6.1            9.8   195.9
     05/06/11, 15:00      72.4      21.5             25            7.6           12.2   181.7
     05/06/11, 16:00      72.2      21.3             24            9.9           15.9   167.2
     05/06/11, 17:00      72.6      21.6             28            8.9           14.4   161.9
     05/06/11, 18:00      71.6      21.0             28           11.5           18.5   163.8
     05/06/11, 19:00      70.3      20.3             31           10.8           17.3   165.7
     05/06/11, 20:00      67.6      18.8             36            7.3           11.8   146.2
     05/06/11, 21:00      65.2      17.4             40            6.6           10.6   127.2
     05/06/11, 22:00      64.7      17.1             42            8.2           13.2   130.1
     05/06/11, 23:00      62.6      16.0             49            6.7           10.8   118.7
      05/07/11, 0:00      60.6      14.9             51            6.7           10.8   107.8


  

                                                                                             
           Date,Time       Air       Air     % Relative           Wind           Wind    Wind
                        Temp F    Temp C       Humidity      Speed mph     Speed km/h Dir Deg
---------------------------------------------------------------------------------------------
      05/07/11, 1:00      59.0      14.0             56            7.6           12.2   102.8
      05/07/11, 2:00      57.4      13.1             59            6.9           11.2    89.6
      05/07/11, 3:00      57.1      12.9             59            7.4           11.8   104.5
      05/07/11, 4:00      56.3      12.5             62            5.5            8.8   112.5
      05/07/11, 5:00      55.1      11.8             67            5.3            8.5   108.9
      05/07/11, 6:00      53.1      10.7             72            2.7            4.3    78.9
      05/07/11, 7:00      52.1      10.2             73            3.1            5.0   64.56
      05/07/11, 8:00      54.8      11.7             72            3.9            6.4    94.6
      05/07/11, 9:00      59.2      14.1             66            5.7            9.2   120.7
     05/07/11, 10:00      63.8      16.7             62            6.9           11.1   170.8
     05/07/11, 11:00      69.1      19.6             50            4.8            7.7   223.1
     05/07/11, 12:00      72.8      21.6             42            4.8            7.7   237.1
     05/07/11, 13:00      74.6      22.7             37            5.8            9.3   256.7
     05/07/11, 14:00      77.2      24.1             34            6.3           10.1   260.8
     05/07/11, 15:00      78.3      24.7             31            7.1           11.4   293.1
     05/07/11, 16:00      78.5      24.8             31            7.5           12.1   291.4
     05/07/11, 17:00      79.1      25.2             30            5.9            9.5     316
     05/07/11, 18:00      78.3      24.7             40            7.1           11.4     339
     05/07/11, 19:00      73.5      22.0             51           11.7           18.8   13.81
     05/07/11, 20:00      69.8      20.0             55            8.8           14.2   21.14
     05/07/11, 21:00      66.8      18.3             61            6.7           10.8   27.27
     05/07/11, 22:00      64.6      17.1             65            6.7           10.8   33.24
     05/07/11, 23:00      62.1      15.7             69            6.3           10.2   35.16
      05/08/11, 0:00      59.4      14.2             73            5.5            8.9   41.46
      05/08/11, 1:00      57.1      13.0             79            5.0            8.0   52.31
      05/08/11, 2:00      55.4      12.0             81            4.7            7.5   47.14
      05/08/11, 3:00      53.7      11.1             82            5.7            9.2   58.42
      05/08/11, 4:00      51.9      10.1             86            4.8            7.7   68.66
      05/08/11, 5:00      50.8       9.4             88            5.4            8.7   68.95
      05/08/11, 6:00      49.9       9.0             89            6.0            9.7   64.94
      05/08/11, 7:00      49.8       8.9             90            6.0            9.7    72.6
      05/08/11, 8:00      52.4      10.3             89            7.0           11.3    73.9
      05/08/11, 9:00      55.7      12.2             85            7.2           11.6    93.9
     05/08/11, 10:00      56.9      12.8             90            7.7           12.3    84.9
     05/08/11, 11:00      62.3      15.8             81            8.0           12.9    85.1
     05/08/11, 12:00      68.2      19.1             70            9.2           14.9    84.2
     05/08/11, 13:00      72.3      21.4             56           10.4           16.8    80.2
     05/08/11, 14:00      74.7      22.7             48           11.2           18.0      90
     05/08/11, 15:00      76.2      23.6             44           12.4           20.0    92.8
     05/08/11, 16:00      77.6      24.3             42           13.8           22.2   103.4
     05/08/11, 17:00      78.5      24.9             38           14.1           22.7      98
     05/08/11, 18:00      78.6      24.9             38           14.9           23.9      93
     05/08/11, 19:00      77.7      24.4             40           13.9           22.4      98
     05/08/11, 20:00      75.2      23.0             46           12.8           20.6   110.4
     05/08/11, 21:00      72.1      21.3             53           10.0           16.1   109.9
     05/08/11, 22:00      69.7      19.9             57            9.5           15.4   108.7
     05/08/11, 23:00      69.9      20.1             59           12.6           20.2   101.5
      05/09/11, 0:00      69.0      19.5             61           12.3           19.8   104.2


  

                                                                                             
           Date,Time       Air       Air     % Relative           Wind           Wind    Wind
                        Temp F    Temp C       Humidity      Speed mph     Speed km/h Dir Deg
---------------------------------------------------------------------------------------------
      05/09/11, 1:00      67.7      18.9             66           13.0           21.0     104
      05/09/11, 2:00      67.1      18.5             69           13.1           21.1   104.5
      05/09/11, 3:00      66.4      18.1             73           12.4           19.9   109.9
      05/09/11, 4:00      65.3      17.5             77            9.9           16.0   105.6
      05/09/11, 5:00      64.2      16.9             82           10.4           16.8   104.7
      05/09/11, 6:00      63.2      16.3             85           11.0           17.8   110.3
      05/09/11, 7:00      63.6      16.6             86           11.1           17.8   118.5
      05/09/11, 8:00      64.8      17.2             86           13.1           21.1   121.5
      05/09/11, 9:00      66.4      18.1             86           12.4           20.0   117.9
     05/09/11, 10:00      67.5      18.7             85           11.3           18.2   115.7
     05/09/11, 11:00      70.2      20.2             84           11.9           19.2   101.4
     05/09/11, 12:00      72.4      21.4             78           14.4           23.2   111.3
     05/09/11, 13:00      76.8      23.9             75           14.0           22.5   120.7
     05/09/11, 14:00      82.5      27.0             62           12.9           20.7    86.2
     05/09/11, 15:00      82.2      26.9             68           14.7           23.7    83.1
     05/09/11, 16:00      78.0      24.6             70           14.0           22.5    75.6
     05/09/11, 17:00      80.5      26.0             66           12.6           20.3    73.3
     05/09/11, 18:00      85.2      28.5             60           10.4           16.7   105.3
     05/09/11, 19:00      86.5      29.3             53           11.3           18.3   128.5
     05/09/11, 20:00      85.5      28.7             57            9.9           15.9   124.2
     05/09/11, 21:00      81.4      26.4             63            6.5           10.5   137.6
     05/09/11, 22:00      79.1      25.2             65            5.8            9.4   139.2
     05/09/11, 23:00      77.8      24.4             72            7.0           11.3   145.2
      05/10/11, 0:00      77.4      24.2             75            6.4           10.4   122.3
      05/10/11, 1:00      75.2      23.0             80            5.8            9.4   129.4
      05/10/11, 2:00      73.5      22.1             84            6.1            9.9   132.8
      05/10/11, 3:00      72.1      21.3             87            6.0            9.7   131.7
      05/10/11, 4:00      71.0      20.6             89            5.6            9.0     129
      05/10/11, 5:00      70.6      20.4             89            6.5           10.4   133.5
      05/10/11, 6:00      69.7      20.0             92            6.3           10.1   134.8
      05/10/11, 7:00      69.4      19.8             93            6.5           10.5   136.1
      05/10/11, 8:00      71.8      21.1             91            7.4           11.9   131.4
      05/10/11, 9:00      75.7      23.3             84            9.2           14.8   141.1
     05/10/11, 10:00      79.5      25.4             75           10.0           16.1   152.2
     05/10/11, 11:00      83.1      27.4             67           11.0           17.7   162.1
     05/10/11, 12:00      86.3      29.2             58           10.9           17.6   162.9
     05/10/11, 13:00      88.8      30.5             53           11.5           18.6   165.4
     05/10/11, 14:00      90.4      31.4             49           12.4           20.0   158.6
     05/10/11, 15:00      91.7      32.1             47           13.0           20.9   161.1
     05/10/11, 16:00      93.2      33.0             42           12.3           19.8     171
     05/10/11, 17:00      93.8      33.3             42           12.7           20.4   164.6
     05/10/11, 18:00      93.8      33.4             40           12.4           19.9     166
     05/10/11, 19:00      92.3      32.5             44           13.0           20.9   163.7
     05/10/11, 20:00      89.0      30.6             50           10.2           16.4   161.2
     05/10/11, 21:00      84.7      28.3             59            6.4           10.3   156.5
     05/10/11, 22:00      81.2      26.3             62            6.9           11.1   163.9
     05/10/11, 23:00      79.1      25.2             67            6.1            9.8   167.6
      05/11/11, 0:00      77.3      24.2             71            7.0           11.3   170.5


  

                                                                                             
           Date,Time       Air       Air     % Relative           Wind           Wind    Wind
                        Temp F    Temp C       Humidity      Speed mph     Speed km/h Dir Deg
---------------------------------------------------------------------------------------------
      05/11/11, 1:00      77.4      24.2             76            7.9           12.8   177.5
      05/11/11, 2:00      75.3      23.1             82            4.6            7.4   167.9
      05/11/11, 3:00      74.6      22.7             83            5.9            9.5   183.4
      05/11/11, 4:00      74.1      22.4             85            8.0           12.9   179.2
      05/11/11, 5:00      74.5      22.6             83            8.8           14.1   191.2
      05/11/11, 6:00      73.5      22.1             87            3.0            4.8     216
      05/11/11, 7:00      72.1      21.3             90            2.0            3.3   182.4
      05/11/11, 8:00      75.2      23.0             86            8.3           13.3   189.4
      05/11/11, 9:00      78.6      24.9             73            7.5           12.0   214.8
     05/11/11, 10:00      80.5      25.9             60            7.2           11.6   217.6
     05/11/11, 11:00      75.9      23.4             84            8.1           13.0   215.1
     05/11/11, 12:00      69.5      19.8             87            7.8           12.6   247.4
     05/11/11, 13:00      68.3      19.2             85            7.2           11.6   183.4
     05/11/11, 14:00      71.5      21.0             77           11.9           19.2   162.3
     05/11/11, 15:00      70.6      20.5             82           14.2           22.8   150.7
     05/11/11, 16:00      77.6      24.3             72           10.3           16.6   147.4
     05/11/11, 17:00      82.2      26.9             57           12.4           20.0   137.6
     05/11/11, 18:00      82.7      27.2             53            8.2           13.2   136.7
     05/11/11, 19:00      81.2      26.4             54            7.9           12.7   137.8
     05/11/11, 20:00      76.9      23.9             73            7.1           11.4   165.4
     05/11/11, 21:00      65.7      17.7             92           14.1           22.7   198.1
     05/11/11, 22:00      64.7      17.2             95            6.3           10.2     215
     05/11/11, 23:00      63.8      16.6             95            3.9            6.2   2.792
      05/12/11, 0:00      63.2      16.3             96            2.2            3.5   243.1
      05/12/11, 1:00      62.8      16.1             97            2.8            4.4   41.51
      05/12/11, 2:00      63.1      16.3             96            4.1            6.6   169.7
      05/12/11, 3:00      62.3      15.9             98            1.2            2.0   4.809
      05/12/11, 4:00      62.0      15.7             98            5.3            8.5   47.48
      05/12/11, 5:00      62.1      15.7             96            4.8            7.8   67.28
      05/12/11, 6:00      61.7      15.5             96            4.8            7.7   110.6
      05/12/11, 7:00      60.8      15.0             97            3.6            5.7   122.5
      05/12/11, 8:00      63.6      16.6             97            5.5            8.8   162.7
      05/12/11, 9:00      66.9      18.4             93            6.3           10.1   191.4
     05/12/11, 10:00      69.7      19.9             91            7.0           11.2     145
     05/12/11, 11:00      72.4      21.4             85            8.0           12.9   182.4
     05/12/11, 12:00      74.1      22.4             81            6.1            9.9   189.5
     05/12/11, 13:00      76.3      23.6             75            5.3            8.6   187.1
     05/12/11, 14:00      78.4      24.8             69            4.1            6.5   194.9
     05/12/11, 15:00      80.7      26.1             61            3.7            5.9   220.4
     05/12/11, 16:00      82.0      26.8             55            4.1            6.5   186.5
     05/12/11, 17:00      82.7      27.2             54            4.1            6.6   176.9
     05/12/11, 18:00      82.3      26.9             57            4.8            7.7   151.2
     05/12/11, 19:00      81.5      26.5             55            5.9            9.5   163.9
     05/12/11, 20:00      80.5      25.9             53            3.9            6.3   178.3
     05/12/11, 21:00      77.3      24.2             62            0.7            1.2   58.44
     05/12/11, 22:00      74.2      22.4             77            0.6            1.0   323.9
     05/12/11, 23:00      71.6      21.0             78            2.0            3.2   321.5
      05/13/11, 0:00      63.6      16.6             90           10.1           16.2   326.7


  

                                                                                             
           Date,Time       Air       Air     % Relative           Wind           Wind    Wind
                        Temp F    Temp C       Humidity      Speed mph     Speed km/h Dir Deg
---------------------------------------------------------------------------------------------
      05/13/11, 1:00      57.4      13.1             93           12.0           19.3   322.9
      05/13/11, 2:00      56.2      12.4             96            7.2           11.6   34.79
      05/13/11, 3:00      56.8      12.8             97            7.5           12.0   343.7
      05/13/11, 4:00      57.4      13.1             95            5.3            8.5    7.39
      05/13/11, 5:00      57.1      13.0             98            3.2            5.1   314.9
      05/13/11, 6:00      56.8      12.8             97            5.9            9.5   288.5
      05/13/11, 7:00      55.3      11.9             97            6.6           10.6   311.6
      05/13/11, 8:00      55.0      11.8             98            7.3           11.7     322
      05/13/11, 9:00      54.4      11.5             95            7.8           12.5   348.8
     05/13/11, 10:00      54.2      11.3             93           10.2           16.5   345.6
     05/13/11, 11:00      53.6      11.0             94           10.4           16.8   337.3
     05/13/11, 12:00      53.7      11.1             95            7.0           11.2   329.1
     05/13/11, 13:00      53.9      11.1             95            6.5           10.4     339
     05/13/11, 14:00      54.7      11.6             94            7.3           11.8   317.3
     05/13/11, 15:00      55.3      11.9             92            7.7           12.3     308
     05/13/11, 16:00      56.6      12.7             90            8.9           14.3   308.3
     05/13/11, 17:00      56.7      12.7             87            8.5           13.7   311.3
     05/13/11, 18:00      56.3      12.5             87            9.1           14.6   303.5
     05/13/11, 19:00      55.8      12.2             87            8.5           13.8   302.8
     05/13/11, 20:00      54.9      11.7             90            8.8           14.2   304.2
     05/13/11, 21:00      53.0      10.7             92            8.5           13.6   307.5
     05/13/11, 22:00      52.5      10.4             92            8.0           12.8   303.4
     05/13/11, 23:00      51.9      10.0             91            9.7           15.7   302.9
      05/14/11, 0:00      51.1       9.6             94           10.8           17.4   300.6
      05/14/11, 1:00      49.4       8.7             97           11.0           17.7   301.8
      05/14/11, 2:00      48.9       8.4             98            9.7           15.6   302.5
      05/14/11, 3:00      49.0       8.4             97            8.8           14.2   302.7
      05/14/11, 4:00      49.2       8.5             96            8.3           13.4   304.6
      05/14/11, 5:00      49.4       8.7             95            7.8           12.6   309.8
      05/14/11, 6:00      49.7       8.8             94            6.9           11.1   318.7
      05/14/11, 7:00      49.2       8.6             93            7.9           12.6     325
      05/14/11, 8:00      48.5       8.2             92            6.9           11.1   319.8
      05/14/11, 9:00      47.9       7.8             91            8.3           13.4   318.2
     05/14/11, 10:00      47.4       7.5             91            8.4           13.5   309.5
     05/14/11, 11:00      46.3       6.9             96            7.7           12.4   311.8
     05/14/11, 12:00      46.5       7.0             96            8.7           14.0     312
     05/14/11, 13:00      47.0       7.4             93            9.3           15.0   310.2
     05/14/11, 14:00      47.1       7.4             94           10.4           16.7   302.8
     05/14/11, 15:00      47.9       7.8             95           10.4           16.7   302.2
     05/14/11, 16:00      48.4       8.1             94           10.2           16.4   303.5
     05/14/11, 17:00      48.5       8.2             95            9.1           14.7   304.5
     05/14/11, 18:00      48.5       8.1             95            8.1           13.1   306.5
     05/14/11, 19:00      48.5       8.2             96            7.2           11.5     307
     05/14/11, 20:00      48.5       8.2             97            6.5           10.5   308.2
     05/14/11, 21:00      48.3       8.1             97            7.1           11.5   301.5
     05/14/11, 22:00      48.3       8.0             98            6.9           11.1   301.3
     05/14/11, 23:00      47.9       7.8             98            7.2           11.5   299.7
      05/15/11, 0:00      47.6       7.7             98            6.7           10.8   305.6


  

                                                                                             
           Date,Time       Air       Air     % Relative           Wind           Wind    Wind
                        Temp F    Temp C       Humidity      Speed mph     Speed km/h Dir Deg
---------------------------------------------------------------------------------------------
      05/15/11, 1:00      47.7       7.7             98            6.1            9.8   307.7
      05/15/11, 2:00      47.7       7.7             99            5.4            8.7   312.5
      05/15/11, 3:00      47.5       7.6             99            5.8            9.3   337.5
      05/15/11, 4:00      47.5       7.6             99            6.1            9.8   351.2
      05/15/11, 5:00      47.3       7.5             99            7.9           12.7   358.2
      05/15/11, 6:00      46.1       6.8             98            8.2           13.2   343.4
      05/15/11, 7:00      45.1       6.3             97            7.6           12.3     335
      05/15/11, 8:00      44.9       6.2             96            6.4           10.4   329.5
      05/15/11, 9:00      45.5       6.5             94            7.8           12.6     339
     05/15/11, 10:00      47.3       7.5             92            7.1           11.5   347.9
     05/15/11, 11:00      49.3       8.6             81            7.6           12.3     346
     05/15/11, 12:00      51.3       9.7             73            7.5           12.0   341.2
     05/15/11, 13:00      55.0      11.8             69            8.4           13.5   345.2
     05/15/11, 14:00      58.9      14.0             64           10.1           16.2   344.1
     05/15/11, 15:00      60.3      14.7             62           10.6           17.0   347.3
     05/15/11, 16:00      61.7      15.5             58           11.4           18.4   354.6
     05/15/11, 17:00      61.3      15.3             53           10.1           16.2   345.3
     05/15/11, 18:00      62.5      15.9             47           11.6           18.7   355.9
     05/15/11, 19:00      61.7      15.5             45           10.2           16.4   4.395
     05/15/11, 20:00      61.2      15.2             47            5.8            9.4   356.1
     05/15/11, 21:00      57.9      13.4             58            2.3            3.7   329.9
     05/15/11, 22:00      55.0      11.8             59            3.7            5.9   346.2
     05/15/11, 23:00      52.8      10.5             65            2.5            4.0   332.2
      05/16/11, 0:00      49.6       8.8             72            1.6            2.6   295.8
      05/16/11, 1:00      48.1       8.0             81            2.6            4.2   315.2
      05/16/11, 2:00      47.4       7.6             79            3.1            4.9   355.3
      05/16/11, 3:00      46.2       6.9             80            4.1            6.6   356.8
      05/16/11, 4:00      45.2       6.3             80            3.4            5.5    11.9
      05/16/11, 5:00      44.5       5.9             74            3.3            5.3   17.64
      05/16/11, 6:00      43.5       5.4             62            3.1            5.0   21.72
      05/16/11, 7:00      42.9       5.0             66            2.3            3.6   336.8
      05/16/11, 8:00      46.2       6.9             67            3.6            5.7   350.9
      05/16/11, 9:00      49.7       8.8             59            7.3           11.7   13.98
     05/16/11, 10:00      52.0      10.1             50            8.1           13.1   12.45
     05/16/11, 11:00      54.3      11.4             51            7.5           12.1   353.8
     05/16/11, 12:00      56.6      12.6             45            8.6           13.9   5.184
     05/16/11, 13:00      58.0      13.4             42            8.4           13.6   356.7
     05/16/11, 14:00      60.1      14.6             42            8.0           12.8   348.8
     05/16/11, 15:00      61.7      15.5             42            7.8           12.6   352.8
     05/16/11, 16:00      63.1      16.3             36            7.6           12.2   347.2
     05/16/11, 17:00      64.2      16.9             34            7.2           11.6   351.2
     05/16/11, 18:00      64.7      17.2             32            7.3           11.7   352.4
     05/16/11, 19:00      64.0      16.8             31            8.5           13.8   17.88
     05/16/11, 20:00      61.8      15.6             36            7.9           12.7   29.87
     05/16/11, 21:00      58.2      13.6             44            4.1            6.6   22.75
     05/16/11, 22:00      55.2      11.9             49            2.4            3.9    9.25
     05/16/11, 23:00      54.1      11.3             50            2.5            4.0   328.8
      05/17/11, 0:00      53.0      10.7             51            1.8            2.9     319


  

                                                                                             
           Date,Time       Air       Air     % Relative           Wind           Wind    Wind
                        Temp F    Temp C       Humidity      Speed mph     Speed km/h Dir Deg
---------------------------------------------------------------------------------------------
      05/17/11, 1:00      51.0       9.6             58            1.1            1.8   302.3
      05/17/11, 2:00      49.1       8.5             65            1.7            2.8   288.2
      05/17/11, 3:00      43.9       5.6             85            2.7            4.3   329.3
      05/17/11, 4:00      43.8       5.6             85            2.1            3.4   19.07
      05/17/11, 5:00      45.1       6.3             68            2.0            3.3    22.4
      05/17/11, 6:00      43.7       5.5             72            1.1            1.8   337.4
      05/17/11, 7:00      45.3       6.4             67            3.1            4.9   23.18
      05/17/11, 8:00      50.0       9.0             59            3.6            5.9   63.16
      05/17/11, 9:00      53.2      10.8             52            4.9            7.9    73.9
     05/17/11, 10:00      55.0      11.8             47            5.9            9.4    70.6
     05/17/11, 11:00      58.5      13.7             39            5.8            9.3   67.62
     05/17/11, 12:00      60.6      14.9             36            5.8            9.3   57.01
     05/17/11, 13:00      62.4      15.9             35            6.8           11.0    41.5
     05/17/11, 14:00      63.9      16.7             30            5.9            9.5   41.31
     05/17/11, 15:00      65.3      17.5             28            5.5            8.8   48.59
     05/17/11, 16:00      66.3      18.1             27            5.5            8.9   34.46
     05/17/11, 17:00      66.8      18.3             27            5.8            9.4    51.5
     05/17/11, 18:00      67.0      18.5             29            5.5            8.9    70.9
     05/17/11, 19:00      66.1      17.9             28            6.7           10.8    51.1
     05/17/11, 20:00      64.3      16.9             30            4.3            6.9    70.6
     05/17/11, 21:00      61.8      15.5             31            1.1            1.9    94.9
     05/17/11, 22:00      58.6      13.8             44            1.4            2.2   37.45
     05/17/11, 23:00      55.2      11.9             49            1.5            2.4   18.79
      05/18/11, 0:00      53.0      10.7             64            1.4            2.3   340.7
      05/18/11, 1:00      50.6       9.3             69            2.3            3.8   330.6
      05/18/11, 2:00      49.6       8.8             75            2.5            4.0   346.3
      05/18/11, 3:00      49.7       8.8             64            3.1            4.9   350.9
      05/18/11, 4:00      49.2       8.6             62            2.8            4.5   4.711
      05/18/11, 5:00      48.8       8.3             58            3.5            5.6   20.56
      05/18/11, 6:00      47.6       7.6             63            3.9            6.2   22.36
      05/18/11, 7:00      48.2       8.0             63            3.3            5.3   31.17
      05/18/11, 8:00      52.6      10.5             60            1.6            2.6   1.741
      05/18/11, 9:00      56.3      12.5             58            2.7            4.3   11.11
     05/18/11, 10:00      60.9      15.0             54            3.2            5.1   11.92
     05/18/11, 11:00      63.9      16.7             46            4.2            6.8    12.3
     05/18/11, 12:00      65.3      17.5             35            5.0            8.0   32.15
     05/18/11, 13:00      67.5      18.7             36            4.8            7.7   10.17
     05/18/11, 14:00      68.6      19.4             33            5.2            8.4   2.559
     05/18/11, 15:00      69.8      20.0             32            5.0            8.1   30.59
     05/18/11, 16:00      70.7      20.5             33            4.4            7.1   47.35
     05/18/11, 17:00      71.0      20.7             37            5.0            8.0    86.1
     05/18/11, 18:00      71.2      20.8             37            4.3            6.9   104.6
     05/18/11, 19:00      71.4      20.9             36            5.2            8.3   110.6
     05/18/11, 20:00      69.5      19.8             47            4.6            7.4   102.9
     05/18/11, 21:00      65.3      17.5             60            5.3            8.6   58.37
     05/18/11, 22:00      62.6      16.0             72            5.8            9.3   56.66
     05/18/11, 23:00      59.5      14.3             83            5.6            9.0   56.65
      05/19/11, 0:00      56.8      12.8             88            6.3           10.2   59.82


  

                                                                                             
           Date,Time       Air       Air     % Relative           Wind           Wind    Wind
                        Temp F    Temp C       Humidity      Speed mph     Speed km/h Dir Deg
---------------------------------------------------------------------------------------------
      05/19/11, 1:00      55.5      12.0             91            6.6           10.6   61.35
      05/19/11, 2:00      54.3      11.4             93            6.2            9.9    70.3
      05/19/11, 3:00      53.4      10.9             96            5.5            8.9    70.5
      05/19/11, 4:00      52.9      10.6             97            4.3            6.9    74.7
      05/19/11, 5:00      52.5      10.4             98            5.3            8.6    89.4
      05/19/11, 6:00      51.7       9.9             99            4.7            7.6      71
      05/19/11, 7:00      52.4      10.3            100            5.7            9.1    75.4
      05/19/11, 8:00      54.4      11.4             99            7.1           11.4    81.3
      05/19/11, 9:00      56.8      12.8             97            7.5           12.1    76.6
     05/19/11, 10:00      59.0      14.0             90            8.5           13.7   68.72
     05/19/11, 11:00      61.4      15.3             85            8.7           13.9    71.1
     05/19/11, 12:00      65.5      17.6             78            8.1           13.0    85.4
     05/19/11, 13:00      68.1      19.0             70            8.9           14.4   100.3
     05/19/11, 14:00      70.8      20.6             63           10.5           17.0     109
     05/19/11, 15:00      71.6      21.0             55           11.3           18.1   118.8
     05/19/11, 16:00      72.4      21.4             56           11.6           18.6   121.7
     05/19/11, 17:00      72.5      21.5             52           12.1           19.5   121.1
     05/19/11, 18:00      72.3      21.4             54           10.4           16.7   104.6
     05/19/11, 19:00      71.5      20.9             59           10.7           17.3   120.1
     05/19/11, 20:00      70.0      20.1             60           10.7           17.1   121.3
     05/19/11, 21:00      67.8      18.9             65            8.1           13.0   125.4
     05/19/11, 22:00      66.1      18.0             67            7.8           12.5     113
     05/19/11, 23:00      64.6      17.1             72            8.1           13.0   109.7
      05/20/11, 0:00      63.4      16.5             76            6.7           10.7   118.6
      05/20/11, 1:00      62.3      15.8             79            5.1            8.2     110
      05/20/11, 2:00      62.4      15.9             81            6.2            9.9   113.4
      05/20/11, 3:00      61.8      15.6             83            6.1            9.8    92.4
      05/20/11, 4:00      61.9      15.6             83            6.5           10.4    97.5
      05/20/11, 5:00      61.6      15.5             87            7.4           12.0    96.6
      05/20/11, 6:00      62.3      15.8             85            8.2           13.2    93.1
      05/20/11, 7:00      62.6      16.0             83            8.8           14.2    90.7
      05/20/11, 8:00      63.8      16.6             82            8.9           14.3   102.7
      05/20/11, 9:00      64.8      17.2             80           10.8           17.4   111.6
     05/20/11, 10:00      65.0      17.3             86            8.4           13.5   113.5
     05/20/11, 11:00      63.6      16.6             92            5.2            8.3    15.4
     05/20/11, 12:00      64.2      16.9             92            5.9            9.5   46.72
     05/20/11, 13:00      66.5      18.2             92            5.4            8.6    76.1
     05/20/11, 14:00      68.6      19.3             89            6.4           10.3   116.5
     05/20/11, 15:00      68.5      19.3             97            9.0           14.5   141.5
     05/20/11, 16:00      66.2      18.0             98            7.9           12.6   116.8
     05/20/11, 17:00      66.7      18.3             98            7.6           12.2   109.8
     05/20/11, 18:00      66.9      18.4             97            7.3           11.8    98.2
     05/20/11, 19:00      67.4      18.6             97            8.1           13.0   103.1
     05/20/11, 20:00      67.6      18.8             97            7.9           12.7   112.3
     05/20/11, 21:00      67.3      18.6             97            7.4           12.0   103.2
     05/20/11, 22:00      67.2      18.6             95           11.3           18.1      98
     05/20/11, 23:00      66.5      18.2             96            7.3           11.7   108.3
      05/21/11, 0:00      65.8      17.8             97            5.6            9.0   109.3


  

                                                                                             
           Date,Time       Air       Air     % Relative           Wind           Wind    Wind
                        Temp F    Temp C       Humidity      Speed mph     Speed km/h Dir Deg
---------------------------------------------------------------------------------------------
      05/21/11, 1:00      65.1      17.4             97            5.5            8.9   102.7
      05/21/11, 2:00      65.1      17.4             97            5.7            9.2   110.7
      05/21/11, 3:00      65.4      17.5             97            6.8           10.9   123.2
      05/21/11, 4:00      65.3      17.5             98            7.9           12.6   127.7
      05/21/11, 5:00      65.0      17.4             98            8.8           14.2   136.7
      05/21/11, 6:00      64.8      17.2             98            7.4           11.9   135.7
      05/21/11, 7:00      64.9      17.3             98            8.8           14.1     144
      05/21/11, 8:00      64.3      16.9             99            8.1           13.0   151.5
      05/21/11, 9:00      63.8      16.7            100            8.0           12.9   163.6
     05/21/11, 10:00      62.7      16.0            100            2.5            4.1     153
     05/21/11, 11:00      65.1      17.4             97            6.6           10.6   132.1
     05/21/11, 12:00      69.7      20.0             91            9.6           15.5   141.1
     05/21/11, 13:00      72.2      21.4             83           12.6           20.3   155.4
     05/21/11, 14:00      73.1      21.9             80           12.7           20.4   155.8
     05/21/11, 15:00      72.9      21.7             79           12.0           19.4   156.2
     05/21/11, 16:00      74.1      22.4             77           11.1           17.8   155.3
     05/21/11, 17:00      75.3      23.1             73            9.4           15.1   145.5
     05/21/11, 18:00      76.1      23.5             72           10.0           16.1     141
     05/21/11, 19:00      75.6      23.2             73            9.7           15.7   148.5
     05/21/11, 20:00      73.6      22.1             78            7.3           11.8   147.8
     05/21/11, 21:00      71.1      20.7             83            5.6            9.0   122.6
     05/21/11, 22:00      70.0      20.1             83            6.3           10.1   120.8
     05/21/11, 23:00      66.3      18.1             93            7.3           11.7     166
      05/22/11, 0:00      60.1      14.6             97            4.8            7.7   122.9
      05/22/11, 1:00      59.7      14.4             98            6.1            9.9   133.6
      05/22/11, 2:00      59.9      14.5             94            7.6           12.3   120.1
      05/22/11, 3:00      59.8      14.4             94            4.3            6.8   126.7
      05/22/11, 4:00      59.5      14.3             93            4.6            7.4   124.6
      05/22/11, 5:00      59.6      14.3             92            6.9           11.2   124.1
      05/22/11, 6:00      59.3      14.2             91            8.5           13.6   135.3
      05/22/11, 7:00      60.3      14.7             91            9.7           15.7   140.2
      05/22/11, 8:00      62.0      15.7             89            9.8           15.7   145.4
      05/22/11, 9:00      65.1      17.4             91           10.3           16.7   150.2
     05/22/11, 10:00      69.1      19.6             90           13.7           22.1   154.8
     05/22/11, 11:00      71.6      21.0             89           14.2           22.8   162.1
     05/22/11, 12:00      75.1      23.0             86           13.8           22.2   166.7
     05/22/11, 13:00      77.0      24.0             80           15.1           24.3   175.4
     05/22/11, 14:00      80.0      25.7             73           15.5           24.9   176.6
     05/22/11, 15:00      83.2      27.4             57           17.0           27.3   189.4
     05/22/11, 16:00      82.8      27.2             51           13.8           22.2     198
     05/22/11, 17:00      81.5      26.5             53            9.0           14.5   219.5
     05/22/11, 18:00      80.0      25.7             52            8.7           13.9   229.3
     05/22/11, 19:00      79.0      25.1             47            6.9           11.1   240.4
     05/22/11, 20:00      76.4      23.7             53            4.8            7.7   242.6
     05/22/11, 21:00      71.8      21.1             63            2.5            4.0   232.6
     05/22/11, 22:00      69.5      19.8             70            4.5            7.2   190.4
     05/22/11, 23:00      66.8      18.3             75            4.5            7.2   186.9
      05/23/11, 0:00      65.2      17.5             77            4.2            6.7   185.5


  

                                                                                             
           Date,Time       Air       Air     % Relative           Wind           Wind    Wind
                        Temp F    Temp C       Humidity      Speed mph     Speed km/h Dir Deg
---------------------------------------------------------------------------------------------
      05/23/11, 1:00      65.0      17.3             77            3.1            4.9     189
      05/23/11, 2:00      64.9      17.3             80            2.4            3.8   185.9
      05/23/11, 3:00      64.6      17.1             81            2.3            3.7   187.6
      05/23/11, 4:00      63.9      16.7             85            2.8            4.5   196.4
      05/23/11, 5:00      64.1      16.9             85            3.1            4.9   247.5
      05/23/11, 6:00      64.5      17.1             81            3.9            6.3   251.3
      05/23/11, 7:00      64.0      16.8             82            3.9            6.3   259.7
      05/23/11, 8:00      66.1      18.0             78            5.7            9.1   255.4
      05/23/11, 9:00      68.0      19.0             77            5.9            9.4   256.6
     05/23/11, 10:00      70.6      20.5             72            6.0            9.6   262.5
     05/23/11, 11:00      72.1      21.3             68            7.9           12.7   277.3
     05/23/11, 12:00      74.5      22.6             62            6.9           11.1   263.2
     05/23/11, 13:00      76.3      23.6             59            8.2           13.2   276.3
     05/23/11, 14:00      77.9      24.5             55            7.7           12.3     285
     05/23/11, 15:00      78.5      24.9             51            6.3           10.1   279.4
     05/23/11, 16:00      80.1      25.7             49            5.6            9.0   265.3
     05/23/11, 17:00      80.7      26.1             47            5.3            8.6   258.6
     05/23/11, 18:00      80.3      25.8             47            4.5            7.2   246.1
     05/23/11, 19:00      80.7      26.1             44            3.4            5.4   246.6
     05/23/11, 20:00      79.3      25.3             45            2.6            4.2   243.2
     05/23/11, 21:00      75.3      23.1             54            1.5            2.5   231.5
     05/23/11, 22:00      72.2      21.4             64            1.7            2.7   291.5
     05/23/11, 23:00      71.1      20.7             63            1.2            1.9   318.8
      05/24/11, 0:00      69.7      19.9             67            2.2            3.5   323.2
      05/24/11, 1:00      68.3      19.2             78            2.1            3.4   307.2
      05/24/11, 2:00      66.0      17.9             78            3.4            5.5   320.4
      05/24/11, 3:00      64.1      16.8             85            3.7            6.0   321.6
      05/24/11, 4:00      63.6      16.6             86            3.8            6.2   330.5
      05/24/11, 5:00      63.0      16.3             89            3.8            6.1   329.8
      05/24/11, 6:00      62.1      15.7             90            4.1            6.7   340.1
      05/24/11, 7:00      63.4      16.4             86            2.2            3.5   4.148
      05/24/11, 8:00      66.1      17.9             85            3.6            5.9   32.51
      05/24/11, 9:00      70.7      20.5             77            5.3            8.6    71.2
     05/24/11, 10:00      74.5      22.6             69            4.8            7.7    80.6
     05/24/11, 11:00      77.1      24.0             62            5.8            9.4    94.9
     05/24/11, 12:00      78.9      25.1             59            6.4           10.3   107.7
     05/24/11, 13:00      80.7      26.1             54            5.9            9.5   115.9
     05/24/11, 14:00      80.2      25.8             55            5.9            9.5   115.6
     05/24/11, 15:00      79.5      25.4             69            4.9            7.9   108.8
     05/24/11, 16:00      77.5      24.3             87            9.2           14.9   135.5
     05/24/11, 17:00      65.3      17.5             96           12.1           19.5   210.5
     05/24/11, 18:00      65.9      17.8             95            8.5           13.6   28.28
     05/24/11, 19:00      66.2      18.0             92            3.9            6.3   356.5
     05/24/11, 20:00      67.3      18.6             90            3.0            4.8   69.73
     05/24/11, 21:00      66.7      18.3             93            4.7            7.5    88.6
     05/24/11, 22:00      66.9      18.4             93            7.0           11.3    75.5
     05/24/11, 23:00      66.8      18.3             93            8.6           13.8    80.1
      05/25/11, 0:00      66.1      17.9             93            9.3           14.9    90.9


  

                                                                                             
           Date,Time       Air       Air     % Relative           Wind           Wind    Wind
                        Temp F    Temp C       Humidity      Speed mph     Speed km/h Dir Deg
---------------------------------------------------------------------------------------------
      05/25/11, 1:00      65.2      17.4             93            7.2           11.6    73.6
      05/25/11, 2:00      63.5      16.5             95            7.6           12.2   54.69
      05/25/11, 3:00      61.6      15.5             96            5.0            8.1   56.78
      05/25/11, 4:00      60.4      14.8             99            5.6            9.0      59
      05/25/11, 5:00      59.0      14.0            100            6.0            9.6   17.44
      05/25/11, 6:00      56.5      12.6            100           10.8           17.4      35
      05/25/11, 7:00      55.0      11.8             98            7.9           12.7   33.24
      05/25/11, 8:00      54.9      11.7             99            7.0           11.2    84.1
      05/25/11, 9:00      55.9      12.3             99            6.5           10.4   67.41
     05/25/11, 10:00      57.1      12.9             98            5.0            8.0    88.7
     05/25/11, 11:00      58.6      13.8             98            5.5            8.9    70.3
     05/25/11, 12:00      58.9      14.0             98            7.7           12.5   39.22
     05/25/11, 13:00      58.2      13.5            100            7.8           12.5   32.49
     05/25/11, 14:00      58.4      13.7            100            7.3           11.8   34.27
     05/25/11, 15:00      58.9      13.9             99            9.3           15.0   17.92
     05/25/11, 16:00      59.0      14.0             97           12.4           20.0    13.1
     05/25/11, 17:00      58.0      13.5             97           13.6           21.9   10.76
     05/25/11, 18:00      55.9      12.3             95           14.1           22.6   5.863
     05/25/11, 19:00      55.1      11.8             93           15.8           25.4     9.7
     05/25/11, 20:00      54.8      11.7             91           14.3           22.9   13.95
     05/25/11, 21:00      53.9      11.1             90           16.0           25.8    13.1
     05/25/11, 22:00      52.9      10.6             90           14.4           23.2   6.459
     05/25/11, 23:00      53.3      10.8             86           13.8           22.2   4.486
      05/26/11, 0:00      53.2      10.8             84           11.1           17.8     357
      05/26/11, 1:00      52.9      10.6             84           10.7           17.2   352.3
      05/26/11, 2:00      52.6      10.4             85           10.3           16.5   351.1
      05/26/11, 3:00      52.5      10.4             87            9.0           14.5   339.6
      05/26/11, 4:00      52.3      10.3             85            9.1           14.7   342.6
      05/26/11, 5:00      51.5       9.8             87            7.6           12.3   340.6
      05/26/11, 6:00      50.0       9.0             88            6.7           10.7   341.4
      05/26/11, 7:00      49.7       8.8             84            9.4           15.2   357.1
      05/26/11, 8:00      50.1       9.1             74           10.5           16.8   359.6
      05/26/11, 9:00      51.0       9.6             71            9.9           15.9   353.9
     05/26/11, 10:00      54.2      11.4             69           11.4           18.3   4.623
     05/26/11, 11:00      56.3      12.5             66           11.4           18.4    8.88
     05/26/11, 12:00      58.7      13.8             62           10.2           16.4    7.22
     05/26/11, 13:00      60.4      14.8             63            8.3           13.3   354.3
     05/26/11, 14:00      61.7      15.5             60            8.0           12.9   347.6
     05/26/11, 15:00      63.1      16.3             57            8.8           14.1   356.9
     05/26/11, 16:00      63.8      16.7             53            9.5           15.3   3.154
     05/26/11, 17:00      64.5      17.0             48            9.4           15.2   15.62
     05/26/11, 18:00      64.6      17.1             47            7.7           12.4   18.26
     05/26/11, 19:00      64.1      16.9             45            6.3           10.1   34.51
     05/26/11, 20:00      62.8      16.1             49            4.7            7.6   47.34
     05/26/11, 21:00      59.8      14.5             52            1.8            2.8   338.7
     05/26/11, 22:00      57.9      13.4             60            2.1            3.3   4.944
     05/26/11, 23:00      55.9      12.3             62            2.5            4.1    49.3
      05/27/11, 0:00      54.3      11.4             69            1.0            1.7    82.1


  

                                                                                             
           Date,Time       Air       Air     % Relative           Wind           Wind    Wind
                        Temp F    Temp C       Humidity      Speed mph     Speed km/h Dir Deg
---------------------------------------------------------------------------------------------
      05/27/11, 1:00      51.8      10.0             79            1.0            1.6   349.8
      05/27/11, 2:00      51.3       9.7             78            2.2            3.5    74.4
      05/27/11, 3:00      50.9       9.5             80            1.2            1.9    92.2
      05/27/11, 4:00      49.7       8.8             88            2.3            3.7    86.2
      05/27/11, 5:00      49.3       8.6             89            3.2            5.1   104.6
      05/27/11, 6:00      49.5       8.7             91            5.0            8.0   112.5
      05/27/11, 7:00      49.6       8.8             91            4.8            7.7   119.1
      05/27/11, 8:00      52.4      10.3             84            5.9            9.5   117.6
      05/27/11, 9:00      55.1      11.8             79            8.1           13.1   124.1
     05/27/11, 10:00      56.1      12.4             77            7.4           11.9   124.1
     05/27/11, 11:00      58.5      13.7             75            6.7           10.8   119.4
     05/27/11, 12:00      58.0      13.4             75            5.5            8.8   120.8
     05/27/11, 13:00      59.8      14.4             71            6.3           10.2   123.3
     05/27/11, 14:00      62.3      15.8             68            7.3           11.8   125.4
     05/27/11, 15:00      63.3      16.4             62            8.5           13.7   115.4
     05/27/11, 16:00      62.3      15.8             63            7.5           12.1   110.6
     05/27/11, 17:00      61.2      15.2             76            8.6           13.8   122.7
     05/27/11, 18:00      58.8      13.9             80            5.9            9.5   113.4
     05/27/11, 19:00      58.6      13.8             83            5.4            8.8   105.1
     05/27/11, 20:00      58.3      13.6             86            6.2           10.1   112.4
     05/27/11, 21:00      57.2      13.0             89            5.9            9.4   129.3
     05/27/11, 22:00      57.0      12.9             89            4.5            7.3   130.5
     05/27/11, 23:00      56.9      12.8             91            3.3            5.3     125
      05/28/11, 0:00      56.3      12.5             94            3.3            5.2   146.5
      05/28/11, 1:00      56.2      12.4             95            3.9            6.3   143.5
      05/28/11, 2:00      56.2      12.4             96            4.8            7.7   159.1
      05/28/11, 3:00      56.3      12.5             97            5.1            8.2   165.1
      05/28/11, 4:00      55.9      12.3             98            4.2            6.8   170.7
      05/28/11, 5:00      55.6      12.1             99            3.8            6.1     167
      05/28/11, 6:00      55.5      12.1             99            5.8            9.4   152.7
      05/28/11, 7:00      55.8      12.2             99            4.2            6.8   179.8
      05/28/11, 8:00      56.7      12.7             99            5.1            8.2   163.2
      05/28/11, 9:00      58.6      13.8             96            3.9            6.3   169.4
     05/28/11, 10:00      59.1      14.0             95            4.7            7.6   196.3
     05/28/11, 11:00      58.7      13.8             97            6.0            9.7   170.8
     05/28/11, 12:00      58.9      13.9             98            4.6            7.5   188.3
     05/28/11, 13:00      60.3      14.7             98            9.6           15.5   151.4
     05/28/11, 14:00      62.7      16.1             92            9.4           15.2   153.4
     05/28/11, 15:00      65.0      17.3             88            7.2           11.5   154.2
     05/28/11, 16:00      68.3      19.2             77            4.3            7.0   140.4
     05/28/11, 17:00      71.0      20.7             66            6.8           11.0   161.1
     05/28/11, 18:00      71.2      20.8             64            7.0           11.3   163.9
     05/28/11, 19:00      70.9      20.6             64            7.2           11.6   159.5
     05/28/11, 20:00      68.3      19.1             71            3.7            5.9   151.3
     05/28/11, 21:00      64.8      17.2             75            3.1            5.0   156.8
     05/28/11, 22:00      63.0      16.2             79            2.6            4.1   156.7
     05/28/11, 23:00      60.3      14.7             86            2.5            4.0   139.6
      05/29/11, 0:00      58.6      13.8             92            4.2            6.7   140.2


  

                                                                                             
           Date,Time       Air       Air     % Relative           Wind           Wind    Wind
                        Temp F    Temp C       Humidity      Speed mph     Speed km/h Dir Deg
---------------------------------------------------------------------------------------------
      05/29/11, 1:00      57.9      13.4             94            5.2            8.4   142.9
      05/29/11, 2:00      57.6      13.2             95            3.1            5.0   111.1
      05/29/11, 3:00      57.0      12.9             96            3.3            5.3     104
      05/29/11, 4:00      57.5      13.2             96            3.5            5.7    75.4
      05/29/11, 5:00      56.8      12.8             98            2.7            4.4   108.4
      05/29/11, 6:00      57.1      13.0             99            3.8            6.1   57.64
      05/29/11, 7:00      58.1      13.5            100            4.7            7.5   54.59
      05/29/11, 8:00      58.4      13.7            100            7.2           11.6   4.161
      05/29/11, 9:00      59.6      14.3            100           12.0           19.3   105.9
     05/29/11, 10:00      60.3      14.8             93           11.4           18.3   43.31
     05/29/11, 11:00      61.2      15.2             94            5.1            8.2      12
     05/29/11, 12:00      61.9      15.6             95            1.7            2.7      83
     05/29/11, 13:00      63.4      16.4             95            4.8            7.8   112.7
     05/29/11, 14:00      66.1      17.9             92            7.0           11.3   102.4
     05/29/11, 15:00      68.4      19.2             88            7.9           12.6   100.4
     05/29/11, 16:00      69.7      19.9             88            7.5           12.1   104.7
     05/29/11, 17:00      72.2      21.3             87            8.7           14.0   112.1
     05/29/11, 18:00      75.1      22.9             85            8.9           14.4   113.2
     05/29/11, 19:00      75.8      23.3             86            7.2           11.5   114.8
     05/29/11, 20:00      75.8      23.3             88            7.7           12.4   110.6
     05/29/11, 21:00      74.7      22.7             89            7.0           11.2    96.9
     05/29/11, 22:00      72.9      21.7             93            5.7            9.2    92.8
     05/29/11, 23:00      71.8      21.1             94            6.2           10.0    96.2
      05/30/11, 0:00      71.1      20.7             96            5.9            9.6   113.4
      05/30/11, 1:00      70.2      20.2             97            6.4           10.3     135
      05/30/11, 2:00      70.4      20.3             94            7.5           12.1   141.5
      05/30/11, 3:00      70.6      20.5             85            9.3           15.0   145.9
      05/30/11, 4:00      70.1      20.2             85           10.2           16.4   142.3
      05/30/11, 5:00      69.4      19.8             88           11.4           18.4   144.5
      05/30/11, 6:00      69.2      19.7             90           11.5           18.5   144.9
      05/30/11, 7:00      70.5      20.4             88           11.6           18.7   139.6
      05/30/11, 8:00      72.3      21.4             87           13.1           21.1   141.4
      05/30/11, 9:00      74.7      22.7             86           13.8           22.2   148.5
     05/30/11, 10:00      79.4      25.3             79           15.8           25.5   156.9
     05/30/11, 11:00      81.6      26.5             70           16.8           27.0   163.4
     05/30/11, 12:00      83.4      27.5             65           17.6           28.4   164.2
     05/30/11, 13:00      84.4      28.1             60           16.9           27.2   165.6
     05/30/11, 14:00      84.7      28.3             59           16.6           26.6   160.2
     05/30/11, 15:00      87.1      29.6             55           17.3           27.8   158.5
     05/30/11, 16:00      87.2      29.6             44           20.2           32.4   158.3
     05/30/11, 17:00      86.4      29.2             42           19.8           31.8   155.5
     05/30/11, 18:00      84.5      28.1             46           18.2           29.3   155.2
     05/30/11, 19:00      83.5      27.6             49           14.9           24.0   155.2
     05/30/11, 20:00      81.5      26.5             57           12.3           19.9   153.4
     05/30/11, 21:00      77.5      24.3             70            8.6           13.8     155
     05/30/11, 22:00      75.9      23.4             71            8.8           14.2   138.8
     05/30/11, 23:00      77.0      24.0             71           12.7           20.4   150.6
      05/31/11, 0:00      76.6      23.8             73           14.3           23.0   149.3


  

                                                                                             
           Date,Time       Air       Air     % Relative           Wind           Wind    Wind
                        Temp F    Temp C       Humidity      Speed mph     Speed km/h Dir Deg
---------------------------------------------------------------------------------------------
      05/31/11, 1:00      75.8      23.3             74           12.6           20.3   153.1
      05/31/11, 2:00      76.7      23.8             73           12.3           19.8   157.9
      05/31/11, 3:00      76.9      23.9             73           12.4           20.0   163.2
      05/31/11, 4:00      76.9      23.9             73            9.3           15.0   167.1
      05/31/11, 5:00      72.7      21.6             95            7.3           11.7   216.1
      05/31/11, 6:00      68.0      19.0             98            2.7            4.3   149.3
      05/31/11, 7:00      67.8      18.9             97            6.2           10.0   165.5
      05/31/11, 8:00      69.2      19.7             92            7.9           12.8   136.2
      05/31/11, 9:00      69.7      19.9             92            7.0           11.3   171.2
     05/31/11, 10:00      71.1      20.7             90            8.7           13.9   194.7
     05/31/11, 11:00      71.4      20.9             84           10.1           16.2   186.9
     05/31/11, 12:00      74.7      22.7             75            7.9           12.7   199.2
     05/31/11, 13:00      76.6      23.8             63            6.6           10.7   211.5
     05/31/11, 14:00      78.7      25.0             56            5.7            9.2   229.3
     05/31/11, 15:00      80.3      25.9             47            6.0            9.7   237.6
     05/31/11, 16:00      81.7      26.6             41            6.6           10.6   216.5
     05/31/11, 17:00      82.4      27.0             33            7.1           11.4   250.8
     05/31/11, 18:00      82.3      26.9             32            6.1            9.9   228.8
     05/31/11, 19:00      81.6      26.5             30            6.0            9.6     233
     05/31/11, 20:00      79.8      25.6             38            4.2            6.7   214.8
     05/31/11, 21:00      76.0      23.4             42            3.0            4.9   235.2
     05/31/11, 22:00      71.3      20.8             51            2.0            3.2   222.9
     05/31/11, 23:00      69.7      19.9             53            1.7            2.7   259.3
      06/01/11, 0:00      67.8      18.9             56            3.6            5.8   282.9
      06/01/11, 1:00      65.5      17.6             64            1.5            2.4     229
      06/01/11, 2:00      63.0      16.2             65            1.6            2.6   271.2
      06/01/11, 3:00      62.5      15.9             67            3.2            5.2   291.9
      06/01/11, 4:00      60.3      14.7             70            3.0            4.8   306.2
      06/01/11, 5:00      57.6      13.2             78            1.5            2.4   339.9
      06/01/11, 6:00      56.0      12.3             79            2.0            3.2   281.9
      06/01/11, 7:00      57.3      13.1             80            1.4            2.3   262.7
      06/01/11, 8:00      61.8      15.6             74            2.0            3.2   222.4
      06/01/11, 9:00      65.9      17.8             65            2.9            4.7   308.7
     06/01/11, 10:00      67.7      18.8             57            3.4            5.4   323.7
     06/01/11, 11:00      69.9      20.0             53            3.1            4.9   328.9
     06/01/11, 12:00      72.7      21.6             51            2.8            4.5   233.2
     06/01/11, 13:00      75.3      23.1             47            3.4            5.4   164.7
     06/01/11, 14:00      78.0      24.5             44            4.1            6.6   115.3
     06/01/11, 15:00      80.4      25.9             41            5.6            9.1     156
     06/01/11, 16:00      81.3      26.4             42            6.8           11.0   168.6
     06/01/11, 17:00      79.9      25.6             44            7.3           11.7   172.2
     06/01/11, 18:00      79.1      25.1             47            6.6           10.6   167.5
     06/01/11, 19:00      79.6      25.4             47            5.7            9.2   143.8
     06/01/11, 20:00      78.0      24.6             51            4.8            7.8   129.3
     06/01/11, 21:00      74.7      22.7             62            2.8            4.4   117.4
     06/01/11, 22:00      72.1      21.3             65            2.8            4.4   109.7
     06/01/11, 23:00      70.7      20.5             69            4.6            7.4   118.1
      06/02/11, 0:00      69.9      20.0             72            3.7            6.0   109.8


  

                                                                                             
           Date,Time       Air       Air     % Relative           Wind           Wind    Wind
                        Temp F    Temp C       Humidity      Speed mph     Speed km/h Dir Deg
---------------------------------------------------------------------------------------------
      06/02/11, 1:00      69.2      19.6             74            3.6            5.7   115.5
      06/02/11, 2:00      69.0      19.6             74            4.9            7.8   109.9
      06/02/11, 3:00      69.4      19.8             73            6.0            9.7   108.1
      06/02/11, 4:00      69.7      19.9             71            6.0            9.7   104.8
      06/02/11, 5:00      69.6      19.9             70            4.7            7.6   101.7
      06/02/11, 6:00      68.8      19.4             71            4.9            8.0   110.8
      06/02/11, 7:00      68.8      19.4             78            7.1           11.4   116.8
      06/02/11, 8:00      68.4      19.2             87            8.3           13.4   116.7
      06/02/11, 9:00      68.8      19.4             90            7.7           12.4   106.6
     06/02/11, 10:00      69.1      19.6             97            8.2           13.2   123.8
     06/02/11, 11:00      68.3      19.2             99            9.9           15.9   132.7
     06/02/11, 12:00      68.6      19.3             99           11.3           18.2   131.8
     06/02/11, 13:00      69.4      19.8             97           13.4           21.5   130.9
     06/02/11, 14:00      69.5      19.9             95           13.9           22.4   125.3
     06/02/11, 15:00      70.1      20.2             92           14.2           22.8   124.6
     06/02/11, 16:00      72.3      21.4             88           13.9           22.4   122.3
     06/02/11, 17:00      73.3      21.9             85           13.9           22.3   127.6
     06/02/11, 18:00      73.5      22.1             86           13.0           20.9   127.6
     06/02/11, 19:00      74.2      22.5             87           12.1           19.5   124.4
     06/02/11, 20:00      73.6      22.1             90           10.7           17.3   126.5
     06/02/11, 21:00      72.7      21.6             91           11.1           17.8   122.5
     06/02/11, 22:00      71.9      21.2             92           11.5           18.4   124.5
     06/02/11, 23:00      71.5      20.9             90           12.2           19.6   123.7
      06/03/11, 0:00      71.0      20.7             93           11.1           17.9   127.6
      06/03/11, 1:00      70.6      20.5             93           10.8           17.3   127.5
      06/03/11, 2:00      70.3      20.3             94           10.6           17.1   127.8
      06/03/11, 3:00      70.2      20.2             94            9.2           14.8   132.3
      06/03/11, 4:00      70.3      20.3             96            8.6           13.9   137.1
      06/03/11, 5:00      70.5      20.4             96            8.9           14.4   135.6
      06/03/11, 6:00      70.6      20.4             97            9.1           14.6   136.9
      06/03/11, 7:00      71.8      21.1             97            9.6           15.5   136.9
      06/03/11, 8:00      74.3      22.5             94           11.2           18.1   145.1
      06/03/11, 9:00      77.7      24.4             87           13.9           22.4   152.7
     06/03/11, 10:00      81.5      26.5             82           13.4           21.5   156.2
     06/03/11, 11:00      84.4      28.1             72           14.9           24.0   161.3
     06/03/11, 12:00      86.8      29.5             64           17.3           27.9   173.1
     06/03/11, 13:00      88.9      30.6             59           17.6           28.3   173.1
     06/03/11, 14:00      90.7      31.6             54           17.2           27.7     172
     06/03/11, 15:00      91.8      32.2             50           17.2           27.6   172.8
     06/03/11, 16:00      92.6      32.7             49           17.2           27.6   169.3
     06/03/11, 17:00      92.1      32.4             47           17.2           27.7   174.9
     06/03/11, 18:00      91.0      31.8             52           16.5           26.5   176.6
     06/03/11, 19:00      89.9      31.2             55           13.3           21.4   172.5
     06/03/11, 20:00      87.6      29.9             62            9.9           16.0   168.9
     06/03/11, 21:00      84.5      28.1             73            6.7           10.7   164.1
     06/03/11, 22:00      81.0      26.2             78            5.6            8.9   154.7
     06/03/11, 23:00      79.4      25.3             83            5.7            9.3   160.9
      06/04/11, 0:00      77.9      24.5             84            5.1            8.1   165.8


  

                                                                                             
           Date,Time       Air       Air     % Relative           Wind           Wind    Wind
                        Temp F    Temp C       Humidity      Speed mph     Speed km/h Dir Deg
---------------------------------------------------------------------------------------------
      06/04/11, 1:00      76.4      23.7             83            4.1            6.6   164.3
      06/04/11, 2:00      76.2      23.6             81            5.0            8.0   185.4
      06/04/11, 3:00      75.3      23.1             81            1.2            1.9   236.9
      06/04/11, 4:00      74.0      22.4             89            3.1            5.0   178.2
      06/04/11, 5:00      73.4      22.0             85            3.0            4.9   181.7
      06/04/11, 6:00      73.8      22.2             83            5.9            9.5   180.9
      06/04/11, 7:00      73.8      22.3             84            2.5            4.1   289.7
      06/04/11, 8:00      74.8      22.8             83            3.2            5.1   30.24
      06/04/11, 9:00      76.7      23.8             81            1.4            2.3    83.4
     06/04/11, 10:00      74.5      22.6             89            2.9            4.7   10.29
     06/04/11, 11:00      77.7      24.4             79            3.9            6.2   26.91
     06/04/11, 12:00      81.1      26.3             73            3.3            5.3   27.03
     06/04/11, 13:00      83.4      27.5             68            3.9            6.3   333.7
     06/04/11, 14:00      83.8      27.8             62            7.5           12.0   18.97
     06/04/11, 15:00      84.6      28.2             57            5.2            8.4    11.9
     06/04/11, 16:00      83.1      27.4             62            3.5            5.7   12.39
     06/04/11, 17:00      84.7      28.3             59            3.2            5.1    10.6
     06/04/11, 18:00      86.3      29.1             50            3.6            5.7   64.37
     06/04/11, 19:00      84.3      28.1             48            4.0            6.4   55.64
     06/04/11, 20:00      82.6      27.1             58            1.9            3.1   20.37
     06/04/11, 21:00      80.1      25.7             58            1.3            2.1   286.9
     06/04/11, 22:00      76.8      23.9             66            1.2            1.9      89
     06/04/11, 23:00      74.3      22.5             76            1.9            3.0   287.2
      06/05/11, 0:00      72.8      21.7             82            1.5            2.5   312.1
      06/05/11, 1:00      69.5      19.9             88            1.0            1.6   319.9
      06/05/11, 2:00      69.9      20.0             84            0.8            1.4   340.2
      06/05/11, 3:00      69.0      19.6             87            3.6            5.7   340.2
      06/05/11, 4:00      68.4      19.3             79            4.1            6.6   341.2
      06/05/11, 5:00      70.5      20.4             62            4.1            6.7   349.9
      06/05/11, 6:00      70.4      20.3             61            5.4            8.7   1.314
      06/05/11, 7:00      69.1      19.6             67            4.9            7.9    8.35
      06/05/11, 8:00      69.4      19.8             70            5.1            8.2   39.65
      06/05/11, 9:00      71.9      21.2             79            4.9            7.9   60.65
     06/05/11, 10:00      75.3      23.0             74            7.6           12.3   69.13
     06/05/11, 11:00      78.3      24.7             69            6.0            9.7   65.17
     06/05/11, 12:00      80.8      26.1             65            6.8           11.0    85.2
     06/05/11, 13:00      82.9      27.3             69            8.6           13.9   117.5
     06/05/11, 14:00      84.2      28.0             69            8.9           14.3   113.6
     06/05/11, 15:00      85.5      28.8             65            7.6           12.3   115.6
     06/05/11, 16:00      86.3      29.2             63            7.9           12.7   124.9
     06/05/11, 17:00      86.5      29.3             63            8.0           12.9   123.5
     06/05/11, 18:00      86.6      29.4             63            7.7           12.4   140.2
     06/05/11, 19:00      85.7      28.9             64            5.4            8.6   117.3
     06/05/11, 20:00      84.7      28.3             66            5.3            8.5   112.4
     06/05/11, 21:00      82.6      27.1             74            6.3           10.2   130.7
     06/05/11, 22:00      80.4      25.9             80            6.1            9.8   133.5
     06/05/11, 23:00      79.4      25.3             84            7.8           12.6   130.7
      06/06/11, 0:00      77.8      24.4             89            6.7           10.8   128.5


  

                                                                                             
           Date,Time       Air       Air     % Relative           Wind           Wind    Wind
                        Temp F    Temp C       Humidity      Speed mph     Speed km/h Dir Deg
---------------------------------------------------------------------------------------------
      06/06/11, 1:00      75.8      23.3             94            4.4            7.1     127
      06/06/11, 2:00      73.9      22.3             97            2.1            3.4   126.4
      06/06/11, 3:00      72.4      21.4             99            2.5            4.0   133.9
      06/06/11, 4:00      71.5      20.9             99            3.0            4.9   144.5
      06/06/11, 5:00      70.6      20.4             98            2.8            4.5   148.5
      06/06/11, 6:00      69.5      19.8             97            3.3            5.3   153.2
      06/06/11, 7:00      70.2      20.2             93            4.3            7.0   148.1
      06/06/11, 8:00      73.9      22.3             90            5.9            9.5   154.9
      06/06/11, 9:00      78.9      25.1             78            7.7           12.4     173
     06/06/11, 10:00      83.3      27.5             65            8.0           12.9   189.2
     06/06/11, 11:00      87.0      29.5             56            7.3           11.7   196.1
     06/06/11, 12:00      89.3      30.8             52            8.3           13.3   189.6
     06/06/11, 13:00      91.6      32.1             46            8.6           13.9   190.2
     06/06/11, 14:00      93.5      33.1             41            8.9           14.3   192.3
     06/06/11, 15:00      94.9      34.0             40           10.1           16.3   190.3
     06/06/11, 16:00      95.3      34.2             41           10.7           17.3   187.4
     06/06/11, 17:00      94.7      33.8             44           12.7           20.4   182.8
     06/06/11, 18:00      94.1      33.5             45           12.9           20.8   182.8
     06/06/11, 19:00      93.3      33.0             44           11.6           18.6   186.4
     06/06/11, 20:00      91.2      31.9             49            7.8           12.5   184.1
     06/06/11, 21:00      86.8      29.4             58            5.3            8.5   168.5
     06/06/11, 22:00      82.6      27.1             62            5.4            8.6   167.7
     06/06/11, 23:00      80.7      26.1             67            5.9            9.5   177.1
      06/07/11, 0:00      79.0      25.1             71            5.9            9.5   177.9
      06/07/11, 1:00      77.7      24.4             75            5.1            8.3     178
      06/07/11, 2:00      75.7      23.3             83            3.7            6.0   158.1
      06/07/11, 3:00      75.4      23.1             84            5.2            8.3   177.4
      06/07/11, 4:00      75.9      23.4             85            5.6            9.0   177.5
      06/07/11, 5:00      74.8      22.8             85            5.1            8.2   177.2
      06/07/11, 6:00      72.7      21.6             92            3.3            5.3   158.4
      06/07/11, 7:00      71.6      21.0             94            4.0            6.5     150
      06/07/11, 8:00      76.0      23.4             90            6.6           10.6   158.5
      06/07/11, 9:00      80.2      25.8             80            9.1           14.7   170.2
     06/07/11, 10:00      84.2      28.0             64           11.7           18.8   182.2
     06/07/11, 11:00      87.0      29.6             56           12.5           20.1   182.5
     06/07/11, 12:00      89.3      30.9             51           13.9           22.4   178.7
     06/07/11, 13:00      90.9      31.7             47           15.0           24.1   173.4
     06/07/11, 14:00      91.8      32.2             46           15.7           25.2   171.3
     06/07/11, 15:00      92.2      32.5             46           15.8           25.4   168.3
     06/07/11, 16:00      92.2      32.4             47           16.2           26.1   162.1
     06/07/11, 17:00      91.9      32.3             46           17.9           28.8     160
     06/07/11, 18:00      91.0      31.8             48           19.1           30.7   161.7
     06/07/11, 19:00      90.0      31.2             51           17.1           27.5   161.3
     06/07/11, 20:00      88.5      30.4             54           15.7           25.2   161.8
     06/07/11, 21:00      86.0      29.0             57           12.0           19.4   158.9
     06/07/11, 22:00      83.3      27.5             65           10.1           16.3   158.6
     06/07/11, 23:00      81.8      26.7             65           10.6           17.0   161.4
      06/08/11, 0:00      82.1      26.9             64           12.5           20.1   164.8


  

                                                                                             
           Date,Time       Air       Air     % Relative           Wind           Wind    Wind
                        Temp F    Temp C       Humidity      Speed mph     Speed km/h Dir Deg
---------------------------------------------------------------------------------------------
      06/08/11, 1:00      81.9      26.8             61           12.4           20.0   165.7
      06/08/11, 2:00      81.7      26.6             59           11.0           17.7   170.4
      06/08/11, 3:00      81.3      26.4             60           12.0           19.3   173.9
      06/08/11, 4:00      80.4      25.9             62           10.9           17.5   174.5
      06/08/11, 5:00      80.1      25.7             62           11.2           18.1   178.8
      06/08/11, 6:00      79.5      25.4             64            9.4           15.2   179.5
      06/08/11, 7:00      77.3      24.1             78            7.5           12.0   178.5
      06/08/11, 8:00      77.6      24.3             77            8.1           13.0   178.5
      06/08/11, 9:00      80.9      26.2             71            8.9           14.3   184.1
     06/08/11, 10:00      83.8      27.8             63           10.4           16.8   191.4
     06/08/11, 11:00      85.9      28.9             57           10.0           16.1   192.8
     06/08/11, 12:00      87.2      29.7             58            8.8           14.1   200.7
     06/08/11, 13:00      88.5      30.4             56            8.8           14.1   189.8
     06/08/11, 14:00      89.7      31.1             55            7.1           11.4   189.6
     06/08/11, 15:00      90.6      31.6             55            5.8            9.3   198.8
     06/08/11, 16:00      91.3      31.9             53            5.9            9.5   192.9
     06/08/11, 17:00      90.3      31.4             54            9.1           14.7     178
     06/08/11, 18:00      90.1      31.3             54            7.8           12.6   187.7
     06/08/11, 19:00      87.9      30.0             56            9.1           14.6   181.5
     06/08/11, 20:00      83.5      27.6             76            4.8            7.8   214.6
     06/08/11, 21:00      74.7      22.7             85            7.6           12.2   345.4
     06/08/11, 22:00      73.8      22.2             82            4.1            6.7   320.8
     06/08/11, 23:00      74.1      22.4             61            6.3           10.1     324
      06/09/11, 0:00      72.2      21.3             57            5.7            9.2   336.7
      06/09/11, 1:00      70.5      20.4             58            5.7            9.2   342.3
      06/09/11, 2:00      69.2      19.7             61            6.4           10.3     349
      06/09/11, 3:00      66.8      18.3             92           10.6           17.0   344.1
      06/09/11, 4:00      62.3      15.8             98            5.9            9.5   57.97
      06/09/11, 5:00      61.4      15.3             98            7.3           11.7   24.24
      06/09/11, 6:00      61.2      15.2             93            6.6           10.6   5.415
      06/09/11, 7:00      60.7      14.9             93            4.4            7.0   323.6
      06/09/11, 8:00      60.6      14.9             91            7.6           12.2   26.34
      06/09/11, 9:00      60.7      15.0             89            4.3            6.9   350.5
     06/09/11, 10:00      59.6      14.3             96            5.0            8.0   348.9
     06/09/11, 11:00      59.5      14.3             96            5.8            9.4    .855
     06/09/11, 12:00      60.7      14.9             93            5.2            8.4   5.234
     06/09/11, 13:00      60.0      14.6             97            4.2            6.8   279.5
     06/09/11, 14:00      59.9      14.5             99            7.8           12.5   355.3
     06/09/11, 15:00      62.5      16.0             98            9.5           15.2    43.5
     06/09/11, 16:00      66.1      18.0             92            7.7           12.4    72.4
     06/09/11, 17:00      67.2      18.6             94            5.5            8.9      75
     06/09/11, 18:00      69.9      20.0             88            6.5           10.4   48.23
     06/09/11, 19:00      69.8      20.0             89            7.5           12.0    74.8
     06/09/11, 20:00      68.4      19.2             91            8.0           12.9   59.93
     06/09/11, 21:00      66.9      18.4             97            7.0           11.3   56.47
     06/09/11, 22:00      66.5      18.1             98            7.1           11.4    60.6
     06/09/11, 23:00      65.7      17.7             98           12.8           20.6   54.54
      06/10/11, 0:00      61.6      15.5             98           13.9           22.4   35.78


  

                                                                                             
           Date,Time       Air       Air     % Relative           Wind           Wind    Wind
                        Temp F    Temp C       Humidity      Speed mph     Speed km/h Dir Deg
---------------------------------------------------------------------------------------------
      06/10/11, 1:00      59.2      14.1             99           13.2           21.3   59.78
      06/10/11, 2:00      59.0      14.0            100            8.0           12.9   60.66
      06/10/11, 3:00      58.6      13.8            100            9.3           15.0      83
      06/10/11, 4:00      59.3      14.2            100           10.7           17.2   124.2
      06/10/11, 5:00      60.4      14.8            100            9.5           15.3   118.1
      06/10/11, 6:00      60.2      14.7            100            6.4           10.4   118.2
      06/10/11, 7:00      60.8      15.0            100            3.0            4.8   143.3
      06/10/11, 8:00      61.7      15.5            100            1.5            2.4   325.1
      06/10/11, 9:00      62.7      16.1            100            2.8            4.5   359.9
     06/10/11, 10:00      62.6      16.0             99            3.7            5.9   11.06
     06/10/11, 11:00      62.6      16.0             98            4.2            6.8   38.12
     06/10/11, 12:00      63.8      16.7             98            4.5            7.2   20.48
     06/10/11, 13:00      65.0      17.4             95            3.7            6.0   58.91
     06/10/11, 14:00      66.8      18.4             92            6.9           11.0   37.36
     06/10/11, 15:00      68.3      19.2             90            3.6            5.8    89.5
     06/10/11, 16:00      67.4      18.7             93            2.6            4.2   114.4
     06/10/11, 17:00      67.1      18.5             95            5.6            9.1   122.5
     06/10/11, 18:00      67.5      18.7             95            4.3            6.9   164.2
     06/10/11, 19:00      67.9      18.9             94            3.3            5.3   177.1
     06/10/11, 20:00      67.3      18.6             96            1.3            2.1   224.8
     06/10/11, 21:00      66.7      18.3             98            1.2            1.9   293.1
     06/10/11, 22:00      65.1      17.4             99            4.0            6.4   319.9
     06/10/11, 23:00      62.9      16.2             99            4.0            6.5   340.2
      06/11/11, 0:00      61.9      15.6            100            4.2            6.8   340.8
      06/11/11, 1:00      61.4      15.3            100            4.3            7.0   329.4
      06/11/11, 2:00      60.9      15.0            100            4.5            7.3   311.4
      06/11/11, 3:00      60.3      14.7            100            5.5            8.8   301.1
      06/11/11, 4:00      59.9      14.5            100            4.3            7.0   298.4
      06/11/11, 5:00      59.6      14.4             99            3.8            6.1   310.9
      06/11/11, 6:00      59.0      14.0             99            3.9            6.2   310.5
      06/11/11, 7:00      58.5      13.7             99            3.8            6.1   306.8
      06/11/11, 8:00      59.4      14.2             97            4.0            6.5   319.3
      06/11/11, 9:00      60.4      14.8             95            4.9            7.8     318
     06/11/11, 10:00      62.1      15.7             91            5.1            8.3   326.3
     06/11/11, 11:00      64.8      17.3             85            6.1            9.8     319
     06/11/11, 12:00      67.0      18.4             79            6.1            9.8   308.3
     06/11/11, 13:00      68.1      19.1             76            6.2           10.0   315.9
     06/11/11, 14:00      69.7      19.9             72            7.0           11.2   322.1
     06/11/11, 15:00      70.2      20.2             70            6.3           10.1   323.6
     06/11/11, 16:00      70.6      20.5             69            6.0            9.7   333.3
     06/11/11, 17:00      71.6      21.0             63            5.5            8.8   328.3
     06/11/11, 18:00      71.6      21.0             66            5.4            8.7     353
     06/11/11, 19:00      70.7      20.5             63            4.3            6.9   356.4
     06/11/11, 20:00      69.7      20.0             64            2.3            3.7   351.7
     06/11/11, 21:00      66.9      18.4             74            1.7            2.7   23.41
     06/11/11, 22:00      64.3      16.9             81            1.7            2.7   48.27
     06/11/11, 23:00      62.7      16.1             81            2.3            3.6   54.56
      06/12/11, 0:00      62.0      15.7             86            2.1            3.5    44.4


  

                                                                                             
           Date,Time       Air       Air     % Relative           Wind           Wind    Wind
                        Temp F    Temp C       Humidity      Speed mph     Speed km/h Dir Deg
---------------------------------------------------------------------------------------------
      06/12/11, 1:00      60.4      14.8             86            0.6            1.0     321
      06/12/11, 2:00      58.4      13.7             96            1.8            2.8   329.9
      06/12/11, 3:00      57.0      12.9             97            1.6            2.6     337
      06/12/11, 4:00      56.9      12.8             96            3.0            4.8   27.58
      06/12/11, 5:00      56.4      12.6             95            3.0            4.8   42.25
      06/12/11, 6:00      55.8      12.2             97            3.2            5.2   40.39
      06/12/11, 7:00      56.7      12.7             97            4.0            6.4   4.723
      06/12/11, 8:00      58.3      13.6             98            3.1            4.9    49.4
      06/12/11, 9:00      62.2      15.8             93            4.6            7.3    73.4
     06/12/11, 10:00      64.8      17.2             86            5.0            8.0    95.7
     06/12/11, 11:00      66.2      18.0             80            6.5           10.5   126.4
     06/12/11, 12:00      67.5      18.7             74            6.3           10.1     110
     06/12/11, 13:00      68.5      19.3             73            5.8            9.3     105
     06/12/11, 14:00      68.6      19.3             69            6.4           10.4    86.7
     06/12/11, 15:00      68.6      19.4             68            7.0           11.2    80.3
     06/12/11, 16:00      67.9      18.9             70            6.6           10.6      78
     06/12/11, 17:00      66.7      18.3             75            6.1            9.8    80.8
     06/12/11, 18:00      65.9      17.9             76            5.1            8.3    80.2
     06/12/11, 19:00      65.1      17.4             86            3.2            5.2    80.8
     06/12/11, 20:00      63.8      16.6             90            2.4            3.9   42.11
     06/12/11, 21:00      63.6      16.5             88            3.7            5.9    87.8
     06/12/11, 22:00      62.6      16.0             88            4.3            7.0    82.3
     06/12/11, 23:00      61.8      15.6             89            3.3            5.2    82.4
      06/13/11, 0:00      60.7      14.9             90            3.4            5.4    94.9
      06/13/11, 1:00      59.9      14.5             91            2.8            4.5      90
      06/13/11, 2:00      59.0      14.0             91            2.9            4.7    92.1
      06/13/11, 3:00      58.1      13.5             93            3.2            5.2   69.05
      06/13/11, 4:00      57.8      13.4             93            4.0            6.4    72.4
      06/13/11, 5:00      57.5      13.2             94            4.7            7.5    75.6
      06/13/11, 6:00      57.4      13.1             93            6.0            9.7    90.8
      06/13/11, 7:00      58.2      13.6             90            6.2           10.0    90.4
      06/13/11, 8:00      60.8      15.0             84            7.5           12.1   101.4
      06/13/11, 9:00      63.5      16.5             74            8.2           13.2      96
     06/13/11, 10:00      65.6      17.7             66            8.2           13.2    94.1
     06/13/11, 11:00      68.2      19.1             64            8.1           13.0    80.8
     06/13/11, 12:00      69.8      20.0             62            8.2           13.2      75
     06/13/11, 13:00      67.1      18.5             78            6.0            9.7    28.5
     06/13/11, 14:00      61.2      15.2             92            8.1           13.1   47.43
     06/13/11, 15:00      61.1      15.2             91           11.4           18.3    82.4
     06/13/11, 16:00      62.7      16.0             85           18.8           30.3   139.7
     06/13/11, 17:00      64.5      17.0             82           13.2           21.3   133.4
     06/13/11, 18:00      66.8      18.3             78            6.7           10.9    91.4
     06/13/11, 19:00      66.5      18.2             77            7.7           12.4      88
     06/13/11, 20:00      65.8      17.8             77            7.5           12.1    80.3
     06/13/11, 21:00      64.4      17.0             85            4.5            7.2    71.7
     06/13/11, 22:00      64.3      16.9             85            4.4            7.1    71.4
     06/13/11, 23:00      64.4      17.0             85            5.8            9.3    75.4
      06/14/11, 0:00      64.6      17.1             86            5.5            8.8    84.9


  

                                                                                             
           Date,Time       Air       Air     % Relative           Wind           Wind    Wind
                        Temp F    Temp C       Humidity      Speed mph     Speed km/h Dir Deg
---------------------------------------------------------------------------------------------
      06/14/11, 1:00      63.6      16.6             88            5.2            8.4      85
      06/14/11, 2:00      64.1      16.8             86            6.3           10.1      96
      06/14/11, 3:00      63.5      16.5             92            7.7           12.5     104
      06/14/11, 4:00      61.9      15.6             97            7.6           12.2    80.8
      06/14/11, 5:00      61.2      15.2             96            8.6           13.9    96.7
      06/14/11, 6:00      60.5      14.8             99           10.2           16.5   105.3
      06/14/11, 7:00      61.1      15.2            100            7.9           12.8    90.8
      06/14/11, 8:00      61.2      15.2            100            8.0           12.8    77.6
      06/14/11, 9:00      62.6      16.0            100            8.3           13.4    94.1
     06/14/11, 10:00      65.9      17.8             96            8.9           14.3    91.5
     06/14/11, 11:00      65.9      17.8             93           11.1           17.9    90.2
     06/14/11, 12:00      66.9      18.4             92            9.5           15.3    87.9
     06/14/11, 13:00      68.4      19.3             89            9.3           15.0    82.9
     06/14/11, 14:00      66.9      18.4             91           10.3           16.6    84.8
     06/14/11, 15:00      66.7      18.3             91           11.0           17.7    81.9
     06/14/11, 16:00      68.3      19.2             88           12.0           19.3    83.4
     06/14/11, 17:00      69.8      20.0             87           11.9           19.2    95.5
     06/14/11, 18:00      70.5      20.4             87           10.4           16.8    91.5
     06/14/11, 19:00      71.3      20.8             87            9.8           15.7      89
     06/14/11, 20:00      70.5      20.4             89            9.0           14.4    96.5
     06/14/11, 21:00      69.7      19.9             91            9.3           15.0    95.6
     06/14/11, 22:00      68.9      19.5             93            8.3           13.3   102.6
     06/14/11, 23:00      67.7      18.9             99            7.6           12.3    99.5
      06/15/11, 0:00      67.1      18.5             99            9.5           15.4   102.8
      06/15/11, 1:00      66.6      18.2             96            6.7           10.8   134.7
      06/15/11, 2:00      66.3      18.0             98            4.5            7.3   124.9
      06/15/11, 3:00      65.3      17.5             99            5.8            9.4   158.3
      06/15/11, 4:00      63.1      16.3            100            2.3            3.8   105.4
      06/15/11, 5:00      62.8      16.1            100            3.0            4.9   169.6
      06/15/11, 6:00      63.3      16.4            100            3.2            5.2   156.8
      06/15/11, 7:00      64.5      17.1            100            3.4            5.6   210.2
      06/15/11, 8:00      65.2      17.4            100            5.1            8.3   249.6
      06/15/11, 9:00      65.4      17.6             96            5.7            9.1   268.1
     06/15/11, 10:00      65.4      17.6             93            8.3           13.4     273
     06/15/11, 11:00      67.0      18.4             86           10.6           17.1   285.2
     06/15/11, 12:00      69.1      19.6             83            9.8           15.7   291.7
     06/15/11, 13:00      72.1      21.3             77            9.2           14.9     286
     06/15/11, 14:00      74.7      22.7             73           10.0           16.2     282
     06/15/11, 15:00      76.5      23.8             66            8.3           13.4   280.7
     06/15/11, 16:00      78.2      24.7             57            8.1           13.1   277.8
     06/15/11, 17:00      78.3      24.7             51            7.2           11.6   269.8
     06/15/11, 18:00      78.5      24.8             49            6.7           10.8   266.2
     06/15/11, 19:00      78.2      24.7             48            6.4           10.2   267.7
     06/15/11, 20:00      74.9      22.8             55            3.8            6.1   280.3
     06/15/11, 21:00      72.7      21.6             60            1.6            2.6   252.9
     06/15/11, 22:00      69.3      19.7             67            1.2            2.0   224.7
     06/15/11, 23:00      66.6      18.2             72            1.6            2.6   187.3
      06/16/11, 0:00      65.0      17.3             75            1.4            2.3   179.7


  

                                                                                             
           Date,Time       Air       Air     % Relative           Wind           Wind    Wind
                        Temp F    Temp C       Humidity      Speed mph     Speed km/h Dir Deg
---------------------------------------------------------------------------------------------
      06/16/11, 1:00      63.3      16.4             77            2.9            4.6     180
      06/16/11, 2:00      62.5      15.9             79            2.6            4.2   182.2
      06/16/11, 3:00      62.1      15.7             80            1.9            3.0     200
      06/16/11, 4:00      61.8      15.6             83            1.6            2.5   227.4
      06/16/11, 5:00      61.1      15.2             82            2.1            3.4   255.9
      06/16/11, 6:00      60.3      14.7             87            1.8            3.0   211.1
      06/16/11, 7:00      60.9      15.1             87            1.2            2.0   203.8
      06/16/11, 8:00      65.8      17.8             82            1.8            2.9   216.3
      06/16/11, 9:00      71.4      20.9             72            2.1            3.4   217.8
     06/16/11, 10:00      74.2      22.4             68            2.8            4.4   198.1
     06/16/11, 11:00      77.2      24.1             61            1.9            3.0     219
     06/16/11, 12:00      79.3      25.3             53            1.7            2.8     244
     06/16/11, 13:00      80.6      26.0             52            2.8            4.5   184.8
     06/16/11, 14:00      81.6      26.5             52            5.2            8.3   172.7
     06/16/11, 15:00      82.4      27.0             53            4.8            7.7   170.3
     06/16/11, 16:00      82.9      27.3             54            4.7            7.6   147.9
     06/16/11, 17:00      83.5      27.6             54            7.3           11.7     162
     06/16/11, 18:00      83.1      27.4             55            7.8           12.5   163.6
     06/16/11, 19:00      82.2      26.9             58            6.5           10.5   177.6
     06/16/11, 20:00      81.1      26.3             63            2.4            3.9   174.9
     06/16/11, 21:00      77.6      24.3             71            1.2            1.9   196.4
     06/16/11, 22:00      73.8      22.3             86            1.0            1.7   102.9
     06/16/11, 23:00      72.3      21.4             86            0.9            1.4   133.2
      06/17/11, 0:00      70.5      20.4             90            2.8            4.5   162.4
      06/17/11, 1:00      67.4      18.7             96            2.7            4.3   147.5
      06/17/11, 2:00      67.6      18.8             97            2.6            4.2   153.5
      06/17/11, 3:00      67.2      18.6             96            2.1            3.3   148.9
      06/17/11, 4:00      65.2      17.5             99            2.1            3.4   155.2
      06/17/11, 5:00      64.8      17.2             99            1.9            3.1     131
      06/17/11, 6:00      65.8      17.8             99            4.5            7.3   116.2
      06/17/11, 7:00      66.6      18.2             97            3.0            4.9   156.3
      06/17/11, 8:00      67.5      18.7             98            3.8            6.1   119.6
      06/17/11, 9:00      70.8      20.6             93            4.1            6.6   56.67
     06/17/11, 10:00      75.6      23.2             88            8.2           13.1      96
     06/17/11, 11:00      77.4      24.3             84            7.6           12.3   136.8
     06/17/11, 12:00      78.1      24.6             74            8.7           14.0     120
     06/17/11, 13:00      80.0      25.7             75            6.4           10.3   115.3
     06/17/11, 14:00      82.1      26.9             73            5.8            9.3     141
     06/17/11, 15:00      83.7      27.7             67            6.6           10.6   163.5
     06/17/11, 16:00      83.1      27.4             71            7.1           11.4   108.5
     06/17/11, 17:00      82.8      27.2             72            6.3           10.1   101.7
     06/17/11, 18:00      82.0      26.8             75            6.4           10.3   104.4
     06/17/11, 19:00      81.0      26.2             76            6.2           10.0   104.8
     06/17/11, 20:00      80.5      25.9             76            6.1            9.8   111.5
     06/17/11, 21:00      77.9      24.5             83            4.5            7.2   107.9
     06/17/11, 22:00      75.1      23.0             86            4.5            7.3   109.8
     06/17/11, 23:00      73.2      21.9             90            3.4            5.4   111.9
      06/18/11, 0:00      71.5      20.9             93            3.4            5.5   106.3


  

                                                                                             
           Date,Time       Air       Air     % Relative           Wind           Wind    Wind
                        Temp F    Temp C       Humidity      Speed mph     Speed km/h Dir Deg
---------------------------------------------------------------------------------------------
      06/18/11, 1:00      70.5      20.4             95            4.6            7.4   120.4
      06/18/11, 2:00      70.0      20.1             97            4.1            6.6   122.9
      06/18/11, 3:00      69.2      19.7             98            2.3            3.7    76.8
      06/18/11, 4:00      68.7      19.4             99            3.0            4.8   125.7
      06/18/11, 5:00      68.3      19.1            100            1.9            3.1   104.4
      06/18/11, 6:00      68.0      19.0            100            1.8            2.9   107.2
      06/18/11, 7:00      68.1      19.0            100            3.3            5.3    45.4
      06/18/11, 8:00      68.4      19.2            100            4.2            6.8    72.2
      06/18/11, 9:00      69.2      19.7            100            4.8            7.8    79.4
     06/18/11, 10:00      71.0      20.6            100            5.4            8.7    87.3
     06/18/11, 11:00      71.5      20.9             96            6.4           10.3    71.3
     06/18/11, 12:00      72.3      21.4             93            7.2           11.6   40.56
     06/18/11, 13:00      75.2      23.0             87            4.2            6.7   59.28
     06/18/11, 14:00      77.0      24.0             83            2.5            4.0   104.8
     06/18/11, 15:00      78.9      25.1             79            2.1            3.3   279.3
     06/18/11, 16:00      78.0      24.5             81            2.0            3.2   346.3
     06/18/11, 17:00      78.9      25.1             79            1.1            1.8   205.4
     06/18/11, 18:00      80.0      25.7             78            1.8            2.8   327.9
     06/18/11, 19:00      79.8      25.6             83            0.8            1.3   32.82
     06/18/11, 20:00      79.0      25.1             83            1.2            2.0   146.3
     06/18/11, 21:00      76.0      23.4             91            1.5            2.4   178.2
     06/18/11, 22:00      74.2      22.5             90            0.6            0.9   249.5
     06/18/11, 23:00      72.0      21.2             98            2.2            3.5   319.6
      06/19/11, 0:00      70.6      20.4             99            0.7            1.1   348.5
      06/19/11, 1:00      69.7      19.9            100            0.7            1.1    95.5
      06/19/11, 2:00      68.8      19.4            100            1.0            1.6   51.11
      06/19/11, 3:00      69.0      19.6            100            0.6            1.0   329.6
      06/19/11, 4:00      68.0      19.0            100            2.4            3.9   310.1
      06/19/11, 5:00      67.0      18.4            100            1.4            2.2   359.2
      06/19/11, 6:00      66.8      18.3            100            2.6            4.1   343.6
      06/19/11, 7:00      66.6      18.2            100            2.7            4.4   340.3
      06/19/11, 8:00      67.5      18.7            100            1.7            2.7    78.7
      06/19/11, 9:00      69.2      19.7            100            2.3            3.6   100.2
     06/19/11, 10:00      71.2      20.8            100            2.5            4.0    79.6
     06/19/11, 11:00      73.3      22.0            100            1.7            2.8      91
     06/19/11, 12:00      77.8      24.4             96            1.8            3.0   13.95
     06/19/11, 13:00      80.8      26.1             81            1.8            2.9   356.6
     06/19/11, 14:00      83.1      27.4             77            2.5            4.0    91.3
     06/19/11, 15:00      84.7      28.3             71            3.6            5.8   125.1
     06/19/11, 16:00      85.9      28.9             65            3.5            5.7   129.9
     06/19/11, 17:00      86.3      29.2             63            3.6            5.9   125.1
     06/19/11, 18:00      85.9      29.0             66            4.7            7.6   121.2
     06/19/11, 19:00      85.3      28.6             67            4.4            7.0     111
     06/19/11, 20:00      83.1      27.4             73            3.5            5.7   101.6
     06/19/11, 21:00      80.9      26.2             84            4.9            7.9   108.8
     06/19/11, 22:00      79.0      25.1             85            5.5            8.8   106.2
     06/19/11, 23:00      77.0      24.0             87            5.4            8.7     108
      06/20/11, 0:00      75.3      23.1             90            4.1            6.5    99.1


  

                                                                                             
           Date,Time       Air       Air     % Relative           Wind           Wind    Wind
                        Temp F    Temp C       Humidity      Speed mph     Speed km/h Dir Deg
---------------------------------------------------------------------------------------------
      06/20/11, 1:00      74.1      22.4             90            3.6            5.8    76.4
      06/20/11, 2:00      73.2      21.9             97            3.9            6.2   132.4
      06/20/11, 3:00      71.6      21.0             99            5.5            8.8   115.4
      06/20/11, 4:00      69.8      20.0             99           10.2           16.5   69.44
      06/20/11, 5:00      73.7      22.2             84            7.9           12.8   125.3
      06/20/11, 6:00      68.4      19.2             96            7.6           12.2     135
      06/20/11, 7:00      67.2      18.5            100            3.8            6.2   287.8
      06/20/11, 8:00      66.6      18.2            100            6.8           11.0   101.1
      06/20/11, 9:00      66.7      18.3             98            4.7            7.5    73.7
     06/20/11, 10:00      68.8      19.4             95            4.6            7.4      85
     06/20/11, 11:00      71.2      20.8             90            8.1           13.0   114.3
     06/20/11, 12:00      75.0      22.9             84           11.4           18.4   118.8
     06/20/11, 13:00      77.6      24.3             78           14.0           22.5   126.6
     06/20/11, 14:00      78.6      24.9             78           14.2           22.8   126.5
     06/20/11, 15:00      79.0      25.1             78           13.3           21.3   127.2
     06/20/11, 16:00      80.0      25.7             80           10.3           16.5   124.9
     06/20/11, 17:00      81.1      26.3             80            7.4           11.9   114.5
     06/20/11, 18:00      80.6      26.0             86            4.7            7.6    86.9
     06/20/11, 19:00      79.2      25.2             88            3.6            5.9   58.03
     06/20/11, 20:00      79.0      25.1             88            5.7            9.2   67.62
     06/20/11, 21:00      77.7      24.4             92            6.3           10.1    75.7
     06/20/11, 22:00      77.1      24.0             92            6.3           10.1    84.9
     06/20/11, 23:00      77.2      24.1             93            6.3           10.1    89.7
      06/21/11, 0:00      78.1      24.6             93            7.1           11.5   106.8
      06/21/11, 1:00      75.7      23.3             96           10.0           16.0   149.6
      06/21/11, 2:00      64.5      17.1            100            3.4            5.4   291.2
      06/21/11, 3:00      64.1      16.8            100            2.3            3.6   41.66
      06/21/11, 4:00      64.1      16.8            100            5.7            9.1   67.38
      06/21/11, 5:00      64.6      17.1             99            7.6           12.2    68.7
      06/21/11, 6:00      64.7      17.2             98            5.9            9.5    92.3
      06/21/11, 7:00      65.2      17.5             97            5.3            8.5    89.9
      06/21/11, 8:00      67.6      18.8             92            9.5           15.2   117.9
      06/21/11, 9:00      70.8      20.5             83           11.2           18.0   127.5
     06/21/11, 10:00      73.5      22.0             75           13.9           22.4   151.7
     06/21/11, 11:00      72.9      21.7             76           15.7           25.2   163.2
     06/21/11, 12:00      74.2      22.4             75           16.4           26.4   166.4
     06/21/11, 13:00      74.4      22.6             74           15.0           24.1   165.3
     06/21/11, 14:00      74.4      22.5             77           13.7           22.0   160.6
     06/21/11, 15:00      76.7      23.9             75           13.3           21.4   164.7
     06/21/11, 16:00      77.7      24.4             72           14.2           22.8   163.6
     06/21/11, 17:00      77.3      24.2             72           14.3           23.0   163.7
     06/21/11, 18:00      78.0      24.6             71           14.8           23.9   167.5
     06/21/11, 19:00      75.8      23.3             83           12.4           19.9   170.7
     06/21/11, 20:00      73.1      21.9             77           10.4           16.7     184
     06/21/11, 21:00      68.1      19.1             93           10.3           16.6   168.9
     06/21/11, 22:00      67.4      18.7             95            8.3           13.3   165.7
     06/21/11, 23:00      67.5      18.7             95            8.5           13.7   173.5
      06/22/11, 0:00      67.3      18.6             99            9.2           14.8   182.1


  

                                                                                             
           Date,Time       Air       Air     % Relative           Wind           Wind    Wind
                        Temp F    Temp C       Humidity      Speed mph     Speed km/h Dir Deg
---------------------------------------------------------------------------------------------
      06/22/11, 1:00      65.4      17.5            100            4.4            7.0   207.6
      06/22/11, 2:00      64.6      17.1            100            5.9            9.5   199.9
      06/22/11, 3:00      64.0      16.8             97            5.1            8.2     207
      06/22/11, 4:00      63.6      16.5             98            4.6            7.4   199.5
      06/22/11, 5:00      63.4      16.4             98            5.1            8.2   191.1
      06/22/11, 6:00      63.2      16.4             99            6.7           10.8   189.5
      06/22/11, 7:00      62.3      15.9            100            5.2            8.4     199
      06/22/11, 8:00      62.3      15.8             99            5.4            8.6   201.7
      06/22/11, 9:00      62.5      15.9             98            5.0            8.1   199.9
     06/22/11, 10:00      63.2      16.4             97            6.1            9.9   196.6
     06/22/11, 11:00      64.0      16.8             96            7.0           11.3   203.1
     06/22/11, 12:00      64.1      16.9             97            6.1            9.8   206.7
     06/22/11, 13:00      65.5      17.6             95            6.1            9.8   221.4
     06/22/11, 14:00      64.9      17.3             97            6.1            9.8   229.5
     06/22/11, 15:00      64.3      16.9             97            5.4            8.8   222.7
     06/22/11, 16:00      64.5      17.1             97            5.8            9.3     229
     06/22/11, 17:00      64.9      17.3             98            6.0            9.6   238.3
     06/22/11, 18:00      65.6      17.7             93            6.6           10.6   235.5
     06/22/11, 19:00      64.4      17.0             99            5.3            8.6   228.2
     06/22/11, 20:00      64.2      16.9             99            6.1            9.9   246.7
     06/22/11, 21:00      64.7      17.2             99            6.2            9.9   254.7
     06/22/11, 22:00      65.0      17.3             99            6.7           10.7     272
     06/22/11, 23:00      64.5      17.1             99            6.3           10.2   270.3
      06/23/11, 0:00      64.0      16.8             99            5.8            9.4   266.5
      06/23/11, 1:00      62.8      16.1             99            5.9            9.5   265.6
      06/23/11, 2:00      62.0      15.7            100            5.2            8.4   267.7
      06/23/11, 3:00      62.0      15.7             98            5.0            8.1   268.3
      06/23/11, 4:00      61.9      15.6             95            4.7            7.6   266.5
      06/23/11, 5:00      61.3      15.3             94            4.8            7.7   265.2
      06/23/11, 6:00      60.6      14.9             97            4.0            6.4   266.6
      06/23/11, 7:00      60.4      14.8             98            4.2            6.7   259.8
      06/23/11, 8:00      61.4      15.3             95            5.1            8.2   267.1
      06/23/11, 9:00      62.7      16.1             92            7.4           11.9   278.7
     06/23/11, 10:00      63.4      16.4             92            9.6           15.5   284.1
     06/23/11, 11:00      65.5      17.6             84           11.4           18.3   287.1
     06/23/11, 12:00      65.7      17.7             81           11.0           17.7   295.2
     06/23/11, 13:00      65.9      17.8             80           10.4           16.7     293
     06/23/11, 14:00      67.5      18.7             78            9.4           15.2     293
     06/23/11, 15:00      67.8      18.9             76            9.4           15.1   288.5
     06/23/11, 16:00      67.8      18.9             76            8.4           13.6   281.4
     06/23/11, 17:00      67.4      18.7             75            9.3           14.9   289.5
     06/23/11, 18:00      65.8      17.8             78            9.1           14.6   292.3
     06/23/11, 19:00      64.6      17.1             80            7.6           12.3   291.5
     06/23/11, 20:00      64.1      16.9             81            7.3           11.7   295.7
     06/23/11, 21:00      63.5      16.5             82            6.5           10.5   293.3
     06/23/11, 22:00      62.5      15.9             85            4.0            6.4   283.6
     06/23/11, 23:00      62.2      15.8             86            4.0            6.5   286.1
      06/24/11, 0:00      62.2      15.8             86            5.3            8.5   290.3


  

                                                                                             
           Date,Time       Air       Air     % Relative           Wind           Wind    Wind
                        Temp F    Temp C       Humidity      Speed mph     Speed km/h Dir Deg
---------------------------------------------------------------------------------------------
      06/24/11, 1:00      62.2      15.8             88            4.8            7.8   296.7
      06/24/11, 2:00      61.6      15.4             87            4.7            7.6   290.8
      06/24/11, 3:00      61.1      15.2             87            4.8            7.7     290
      06/24/11, 4:00      60.5      14.8             89            4.9            7.8   289.2
      06/24/11, 5:00      58.0      13.5             95            5.5            8.9   292.9
      06/24/11, 6:00      56.1      12.4             97            4.6            7.4   298.7
      06/24/11, 7:00      56.5      12.6             97            3.8            6.1   294.7
      06/24/11, 8:00      60.0      14.5             93            4.4            7.0   294.4
      06/24/11, 9:00      63.9      16.7             82            5.3            8.5   306.1
     06/24/11, 10:00      66.9      18.4             77            6.3           10.1   311.3
     06/24/11, 11:00      68.7      19.4             72            7.3           11.7   314.4
     06/24/11, 12:00      70.0      20.1             70            7.0           11.2   318.2
     06/24/11, 13:00      71.9      21.2             65            5.5            8.9   319.2
     06/24/11, 14:00      72.9      21.7             65            4.1            6.6   320.7
     06/24/11, 15:00      74.2      22.5             64            3.9            6.2   317.9
     06/24/11, 16:00      74.7      22.7             61            3.6            5.7   324.5
     06/24/11, 17:00      75.6      23.2             61            3.1            5.0   335.4
     06/24/11, 18:00      75.4      23.1             63            2.5            4.0    7.19
     06/24/11, 19:00      73.7      22.1             69            2.0            3.2   10.19
     06/24/11, 20:00      73.2      21.9             76            0.7            1.1   10.98
     06/24/11, 21:00      72.0      21.2             74            0.9            1.4   357.7
     06/24/11, 22:00      68.6      19.3             82            2.4            3.9    8.94
     06/24/11, 23:00      66.7      18.3             83            1.9            3.1   28.99
      06/25/11, 0:00      65.4      17.6             88            1.6            2.5    72.9
      06/25/11, 1:00      63.8      16.7             91            1.4            2.3    90.7
      06/25/11, 2:00      62.7      16.1             91            1.9            3.1    80.7
      06/25/11, 3:00      62.0      15.7             92            1.9            3.0    76.2
      06/25/11, 4:00      61.6      15.5             91            2.0            3.2    90.4
      06/25/11, 5:00      60.9      15.0             92            2.6            4.1    72.8
      06/25/11, 6:00      60.6      14.9             92            2.6            4.2    80.4
      06/25/11, 7:00      61.1      15.2             92            2.6            4.2   105.5
      06/25/11, 8:00      61.8      15.6             94            3.8            6.2   135.8
      06/25/11, 9:00      62.0      15.7             94            5.2            8.3     131
     06/25/11, 10:00      61.8      15.6             96            5.9            9.4     150
     06/25/11, 11:00      61.7      15.5             97            8.3           13.3   147.8
     06/25/11, 12:00      61.3      15.3             98           11.4           18.3   102.9
     06/25/11, 13:00      63.1      16.3             97            5.7            9.1    74.5
     06/25/11, 14:00      62.9      16.1             96            6.1            9.9   42.74
     06/25/11, 15:00      64.0      16.8             95            7.6           12.2   66.04
     06/25/11, 16:00      65.4      17.6             91            8.0           12.9    72.5
     06/25/11, 17:00      65.3      17.5             92            6.2           10.0    83.9
     06/25/11, 18:00      65.1      17.4             93            6.7           10.8    91.2
     06/25/11, 19:00      65.0      17.3             95            6.3           10.1    77.6
     06/25/11, 20:00      64.9      17.3             96            6.0            9.7    70.7
     06/25/11, 21:00      65.2      17.4             95            4.9            7.9    73.9
     06/25/11, 22:00      64.1      16.9             96            4.8            7.7   59.49
     06/25/11, 23:00      62.2      15.8             98            3.4            5.4    74.3
      06/26/11, 0:00      61.5      15.4             99            2.7            4.3    61.6


  

                                                                                             
           Date,Time       Air       Air     % Relative           Wind           Wind    Wind
                        Temp F    Temp C       Humidity      Speed mph     Speed km/h Dir Deg
---------------------------------------------------------------------------------------------
      06/26/11, 1:00      60.5      14.8             98            2.8            4.6    78.5
      06/26/11, 2:00      59.8      14.4             98            2.4            3.8   39.26
      06/26/11, 3:00      59.3      14.2             99            2.0            3.2   62.99
      06/26/11, 4:00      59.5      14.3            100            2.9            4.6    83.5
      06/26/11, 5:00      60.5      14.8            100            4.0            6.4    81.2
      06/26/11, 6:00      60.2      14.6            100            1.9            3.1    75.9
      06/26/11, 7:00      60.6      14.9            100            3.3            5.4    73.9
      06/26/11, 8:00      63.1      16.3             99            4.5            7.3      84
      06/26/11, 9:00      65.8      17.8             94            6.7           10.9   116.9
     06/26/11, 10:00      67.1      18.5             94            7.0           11.3     117
     06/26/11, 11:00      71.9      21.2             90            6.9           11.2   103.4
     06/26/11, 12:00      75.2      23.0             84            7.7           12.3   108.8
     06/26/11, 13:00      78.2      24.6             78            8.5           13.6   112.3
     06/26/11, 14:00      79.4      25.3             77            9.1           14.7   114.4
     06/26/11, 15:00      79.8      25.6             76           10.2           16.4   109.2
     06/26/11, 16:00      79.3      25.3             77           10.8           17.3   119.3
     06/26/11, 17:00      77.4      24.2             80            9.3           14.9   117.9
     06/26/11, 18:00      74.8      22.8             85            8.4           13.5   107.2
     06/26/11, 19:00      73.1      21.9             88            8.8           14.2   122.7
     06/26/11, 20:00      71.3      20.8             94           13.0           20.9   130.5
     06/26/11, 21:00      71.0      20.7             95            7.1           11.5      95
     06/26/11, 22:00      69.6      19.9             98            4.7            7.6   180.1
     06/26/11, 23:00      69.0      19.6             98            6.8           11.0   223.6
      06/27/11, 0:00      65.5      17.6             99            5.0            8.0   102.3
      06/27/11, 1:00      65.6      17.6             99            7.0           11.3   114.1
      06/27/11, 2:00      66.6      18.2             96            7.1           11.4   132.8
      06/27/11, 3:00      65.1      17.4             98            5.3            8.4   290.1
      06/27/11, 4:00      64.4      17.0            100            4.0            6.5     258
      06/27/11, 5:00      64.7      17.1            100            5.0            8.1   228.6
      06/27/11, 6:00      64.9      17.3             98            5.6            9.0   194.9
      06/27/11, 7:00      64.6      17.1             99            2.1            3.4   4.108
      06/27/11, 8:00      64.3      16.9             99            4.4            7.0   331.2
      06/27/11, 9:00      66.5      18.2             98            3.3            5.4   232.1
     06/27/11, 10:00      70.1      20.1             93            4.0            6.4   226.8
     06/27/11, 11:00      74.0      22.3             88            5.0            8.1   254.8
     06/27/11, 12:00      77.1      24.1             81            5.2            8.3   262.5
     06/27/11, 13:00      78.9      25.0             75            5.8            9.3   245.1
     06/27/11, 14:00      79.9      25.6             75            6.6           10.5   255.3
     06/27/11, 15:00      80.3      25.8             74            8.9           14.4   279.5
     06/27/11, 16:00      80.8      26.1             69           10.9           17.5   292.3
     06/27/11, 17:00      80.4      25.9             62           11.0           17.7   294.4
     06/27/11, 18:00      79.8      25.5             55            9.2           14.7   288.7
     06/27/11, 19:00      78.7      25.0             53            8.3           13.3   296.2
     06/27/11, 20:00      76.7      23.8             57            5.9            9.6   294.4
     06/27/11, 21:00      73.0      21.8             65            4.9            7.9   288.9
     06/27/11, 22:00      68.9      19.5             74            2.3            3.7     266
     06/27/11, 23:00      67.0      18.4             79            1.7            2.8   269.1
      06/28/11, 0:00      65.3      17.5             85            2.1            3.4   266.7


  

                                                                                             
           Date,Time       Air       Air     % Relative           Wind           Wind    Wind
                        Temp F    Temp C       Humidity      Speed mph     Speed km/h Dir Deg
---------------------------------------------------------------------------------------------
      06/28/11, 1:00      64.7      17.2             87            4.6            7.3   284.7
      06/28/11, 2:00      64.2      16.9             84            4.7            7.6     292
      06/28/11, 3:00      62.2      15.8             88            3.6            5.8   300.8
      06/28/11, 4:00      60.2      14.6             91            2.8            4.5   308.2
      06/28/11, 5:00      59.0      14.0             90            3.5            5.6   298.7
      06/28/11, 6:00      57.8      13.3             92            3.2            5.2   301.8
      06/28/11, 7:00      59.5      14.3             90            1.9            3.0   300.5
      06/28/11, 8:00      62.7      16.1             85            2.0            3.2   290.1
      06/28/11, 9:00      66.0      17.9             82            3.2            5.2   326.4
     06/28/11, 10:00      70.1      20.2             77            4.4            7.1   342.6
     06/28/11, 11:00      72.6      21.6             69            3.3            5.2     9.4
     06/28/11, 12:00      74.3      22.5             65            2.7            4.4   232.4
     06/28/11, 13:00      76.2      23.6             64            2.9            4.7   247.1
     06/28/11, 14:00      77.1      24.0             63            3.7            6.0     254
     06/28/11, 15:00      78.3      24.7             61            3.7            6.0     279
     06/28/11, 16:00      79.3      25.3             57            3.1            5.1   281.3
     06/28/11, 17:00      80.3      25.9             53            2.6            4.1   315.3
     06/28/11, 18:00      80.8      26.1             52            1.7            2.8     196
     06/28/11, 19:00      79.3      25.3             53            2.8            4.5   169.7
     06/28/11, 20:00      78.0      24.6             59            1.6            2.6   187.4
     06/28/11, 21:00      73.6      22.1             72            3.1            5.0   182.3
     06/28/11, 22:00      70.5      20.4             72            1.5            2.3   186.4
     06/28/11, 23:00      68.5      19.3             83            0.5            0.8    87.7
      06/29/11, 0:00      66.3      18.0             85            0.0            0.0   43.59
      06/29/11, 1:00      64.7      17.2             93            0.1            0.2   117.7
      06/29/11, 2:00      63.9      16.7             94            1.2            1.9   120.2
      06/29/11, 3:00      63.2      16.3             93            1.3            2.2   135.7
      06/29/11, 4:00      62.0      15.7             94            1.7            2.7   152.4
      06/29/11, 5:00      61.3      15.3             95            1.9            3.1   126.7
      06/29/11, 6:00      60.7      14.9             95            2.4            3.9    98.6
      06/29/11, 7:00      62.2      15.8             94            3.6            5.8   125.9
      06/29/11, 8:00      64.8      17.2             92            5.1            8.3   141.6
      06/29/11, 9:00      69.5      19.8             87            7.7           12.4   144.3
     06/29/11, 10:00      73.4      22.0             74           10.4           16.7   142.8
     06/29/11, 11:00      76.6      23.8             67           10.4           16.7   147.1
     06/29/11, 12:00      78.1      24.6             67            9.9           15.9   144.9
     06/29/11, 13:00      79.8      25.6             64           10.5           16.9     146
     06/29/11, 14:00      81.3      26.4             66            9.0           14.4   150.2
     06/29/11, 15:00      82.6      27.1             65            8.9           14.3     137
     06/29/11, 16:00      83.6      27.6             65            9.1           14.6   141.6
     06/29/11, 17:00      84.0      27.9             65           10.4           16.7   133.5
     06/29/11, 18:00      83.9      27.8             66           10.2           16.4   137.6
     06/29/11, 19:00      83.4      27.5             66           10.0           16.1   141.1
     06/29/11, 20:00      81.8      26.6             72            8.2           13.1   141.6
     06/29/11, 21:00      78.9      25.0             79            6.4           10.4   131.5
     06/29/11, 22:00      76.4      23.6             83            7.3           11.8   128.7
     06/29/11, 23:00      75.0      22.9             87            6.7           10.8   128.5
      06/30/11, 0:00      74.2      22.4             89            6.6           10.7   131.6


  

                                                                                             
           Date,Time       Air       Air     % Relative           Wind           Wind    Wind
                        Temp F    Temp C       Humidity      Speed mph     Speed km/h Dir Deg
---------------------------------------------------------------------------------------------
      06/30/11, 1:00      73.1      21.8             92            7.2           11.6   130.8
      06/30/11, 2:00      72.8      21.7             92            7.1           11.4   137.5
      06/30/11, 3:00      72.0      21.2             94            6.2            9.9   132.6
      06/30/11, 4:00      71.1      20.7             95            6.4           10.2   126.7
      06/30/11, 5:00      70.6      20.4             96            6.9           11.1   129.3
      06/30/11, 6:00      70.1      20.2             96            7.3           11.7   129.3
      06/30/11, 7:00      70.5      20.4             96            7.1           11.4   131.3
      06/30/11, 8:00      73.2      21.9             94            8.3           13.3     138
      06/30/11, 9:00      77.0      24.0             91            9.6           15.5     144
     06/30/11, 10:00      80.7      26.0             85            9.7           15.6   153.5
     06/30/11, 11:00      84.5      28.2             82           10.2           16.4   145.4
     06/30/11, 12:00      87.4      29.8             76           11.7           18.8   148.8
     06/30/11, 13:00      89.6      31.0             73           12.2           19.7   155.5
     06/30/11, 14:00      91.7      32.2             69           12.5           20.1   158.8
     06/30/11, 15:00      93.0      32.9             67           13.4           21.5   155.9
     06/30/11, 16:00      93.8      33.3             66           13.5           21.8   154.9
     06/30/11, 17:00      93.7      33.3             65           14.5           23.3   160.7
     06/30/11, 18:00      93.1      33.0             67           13.7           22.0   161.5
     06/30/11, 19:00      92.0      32.3             70           11.4           18.3     159
     06/30/11, 20:00      89.9      31.1             75            9.5           15.3   160.2
     06/30/11, 21:00      86.9      29.5             82            8.4           13.6   159.6
     06/30/11, 22:00      84.1      27.9             86            7.7           12.4     160
     06/30/11, 23:00      82.7      27.2             89            6.9           11.1     160
      07/01/11, 0:00      81.6      26.5             89            6.7           10.8   161.7
      07/01/11, 1:00      80.7      26.0             89            5.9            9.5   160.5
      07/01/11, 2:00      78.6      24.9             94            2.9            4.6     146
      07/01/11, 3:00      76.5      23.7             98            3.3            5.3   135.7
      07/01/11, 4:00      77.3      24.2             96            6.7           10.9   128.3
      07/01/11, 5:00      78.3      24.7             95            7.7           12.3   130.8
      07/01/11, 6:00      77.8      24.4             94            8.3           13.3   150.4
      07/01/11, 7:00      77.7      24.4             93            7.4           12.0   157.7
      07/01/11, 8:00      79.1      25.1             91            5.9            9.5   160.5
      07/01/11, 9:00      82.0      26.8             87            7.4           11.9   169.9
     07/01/11, 10:00      84.6      28.2             77            8.1           13.1   177.7
     07/01/11, 11:00      86.5      29.3             72            8.6           13.8   181.5
     07/01/11, 12:00      88.7      30.5             71            8.4           13.5   176.5
     07/01/11, 13:00      91.0      31.8             65           11.3           18.2     175
     07/01/11, 14:00      93.5      33.1             59           11.0           17.7   175.8
     07/01/11, 15:00      94.5      33.8             57           12.2           19.6   167.7
     07/01/11, 16:00      95.1      34.1             55           12.1           19.5   171.2
     07/01/11, 17:00      94.4      33.7             57           12.0           19.4   171.2
     07/01/11, 18:00      93.3      33.0             61           12.3           19.9     170
     07/01/11, 19:00      91.5      32.0             65           12.5           20.1   171.9
     07/01/11, 20:00      89.2      30.8             70           11.3           18.2   172.6
     07/01/11, 21:00      86.6      29.4             75           11.4           18.4   166.4
     07/01/11, 22:00      84.2      28.0             79           10.0           16.1   166.3
     07/01/11, 23:00      82.7      27.2             83            7.3           11.7   162.2
      07/02/11, 0:00      81.8      26.7             86            4.9            7.8   170.8


  

                                                                                             
           Date,Time       Air       Air     % Relative           Wind           Wind    Wind
                        Temp F    Temp C       Humidity      Speed mph     Speed km/h Dir Deg
---------------------------------------------------------------------------------------------
      07/02/11, 1:00      80.3      25.9             88            3.1            4.9   276.8
      07/02/11, 2:00      79.8      25.5             92            1.7            2.7   177.8
      07/02/11, 3:00      78.6      24.9             91            5.4            8.7   169.3
      07/02/11, 4:00      77.4      24.2             94            3.2            5.1   250.1
      07/02/11, 5:00      74.9      22.9             91            6.7           10.8     292
      07/02/11, 6:00      70.8      20.5             94            5.4            8.7   313.1
      07/02/11, 7:00      69.3      19.7             94            5.1            8.3   323.6
      07/02/11, 8:00      71.0      20.7             92            6.1            9.8   327.6
      07/02/11, 9:00      73.8      22.2             83            7.0           11.2   334.4
     07/02/11, 10:00      76.1      23.5             76            8.2           13.2   350.4
     07/02/11, 11:00      78.6      24.9             73            8.7           14.0   356.3
     07/02/11, 12:00      80.8      26.1             66            8.5           13.8     356
     07/02/11, 13:00      82.5      27.0             64            7.1           11.4   351.9
     07/02/11, 14:00      84.0      27.9             61            6.9           11.1   354.9
     07/02/11, 15:00      85.2      28.6             58            6.5           10.4   354.9
     07/02/11, 16:00      85.7      28.9             57            6.3           10.1   352.3
     07/02/11, 17:00      85.1      28.5             58            5.2            8.4   1.639
     07/02/11, 18:00      85.7      28.9             55            4.8            7.7   359.3
     07/02/11, 19:00      84.9      28.4             60            3.3            5.3   349.5
     07/02/11, 20:00      83.8      27.8             64            2.0            3.3   337.6
     07/02/11, 21:00      80.4      25.9             70            1.9            3.0   295.7
     07/02/11, 22:00      77.8      24.4             75            2.5            4.0   303.2
     07/02/11, 23:00      74.5      22.6             88            1.7            2.8   318.1
      07/03/11, 0:00      72.6      21.6             89            2.2            3.5     327
      07/03/11, 1:00      71.3      20.8             90            2.0            3.2   325.5
      07/03/11, 2:00      70.6      20.4             89            1.6            2.5   335.2
      07/03/11, 3:00      69.9      20.1             90            2.2            3.5     329
      07/03/11, 4:00      68.2      19.1             97            2.5            4.0     328
      07/03/11, 5:00      68.7      19.4             91            2.9            4.7   359.5
      07/03/11, 6:00      68.9      19.5             88            2.5            4.1   19.33
      07/03/11, 7:00      69.4      19.8             85            2.6            4.2   349.5
      07/03/11, 8:00      71.0      20.7             85            3.1            5.1   48.69
      07/03/11, 9:00      73.1      21.8             83            3.3            5.2    64.5
     07/03/11, 10:00      75.4      23.1             79            2.6            4.1    84.1
     07/03/11, 11:00      76.2      23.5             78            0.8            1.4    72.5
     07/03/11, 12:00      76.9      24.0             77            1.8            2.9   61.48
     07/03/11, 13:00      77.4      24.2             78            3.0            4.9      88
     07/03/11, 14:00      76.9      24.0             81            4.1            6.6   67.81
     07/03/11, 15:00      77.4      24.2             79            5.3            8.6    79.7
     07/03/11, 16:00      77.3      24.2             81            3.7            5.9    99.9
     07/03/11, 17:00      76.9      24.0             84            2.7            4.4   150.5
     07/03/11, 18:00      76.9      23.9             87            1.3            2.0   3.121
     07/03/11, 19:00      76.0      23.5             85            1.3            2.1   354.4
     07/03/11, 20:00      75.0      22.9             84            1.2            1.9   31.82
     07/03/11, 21:00      73.5      22.1             87            1.9            3.1   43.06
     07/03/11, 22:00      72.4      21.5             89            0.7            1.1   154.1
     07/03/11, 23:00      71.3      20.9             91            1.7            2.8   136.1
      07/04/11, 0:00      70.5      20.4             95            3.4            5.5   357.9


  

                                                                                             
           Date,Time       Air       Air     % Relative           Wind           Wind    Wind
                        Temp F    Temp C       Humidity      Speed mph     Speed km/h Dir Deg
---------------------------------------------------------------------------------------------
      07/04/11, 1:00      70.7      20.5             90            2.3            3.7     8.1
      07/04/11, 2:00      70.5      20.4             91            1.8            2.9   339.8
      07/04/11, 3:00      68.6      19.3             94            4.0            6.5   345.5
      07/04/11, 4:00      67.3      18.6             90            2.5            4.1   51.28
      07/04/11, 5:00      65.8      17.8             93            2.3            3.7   105.9
      07/04/11, 6:00      63.7      16.6             97            1.6            2.6   17.85
      07/04/11, 7:00      65.6      17.7             96            1.2            2.0      24
      07/04/11, 8:00      70.4      20.3             91            1.7            2.7   34.05
      07/04/11, 9:00      75.3      23.1             83            3.3            5.4   61.42
     07/04/11, 10:00      78.3      24.7             70            5.3            8.6    92.6
     07/04/11, 11:00      79.9      25.6             66            5.7            9.2   105.1
     07/04/11, 12:00      81.4      26.5             62            4.4            7.0    90.8
     07/04/11, 13:00      82.5      27.1             61            3.7            5.9     115
     07/04/11, 14:00      83.7      27.7             56            4.6            7.3    89.4
     07/04/11, 15:00      84.5      28.2             56            4.6            7.3   115.6
     07/04/11, 16:00      85.2      28.6             55            5.7            9.1   109.5
     07/04/11, 17:00      85.5      28.8             53            5.4            8.6   111.2
     07/04/11, 18:00      85.5      28.7             52            4.6            7.5   125.9
     07/04/11, 19:00      85.5      28.7             53            2.9            4.6    95.9
     07/04/11, 20:00      83.8      27.8             67            2.4            3.9   107.3
     07/04/11, 21:00      80.1      25.7             66            0.9            1.4   107.4
     07/04/11, 22:00      76.4      23.7             76            0.2            0.2    81.7
     07/04/11, 23:00      73.6      22.1             84            0.7            1.1   54.24
      07/05/11, 0:00      71.5      20.9             87            1.0            1.6   58.65
      07/05/11, 1:00      71.3      20.9             82            1.8            2.9   101.4
      07/05/11, 2:00      69.6      19.9             87            1.3            2.1   111.8
      07/05/11, 3:00      68.4      19.3             90            1.0            1.6   146.3
      07/05/11, 4:00      66.6      18.2             95            2.6            4.1   165.7
      07/05/11, 5:00      65.7      17.7             96            2.0            3.1   146.3
      07/05/11, 6:00      65.1      17.4             98            1.4            2.2   140.2
      07/05/11, 7:00      64.9      17.3             99            0.7            1.1   67.07
      07/05/11, 8:00      68.5      19.3             96            0.3            0.5   23.14
      07/05/11, 9:00      75.2      23.0             85            1.9            3.0   165.5
     07/05/11, 10:00      78.8      25.0             79            3.0            4.9   226.1
     07/05/11, 11:00      80.5      25.9             74            2.7            4.4   213.5
     07/05/11, 12:00      81.1      26.3             73            3.9            6.3   177.2
     07/05/11, 13:00      81.4      26.4             73            4.4            7.1   162.7
     07/05/11, 14:00      81.2      26.3             74            4.2            6.7   179.5
     07/05/11, 15:00      79.7      25.5             78            2.8            4.5   195.3
     07/05/11, 16:00      80.6      26.0             80            2.3            3.6   193.2
     07/05/11, 17:00      80.9      26.2             79            1.3            2.1    86.8
     07/05/11, 18:00      82.3      26.9             75            3.4            5.5    84.2
     07/05/11, 19:00      81.1      26.3             76            2.8            4.6   150.9
     07/05/11, 20:00      78.1      24.6             82            3.2            5.2   159.9
     07/05/11, 21:00      76.0      23.4             88            1.3            2.1   29.26
     07/05/11, 22:00      74.8      22.8             92            1.3            2.0    96.2
     07/05/11, 23:00      74.3      22.5             90            1.9            3.0   127.9
      07/06/11, 0:00      72.6      21.6             92            2.2            3.5   158.4


  

                                                                                             
           Date,Time       Air       Air     % Relative           Wind           Wind    Wind
                        Temp F    Temp C       Humidity      Speed mph     Speed km/h Dir Deg
---------------------------------------------------------------------------------------------
      07/06/11, 1:00      71.7      21.1             94            0.8            1.2   101.2
      07/06/11, 2:00      70.8      20.5             96            0.6            1.0   347.9
      07/06/11, 3:00      69.9      20.0             98            2.2            3.6   305.5
      07/06/11, 4:00      68.9      19.5             99            0.6            0.9   304.9
      07/06/11, 5:00      67.9      18.9            100            1.9            3.0   334.6
      07/06/11, 6:00      67.3      18.6            100            1.9            3.0   292.3
      07/06/11, 7:00      67.2      18.6            100            1.6            2.6   322.3
      07/06/11, 8:00      69.5      19.9            100            2.3            3.8   325.4
      07/06/11, 9:00      75.2      23.0             96            1.7            2.8   19.37
     07/06/11, 10:00      78.7      24.9             86            2.1            3.3   121.2
     07/06/11, 11:00      81.7      26.6             79            2.0            3.2    78.7
     07/06/11, 12:00      82.3      26.9             79            3.0            4.8   349.9
     07/06/11, 13:00      84.7      28.3             72            2.4            3.8   3.755
     07/06/11, 14:00      85.8      28.9             67            2.9            4.6   27.36
     07/06/11, 15:00      86.6      29.3             64            2.9            4.7   355.8
     07/06/11, 16:00      87.7      29.9             64            3.3            5.3   335.5
     07/06/11, 17:00      87.0      29.5             68            3.5            5.6   334.1
     07/06/11, 18:00      87.0      29.6             60            3.3            5.3   352.1
     07/06/11, 19:00      86.5      29.3             60            3.3            5.3   34.83
     07/06/11, 20:00      85.7      28.9             64            1.5            2.4   15.42
     07/06/11, 21:00      81.9      26.7             75            1.9            3.0    7.07
     07/06/11, 22:00      78.4      24.8             79            1.2            1.9   344.3
     07/06/11, 23:00      76.8      23.9             84            2.4            3.8   328.6
      07/07/11, 0:00      75.3      23.0             85            2.6            4.2   347.3
      07/07/11, 1:00      74.2      22.5             88            2.5            4.0   10.17
      07/07/11, 2:00      72.6      21.6             94            1.8            3.0   17.82
      07/07/11, 3:00      71.3      20.8             95            2.0            3.2   35.43
      07/07/11, 4:00      70.3      20.3             98            1.7            2.8   25.05
      07/07/11, 5:00      69.9      20.0             98            1.6            2.6   38.47
      07/07/11, 6:00      70.1      20.2             98            1.6            2.6   51.16
      07/07/11, 7:00      70.2      20.2             98            1.3            2.1   22.39
      07/07/11, 8:00      70.9      20.6             98            2.1            3.3   57.52
      07/07/11, 9:00      72.1      21.3             97            3.0            4.8    85.6
     07/07/11, 10:00      74.6      22.7             94            3.9            6.3   109.1
     07/07/11, 11:00      74.7      22.7             93            3.2            5.2   199.9
     07/07/11, 12:00      73.0      21.8             94            3.8            6.2   128.9
     07/07/11, 13:00      73.4      22.0             90            2.8            4.5   40.61
     07/07/11, 14:00      76.5      23.8             85            1.6            2.6   264.8
     07/07/11, 15:00      80.6      26.0             74            2.1            3.4   308.3
     07/07/11, 16:00      80.8      26.1             74            3.9            6.3   359.8
     07/07/11, 17:00      82.4      27.0             74            3.0            4.8   343.2
     07/07/11, 18:00      83.5      27.6             70            3.7            5.9    15.2
     07/07/11, 19:00      83.5      27.6             69            2.9            4.6   24.77
     07/07/11, 20:00      82.4      27.0             75            2.0            3.2   21.77
     07/07/11, 21:00      79.1      25.1             86            1.7            2.7   102.8
     07/07/11, 22:00      75.5      23.1             92            1.1            1.8   209.9
     07/07/11, 23:00      73.4      22.0             96            0.2            0.3   239.8
      07/08/11, 0:00      72.3      21.4             99            1.1            1.7   359.4


  

                                                                                             
           Date,Time       Air       Air     % Relative           Wind           Wind    Wind
                        Temp F    Temp C       Humidity      Speed mph     Speed km/h Dir Deg
---------------------------------------------------------------------------------------------
      07/08/11, 1:00      70.9      20.6            100            0.3            0.5   314.4
      07/08/11, 2:00      70.5      20.4            100            2.0            3.3   326.1
      07/08/11, 3:00      69.8      20.0            100            1.3            2.1   317.1
      07/08/11, 4:00      69.0      19.5            100            0.6            1.0   273.3
      07/08/11, 5:00      68.1      19.0            100            1.6            2.5   311.3
      07/08/11, 6:00      66.5      18.1            100            1.0            1.6   289.8
      07/08/11, 7:00      67.2      18.6            100            1.2            1.9   323.6
      07/08/11, 8:00      71.7      21.1            100            1.4            2.3     319
      07/08/11, 9:00      76.0      23.4             95            2.5            4.0   295.2
     07/08/11, 10:00      79.7      25.5             86            3.1            4.9     335
     07/08/11, 11:00      82.5      27.1             80            2.6            4.2   335.8
     07/08/11, 12:00      84.3      28.0             73            3.0            4.8   334.8
     07/08/11, 13:00      85.0      28.5             66            2.6            4.2   278.4
     07/08/11, 14:00      86.6      29.3             62            3.2            5.1     326
     07/08/11, 15:00      88.0      30.1             61            2.2            3.5   345.4
     07/08/11, 16:00      89.0      30.6             56            2.6            4.2   12.06
     07/08/11, 17:00      89.6      31.0             53            2.1            3.3   53.16
     07/08/11, 18:00      87.2      29.6             66            1.9            3.1   153.5
     07/08/11, 19:00      85.3      28.6             65            1.2            1.9   187.5
     07/08/11, 20:00      84.4      28.1             71            2.2            3.5   167.8
     07/08/11, 21:00      81.0      26.2             83            2.4            3.8   169.1
     07/08/11, 22:00      78.0      24.6             84            1.9            3.0   160.7
     07/08/11, 23:00      76.1      23.5             91            1.2            1.9   104.5
      07/09/11, 0:00      74.3      22.5             93            1.1            1.7   112.4
      07/09/11, 1:00      72.6      21.6             96            1.0            1.7   137.9
      07/09/11, 2:00      70.7      20.5             98            2.7            4.4   152.2
      07/09/11, 3:00      70.4      20.4             98            2.9            4.7   150.7
      07/09/11, 4:00      69.7      20.0             98            3.0            4.8   153.2
      07/09/11, 5:00      69.1      19.6             99            1.7            2.7   148.3
      07/09/11, 6:00      68.2      19.1            100            2.4            3.9     142
      07/09/11, 7:00      68.6      19.4            100            2.1            3.4   135.9
      07/09/11, 8:00      71.6      21.0            100            4.7            7.5   130.3
      07/09/11, 9:00      75.6      23.2             94            6.0            9.7   149.8
     07/09/11, 10:00      79.2      25.2             84            8.9           14.4   158.9
     07/09/11, 11:00      81.4      26.4             78           11.2           18.1   158.3
     07/09/11, 12:00      82.8      27.2             72           11.0           17.6   162.2
     07/09/11, 13:00      83.9      27.9             71           11.4           18.4   157.1
     07/09/11, 14:00      83.8      27.8             70           11.4           18.3   151.7
     07/09/11, 15:00      84.6      28.2             69           11.6           18.7   160.7
     07/09/11, 16:00      83.9      27.9             71            9.7           15.6   155.9
     07/09/11, 17:00      86.2      29.1             69           11.2           18.0   161.1
     07/09/11, 18:00      86.3      29.1             66           10.1           16.3   162.6
     07/09/11, 19:00      85.0      28.4             70            8.4           13.5   168.5
     07/09/11, 20:00      83.6      27.7             74            7.0           11.3     159
     07/09/11, 21:00      80.7      26.1             82            6.4           10.2   155.4
     07/09/11, 22:00      77.2      24.1             89            4.3            6.9   153.2
     07/09/11, 23:00      75.3      23.1             92            4.2            6.8   152.1
      07/10/11, 0:00      74.4      22.5             92            4.2            6.7   154.8


  

                                                                                             
           Date,Time       Air       Air     % Relative           Wind           Wind    Wind
                        Temp F    Temp C       Humidity      Speed mph     Speed km/h Dir Deg
---------------------------------------------------------------------------------------------
      07/10/11, 1:00      73.1      21.8             95            3.0            4.8   150.7
      07/10/11, 2:00      72.5      21.5             96            3.2            5.1   142.8
      07/10/11, 3:00      72.2      21.3             96            3.5            5.6   141.3
      07/10/11, 4:00      71.8      21.1             97            3.4            5.5   154.3
      07/10/11, 5:00      71.5      21.0             99            2.1            3.4   136.2
      07/10/11, 6:00      71.6      21.0             98            3.0            4.9   119.4
      07/10/11, 7:00      72.3      21.4             98            3.8            6.0     123
      07/10/11, 8:00      74.7      22.7             96            4.5            7.2   121.7
      07/10/11, 9:00      77.9      24.5             92            7.2           11.5   137.6
     07/10/11, 10:00      81.3      26.4             87            5.5            8.8   179.6
     07/10/11, 11:00      80.5      25.9             87            3.6            5.8     330
     07/10/11, 12:00      82.2      26.9             86            5.9            9.4   38.41
     07/10/11, 13:00      84.7      28.3             82            7.2           11.6    88.2
     07/10/11, 14:00      87.0      29.5             80            6.4           10.3    91.6
     07/10/11, 15:00      87.7      30.0             80            7.6           12.2   116.9
     07/10/11, 16:00      88.1      30.2             79            6.8           11.0   129.5
     07/10/11, 17:00      89.0      30.7             77            7.2           11.6   141.6
     07/10/11, 18:00      89.8      31.1             75            5.4            8.7   134.6
     07/10/11, 19:00      89.4      30.9             77            5.2            8.4   128.3
     07/10/11, 20:00      87.7      29.9             83            4.1            6.6   137.7
     07/10/11, 21:00      84.7      28.3             92            3.1            5.0   151.1
     07/10/11, 22:00      82.5      27.1             94            2.3            3.7   152.2
     07/10/11, 23:00      81.2      26.3             97            2.2            3.5   148.1
      07/11/11, 0:00      79.8      25.6             99            2.7            4.4   151.2
      07/11/11, 1:00      79.2      25.2             99            1.7            2.7   145.6
      07/11/11, 2:00      78.1      24.6            100            1.3            2.1   122.5
      07/11/11, 3:00      78.2      24.6            100            4.4            7.1   150.7
      07/11/11, 4:00      78.3      24.7            100            2.0            3.3   186.8
      07/11/11, 5:00      74.2      22.4            100           11.0           17.7   283.1
      07/11/11, 6:00      74.0      22.3             94            7.0           11.3   312.3
      07/11/11, 7:00      73.1      21.9             92            6.1            9.9   359.5
      07/11/11, 8:00      72.7      21.6             95            5.3            8.5    74.3
      07/11/11, 9:00      73.9      22.3             94            8.3           13.4   150.9
     07/11/11, 10:00      76.1      23.5             93            2.4            3.8    9.28
     07/11/11, 11:00      79.9      25.6             90            6.3           10.2   188.2
     07/11/11, 12:00      82.8      27.3             85            4.3            6.9   241.3
     07/11/11, 13:00      85.2      28.5             82            3.9            6.3   298.3
     07/11/11, 14:00      85.9      28.9             78            4.9            7.9   284.5
     07/11/11, 15:00      87.1      29.6             74            4.4            7.1   284.6
     07/11/11, 16:00      87.4      29.8             75            4.3            7.0   295.5
     07/11/11, 17:00      88.1      30.1             77            3.1            5.0   284.4
     07/11/11, 18:00      85.8      28.9             81            3.3            5.3   300.3
     07/11/11, 19:00      84.6      28.2             82            2.5            4.0   304.9
     07/11/11, 20:00      84.3      28.1             83            3.0            4.8   298.9
     07/11/11, 21:00      81.5      26.5             89            2.0            3.1   306.4
     07/11/11, 22:00      78.5      24.9             93            1.2            1.9   322.4
     07/11/11, 23:00      76.5      23.7             94            1.5            2.4   331.7
      07/12/11, 0:00      74.7      22.7             95            0.4            0.6     343


  

                                                                                             
           Date,Time       Air       Air     % Relative           Wind           Wind    Wind
                        Temp F    Temp C       Humidity      Speed mph     Speed km/h Dir Deg
---------------------------------------------------------------------------------------------
      07/12/11, 1:00      74.3      22.5             96            1.5            2.4   318.3
      07/12/11, 2:00      72.5      21.5             98            1.0            1.6   267.1
      07/12/11, 3:00      71.3      20.8            100            0.5            0.9   320.7
      07/12/11, 4:00      70.3      20.3            100            2.0            3.3   318.3
      07/12/11, 5:00      70.5      20.4            100            2.4            3.9     332
      07/12/11, 6:00      69.7      20.0             98            2.4            3.8   331.7
      07/12/11, 7:00      69.3      19.7             98            2.5            4.0   328.6
      07/12/11, 8:00      71.9      21.2             94            3.7            5.9    9.56
      07/12/11, 9:00      75.2      23.0             86            5.5            8.8   26.06
     07/12/11, 10:00      75.7      23.3             83            6.1            9.7   4.191
     07/12/11, 11:00      75.1      22.9             90            5.8            9.3     345
     07/12/11, 12:00      72.8      21.7             93            6.8           10.9    25.8
     07/12/11, 13:00      73.8      22.2             93            5.5            8.8    70.4
     07/12/11, 14:00      79.0      25.1             81            7.1           11.4   69.37
     07/12/11, 15:00      78.1      24.6             86            4.5            7.2   55.64
     07/12/11, 16:00      74.0      22.4             94            3.9            6.3   44.67
     07/12/11, 17:00      72.6      21.6             96            2.9            4.7   65.08
     07/12/11, 18:00      70.9      20.6             98            3.5            5.7   57.24
     07/12/11, 19:00      71.6      21.0             97            5.9            9.5    9.02
     07/12/11, 20:00      71.2      20.8             93            3.6            5.8   13.01
     07/12/11, 21:00      70.9      20.6             96            5.2            8.4    9.52
     07/12/11, 22:00      70.7      20.5             97            5.1            8.3    7.71
     07/12/11, 23:00      70.6      20.4             97            5.7            9.2   10.55
      07/13/11, 0:00      70.0      20.1             93            5.1            8.2   23.41
      07/13/11, 1:00      69.2      19.7             96            4.1            6.7    12.4
      07/13/11, 2:00      68.4      19.3             97            4.3            6.9    2.72
      07/13/11, 3:00      68.0      19.0             96            5.6            9.0    7.52
      07/13/11, 4:00      67.2      18.6             95            4.4            7.1   19.74
      07/13/11, 5:00      66.8      18.4             94            4.7            7.5   20.92
      07/13/11, 6:00      66.5      18.2             94            4.3            6.9   29.77
      07/13/11, 7:00      66.2      18.0             94            4.9            7.8   16.62
      07/13/11, 8:00      67.8      18.9             93            6.7           10.7   15.43
      07/13/11, 9:00      69.9      20.1             89            6.1            9.8   39.94
     07/13/11, 10:00      72.0      21.2             83            6.1            9.8    71.4
     07/13/11, 11:00      74.2      22.5             81            5.9            9.4   53.82
     07/13/11, 12:00      76.1      23.5             78            5.2            8.3      75
     07/13/11, 13:00      78.1      24.6             79            5.8            9.4      75
     07/13/11, 14:00      78.0      24.6             75            4.7            7.6      83
     07/13/11, 15:00      78.4      24.8             75            6.1            9.8    77.3
     07/13/11, 16:00      80.0      25.6             75            6.6           10.6    91.6
     07/13/11, 17:00      78.8      25.0             74            5.9            9.5    63.5
     07/13/11, 18:00      78.3      24.7             73            6.4           10.3   69.54
     07/13/11, 19:00      77.9      24.5             73            6.8           10.9      70
     07/13/11, 20:00      76.2      23.6             78            5.7            9.2   69.33
     07/13/11, 21:00      74.1      22.4             84            3.4            5.4    71.9
     07/13/11, 22:00      73.4      22.0             86            3.6            5.8    76.3
     07/13/11, 23:00      73.0      21.8             86            4.8            7.6    77.6
      07/14/11, 0:00      71.3      20.9             87            4.6            7.4    96.3


  

                                                                                             
           Date,Time       Air       Air     % Relative           Wind           Wind    Wind
                        Temp F    Temp C       Humidity      Speed mph     Speed km/h Dir Deg
---------------------------------------------------------------------------------------------
      07/14/11, 1:00      70.7      20.5             88            4.8            7.8   103.9
      07/14/11, 2:00      69.2      19.7             90            3.5            5.6     104
      07/14/11, 3:00      67.9      18.9             90            4.0            6.4    91.5
      07/14/11, 4:00      67.0      18.4             90            5.1            8.2   102.3
      07/14/11, 5:00      66.8      18.3             88            5.1            8.3   102.6
      07/14/11, 6:00      66.1      18.0             88            6.6           10.6     101
      07/14/11, 7:00      65.8      17.8             86            7.0           11.3   109.5
      07/14/11, 8:00      65.9      17.9             85            6.9           11.2   108.7
      07/14/11, 9:00      66.4      18.1             86            6.2           10.1   106.1
     07/14/11, 10:00      68.9      19.5             83            6.9           11.2   104.1
     07/14/11, 11:00      71.0      20.7             79            7.5           12.1   109.5
     07/14/11, 12:00      72.1      21.3             79            4.9            7.9   112.3
     07/14/11, 13:00      75.3      23.1             77            5.3            8.6    96.5
     07/14/11, 14:00      77.9      24.5             76            5.5            8.9    90.1
     07/14/11, 15:00      79.9      25.6             75            7.9           12.7   110.8
     07/14/11, 16:00      81.2      26.3             77            8.1           13.1   123.8
     07/14/11, 17:00      82.4      27.0             76            8.1           13.0   123.5
     07/14/11, 18:00      83.0      27.3             77            7.9           12.7   124.5
     07/14/11, 19:00      81.9      26.7             80            6.9           11.2   121.7
     07/14/11, 20:00      81.1      26.3             83            4.6            7.5   113.4
     07/14/11, 21:00      78.8      25.0             90            3.4            5.4   100.6
     07/14/11, 22:00      76.9      24.0             92            3.7            6.0   107.1
     07/14/11, 23:00      75.8      23.3             93            4.5            7.2   112.2
      07/15/11, 0:00      75.1      22.9             94            4.6            7.3     114
      07/15/11, 1:00      74.5      22.6             95            5.1            8.3   117.8
      07/15/11, 2:00      74.2      22.4             95            6.9           11.2   125.5
      07/15/11, 3:00      73.8      22.3             96            5.7            9.1   123.5
      07/15/11, 4:00      72.7      21.6             98            3.8            6.1   118.7
      07/15/11, 5:00      71.8      21.1             99            4.6            7.4   120.8
      07/15/11, 6:00      71.6      21.0             99            5.6            9.0   125.1
      07/15/11, 7:00      72.1      21.3             99            5.6            8.9   122.5
      07/15/11, 8:00      73.5      22.1             96            7.5           12.1   124.9
      07/15/11, 9:00      76.2      23.5             93            8.1           13.0   136.1
     07/15/11, 10:00      79.4      25.4             89            8.3           13.4   129.7
     07/15/11, 11:00      82.4      27.0             85            9.0           14.5   143.2
     07/15/11, 12:00      85.1      28.5             83            7.8           12.5     144
     07/15/11, 13:00      86.5      29.3             79            8.1           13.1   146.8
     07/15/11, 14:00      88.1      30.2             78            8.2           13.3   146.6
     07/15/11, 15:00      89.0      30.7             75            9.7           15.6   146.3
     07/15/11, 16:00      88.8      30.5             74            9.7           15.6   136.8
     07/15/11, 17:00      88.1      30.2             76            8.8           14.1   127.6
     07/15/11, 18:00      86.9      29.5             78            8.4           13.5     122
     07/15/11, 19:00      85.2      28.6             81            5.9            9.4   116.2
     07/15/11, 20:00      83.6      27.6             84            5.0            8.1   110.6
     07/15/11, 21:00      81.8      26.7             88            5.2            8.3   113.5
     07/15/11, 22:00      80.4      25.9             91            4.5            7.2    87.7
     07/15/11, 23:00      78.6      24.9             96            5.9            9.6   104.9
      07/16/11, 0:00      77.7      24.4             96            6.6           10.7   113.4


  

                                                                                             
           Date,Time       Air       Air     % Relative           Wind           Wind    Wind
                        Temp F    Temp C       Humidity      Speed mph     Speed km/h Dir Deg
---------------------------------------------------------------------------------------------
      07/16/11, 1:00      77.0      24.0             94            7.0           11.3   131.4
      07/16/11, 2:00      76.8      23.9             94            7.2           11.6   130.3
      07/16/11, 3:00      76.2      23.6             96            6.0            9.6     139
      07/16/11, 4:00      75.4      23.1             97            4.5            7.2   132.8
      07/16/11, 5:00      75.0      22.9             98            4.4            7.1   156.1
      07/16/11, 6:00      75.1      22.9             98            4.4            7.0   145.1
      07/16/11, 7:00      74.9      22.8             98            2.6            4.2   153.6
      07/16/11, 8:00      75.8      23.4             98            5.9            9.5   135.9
      07/16/11, 9:00      77.8      24.4             93            6.4           10.3   147.8
     07/16/11, 10:00      78.9      25.1             91            5.6            9.1   132.2
     07/16/11, 11:00      81.1      26.3             89            7.6           12.3   129.2
     07/16/11, 12:00      83.7      27.7             86            9.2           14.8   135.5
     07/16/11, 13:00      85.3      28.6             85            8.6           13.9   142.8
     07/16/11, 14:00      85.7      28.8             85            8.3           13.3   135.6
     07/16/11, 15:00      87.7      30.0             85            6.6           10.7   148.1
     07/16/11, 16:00      90.2      31.4             79            6.4           10.4   142.3
     07/16/11, 17:00      91.4      32.0             77            7.6           12.3   154.9
     07/16/11, 18:00      91.7      32.2             79            7.0           11.2     157
     07/16/11, 19:00      90.8      31.7             80            6.4           10.3   160.1
     07/16/11, 20:00      88.3      30.3             82            6.0            9.7   157.9
     07/16/11, 21:00      85.6      28.8             88            5.1            8.2   156.2
     07/16/11, 22:00      82.7      27.2             93            4.1            6.6   150.7
     07/16/11, 23:00      81.0      26.3             97            4.8            7.8   146.8
      07/17/11, 0:00      80.5      25.9             98            4.3            7.0   145.9
      07/17/11, 1:00      79.9      25.6             98            5.0            8.0   147.1
      07/17/11, 2:00      78.9      25.1             99            4.0            6.5     142
      07/17/11, 3:00      78.0      24.6            100            3.9            6.3   141.6
      07/17/11, 4:00      77.5      24.3            100            3.9            6.3   139.1
      07/17/11, 5:00      77.1      24.1            100            4.1            6.6   136.8
      07/17/11, 6:00      76.6      23.8            100            3.8            6.2   138.8
      07/17/11, 7:00      76.5      23.7            100            4.2            6.7   137.1
      07/17/11, 8:00      78.0      24.6            100            5.6            8.9   145.4
      07/17/11, 9:00      81.0      26.2             96            6.5           10.5   157.2
     07/17/11, 10:00      84.7      28.3             88            6.7           10.8   169.4
     07/17/11, 11:00      87.4      29.8             82            7.5           12.0   175.6
     07/17/11, 12:00      89.9      31.2             77            7.5           12.1   177.2
     07/17/11, 13:00      90.4      31.4             77            6.7           10.7   176.8
     07/17/11, 14:00      88.8      30.6             82            4.7            7.5   171.3
     07/17/11, 15:00      91.2      31.9             77            6.7           10.8   164.6
     07/17/11, 16:00      94.3      33.6             69            9.0           14.5   170.7
     07/17/11, 17:00      94.4      33.7             67            7.9           12.7   180.3
     07/17/11, 18:00      93.7      33.3             69            7.1           11.5   172.2
     07/17/11, 19:00      92.4      32.6             72            6.4           10.4   174.6
     07/17/11, 20:00      90.0      31.3             78            5.3            8.5     178
     07/17/11, 21:00      86.6      29.3             84            5.6            9.0   178.8
     07/17/11, 22:00      83.9      27.8             89            3.4            5.5   186.6
     07/17/11, 23:00      81.8      26.7             96            2.8            4.5   159.9
      07/18/11, 0:00      81.5      26.5             94            3.9            6.3   163.9


  

                                                                                             
           Date,Time       Air       Air     % Relative           Wind           Wind    Wind
                        Temp F    Temp C       Humidity      Speed mph     Speed km/h Dir Deg
---------------------------------------------------------------------------------------------
      07/18/11, 1:00      80.4      25.9             94            5.1            8.2   168.3
      07/18/11, 2:00      79.2      25.2             97            3.3            5.4   159.6
      07/18/11, 3:00      78.5      24.8             98            3.7            5.9   169.1
      07/18/11, 4:00      77.6      24.3             99            3.9            6.2   156.3
      07/18/11, 5:00      76.9      23.9            100            3.5            5.7   161.5
      07/18/11, 6:00      76.6      23.8            100            3.0            4.8     165
      07/18/11, 7:00      76.4      23.7            100            3.3            5.4   157.5
      07/18/11, 8:00      80.0      25.7             98            5.1            8.2     175
      07/18/11, 9:00      83.6      27.7             89            4.5            7.3   188.9
     07/18/11, 10:00      86.6      29.4             81            5.3            8.6     199
     07/18/11, 11:00      89.0      30.6             78            5.7            9.2   195.9
     07/18/11, 12:00      91.1      31.8             75            5.5            8.9   195.1
     07/18/11, 13:00      92.7      32.7             71            5.9            9.5   192.8
     07/18/11, 14:00      93.8      33.3             70            6.6           10.6   194.5
     07/18/11, 15:00      94.9      34.0             69            6.9           11.1   193.6
     07/18/11, 16:00      95.5      34.3             67            6.8           10.9   189.5
     07/18/11, 17:00      95.6      34.4             67            7.3           11.7     186
     07/18/11, 18:00      95.1      34.0             69            6.5           10.5   188.4
     07/18/11, 19:00      93.8      33.3             74            5.8            9.3   185.7
     07/18/11, 20:00      91.2      31.9             80            5.5            8.8   180.3
     07/18/11, 21:00      87.9      30.1             85            5.3            8.5   182.4
     07/18/11, 22:00      85.9      28.9             88            5.2            8.4   183.4
     07/18/11, 23:00      83.9      27.8             91            2.9            4.6   185.8
      07/19/11, 0:00      82.2      26.9             96            0.7            1.1   188.6
      07/19/11, 1:00      80.9      26.2             97            1.0            1.6   178.8
      07/19/11, 2:00      80.2      25.8             97            1.0            1.6     197
      07/19/11, 3:00      78.9      25.0            100            0.4            0.7    70.1
      07/19/11, 4:00      78.0      24.5            100            0.5            0.8    8.29
      07/19/11, 5:00      77.3      24.2            100            0.9            1.4   177.6
      07/19/11, 6:00      77.0      24.0            100            1.5            2.4   188.9
      07/19/11, 7:00      77.6      24.3            100            1.9            3.0     198
      07/19/11, 8:00      80.9      26.2             97            1.7            2.8   191.2
      07/19/11, 9:00      84.8      28.3             90            2.0            3.2   200.4
     07/19/11, 10:00      87.2      29.7             84            3.4            5.5   194.7
     07/19/11, 11:00      90.0      31.2             76            3.5            5.6   204.4
     07/19/11, 12:00      91.6      32.1             74            3.4            5.5   195.6
     07/19/11, 13:00      94.0      33.5             69            2.7            4.4   220.9
     07/19/11, 14:00      95.1      34.0             66            3.1            5.0   187.1
     07/19/11, 15:00      95.9      34.5             65            3.6            5.7   183.3
     07/19/11, 16:00      96.3      34.7             64            4.6            7.4   181.8
     07/19/11, 17:00      96.1      34.6             63            5.4            8.7   178.9
     07/19/11, 18:00      95.8      34.4             64            4.6            7.3   180.7
     07/19/11, 19:00      94.8      33.9             68            4.0            6.4     171
     07/19/11, 20:00      91.1      31.8             77            5.0            8.0   181.7
     07/19/11, 21:00      87.4      29.8             84            3.2            5.2   180.8
     07/19/11, 22:00      84.9      28.4             87            4.2            6.7   172.5
     07/19/11, 23:00      83.1      27.4             89            4.3            6.9   167.7
      07/20/11, 0:00      81.4      26.4             93            3.1            5.0   155.2


  

                                                                                             
           Date,Time       Air       Air     % Relative           Wind           Wind    Wind
                        Temp F    Temp C       Humidity      Speed mph     Speed km/h Dir Deg
---------------------------------------------------------------------------------------------
      07/20/11, 1:00      79.9      25.6             94            3.9            6.3   159.8
      07/20/11, 2:00      79.3      25.3             93            4.5            7.3   162.2
      07/20/11, 3:00      79.2      25.2             93            5.3            8.6   180.2
      07/20/11, 4:00      78.4      24.8             95            4.3            6.9   164.2
      07/20/11, 5:00      77.5      24.3             95            4.9            7.8   165.7
      07/20/11, 6:00      77.6      24.4             94            5.6            9.0   168.9
      07/20/11, 7:00      77.4      24.2             95            5.4            8.6   168.4
      07/20/11, 8:00      80.6      26.0             91            6.1            9.8   170.1
      07/20/11, 9:00      84.4      28.1             84            8.7           14.0   179.3
     07/20/11, 10:00      87.2      29.7             73            8.2           13.2   187.4
     07/20/11, 11:00      89.4      30.9             68            6.3           10.2   199.8
     07/20/11, 12:00      91.2      31.9             65            8.9           14.4   187.8
     07/20/11, 13:00      92.8      32.8             61           10.4           16.7   185.3
     07/20/11, 14:00      94.1      33.5             58           10.5           16.9   180.2
     07/20/11, 15:00      95.1      34.1             57           10.8           17.3     179
     07/20/11, 16:00      95.8      34.4             57           10.0           16.1   176.1
     07/20/11, 17:00      95.4      34.2             59           10.1           16.3   177.3
     07/20/11, 18:00      94.4      33.7             59            9.4           15.2   180.4
     07/20/11, 19:00      92.9      32.8             64            7.5           12.0   176.6
     07/20/11, 20:00      90.0      31.2             71            6.4           10.3   177.8
     07/20/11, 21:00      86.6      29.3             77            6.5           10.5   179.4
     07/20/11, 22:00      84.4      28.1             77            6.5           10.5   178.4
     07/20/11, 23:00      82.5      27.1             80            5.5            8.9   170.4
      07/21/11, 0:00      81.7      26.6             84            4.9            7.9   174.1
      07/21/11, 1:00      79.8      25.6             92            2.5            4.0   162.2
      07/21/11, 2:00      79.3      25.3             92            4.0            6.4     178
      07/21/11, 3:00      78.9      25.1             93            3.5            5.7   178.7
      07/21/11, 4:00      78.8      25.0             89            1.7            2.8   293.9
      07/21/11, 5:00      78.0      24.6             93            0.9            1.5   313.6
      07/21/11, 6:00      76.2      23.5             98            1.4            2.2   163.3
      07/21/11, 7:00      76.0      23.5             98            1.1            1.8   324.5
      07/21/11, 8:00      79.5      25.4             98            2.3            3.7   334.3
      07/21/11, 9:00      80.4      25.9             81            8.4           13.6   330.6
     07/21/11, 10:00      78.7      25.0             76           10.3           16.6   353.2
     07/21/11, 11:00      77.8      24.4             75            5.0            8.1    9.16
     07/21/11, 12:00      79.2      25.2             74            5.3            8.5   60.53
     07/21/11, 13:00      81.2      26.4             73            4.0            6.4    87.3
     07/21/11, 14:00      83.1      27.4             68            4.5            7.2    99.3
     07/21/11, 15:00      86.0      29.0             63            3.0            4.8   145.2
     07/21/11, 16:00      87.5      29.9             64            4.1            6.7   140.3
     07/21/11, 17:00      87.1      29.6             66            3.0            4.8   340.2
     07/21/11, 18:00      86.6      29.3             68            4.0            6.4   2.216
     07/21/11, 19:00      84.0      27.9             74            3.3            5.3    .597
     07/21/11, 20:00      82.8      27.2             81            4.4            7.1    10.5
     07/21/11, 21:00      80.2      25.8             85            4.2            6.8   29.54
     07/21/11, 22:00      78.3      24.7             91            4.1            6.6   49.72
     07/21/11, 23:00      75.8      23.3             93            3.9            6.2    80.4
      07/22/11, 0:00      74.7      22.7             95            3.9            6.3    97.8


  

                                                                                             
           Date,Time       Air       Air     % Relative           Wind           Wind    Wind
                        Temp F    Temp C       Humidity      Speed mph     Speed km/h Dir Deg
---------------------------------------------------------------------------------------------
      07/22/11, 1:00      74.2      22.5             95            3.2            5.2   108.1
      07/22/11, 2:00      74.4      22.6             96            3.5            5.7   113.3
      07/22/11, 3:00      74.5      22.6             96            4.7            7.5   121.4
      07/22/11, 4:00      74.7      22.7             96            4.7            7.6   123.4
      07/22/11, 5:00      75.4      23.1             96            8.7           14.1   290.8
      07/22/11, 6:00      74.1      22.4             95            6.1            9.9   207.3
      07/22/11, 7:00      74.6      22.6             96            5.7            9.1   199.3
      07/22/11, 8:00      73.7      22.2             97            3.5            5.7   148.9
      07/22/11, 9:00      74.1      22.4             98            4.9            7.9   143.9
     07/22/11, 10:00      75.8      23.4             98            5.3            8.6   109.3
     07/22/11, 11:00      79.6      25.5             94            5.3            8.5   108.4
     07/22/11, 12:00      81.4      26.5             90            8.3           13.3   126.9
     07/22/11, 13:00      84.7      28.3             85            9.2           14.8   136.1
     07/22/11, 14:00      87.1      29.6             80            6.7           10.8   130.7
     07/22/11, 15:00      89.0      30.6             80            5.2            8.4   121.7
     07/22/11, 16:00      89.9      31.2             76            5.7            9.1   113.1
     07/22/11, 17:00      90.4      31.4             76            7.3           11.7   126.2
     07/22/11, 18:00      90.3      31.4             77            6.6           10.6   115.9
     07/22/11, 19:00      88.1      30.2             83            4.8            7.7     119
     07/22/11, 20:00      86.9      29.5             85            4.9            7.8   118.4
     07/22/11, 21:00      85.6      28.8             88            9.3           15.0     131
     07/22/11, 22:00      76.0      23.5             95            8.2           13.2    82.5
     07/22/11, 23:00      79.5      25.4             86           13.4           21.5   151.7
      07/23/11, 0:00      78.6      24.9             89            5.9            9.5   137.5
      07/23/11, 1:00      76.1      23.5             97            5.3            8.6   124.8
      07/23/11, 2:00      74.6      22.7             98            5.2            8.3    81.6
      07/23/11, 3:00      74.0      22.3             99            3.9            6.3    81.3
      07/23/11, 4:00      73.6      22.1             99            4.4            7.0   59.47
      07/23/11, 5:00      73.3      21.9             98            5.6            9.0    52.7
      07/23/11, 6:00      73.1      21.9             97            6.5           10.4    73.7
      07/23/11, 7:00      73.6      22.1             96            7.0           11.2   109.7
      07/23/11, 8:00      74.3      22.5             96            7.2           11.7   112.8
      07/23/11, 9:00      75.7      23.3             96            7.8           12.5   110.9
     07/23/11, 10:00      75.5      23.2             97            7.2           11.6   100.9
     07/23/11, 11:00      75.9      23.4             98            7.9           12.7   110.4
     07/23/11, 12:00      77.2      24.1             96            8.9           14.3   129.1
     07/23/11, 13:00      77.9      24.5             96            9.7           15.7   128.5
     07/23/11, 14:00      78.0      24.6             96            9.8           15.7     156
     07/23/11, 15:00      79.6      25.4             96            2.8            4.6    11.8
     07/23/11, 16:00      80.4      25.9             96            4.6            7.3    86.8
     07/23/11, 17:00      80.9      26.1             96            9.9           15.9   132.2
     07/23/11, 18:00      81.7      26.6             85           11.0           17.7   145.1
     07/23/11, 19:00      82.8      27.2             82            8.4           13.6     158
     07/23/11, 20:00      82.8      27.2             86            8.3           13.4     164
     07/23/11, 21:00      80.8      26.1             82            7.1           11.4   165.4
     07/23/11, 22:00      79.2      25.2             78            6.5           10.4   173.7
     07/23/11, 23:00      77.1      24.1             81            2.8            4.5   162.5
      07/24/11, 0:00      74.9      22.9             92            1.1            1.7   257.9


  

                                                                                             
           Date,Time       Air       Air     % Relative           Wind           Wind    Wind
                        Temp F    Temp C       Humidity      Speed mph     Speed km/h Dir Deg
---------------------------------------------------------------------------------------------
      07/24/11, 1:00      74.6      22.7             92            1.3            2.2    88.3
      07/24/11, 2:00      74.3      22.5             93            1.5            2.3      98
      07/24/11, 3:00      74.5      22.6             94            3.0            4.8   4.205
      07/24/11, 4:00      75.2      23.0             91            2.3            3.8    78.6
      07/24/11, 5:00      75.9      23.4             96            1.6            2.6    93.4
      07/24/11, 6:00      75.7      23.3             99            1.3            2.0      96
      07/24/11, 7:00      75.5      23.1            100            3.5            5.6   158.9
      07/24/11, 8:00      77.0      24.0             97            5.3            8.5     156
      07/24/11, 9:00      78.8      25.0             94            5.8            9.4     178
     07/24/11, 10:00      80.9      26.2             90            3.9            6.3   210.2
     07/24/11, 11:00      81.9      26.7             90            3.6            5.7   199.3
     07/24/11, 12:00      82.9      27.3             87            4.4            7.0     295
     07/24/11, 13:00      84.3      28.1             85            5.5            8.8   325.1
     07/24/11, 14:00      86.7      29.4             81            5.1            8.3    .826
     07/24/11, 15:00      86.1      29.1             88            6.0            9.7   118.8
     07/24/11, 16:00      86.4      29.2             84            6.5           10.5   154.5
     07/24/11, 17:00      85.8      28.9             86            4.4            7.1   153.3
     07/24/11, 18:00      87.0      29.5             84            3.6            5.9   181.9
     07/24/11, 19:00      87.2      29.6             81            2.9            4.6   178.8
     07/24/11, 20:00      86.4      29.3             86            1.0            1.6   177.5
     07/24/11, 21:00      82.5      27.1             91            3.9            6.3     344
     07/24/11, 22:00      79.8      25.5             93            3.1            4.9   337.1
     07/24/11, 23:00      78.4      24.8             95            2.9            4.6   337.4
      07/25/11, 0:00      77.3      24.1             96            3.5            5.7   359.2
      07/25/11, 1:00      75.8      23.3             97            3.0            4.9    5.02
      07/25/11, 2:00      74.5      22.6             97            2.8            4.6   15.11
      07/25/11, 3:00      73.8      22.2             97            3.7            5.9   4.742
      07/25/11, 4:00      72.6      21.6             97            2.4            3.8   32.92
      07/25/11, 5:00      71.6      21.0             99            2.1            3.4   30.99
      07/25/11, 6:00      70.6      20.4             99            2.5            4.0   14.03
      07/25/11, 7:00      70.6      20.4             99            2.8            4.5   38.59
      07/25/11, 8:00      72.9      21.8             95            3.4            5.5    80.3
      07/25/11, 9:00      75.8      23.3             90            3.4            5.4   56.77
     07/25/11, 10:00      78.2      24.6             86            2.6            4.2    81.1
     07/25/11, 11:00      79.9      25.6             86            2.3            3.7   147.1
     07/25/11, 12:00      82.4      27.0             85            3.0            4.9   135.5
     07/25/11, 13:00      85.0      28.4             80            3.6            5.7   153.6
     07/25/11, 14:00      86.9      29.5             72            4.3            7.0   168.6
     07/25/11, 15:00      88.0      30.1             76            3.3            5.3   195.5
     07/25/11, 16:00      88.0      30.1             79            2.8            4.5   180.5
     07/25/11, 17:00      90.0      31.3             75            3.2            5.2   211.1
     07/25/11, 18:00      90.7      31.6             70            2.5            4.1   226.7
     07/25/11, 19:00      90.2      31.3             73            2.0            3.2     277
     07/25/11, 20:00      87.4      29.8             76            1.5            2.5   291.6
     07/25/11, 21:00      83.9      27.8             82            0.5            0.8   280.8
     07/25/11, 22:00      80.9      26.2             90            0.2            0.3   246.5
     07/25/11, 23:00      79.4      25.3             92            1.2            2.0   212.6
      07/26/11, 0:00      78.5      24.9             95            1.7            2.8   279.9


  

                                                                                             
           Date,Time       Air       Air     % Relative           Wind           Wind    Wind
                        Temp F    Temp C       Humidity      Speed mph     Speed km/h Dir Deg
---------------------------------------------------------------------------------------------
      07/26/11, 1:00      76.4      23.7             99            0.6            1.0   333.3
      07/26/11, 2:00      75.7      23.3            100            1.3            2.0   184.1
      07/26/11, 3:00      75.5      23.2             99            1.4            2.3   304.9
      07/26/11, 4:00      74.3      22.5            100            1.2            1.9   307.1
      07/26/11, 5:00      74.2      22.4            100            1.7            2.7   316.7
      07/26/11, 6:00      74.0      22.3            100            1.2            1.9   317.5
      07/26/11, 7:00      73.8      22.2            100            1.3            2.1     196
      07/26/11, 8:00      77.9      24.5             99            0.4            0.6   154.1
      07/26/11, 9:00      82.7      27.2             91            1.9            3.1   155.8
     07/26/11, 10:00      86.0      29.0             83            1.9            3.1   177.9
     07/26/11, 11:00      87.9      30.0             79            1.7            2.8   207.7
     07/26/11, 12:00      88.2      30.2             76            1.5            2.5   180.1
     07/26/11, 13:00      90.2      31.3             74            2.9            4.7   109.3
     07/26/11, 14:00      90.8      31.7             70            3.2            5.2    94.3
     07/26/11, 15:00      91.3      32.0             69            4.0            6.5   126.6
     07/26/11, 16:00      91.5      32.1             70            4.6            7.4   133.7
     07/26/11, 17:00      91.7      32.1             69            5.1            8.3   128.8
     07/26/11, 18:00      91.8      32.3             70            3.7            6.0   101.7
     07/26/11, 19:00      89.5      30.9             80            3.2            5.2    98.7
     07/26/11, 20:00      87.3      29.7             84            3.3            5.4    89.3
     07/26/11, 21:00      84.6      28.2             87            3.7            6.0    98.2
     07/26/11, 22:00      82.9      27.3             90            5.4            8.7   112.8
     07/26/11, 23:00      81.6      26.6             90            5.5            8.8   117.7
      07/27/11, 0:00      80.3      25.8             86            5.1            8.3     121
      07/27/11, 1:00      78.9      25.0             91            4.5            7.2   120.6
      07/27/11, 2:00      78.2      24.7             94            4.8            7.8   126.1
      07/27/11, 3:00      78.1      24.6             95            4.5            7.3   126.9
      07/27/11, 4:00      78.1      24.6             96            5.4            8.6   137.6
      07/27/11, 5:00      78.2      24.7             97            5.5            8.9   152.3
      07/27/11, 6:00      77.5      24.3             98            4.1            6.6   153.8
      07/27/11, 7:00      77.1      24.0             97            2.5            4.1   161.9
      07/27/11, 8:00      78.2      24.6             96            4.6            7.4   161.9
      07/27/11, 9:00      80.4      25.9             89            5.1            8.3   167.7
     07/27/11, 10:00      83.5      27.6             84            5.7            9.2   177.8
     07/27/11, 11:00      86.2      29.1             77            7.1           11.3   171.6
     07/27/11, 12:00      86.1      29.1             78            6.3           10.1   172.4
     07/27/11, 13:00      87.9      30.0             77            6.6           10.7   154.2
     07/27/11, 14:00      88.6      30.4             75            6.8           11.0   147.1
     07/27/11, 15:00      89.9      31.2             76            6.4           10.2   144.1
     07/27/11, 16:00      92.4      32.6             72            6.6           10.7   163.9
     07/27/11, 17:00      93.5      33.2             70            4.2            6.7   173.1
     07/27/11, 18:00      92.4      32.6             81            2.2            3.5   219.4
     07/27/11, 19:00      91.0      31.8             81            2.0            3.3   329.8
     07/27/11, 20:00      89.2      30.8             84            2.2            3.6   29.07
     07/27/11, 21:00      87.0      29.6             90            1.5            2.4   354.9
     07/27/11, 22:00      85.0      28.4             92            3.1            4.9   342.7
     07/27/11, 23:00      83.6      27.7             93            3.2            5.2    22.5
      07/28/11, 0:00      83.3      27.5             93            3.1            5.0   50.02


  

                                                                                             
           Date,Time       Air       Air     % Relative           Wind           Wind    Wind
                        Temp F    Temp C       Humidity      Speed mph     Speed km/h Dir Deg
---------------------------------------------------------------------------------------------
      07/28/11, 1:00      82.9      27.3             96            1.8            2.9    93.5
      07/28/11, 2:00      82.2      26.9             96            3.0            4.8   154.4
      07/28/11, 3:00      80.4      25.9             89            3.8            6.1   158.6
      07/28/11, 4:00      79.5      25.4             89            2.1            3.4   109.9
      07/28/11, 5:00      78.2      24.7             92            1.9            3.0    98.3
      07/28/11, 6:00      76.5      23.8             91            3.0            4.9   150.5
      07/28/11, 7:00      75.9      23.4             92            2.8            4.6   145.2
      07/28/11, 8:00      78.1      24.6             91            2.7            4.3   103.9
      07/28/11, 9:00      79.5      25.4             84            2.3            3.6   68.87
     07/28/11, 10:00      80.3      25.8             86            3.3            5.3   22.67
     07/28/11, 11:00      80.2      25.8             88            8.1           13.0   69.51
     07/28/11, 12:00      82.0      26.8             87            6.3           10.1   116.7
     07/28/11, 13:00      84.9      28.4             83            5.9            9.5   137.9
     07/28/11, 14:00      85.8      28.9             78            5.6            8.9   156.8
     07/28/11, 15:00      86.1      29.1             81            4.0            6.4   183.7
     07/28/11, 16:00      86.8      29.5             80            2.5            4.0   225.2
     07/28/11, 17:00      85.8      28.9             84            3.6            5.8   293.2
     07/28/11, 18:00      83.8      27.8             89            2.4            3.8   299.8
     07/28/11, 19:00      82.7      27.2             90            3.0            4.8   290.1
     07/28/11, 20:00      80.1      25.7             93            3.2            5.1   294.2
     07/28/11, 21:00      78.7      25.0             95            1.6            2.6     295
     07/28/11, 22:00      77.2      24.1             99            1.1            1.8   283.2
     07/28/11, 23:00      76.5      23.7            100            2.0            3.1   311.8
      07/29/11, 0:00      75.7      23.3            100            1.2            2.0   309.2
      07/29/11, 1:00      75.6      23.2            100            1.8            2.9   287.4
      07/29/11, 2:00      75.1      22.9            100            1.9            3.1   317.2
      07/29/11, 3:00      74.5      22.6            100            1.8            3.0   309.1
      07/29/11, 4:00      74.0      22.4            100            1.5            2.4   240.6
      07/29/11, 5:00      73.9      22.3            100            2.2            3.6   216.7
      07/29/11, 6:00      73.9      22.3            100            1.1            1.7     321
      07/29/11, 7:00      74.0      22.4            100            1.2            2.0   348.7
      07/29/11, 8:00      74.9      22.8            100            3.0            4.9   352.1
      07/29/11, 9:00      76.4      23.7            100            4.4            7.0   18.36
     07/29/11, 10:00      79.0      25.1            100            5.0            8.1    11.3
     07/29/11, 11:00      81.7      26.6             90            4.7            7.5   14.97
     07/29/11, 12:00      84.3      28.1             85            4.3            7.0   30.47
     07/29/11, 13:00      85.5      28.7             80            3.8            6.1   62.45
     07/29/11, 14:00      84.3      28.1             78            3.0            4.9      96
     07/29/11, 15:00      84.0      27.9             79            2.7            4.3    82.1
     07/29/11, 16:00      84.7      28.3             78            2.6            4.2    95.1
     07/29/11, 17:00      84.2      28.0             78            1.8            2.8    99.9
     07/29/11, 18:00      84.3      28.0             81            0.8            1.3   115.6
     07/29/11, 19:00      85.9      28.9             74            1.9            3.1   123.2
     07/29/11, 20:00      85.0      28.4             80            0.7            1.2   164.1
     07/29/11, 21:00      80.7      26.1             90            0.6            1.0   290.4
     07/29/11, 22:00      77.2      24.1             97            1.4            2.3   234.7
     07/29/11, 23:00      75.3      23.1            100            0.7            1.2   274.5
      07/30/11, 0:00      74.4      22.6            100            0.6            1.0   197.7


  

                                                                                             
           Date,Time       Air       Air     % Relative           Wind           Wind    Wind
                        Temp F    Temp C       Humidity      Speed mph     Speed km/h Dir Deg
---------------------------------------------------------------------------------------------
      07/30/11, 1:00      73.3      21.9            100            0.5            0.8     199
      07/30/11, 2:00      72.0      21.2            100            0.2            0.3   108.2
      07/30/11, 3:00      71.1      20.7            100            1.0            1.5   349.3
      07/30/11, 4:00      71.3      20.9            100            0.5            0.9     340
      07/30/11, 5:00      70.3      20.3            100            0.7            1.1   331.3
      07/30/11, 6:00      70.0      20.1            100            1.6            2.5   355.9
      07/30/11, 7:00      70.8      20.5            100            1.0            1.7   37.19
      07/30/11, 8:00      73.4      22.0            100            1.9            3.1    90.3
      07/30/11, 9:00      77.4      24.2            100            4.0            6.4   116.8
     07/30/11, 10:00      80.8      26.1             91            4.9            7.9   126.3
     07/30/11, 11:00      83.4      27.6             87            4.4            7.1   134.8
     07/30/11, 12:00      85.0      28.4             82            4.6            7.3   132.3
     07/30/11, 13:00      87.1      29.6             75            4.4            7.1   119.4
     07/30/11, 14:00      87.8      30.0             72            5.1            8.3   118.6
     07/30/11, 15:00      88.2      30.2             70            5.5            8.9   138.6
     07/30/11, 16:00      88.4      30.4             69            3.8            6.0   123.3
     07/30/11, 17:00      88.8      30.5             68            3.6            5.8   142.9
     07/30/11, 18:00      88.9      30.6             67            3.2            5.2   103.8
     07/30/11, 19:00      87.6      29.9             70            3.4            5.5   122.9
     07/30/11, 20:00      85.2      28.5             81            3.3            5.3   113.5
     07/30/11, 21:00      81.3      26.4             88            1.6            2.6   112.5
     07/30/11, 22:00      79.6      25.4             89            1.0            1.6   115.8
     07/30/11, 23:00      78.3      24.7             91            0.7            1.1   60.41
      07/31/11, 0:00      77.1      24.0             93            1.2            1.9    81.9
      07/31/11, 1:00      75.7      23.3             97            1.0            1.5    87.6
      07/31/11, 2:00      74.2      22.5             99            0.7            1.0    81.6
      07/31/11, 3:00      73.0      21.8            100            1.5            2.4   336.5
      07/31/11, 4:00      72.2      21.3            100            0.7            1.1     283
      07/31/11, 5:00      71.5      20.9            100            0.6            1.0   149.2
      07/31/11, 6:00      71.2      20.8            100            1.1            1.8   162.3
      07/31/11, 7:00      70.6      20.4            100            1.4            2.2   194.5
      07/31/11, 8:00      73.2      21.9            100            1.3            2.0   180.8
      07/31/11, 9:00      78.5      24.9            100            2.4            3.9   190.9
     07/31/11, 10:00      82.5      27.1             92            2.5            4.1   176.3
     07/31/11, 11:00      84.8      28.4             83            3.5            5.7   163.1
     07/31/11, 12:00      86.1      29.1             78            4.9            7.9   152.6
     07/31/11, 13:00      87.7      29.9             75            4.3            6.9   141.9
     07/31/11, 14:00      88.9      30.6             74            4.6            7.4   147.5
     07/31/11, 15:00      90.0      31.2             72            4.4            7.1   143.2
     07/31/11, 16:00      89.9      31.2             71            4.6            7.4     143
     07/31/11, 17:00      90.1      31.3             72            4.8            7.7   140.9
     07/31/11, 18:00      90.2      31.3             73            4.1            6.6   133.4
     07/31/11, 19:00      89.3      30.8             74            3.5            5.6   141.2
     07/31/11, 20:00      87.7      30.0             84            2.1            3.4    92.9
     07/31/11, 21:00      83.8      27.8             88            1.7            2.7   66.33
     07/31/11, 22:00      81.7      26.6             90            1.8            2.8    96.7
     07/31/11, 23:00      79.7      25.5             93            1.3            2.2   101.5
      08/01/11, 0:00      77.6      24.3             98            1.7            2.8   146.5


  

                                                                                             
           Date,Time       Air       Air     % Relative           Wind           Wind    Wind
                        Temp F    Temp C       Humidity      Speed mph     Speed km/h Dir Deg
---------------------------------------------------------------------------------------------
      08/01/11, 1:00      76.3      23.6             99            2.4            3.8   159.1
      08/01/11, 2:00      75.3      23.1            100            2.1            3.4   142.5
      08/01/11, 3:00      74.2      22.5            100            1.2            2.0    96.8
      08/01/11, 4:00      73.2      21.9            100            1.7            2.7   137.9
      08/01/11, 5:00      72.6      21.5            100            2.2            3.5   157.9
      08/01/11, 6:00      72.1      21.3            100            2.4            3.9   163.6
      08/01/11, 7:00      71.9      21.2            100            1.4            2.2    90.7
      08/01/11, 8:00      74.1      22.4            100            2.6            4.1   104.8
      08/01/11, 9:00      78.8      25.0            100            4.1            6.6   110.8
     08/01/11, 10:00      82.7      27.2             92            5.1            8.2   124.7
     08/01/11, 11:00      85.7      28.8             87            5.8            9.4   138.8
     08/01/11, 12:00      88.1      30.2             83            5.8            9.4   139.8
     08/01/11, 13:00      90.1      31.3             81            6.5           10.5   149.5
     08/01/11, 14:00      91.8      32.2             77            7.2           11.7   144.7
     08/01/11, 15:00      93.1      32.9             72            6.6           10.7     142
     08/01/11, 16:00      94.4      33.7             68            7.1           11.5   146.7
     08/01/11, 17:00      94.3      33.6             69            6.5           10.5   144.9
     08/01/11, 18:00      92.2      32.4             76            4.5            7.3   144.2
     08/01/11, 19:00      91.9      32.3             75            4.2            6.8   142.3
     08/01/11, 20:00      89.4      30.9             84            3.6            5.8   148.1
     08/01/11, 21:00      85.7      28.8             89            3.0            4.8   152.9
     08/01/11, 22:00      82.9      27.3             90            4.9            7.8   150.2
     08/01/11, 23:00      82.8      27.3             85            6.9           11.1   158.4
      08/02/11, 0:00      79.8      25.5             90            5.5            8.8   150.9
      08/02/11, 1:00      77.5      24.3             95            4.2            6.8   148.7
      08/02/11, 2:00      76.8      23.9             95            5.7            9.2   147.9
      08/02/11, 3:00      76.7      23.8             96            6.6           10.6   147.8
      08/02/11, 4:00      76.2      23.6             96            4.2            6.8   133.9
      08/02/11, 5:00      75.7      23.3             96            4.5            7.2   145.2
      08/02/11, 6:00      75.5      23.2             96            4.2            6.7   144.3
      08/02/11, 7:00      75.8      23.3             95            5.5            8.9   150.4
      08/02/11, 8:00      77.7      24.4             93            6.3           10.1   151.5
      08/02/11, 9:00      80.8      26.1             87            8.2           13.3   155.9
     08/02/11, 10:00      84.9      28.4             83            8.7           14.0   163.7
     08/02/11, 11:00      88.4      30.3             75           10.0           16.2     175
     08/02/11, 12:00      91.2      31.9             71            8.7           14.0     181
     08/02/11, 13:00      94.0      33.4             68            7.4           11.9   184.2
     08/02/11, 14:00      96.0      34.5             64            4.6            7.4   209.2
     08/02/11, 15:00      96.7      35.0             60            4.2            6.8   235.8
     08/02/11, 16:00      93.4      33.1             69            6.1            9.9   290.9
     08/02/11, 17:00      87.4      29.8             89            4.2            6.8     292
     08/02/11, 18:00      89.2      30.8             80            6.5           10.5     293
     08/02/11, 19:00      87.7      29.9             82            5.3            8.5   299.1
     08/02/11, 20:00      86.6      29.3             80            6.7           10.7   299.2
     08/02/11, 21:00      83.7      27.7             83            5.6            9.0   298.5
     08/02/11, 22:00      81.2      26.3             89            4.3            6.9   303.9
     08/02/11, 23:00      79.7      25.5             90            4.9            7.9   303.1
      08/03/11, 0:00      78.2      24.7             93            3.9            6.2   307.5


  

                                                                                             
           Date,Time       Air       Air     % Relative           Wind           Wind    Wind
                        Temp F    Temp C       Humidity      Speed mph     Speed km/h Dir Deg
---------------------------------------------------------------------------------------------
      08/03/11, 1:00      77.2      24.1             96            3.8            6.1   300.5
      08/03/11, 2:00      76.5      23.7             96            4.5            7.3   301.7
      08/03/11, 3:00      75.6      23.2             98            3.6            5.9   306.9
      08/03/11, 4:00      74.6      22.6             99            2.8            4.5   309.7
      08/03/11, 5:00      73.8      22.2            100            2.5            4.0   310.4
      08/03/11, 6:00      73.0      21.8            100            2.3            3.7   298.4
      08/03/11, 7:00      72.4      21.5            100            2.6            4.1   306.7
      08/03/11, 8:00      73.9      22.3             99            4.2            6.8   319.1
      08/03/11, 9:00      75.9      23.4             90            5.4            8.7     331
     08/03/11, 10:00      78.0      24.6             83            6.1            9.9   356.5
     08/03/11, 11:00      80.4      25.9             80            5.3            8.6   359.9
     08/03/11, 12:00      82.9      27.3             78            4.5            7.3   359.3
     08/03/11, 13:00      85.5      28.7             73            4.5            7.3   329.4
     08/03/11, 14:00      87.0      29.5             68            4.7            7.6     335
     08/03/11, 15:00      87.6      29.9             64            4.5            7.2   336.6
     08/03/11, 16:00      86.9      29.5             65            4.8            7.7   1.517
     08/03/11, 17:00      87.3      29.7             61            4.1            6.6   356.2
     08/03/11, 18:00      86.2      29.1             62            4.1            6.5   355.9
     08/03/11, 19:00      85.2      28.5             62            4.3            6.9   1.776
     08/03/11, 20:00      82.5      27.0             71            3.2            5.2     .93
     08/03/11, 21:00      78.1      24.6             76            2.3            3.7   350.8
     08/03/11, 22:00      74.8      22.8             84            2.5            4.0    3.38
     08/03/11, 23:00      72.7      21.6             87            1.4            2.3   358.8
      08/04/11, 0:00      72.4      21.4             85            2.6            4.1   336.5
      08/04/11, 1:00      70.8      20.6             88            3.3            5.3   338.7
      08/04/11, 2:00      70.4      20.3             90            2.0            3.2    4.95
      08/04/11, 3:00      68.8      19.4             93            2.1            3.4   333.4
      08/04/11, 4:00      67.9      19.0             94            2.3            3.7   350.4
      08/04/11, 5:00      68.6      19.4             91            1.7            2.8   355.5
      08/04/11, 6:00      68.4      19.2             94            1.3            2.1   331.8
      08/04/11, 7:00      68.9      19.5             94            1.7            2.7   358.5
      08/04/11, 8:00      70.4      20.4             89            2.0            3.3   36.16
      08/04/11, 9:00      72.8      21.7             89            2.8            4.5   58.01
     08/04/11, 10:00      75.4      23.1             84            3.2            5.2    80.3
     08/04/11, 11:00      76.9      24.0             87            3.5            5.6    95.6
     08/04/11, 12:00      77.4      24.2             91            2.2            3.6    63.1
     08/04/11, 13:00      74.7      22.7            100            4.5            7.2   340.5
     08/04/11, 14:00      74.7      22.7            100            4.4            7.0    .296
     08/04/11, 15:00      75.9      23.4            100            5.7            9.1   4.868
     08/04/11, 16:00      78.7      25.0             98            6.3           10.1   18.88
     08/04/11, 17:00      78.9      25.0             92            5.3            8.6   28.39
     08/04/11, 18:00      78.8      25.0             93            4.5            7.2   40.95
     08/04/11, 19:00      78.8      25.0             93            3.3            5.2   47.06
     08/04/11, 20:00      78.1      24.6             95            2.4            3.9   69.86
     08/04/11, 21:00      77.4      24.2             96            2.8            4.5   29.88
     08/04/11, 22:00      76.5      23.7             96            2.9            4.7    62.8
     08/04/11, 23:00      75.7      23.3             95            2.8            4.6   68.87
      08/05/11, 0:00      75.1      23.0             94            3.0            4.8   104.7


  

                                                                                             
           Date,Time       Air       Air     % Relative           Wind           Wind    Wind
                        Temp F    Temp C       Humidity      Speed mph     Speed km/h Dir Deg
---------------------------------------------------------------------------------------------
      08/05/11, 1:00      74.8      22.8             93            3.3            5.3     113
      08/05/11, 2:00      74.4      22.6             92            3.3            5.3   106.4
      08/05/11, 3:00      74.4      22.6             91            3.0            4.9   100.3
      08/05/11, 4:00      74.0      22.4             91            3.9            6.2      93
      08/05/11, 5:00      73.5      22.1             92            3.5            5.7   105.1
      08/05/11, 6:00      72.3      21.4             95            2.2            3.5      72
      08/05/11, 7:00      72.0      21.2             95            3.1            5.0    97.7
      08/05/11, 8:00      73.3      22.0             93            3.7            6.0    99.7
      08/05/11, 9:00      76.4      23.7             87            5.5            8.8   111.7
     08/05/11, 10:00      78.0      24.5             85            6.5           10.5   122.4
     08/05/11, 11:00      80.0      25.7             85            5.0            8.0   117.5
     08/05/11, 12:00      81.5      26.5             84            5.0            8.1   108.6
     08/05/11, 13:00      82.8      27.2             84            5.8            9.3    94.9
     08/05/11, 14:00      82.5      27.1             82            6.7           10.8      86
     08/05/11, 15:00      81.3      26.4             89            5.6            9.0    77.5
     08/05/11, 16:00      80.9      26.2             89            3.8            6.2    98.5
     08/05/11, 17:00      79.2      25.2             91            3.2            5.1    70.8
     08/05/11, 18:00      79.0      25.1             89            4.6            7.4   68.46
     08/05/11, 19:00      78.7      25.0             90            4.1            6.6    75.9
     08/05/11, 20:00      77.0      24.0             92            3.6            5.7    82.1
     08/05/11, 21:00      76.0      23.4             95            3.6            5.7    71.6
     08/05/11, 22:00      75.0      22.9             98            2.8            4.5    76.3
     08/05/11, 23:00      74.3      22.5             99            2.8            4.5    86.5
      08/06/11, 0:00      73.8      22.2             99            2.3            3.7    82.1
      08/06/11, 1:00      73.7      22.2             98            2.4            3.8    81.3
      08/06/11, 2:00      73.5      22.1             99            2.5            4.0    87.6
      08/06/11, 3:00      72.9      21.8             99            2.0            3.2   100.6
      08/06/11, 4:00      73.0      21.8             99            2.5            4.1   47.81
      08/06/11, 5:00      72.1      21.3             99            2.7            4.3   43.97
      08/06/11, 6:00      71.8      21.1             99            3.4            5.5   30.01
      08/06/11, 7:00      71.6      21.0             98            3.3            5.3    62.7
      08/06/11, 8:00      72.6      21.5             97            2.8            4.5   46.63
      08/06/11, 9:00      74.4      22.6             95            2.9            4.7    81.3
     08/06/11, 10:00      75.9      23.4             92            2.1            3.4     138
     08/06/11, 11:00      77.9      24.5             90            3.5            5.6   138.1
     08/06/11, 12:00      80.0      25.6             87            2.1            3.4   130.4
     08/06/11, 13:00      81.6      26.5             86            3.6            5.8   206.4
     08/06/11, 14:00      83.7      27.7             84            3.3            5.4   228.3
     08/06/11, 15:00      85.5      28.7             80            2.5            4.0   238.5
     08/06/11, 16:00      86.4      29.2             78            2.5            4.0   259.6
     08/06/11, 17:00      86.1      29.1             78            3.6            5.8   299.2
     08/06/11, 18:00      86.8      29.5             76            1.9            3.1   297.1
     08/06/11, 19:00      86.0      29.0             79            1.9            3.1   281.1
     08/06/11, 20:00      83.9      27.9             87            1.7            2.7   293.3
     08/06/11, 21:00      80.3      25.9             93            0.6            1.0   282.5
     08/06/11, 22:00      78.4      24.8             96            0.4            0.7   282.8
     08/06/11, 23:00      77.1      24.1             99            0.7            1.1   24.71
      08/07/11, 0:00      75.6      23.2            100            1.7            2.7     211


  

                                                                                             
           Date,Time       Air       Air     % Relative           Wind           Wind    Wind
                        Temp F    Temp C       Humidity      Speed mph     Speed km/h Dir Deg
---------------------------------------------------------------------------------------------
      08/07/11, 1:00      73.2      21.9            100            8.5           13.7   179.2
      08/07/11, 2:00      68.9      19.5             96            5.5            8.8   193.3
      08/07/11, 3:00      67.5      18.7            100            3.1            5.0   264.4
      08/07/11, 4:00      66.3      18.0            100            2.0            3.2   12.52
      08/07/11, 5:00      67.4      18.6            100            3.1            5.0   293.9
      08/07/11, 6:00      67.5      18.7            100            2.6            4.1     302
      08/07/11, 7:00      67.2      18.6            100            1.1            1.9   258.8
      08/07/11, 8:00      69.7      20.0             99            1.2            1.9   225.5
      08/07/11, 9:00      73.5      22.0             92            3.2            5.1     265
     08/07/11, 10:00      76.5      23.8             85            4.2            6.7   273.4
     08/07/11, 11:00      79.6      25.4             83            3.6            5.7   256.7
     08/07/11, 12:00      82.1      26.8             79            4.0            6.5   273.3
     08/07/11, 13:00      84.1      27.9             76            3.9            6.4   275.9
     08/07/11, 14:00      86.0      29.0             74            4.9            7.9   275.4
     08/07/11, 15:00      86.3      29.1             69            5.2            8.4   280.5
     08/07/11, 16:00      86.3      29.2             67            4.7            7.6   265.4
     08/07/11, 17:00      86.8      29.4             66            4.0            6.5   268.4
     08/07/11, 18:00      86.7      29.4             65            3.8            6.2   278.3
     08/07/11, 19:00      86.2      29.1             66            2.5            4.0   273.6
     08/07/11, 20:00      83.6      27.6             76            2.1            3.4   304.1
     08/07/11, 21:00      79.5      25.4             82            0.7            1.1   281.3
     08/07/11, 22:00      78.3      24.7             86            1.6            2.6   311.7
     08/07/11, 23:00      74.5      22.6             97            2.0            3.2     312
      08/08/11, 0:00      73.6      22.1             97            1.6            2.6   297.1
      08/08/11, 1:00      72.7      21.6             96            3.0            4.9   43.21
      08/08/11, 2:00      71.9      21.1             96            2.9            4.6   67.63
      08/08/11, 3:00      71.4      20.9             98            1.8            2.9      98
      08/08/11, 4:00      70.9      20.6            100            2.8            4.6   312.4
      08/08/11, 5:00      68.0      19.0            100            2.8            4.5   186.9
      08/08/11, 6:00      66.9      18.4            100            1.8            3.0   152.2
      08/08/11, 7:00      67.4      18.7            100            2.5            4.0   152.4
      08/08/11, 8:00      69.1      19.6            100            1.8            2.8   135.5
      08/08/11, 9:00      71.8      21.1            100            2.8            4.5     192
     08/08/11, 10:00      73.1      21.9             98            3.7            6.0   303.8
     08/08/11, 11:00      74.3      22.5             95            2.3            3.6   280.4
     08/08/11, 12:00      76.6      23.8             92            3.0            4.7   242.4
     08/08/11, 13:00      79.2      25.2             87            4.3            6.9   237.5
     08/08/11, 14:00      80.2      25.8             77            5.5            8.8   255.7
     08/08/11, 15:00      80.1      25.7             73            6.8           10.9   263.8
     08/08/11, 16:00      80.0      25.7             73            8.1           13.0   292.1
     08/08/11, 17:00      80.7      26.0             73            6.6           10.7   300.9
     08/08/11, 18:00      80.8      26.1             74            5.5            8.9   302.4
     08/08/11, 19:00      79.9      25.6             78            3.9            6.3   325.5
     08/08/11, 20:00      78.9      25.1             85            1.4            2.2   310.2
     08/08/11, 21:00      75.1      22.9             92            1.1            1.7   265.2
     08/08/11, 22:00      73.5      22.0             94            0.8            1.2   249.1
     08/08/11, 23:00      72.2      21.4             96            1.0            1.6   221.9
      08/09/11, 0:00      70.6      20.4             98            1.3            2.2   218.7


  

                                                                                             
           Date,Time       Air       Air     % Relative           Wind           Wind    Wind
                        Temp F    Temp C       Humidity      Speed mph     Speed km/h Dir Deg
---------------------------------------------------------------------------------------------
      08/09/11, 1:00      69.1      19.6            100            1.3            2.1   191.9
      08/09/11, 2:00      68.7      19.4            100            1.4            2.3   200.4
      08/09/11, 3:00      68.6      19.3            100            3.2            5.2   187.5
      08/09/11, 4:00      68.4      19.2            100            3.1            5.0   194.3
      08/09/11, 5:00      68.1      19.1            100            2.1            3.3   241.3
      08/09/11, 6:00      67.0      18.4            100            1.8            2.9   261.4
      08/09/11, 7:00      66.3      18.1            100            2.4            3.9   272.5
      08/09/11, 8:00      68.1      19.1             97            1.8            2.9     252
      08/09/11, 9:00      71.3      20.8             91            3.4            5.5   260.7
     08/09/11, 10:00      73.6      22.1             83            5.8            9.3   292.3
     08/09/11, 11:00      75.9      23.4             68            6.1            9.8   280.3
     08/09/11, 12:00      77.4      24.2             62            6.6           10.6   273.3
     08/09/11, 13:00      78.7      25.0             61            6.1            9.8   270.4
     08/09/11, 14:00      79.6      25.4             60            7.0           11.3   275.7
     08/09/11, 15:00      80.3      25.8             58            6.8           11.0   270.9
     08/09/11, 16:00      81.3      26.4             58            7.5           12.1   274.9
     08/09/11, 17:00      81.1      26.3             58            7.1           11.4   276.6
     08/09/11, 18:00      80.0      25.6             57            7.3           11.7   286.1
     08/09/11, 19:00      78.9      25.0             61            6.2           10.0   280.9
     08/09/11, 20:00      75.7      23.3             70            5.0            8.0   299.6
     08/09/11, 21:00      72.1      21.3             79            4.2            6.8   297.7
     08/09/11, 22:00      68.7      19.4             86            3.4            5.4   310.1
     08/09/11, 23:00      66.1      17.9             88            2.7            4.3   298.4
      08/10/11, 0:00      65.1      17.4             87            4.5            7.2   287.2
      08/10/11, 1:00      63.1      16.3             92            3.6            5.8   305.3
      08/10/11, 2:00      60.7      15.0             95            1.6            2.5   300.3
      08/10/11, 3:00      58.8      13.9             99            1.1            1.9     249
      08/10/11, 4:00      59.3      14.2             98            3.2            5.2   285.5
      08/10/11, 5:00      58.3      13.6             97            2.5            4.0   301.1
      08/10/11, 6:00      57.6      13.2             98            3.2            5.2   301.4
      08/10/11, 7:00      57.7      13.3             98            1.9            3.1   272.1
      08/10/11, 8:00      58.7      13.8             99            1.1            1.8   270.4
      08/10/11, 9:00      62.5      16.0             95            3.0            4.8   320.1
     08/10/11, 10:00      67.3      18.6             86            3.4            5.4   339.7
     08/10/11, 11:00      71.9      21.2             78            2.4            3.9   322.8
     08/10/11, 12:00      74.7      22.7             63            3.6            5.9   313.2
     08/10/11, 13:00      75.9      23.4             56            4.3            7.0   311.2
     08/10/11, 14:00      76.7      23.8             58            4.4            7.1   303.8
     08/10/11, 15:00      77.3      24.2             57            4.7            7.6   318.9
     08/10/11, 16:00      77.3      24.2             55            5.5            8.9   323.8
     08/10/11, 17:00      76.8      23.9             53            5.2            8.3   316.5
     08/10/11, 18:00      77.2      24.1             51            4.8            7.7   316.8
     08/10/11, 19:00      76.4      23.6             56            3.4            5.5     312
     08/10/11, 20:00      73.8      22.2             67            1.6            2.5     293
     08/10/11, 21:00      69.9      20.1             73            1.3            2.1   252.9
     08/10/11, 22:00      67.5      18.7             75            1.0            1.6   271.6
     08/10/11, 23:00      65.4      17.5             84            0.5            0.7     262
      08/11/11, 0:00      63.6      16.5             91            0.6            0.9   274.1


  

                                                                                             
           Date,Time       Air       Air     % Relative           Wind           Wind    Wind
                        Temp F    Temp C       Humidity      Speed mph     Speed km/h Dir Deg
---------------------------------------------------------------------------------------------
      08/11/11, 1:00      62.1      15.7             97            0.6            0.9   320.3
      08/11/11, 2:00      60.5      14.8             97            0.1            0.2   321.1
      08/11/11, 3:00      59.5      14.3            100            1.1            1.7   301.9
      08/11/11, 4:00      58.6      13.8            100            0.4            0.7   322.4
      08/11/11, 5:00      57.5      13.2            100            0.4            0.6   262.5
      08/11/11, 6:00      56.9      12.8            100            0.2            0.3   341.8
      08/11/11, 7:00      56.9      12.8            100            0.1            0.2   299.3
      08/11/11, 8:00      62.0      15.6            100            0.1            0.2   336.4
      08/11/11, 9:00      67.2      18.5             91            1.5            2.4     324
     08/11/11, 10:00      71.8      21.1             79            2.0            3.2   273.5
     08/11/11, 11:00      75.0      22.9             71            2.5            4.0   236.4
     08/11/11, 12:00      77.3      24.2             61            2.3            3.8   194.4
     08/11/11, 13:00      78.5      24.8             58            3.4            5.5     176
     08/11/11, 14:00      79.7      25.5             51            4.1            6.5   187.3
     08/11/11, 15:00      80.4      25.9             51            3.3            5.3   183.7
     08/11/11, 16:00      79.8      25.6             54            3.8            6.1   167.6
     08/11/11, 17:00      80.7      26.1             51            3.4            5.5   171.5
     08/11/11, 18:00      81.1      26.3             52            1.9            3.1   217.5
     08/11/11, 19:00      80.5      26.0             55            1.3            2.2   170.7
     08/11/11, 20:00      77.2      24.1             63            1.5            2.4    85.1
     08/11/11, 21:00      73.0      21.8             70            1.2            2.0   119.9
     08/11/11, 22:00      70.2      20.2             76            2.1            3.3    89.4
     08/11/11, 23:00      67.7      18.8             76            2.4            3.9    97.8
      08/12/11, 0:00      66.0      17.9             85            2.4            3.9   121.5
      08/12/11, 1:00      64.9      17.3             85            2.8            4.6   118.5
      08/12/11, 2:00      63.7      16.6             90            1.4            2.2     255
      08/12/11, 3:00      62.0      15.6             98            2.1            3.3   156.8
      08/12/11, 4:00      63.2      16.4             96            7.8           12.5   144.8
      08/12/11, 5:00      64.4      17.0             87            7.2           11.6   151.2
      08/12/11, 6:00      64.7      17.2             86            5.4            8.7   149.1
      08/12/11, 7:00      64.0      16.8             88            4.8            7.7   138.9
      08/12/11, 8:00      64.8      17.2             88            4.8            7.7   125.1
      08/12/11, 9:00      68.0      19.0             86            4.2            6.8   150.7
     08/12/11, 10:00      71.3      20.8             85            6.6           10.6   163.3
     08/12/11, 11:00      73.8      22.3             80            7.9           12.8   182.7
     08/12/11, 12:00      75.6      23.2             74            6.8           11.0   189.3
     08/12/11, 13:00      77.6      24.3             71            6.2            9.9   216.4
     08/12/11, 14:00      79.8      25.5             68            3.7            5.9   244.6
     08/12/11, 15:00      80.3      25.9             67            4.9            7.9   190.9
     08/12/11, 16:00      80.8      26.1             66            8.3           13.4   168.7
     08/12/11, 17:00      81.4      26.4             64            6.7           10.8     186
     08/12/11, 18:00      81.5      26.5             61            5.1            8.2   186.4
     08/12/11, 19:00      80.0      25.7             67            5.2            8.3   180.7
     08/12/11, 20:00      77.3      24.2             79            3.2            5.2   187.9
     08/12/11, 21:00      73.6      22.1             86            1.9            3.1   188.6
     08/12/11, 22:00      71.2      20.8             91            1.6            2.6   193.6
     08/12/11, 23:00      69.8      20.0             92            1.5            2.5   189.3
      08/13/11, 0:00      69.0      19.6             93            0.8            1.3   193.5


  

                                                                                             
           Date,Time       Air       Air     % Relative           Wind           Wind    Wind
                        Temp F    Temp C       Humidity      Speed mph     Speed km/h Dir Deg
---------------------------------------------------------------------------------------------
      08/13/11, 1:00      67.9      18.9             96            1.4            2.3   198.7
      08/13/11, 2:00      67.3      18.6             97            2.5            4.0   187.5
      08/13/11, 3:00      66.3      18.1             99            1.3            2.2   206.8
      08/13/11, 4:00      66.4      18.1             99            1.4            2.3   199.8
      08/13/11, 5:00      65.8      17.8             99            1.1            1.8   198.4
      08/13/11, 6:00      65.8      17.8             99            1.7            2.7   214.1
      08/13/11, 7:00      66.3      18.0             98            1.4            2.2   229.1
      08/13/11, 8:00      68.4      19.2             97            1.9            3.1   257.7
      08/13/11, 9:00      71.2      20.8             92            6.4           10.2   294.7
     08/13/11, 10:00      72.9      21.7             84            7.0           11.2   295.4
     08/13/11, 11:00      71.8      21.1             75            7.3           11.7     287
     08/13/11, 12:00      74.2      22.4             74            9.1           14.6     288
     08/13/11, 13:00      75.4      23.1             67            8.0           12.9   291.2
     08/13/11, 14:00      74.2      22.4             69            9.4           15.1   295.3
     08/13/11, 15:00      75.7      23.3             66            8.6           13.8   295.8
     08/13/11, 16:00      76.0      23.4             66            8.9           14.3   294.5
     08/13/11, 17:00      76.2      23.5             66            9.1           14.6   295.1
     08/13/11, 18:00      76.8      23.9             64            8.1           13.0   305.8
     08/13/11, 19:00      76.3      23.6             62            7.1           11.5   302.6
     08/13/11, 20:00      74.0      22.4             73            4.7            7.6   301.2
     08/13/11, 21:00      70.6      20.4             81            4.0            6.4   295.6
     08/13/11, 22:00      68.1      19.1             87            3.9            6.3   295.4
     08/13/11, 23:00      66.0      17.9             93            2.9            4.6   303.7
      08/14/11, 0:00      65.1      17.4             95            3.2            5.2   292.5
      08/14/11, 1:00      64.0      16.8             97            3.3            5.3   294.5
      08/14/11, 2:00      62.7      16.1             99            3.0            4.8     301
      08/14/11, 3:00      62.3      15.8             99            2.4            3.9   304.7
      08/14/11, 4:00      61.8      15.5             99            2.9            4.7   305.2
      08/14/11, 5:00      61.0      15.1            100            2.9            4.7   315.4
      08/14/11, 6:00      60.2      14.6            100            2.6            4.2   317.9
      08/14/11, 7:00      59.7      14.4            100            3.4            5.4   320.4
      08/14/11, 8:00      62.1      15.7            100            3.0            4.8   321.5
      08/14/11, 9:00      66.1      17.9             96            3.5            5.7   334.5
     08/14/11, 10:00      69.9      20.1             90            3.6            5.9   332.2
     08/14/11, 11:00      73.3      22.0             85            4.9            7.9   322.9
     08/14/11, 12:00      76.5      23.7             75            5.2            8.3   336.5
     08/14/11, 13:00      78.5      24.8             67            6.1            9.9   13.37
     08/14/11, 14:00      79.9      25.6             64            5.0            8.0   10.29
     08/14/11, 15:00      81.4      26.4             62            4.4            7.1    25.5
     08/14/11, 16:00      82.1      26.8             59            3.7            5.9   26.16
     08/14/11, 17:00      82.3      26.9             59            1.9            3.1   31.14
     08/14/11, 18:00      81.8      26.6             63            0.7            1.2   341.7
     08/14/11, 19:00      81.8      26.6             61            1.4            2.3   4.045
     08/14/11, 20:00      77.9      24.5             67            1.0            1.5   16.69
     08/14/11, 21:00      74.3      22.5             78            0.3            0.4   353.6
     08/14/11, 22:00      71.8      21.1             88            0.5            0.8   345.7
     08/14/11, 23:00      68.6      19.4             96            0.5            0.8    .642
      08/15/11, 0:00      66.9      18.4             99            1.2            1.9    81.3


  

                                                                                             
           Date,Time       Air       Air     % Relative           Wind           Wind    Wind
                        Temp F    Temp C       Humidity      Speed mph     Speed km/h Dir Deg
---------------------------------------------------------------------------------------------
      08/15/11, 1:00      66.1      18.0             93            2.4            3.9    85.4
      08/15/11, 2:00      65.8      17.8             88            2.1            3.3   109.5
      08/15/11, 3:00      64.8      17.3             89            2.9            4.6     115
      08/15/11, 4:00      62.6      16.0             92            1.9            3.1   146.7
      08/15/11, 5:00      61.7      15.5             96            1.6            2.5   135.9
      08/15/11, 6:00      60.7      15.0             98            1.6            2.5     136
      08/15/11, 7:00      59.7      14.4            100            1.4            2.2   133.7
      08/15/11, 8:00      63.0      16.2            100            1.9            3.0   104.2
      08/15/11, 9:00      67.4      18.6             93            4.7            7.5   146.6
     08/15/11, 10:00      73.3      22.0             83            5.7            9.2   139.9
     08/15/11, 11:00      75.9      23.4             72            6.8           10.9   131.6
     08/15/11, 12:00      78.6      24.9             66            7.9           12.7   135.9
     08/15/11, 13:00      80.1      25.7             63            8.6           13.8   143.5
     08/15/11, 14:00      81.6      26.5             60            7.6           12.3   140.3
     08/15/11, 15:00      82.6      27.1             59            6.3           10.1   135.8
     08/15/11, 16:00      83.6      27.6             57            6.0            9.7   126.6
     08/15/11, 17:00      82.7      27.2             59            5.7            9.2   131.5
     08/15/11, 18:00      83.2      27.4             57            5.5            8.8     122
     08/15/11, 19:00      82.0      26.8             60            4.8            7.8   106.1
     08/15/11, 20:00      78.7      24.9             69            3.6            5.8    99.8
     08/15/11, 21:00      74.0      22.4             72            3.7            5.9   100.1
     08/15/11, 22:00      70.8      20.6             78            3.8            6.1   124.2
     08/15/11, 23:00      69.2      19.6             78            3.7            6.0   119.1
      08/16/11, 0:00      67.2      18.5             84            2.5            4.0   142.9
      08/16/11, 1:00      65.8      17.8             89            2.3            3.8     129
      08/16/11, 2:00      65.1      17.4             90            2.6            4.2    96.6
      08/16/11, 3:00      64.4      17.0             92            2.6            4.3    96.7
      08/16/11, 4:00      63.7      16.6             93            3.5            5.7   115.3
      08/16/11, 5:00      62.6      16.0             94            3.9            6.3   107.5
      08/16/11, 6:00      62.0      15.7             97            3.3            5.4   126.5
      08/16/11, 7:00      62.3      15.8             97            3.0            4.8   145.5
      08/16/11, 8:00      63.3      16.4             98            5.4            8.7   131.8
      08/16/11, 9:00      64.7      17.1             99            3.9            6.3   144.1
     08/16/11, 10:00      67.2      18.6             98            9.9           15.9   154.7
     08/16/11, 11:00      68.8      19.5             92           10.0           16.0   135.1
     08/16/11, 12:00      70.8      20.5             88            8.2           13.1   143.1
     08/16/11, 13:00      73.2      21.9             84            9.7           15.6   133.9
     08/16/11, 14:00      75.3      23.1             77            8.7           14.0   139.9
     08/16/11, 15:00      77.4      24.2             72            6.7           10.8   124.1
     08/16/11, 16:00      77.0      24.0             76            5.4            8.7   122.9
     08/16/11, 17:00      78.1      24.6             75            6.5           10.4   121.8
     08/16/11, 18:00      78.1      24.6             74            7.2           11.6   124.1
     08/16/11, 19:00      76.9      23.9             77            6.1            9.8   115.5
     08/16/11, 20:00      74.6      22.7             83            3.5            5.6   122.3
     08/16/11, 21:00      72.3      21.4             90            2.8            4.5   126.7
     08/16/11, 22:00      70.6      20.4             93            2.5            4.1   148.5
     08/16/11, 23:00      71.2      20.8             93            4.0            6.4     133
      08/17/11, 0:00      70.7      20.5             95            4.1            6.6   137.6


  

                                                                                             
           Date,Time       Air       Air     % Relative           Wind           Wind    Wind
                        Temp F    Temp C       Humidity      Speed mph     Speed km/h Dir Deg
---------------------------------------------------------------------------------------------
      08/17/11, 1:00      70.0      20.1             96            2.0            3.3   155.9
      08/17/11, 2:00      69.8      20.0             98            1.7            2.7   161.2
      08/17/11, 3:00      69.4      19.8             98            2.0            3.2   163.4
      08/17/11, 4:00      68.5      19.3            100            1.1            1.8   167.5
      08/17/11, 5:00      68.1      19.1            100            0.7            1.2   296.8
      08/17/11, 6:00      68.4      19.2            100            0.9            1.4   317.1
      08/17/11, 7:00      68.9      19.5            100            1.0            1.7   315.7
      08/17/11, 8:00      70.4      20.4            100            0.5            0.8   245.4
      08/17/11, 9:00      73.9      22.3             98            3.6            5.8   322.8
     08/17/11, 10:00      77.4      24.2             91            3.7            6.0   343.8
     08/17/11, 11:00      79.4      25.3             85            3.6            5.7   354.6
     08/17/11, 12:00      81.4      26.4             82            4.0            6.5     334
     08/17/11, 13:00      83.2      27.4             76            4.1            6.6   347.3
     08/17/11, 14:00      84.5      28.1             71            4.6            7.3     331
     08/17/11, 15:00      85.6      28.8             64            4.4            7.1   322.7
     08/17/11, 16:00      85.8      28.9             62            4.5            7.2   317.4
     08/17/11, 17:00      85.0      28.5             60            4.4            7.0   309.7
     08/17/11, 18:00      84.4      28.1             57            4.2            6.7   315.1
     08/17/11, 19:00      82.8      27.2             59            3.1            5.0     324
     08/17/11, 20:00      79.3      25.3             67            1.8            2.8   305.7
     08/17/11, 21:00      75.1      22.9             75            1.8            3.0   313.2
     08/17/11, 22:00      71.7      21.1             83            1.5            2.5   304.8
     08/17/11, 23:00      70.1      20.2             83            1.6            2.6   296.2
      08/18/11, 0:00      68.0      19.0             91            1.6            2.6   308.2
      08/18/11, 1:00      66.4      18.1             93            2.5            4.0   313.6
      08/18/11, 2:00      64.6      17.1             95            2.6            4.2   332.1
      08/18/11, 3:00      62.8      16.1             99            1.8            2.9   336.9
      08/18/11, 4:00      63.7      16.6             98            2.0            3.1   296.4
      08/18/11, 5:00      62.7      16.1             97            2.9            4.7   299.7
      08/18/11, 6:00      62.6      16.0             98            1.9            3.1   51.22
      08/18/11, 7:00      63.0      16.2             97            2.1            3.4   115.2
      08/18/11, 8:00      64.6      17.1             91            3.3            5.4   101.3
      08/18/11, 9:00      67.5      18.7             88            2.5            4.1   140.1
     08/18/11, 10:00      72.2      21.3             78            4.9            7.9   183.8
     08/18/11, 11:00      75.5      23.2             72            5.1            8.3   164.8
     08/18/11, 12:00      78.6      24.9             63            6.3           10.2   148.2
     08/18/11, 13:00      81.5      26.5             62            5.2            8.3     159
     08/18/11, 14:00      83.8      27.8             59            4.6            7.4   160.6
     08/18/11, 15:00      84.9      28.4             55            5.9            9.5   161.6
     08/18/11, 16:00      85.0      28.5             57            4.5            7.3   165.7
     08/18/11, 17:00      84.2      28.0             66            1.1            1.7   201.6
     08/18/11, 18:00      80.2      25.8             78            2.3            3.7   196.9
     08/18/11, 19:00      77.5      24.3             82            8.4           13.5   178.8
     08/18/11, 20:00      78.0      24.5             73            3.6            5.7   261.6
     08/18/11, 21:00      74.8      22.8             76            1.8            2.9   240.9
     08/18/11, 22:00      73.2      21.9             88           10.9           17.6   181.6
     08/18/11, 23:00      72.8      21.6             84            7.9           12.7   218.3
      08/19/11, 0:00      71.3      20.8             84            2.4            3.9   1.742


  

                                                                                             
           Date,Time       Air       Air     % Relative           Wind           Wind    Wind
                        Temp F    Temp C       Humidity      Speed mph     Speed km/h Dir Deg
---------------------------------------------------------------------------------------------
      08/19/11, 1:00      69.5      19.9             89            0.9            1.5      77
      08/19/11, 2:00      68.0      19.0             95            1.4            2.3   29.68
      08/19/11, 3:00      66.4      18.1             96            1.7            2.8   340.3
      08/19/11, 4:00      66.4      18.1             96            0.9            1.4    58.9
      08/19/11, 5:00      66.9      18.4             90            1.2            1.9   146.2
      08/19/11, 6:00      64.6      17.1             97            1.4            2.3   249.4
      08/19/11, 7:00      63.9      16.7             96            2.0            3.2   286.8
      08/19/11, 8:00      65.2      17.4             96            1.8            2.9   340.6
      08/19/11, 9:00      71.5      20.9             91            1.7            2.8   325.9
     08/19/11, 10:00      77.8      24.4             79            1.8            2.9   248.5
     08/19/11, 11:00      79.9      25.6             66            2.8            4.5     258
     08/19/11, 12:00      81.9      26.7             60            2.0            3.2   230.9
     08/19/11, 13:00      83.3      27.5             59            2.9            4.7   120.6
     08/19/11, 14:00      84.7      28.3             59            2.5            4.1    49.3
     08/19/11, 15:00      86.5      29.3             57            2.8            4.5    94.7
     08/19/11, 16:00      87.0      29.5             58            2.6            4.2   209.8
     08/19/11, 17:00      86.7      29.4             59            3.0            4.9     156
     08/19/11, 18:00      86.4      29.3             59            2.4            3.9   155.2
     08/19/11, 19:00      84.8      28.3             65            1.6            2.5   183.6
     08/19/11, 20:00      80.7      26.1             74            1.8            3.0   254.5
     08/19/11, 21:00      76.6      23.8             86            1.9            3.0   65.25
     08/19/11, 22:00      75.1      22.9             89            1.9            3.0   302.2
     08/19/11, 23:00      72.7      21.6             96            2.3            3.7   275.8
      08/20/11, 0:00      71.7      21.0             97            2.4            3.8   325.3
      08/20/11, 1:00      70.5      20.4             98            2.9            4.6   321.4
      08/20/11, 2:00      71.3      20.8             95            1.7            2.7   308.7
      08/20/11, 3:00      70.5      20.4             95            4.7            7.5     333
      08/20/11, 4:00      70.1      20.2             93            3.5            5.7   355.1
      08/20/11, 5:00      69.8      20.0             89            4.6            7.4   351.3
      08/20/11, 6:00      68.8      19.4             86            3.8            6.1   356.5
      08/20/11, 7:00      67.0      18.4             90            3.2            5.2   323.1
      08/20/11, 8:00      66.4      18.1             89            3.6            5.9   346.3
      08/20/11, 9:00      67.8      18.9             83            5.9            9.6   14.55
     08/20/11, 10:00      71.5      20.9             76            7.0           11.3   36.82
     08/20/11, 11:00      73.7      22.1             75            5.6            9.0    44.4
     08/20/11, 12:00      76.3      23.6             73            4.8            7.7   31.32
     08/20/11, 13:00      79.0      25.1             69            4.6            7.3   19.57
     08/20/11, 14:00      80.8      26.1             69            4.0            6.5   2.325
     08/20/11, 15:00      81.4      26.4             69            3.3            5.4    7.21
     08/20/11, 16:00      81.8      26.7             63            4.2            6.7   359.8
     08/20/11, 17:00      82.7      27.2             60            3.9            6.3   17.39
     08/20/11, 18:00      80.4      25.9             66            4.2            6.7   359.4
     08/20/11, 19:00      78.4      24.8             68            4.5            7.2   358.9
     08/20/11, 20:00      75.9      23.4             76            2.2            3.6   347.5
     08/20/11, 21:00      72.8      21.7             79            3.8            6.1    7.15
     08/20/11, 22:00      70.8      20.6             82            2.7            4.3   357.9
     08/20/11, 23:00      69.4      19.8             86            1.7            2.8     335
      08/21/11, 0:00      68.8      19.4             88            2.2            3.5     1.2


  

                                                                                             
           Date,Time       Air       Air     % Relative           Wind           Wind    Wind
                        Temp F    Temp C       Humidity      Speed mph     Speed km/h Dir Deg
---------------------------------------------------------------------------------------------
      08/21/11, 1:00      68.1      19.1             91            2.7            4.3   358.9
      08/21/11, 2:00      68.1      19.0             92            3.0            4.8   356.4
      08/21/11, 3:00      67.8      18.9             91            2.5            4.1   354.8
      08/21/11, 4:00      67.6      18.8             90            2.4            3.8   351.8
      08/21/11, 5:00      67.5      18.7             93            1.9            3.0   328.5
      08/21/11, 6:00      66.9      18.4             94            2.4            3.9   342.8
      08/21/11, 7:00      66.4      18.1             91            2.6            4.3   351.4
      08/21/11, 8:00      67.7      18.8             90            2.2            3.5   339.2
      08/21/11, 9:00      71.5      21.0             84            1.7            2.8    16.9
     08/21/11, 10:00      74.9      22.8             68            1.8            2.8   20.08
     08/21/11, 11:00      76.2      23.6             62            2.0            3.3   325.4
     08/21/11, 12:00      78.2      24.7             56            2.4            3.8   298.7
     08/21/11, 13:00      79.9      25.6             54            2.8            4.6   303.4
     08/21/11, 14:00      81.2      26.3             51            3.3            5.3   277.9
     08/21/11, 15:00      81.8      26.6             51            3.3            5.3   249.9
     08/21/11, 16:00      82.8      27.2             53            2.9            4.6   261.8
     08/21/11, 17:00      83.1      27.4             50            2.5            4.1     265
     08/21/11, 18:00      82.5      27.1             50            2.6            4.2   282.6
     08/21/11, 19:00      81.3      26.4             55            2.4            3.9   293.4
     08/21/11, 20:00      78.3      24.7             61            0.6            1.0   275.7
     08/21/11, 21:00      74.4      22.5             67            0.3            0.4   241.9
     08/21/11, 22:00      70.9      20.6             89            1.1            1.8   332.8
     08/21/11, 23:00      68.2      19.1             93            0.3            0.5   24.28
      08/22/11, 0:00      68.6      19.3             89            0.7            1.2   181.3
      08/22/11, 1:00      67.0      18.4             89            0.6            1.0   113.1
      08/22/11, 2:00      65.5      17.6             95            1.0            1.6    98.8
      08/22/11, 3:00      64.9      17.3             96            0.7            1.0   123.4
      08/22/11, 4:00      63.4      16.5             97            1.8            3.0    96.4
      08/22/11, 5:00      63.1      16.3             96            1.4            2.3   113.8
      08/22/11, 6:00      63.3      16.4             94            0.8            1.3     136
      08/22/11, 7:00      63.9      16.7             93            0.5            0.9   109.4
      08/22/11, 8:00      65.3      17.5             94            1.1            1.8     108
      08/22/11, 9:00      68.7      19.4             93            3.6            5.8   134.3
     08/22/11, 10:00      72.0      21.2             84            4.4            7.1   139.7
     08/22/11, 11:00      75.7      23.3             82            4.7            7.6     146
     08/22/11, 12:00      78.2      24.7             76            6.3           10.1   147.3
     08/22/11, 13:00      80.4      25.9             73            7.3           11.8   137.7
     08/22/11, 14:00      82.3      26.9             70            7.9           12.7   144.4
     08/22/11, 15:00      83.4      27.6             69            7.7           12.3   137.5
     08/22/11, 16:00      85.1      28.5             65            7.0           11.3   134.5
     08/22/11, 17:00      85.2      28.6             64            7.3           11.8   142.5
     08/22/11, 18:00      83.8      27.8             69            5.8            9.3   150.7
     08/22/11, 19:00      83.0      27.3             69            4.7            7.6   157.9
     08/22/11, 20:00      80.5      25.9             79            3.4            5.4   161.1
     08/22/11, 21:00      76.8      23.9             87            2.7            4.3   148.6
     08/22/11, 22:00      74.4      22.5             91            3.2            5.1   155.9
     08/22/11, 23:00      72.9      21.7             91            3.2            5.1   155.8
      08/23/11, 0:00      72.7      21.6             92            5.1            8.3   151.7


  

                                                                                             
           Date,Time       Air       Air     % Relative           Wind           Wind    Wind
                        Temp F    Temp C       Humidity      Speed mph     Speed km/h Dir Deg
---------------------------------------------------------------------------------------------
      08/23/11, 1:00      72.2      21.3             96            4.2            6.8   137.1
      08/23/11, 2:00      71.6      21.0             97            4.8            7.7   147.4
      08/23/11, 3:00      71.7      21.0             98            5.4            8.6   144.2
      08/23/11, 4:00      72.0      21.2             98            6.0            9.6   150.2
      08/23/11, 5:00      72.6      21.5             98            7.7           12.4     159
      08/23/11, 6:00      72.4      21.4            100            6.1            9.8   161.2
      08/23/11, 7:00      72.3      21.4            100            3.7            5.9   356.4
      08/23/11, 8:00      73.1      21.8            100            3.5            5.6    99.7
      08/23/11, 9:00      75.6      23.2             96            7.0           11.3   129.6
     08/23/11, 10:00      78.2      24.7             91           10.0           16.1   149.1
     08/23/11, 11:00      82.5      27.0             83            8.7           14.0     164
     08/23/11, 12:00      85.7      28.8             74            8.2           13.2   156.2
     08/23/11, 13:00      88.0      30.1             68            8.9           14.3   168.4
     08/23/11, 14:00      89.2      30.8             65            9.7           15.7   175.4
     08/23/11, 15:00      90.2      31.4             64           10.8           17.4   171.1
     08/23/11, 16:00      90.4      31.5             66           10.4           16.7   180.4
     08/23/11, 17:00      88.5      30.4             70            7.6           12.3   190.7
     08/23/11, 18:00      88.2      30.2             72            7.2           11.6   190.5
     08/23/11, 19:00      86.1      29.1             79            6.9           11.1   188.3
     08/23/11, 20:00      84.0      27.9             88            3.3            5.4   188.8
     08/23/11, 21:00      80.3      25.9             94            1.9            3.1   191.6
     08/23/11, 22:00      78.4      24.8             97            3.2            5.1   191.3
     08/23/11, 23:00      77.2      24.1             99            2.5            4.1   185.1
      08/24/11, 0:00      76.0      23.4            100            3.3            5.3   182.5
      08/24/11, 1:00      74.6      22.7            100            3.2            5.1   178.6
      08/24/11, 2:00      73.7      22.2            100            1.7            2.7   185.5
      08/24/11, 3:00      73.4      22.0             99            1.6            2.6   188.6
      08/24/11, 4:00      72.3      21.4            100            0.5            0.9   200.3
      08/24/11, 5:00      71.2      20.8            100            0.9            1.5   292.7
      08/24/11, 6:00      70.0      20.1            100            0.3            0.5   264.9
      08/24/11, 7:00      69.5      19.9            100            2.9            4.7   322.8
      08/24/11, 8:00      71.2      20.8            100            1.3            2.0   184.2
      08/24/11, 9:00      76.9      23.9            100            3.5            5.6   175.1
     08/24/11, 10:00      81.6      26.6             93            4.3            6.9   229.5
     08/24/11, 11:00      85.2      28.6             80            5.2            8.4   304.9
     08/24/11, 12:00      86.9      29.5             66            5.7            9.2   313.2
     08/24/11, 13:00      88.3      30.3             58            6.6           10.6   327.3
     08/24/11, 14:00      89.3      30.8             46            6.9           11.1   316.1
     08/24/11, 15:00      88.9      30.6             42            8.0           12.8   313.2
     08/24/11, 16:00      87.8      30.0             42            8.5           13.7   308.5
     08/24/11, 17:00      86.6      29.3             41            9.5           15.3   303.8
     08/24/11, 18:00      84.8      28.3             41            8.9           14.4   302.5
     08/24/11, 19:00      81.8      26.7             39            7.0           11.3   300.6
     08/24/11, 20:00      77.3      24.2             50            4.8            7.7   299.2
     08/24/11, 21:00      73.3      22.0             57            3.8            6.1   298.8
     08/24/11, 22:00      69.9      20.1             69            3.7            5.9   292.8
     08/24/11, 23:00      66.8      18.3             75            3.7            5.9   298.2
      08/25/11, 0:00      63.8      16.6             75            2.4            3.9   307.5


  

                                                                                             
           Date,Time       Air       Air     % Relative           Wind           Wind    Wind
                        Temp F    Temp C       Humidity      Speed mph     Speed km/h Dir Deg
---------------------------------------------------------------------------------------------
      08/25/11, 1:00      62.3      15.8             81            2.7            4.4   299.4
      08/25/11, 2:00      60.5      14.8             87            3.1            5.0   309.2
      08/25/11, 3:00      59.4      14.2             88            3.4            5.4   301.7
      08/25/11, 4:00      59.4      14.2             87            3.0            4.8   300.3
      08/25/11, 5:00      57.7      13.3             91            1.4            2.2   307.8
      08/25/11, 6:00      57.4      13.1             92            1.6            2.6   290.5
      08/25/11, 7:00      56.4      12.5             94            2.6            4.2   314.5
      08/25/11, 8:00      59.6      14.3             91            2.7            4.3   299.1
      08/25/11, 9:00      63.5      16.5             85            3.9            6.3   309.1
     08/25/11, 10:00      69.4      19.8             79            3.8            6.2     330
     08/25/11, 11:00      75.7      23.3             68            3.2            5.2   1.164
     08/25/11, 12:00      79.8      25.5             57            3.3            5.3    .415
     08/25/11, 13:00      81.7      26.6             50            3.7            5.9   312.7
     08/25/11, 14:00      83.1      27.4             49            3.2            5.2   300.3
     08/25/11, 15:00      84.0      27.9             45            3.6            5.8   323.1
     08/25/11, 16:00      84.8      28.3             43            3.1            5.0   314.2
     08/25/11, 17:00      84.8      28.3             42            3.3            5.4     329
     08/25/11, 18:00      85.2      28.6             44            2.0            3.2   304.8
     08/25/11, 19:00      84.0      27.9             47            1.4            2.3   317.9
     08/25/11, 20:00      79.3      25.3             58            0.8            1.3   320.8
     08/25/11, 21:00      74.2      22.5             75            0.8            1.3   270.1
     08/25/11, 22:00      73.1      21.8             69            0.8            1.3   144.4
     08/25/11, 23:00      71.6      21.0             71            1.2            1.9   134.4
      08/26/11, 0:00      69.4      19.8             82            1.1            1.7   135.8
      08/26/11, 1:00      65.8      17.8             95            0.9            1.4   66.02
      08/26/11, 2:00      64.9      17.3             95            1.5            2.5    92.9
      08/26/11, 3:00      64.2      16.9             93            1.1            1.8   111.5
      08/26/11, 4:00      62.3      15.8             98            0.6            0.9     127
      08/26/11, 5:00      62.2      15.8             97            0.9            1.4     171
      08/26/11, 6:00      61.1      15.2             99            0.3            0.5   183.7
      08/26/11, 7:00      60.5      14.8            100            0.9            1.5   135.6
      08/26/11, 8:00      62.6      16.0             99            0.9            1.5     149
      08/26/11, 9:00      66.8      18.3             99            3.6            5.8     142
     08/26/11, 10:00      72.5      21.5             89            6.0            9.7   150.5
     08/26/11, 11:00      74.8      22.8             78            6.6           10.7   171.2
     08/26/11, 12:00      77.9      24.5             71            5.7            9.2   175.1
     08/26/11, 13:00      79.2      25.2             68            5.1            8.2   178.8
     08/26/11, 14:00      78.2      24.7             71            4.6            7.4   197.8
     08/26/11, 15:00      78.6      24.9             73            3.6            5.9   176.2
     08/26/11, 16:00      79.0      25.1             70            4.4            7.1   197.9
     08/26/11, 17:00      79.5      25.4             73            4.0            6.4   206.9
     08/26/11, 18:00      80.3      25.8             62            3.4            5.5   210.9
     08/26/11, 19:00      79.3      25.3             69            2.5            4.1   218.3
     08/26/11, 20:00      75.2      23.0             83            1.7            2.8   198.1
     08/26/11, 21:00      71.8      21.1             87            1.7            2.7   212.1
     08/26/11, 22:00      70.1      20.1             93            1.1            1.8   267.7
     08/26/11, 23:00      69.2      19.7             95            0.9            1.4   279.5
      08/27/11, 0:00      68.3      19.2             98            1.0            1.7     324


  

                                                                                             
           Date,Time       Air       Air     % Relative           Wind           Wind    Wind
                        Temp F    Temp C       Humidity      Speed mph     Speed km/h Dir Deg
---------------------------------------------------------------------------------------------
      08/27/11, 1:00      67.1      18.5             99            0.7            1.1   289.7
      08/27/11, 2:00      67.1      18.5             99            1.6            2.5     297
      08/27/11, 3:00      67.6      18.8             99            2.7            4.4   307.1
      08/27/11, 4:00      67.3      18.6             99            2.2            3.6     315
      08/27/11, 5:00      66.7      18.3            100            1.7            2.8   299.9
      08/27/11, 6:00      65.5      17.6            100            1.8            2.9   290.2
      08/27/11, 7:00      65.3      17.5            100            2.4            3.9   315.9
      08/27/11, 8:00      65.2      17.4             97            3.2            5.2     317
      08/27/11, 9:00      68.2      19.1             93            3.3            5.3   339.9
     08/27/11, 10:00      72.7      21.6             83            3.4            5.5   333.6
     08/27/11, 11:00      77.4      24.2             70            3.6            5.8   15.94
     08/27/11, 12:00      80.4      25.9             61            3.7            5.9   4.806
     08/27/11, 13:00      82.8      27.2             45            4.7            7.6   10.31
     08/27/11, 14:00      84.1      28.0             42            5.5            8.8   335.8
     08/27/11, 15:00      84.6      28.2             37            6.2           10.0   329.4
     08/27/11, 16:00      84.1      28.0             37            5.8            9.3   331.9
     08/27/11, 17:00      82.2      26.9             41            5.0            8.1   341.4
     08/27/11, 18:00      81.2      26.3             43            5.9            9.4   353.9
     08/27/11, 19:00      77.9      24.5             50            3.4            5.4   346.1
     08/27/11, 20:00      74.2      22.4             61            1.6            2.5   311.7
     08/27/11, 21:00      69.5      19.8             72            1.1            1.7   306.8
     08/27/11, 22:00      67.2      18.5             75            1.6            2.6   310.9
     08/27/11, 23:00      66.3      18.0             80            2.3            3.8   320.2
      08/28/11, 0:00      63.5      16.5             89            2.6            4.2   330.1
      08/28/11, 1:00      63.5      16.5             88            2.6            4.2   329.8
      08/28/11, 2:00      63.1      16.3             87            3.0            4.8   321.3
      08/28/11, 3:00      62.2      15.8             89            3.4            5.4   344.2
      08/28/11, 4:00      61.3      15.3             90            4.0            6.4   344.2
      08/28/11, 5:00      61.0      15.1             91            3.7            6.0   355.1
      08/28/11, 6:00      60.0      14.6             94            2.3            3.7   337.9
      08/28/11, 7:00      58.8      13.9             96            2.9            4.7   335.8
      08/28/11, 8:00      61.0      15.1             94            2.4            3.8   1.414
      08/28/11, 9:00      65.6      17.7             93            2.3            3.7   55.54
     08/28/11, 10:00      69.5      19.8             85            3.7            6.0   132.1
     08/28/11, 11:00      73.9      22.3             81            2.9            4.7   124.1
     08/28/11, 12:00      73.6      22.1             88            2.1            3.4   212.3
     08/28/11, 13:00      72.6      21.5             91            2.1            3.4   266.3
     08/28/11, 14:00      72.9      21.7             85            2.7            4.4   308.7
     08/28/11, 15:00      71.9      21.2             90            3.0            4.8    72.7
     08/28/11, 16:00      74.1      22.4             86            2.7            4.4   138.7
     08/28/11, 17:00      77.1      24.0             78            2.9            4.6   126.1
     08/28/11, 18:00      77.2      24.1             75            2.6            4.1   65.58
     08/28/11, 19:00      76.7      23.9             69            2.4            3.9   58.75
     08/28/11, 20:00      72.9      21.7             79            1.6            2.5     347
     08/28/11, 21:00      71.1      20.7             84            2.4            3.9    23.6
     08/28/11, 22:00      69.3      19.7             83            2.4            3.9   41.34
     08/28/11, 23:00      68.5      19.3             87            1.6            2.5   103.6
      08/29/11, 0:00      67.0      18.5             91            2.0            3.2   65.88


  

                                                                                             
           Date,Time       Air       Air     % Relative           Wind           Wind    Wind
                        Temp F    Temp C       Humidity      Speed mph     Speed km/h Dir Deg
---------------------------------------------------------------------------------------------
      08/29/11, 1:00      66.0      17.9             95            1.0            1.5   57.52
      08/29/11, 2:00      64.5      17.1             98            1.8            2.9   32.38
      08/29/11, 3:00      63.2      16.4             99            3.2            5.1   12.59
      08/29/11, 4:00      62.7      16.0             98            2.0            3.2   31.86
      08/29/11, 5:00      62.7      16.0             96            2.0            3.3   44.94
      08/29/11, 6:00      61.7      15.5             97            2.2            3.5   20.19
      08/29/11, 7:00      60.2      14.6             98            2.7            4.3   26.49
      08/29/11, 8:00      62.8      16.1             97            2.0            3.1   56.02
      08/29/11, 9:00      67.5      18.7             86            2.4            3.9   67.61
     08/29/11, 10:00      72.1      21.3             80            3.8            6.1    81.3
     08/29/11, 11:00      75.2      23.0             72            4.9            7.9   115.1
     08/29/11, 12:00      77.4      24.3             63            5.1            8.2   117.9
     08/29/11, 13:00      78.3      24.8             62            4.2            6.7   121.9
     08/29/11, 14:00      80.2      25.8             56            4.6            7.5   127.9
     08/29/11, 15:00      81.6      26.5             51            4.1            6.6    99.7
     08/29/11, 16:00      82.3      26.9             47            4.1            6.6   126.6
     08/29/11, 17:00      82.6      27.1             47            4.2            6.7    89.5
     08/29/11, 18:00      80.7      26.1             54            2.2            3.5   116.2
     08/29/11, 19:00      80.9      26.2             57            2.1            3.4    88.9
     08/29/11, 20:00      76.1      23.5             64            2.2            3.5   67.76
     08/29/11, 21:00      72.7      21.6             72            2.0            3.3   67.72
     08/29/11, 22:00      71.0      20.7             74            2.3            3.7   63.26
     08/29/11, 23:00      69.5      19.8             75            2.9            4.6    71.5
      08/30/11, 0:00      67.7      18.8             78            3.7            6.0    84.8
      08/30/11, 1:00      66.3      18.1             82            3.5            5.6    99.9
      08/30/11, 2:00      66.1      17.9             82            4.3            6.9   116.6
      08/30/11, 3:00      65.1      17.4             86            3.9            6.3   115.5
      08/30/11, 4:00      64.7      17.1             86            3.5            5.6   113.2
      08/30/11, 5:00      65.0      17.4             85            3.9            6.2   114.9
      08/30/11, 6:00      64.8      17.3             86            3.9            6.3   109.4
      08/30/11, 7:00      65.1      17.4             85            3.2            5.2    99.7
      08/30/11, 8:00      65.9      17.8             84            5.0            8.1   109.7
      08/30/11, 9:00      66.9      18.4             81            5.1            8.2    97.2
     08/30/11, 10:00      69.0      19.6             78            6.2           10.0   105.5
     08/30/11, 11:00      68.1      19.1             97            6.2            9.9   134.9
     08/30/11, 12:00      63.5      16.5            100            6.3           10.2   131.6
     08/30/11, 13:00      63.5      16.5            100           10.4           16.7   123.4
     08/30/11, 14:00      64.4      17.0            100           12.5           20.1     127
     08/30/11, 15:00      64.6      17.1            100           11.2           18.1   134.3
     08/30/11, 16:00      65.4      17.5            100           10.1           16.3   131.2
     08/30/11, 17:00      65.9      17.8            100            8.2           13.1   130.3
     08/30/11, 18:00      66.7      18.3            100            5.6            8.9   138.1
     08/30/11, 19:00      67.6      18.8             99            5.2            8.4     132
     08/30/11, 20:00      67.5      18.8            100            4.1            6.6   118.9
     08/30/11, 21:00      67.1      18.5            100            3.5            5.7   120.2
     08/30/11, 22:00      67.0      18.4            100            3.5            5.7     118
     08/30/11, 23:00      66.9      18.4            100            3.5            5.7   126.1
      08/31/11, 0:00      66.0      17.9            100            1.5            2.5   123.9


  

                                                                                             
           Date,Time       Air       Air     % Relative           Wind           Wind    Wind
                        Temp F    Temp C       Humidity      Speed mph     Speed km/h Dir Deg
---------------------------------------------------------------------------------------------
      08/31/11, 1:00      65.7      17.7            100            2.1            3.4   120.2
      08/31/11, 2:00      65.6      17.7            100            2.1            3.4    99.3
      08/31/11, 3:00      64.8      17.2            100            1.4            2.2   19.51
      08/31/11, 4:00      63.9      16.7            100            1.7            2.7   19.41
      08/31/11, 5:00      63.6      16.6            100            1.6            2.5    50.3
      08/31/11, 6:00      63.6      16.5            100            1.7            2.7    78.9
      08/31/11, 7:00      63.2      16.3            100            1.5            2.4   109.8
      08/31/11, 8:00      64.4      17.0            100            1.7            2.7   62.71
      08/31/11, 9:00      67.7      18.8            100            2.4            3.9   60.16
     08/31/11, 10:00      71.6      21.0            100            3.3            5.4    71.4
     08/31/11, 11:00      76.5      23.7             92            3.8            6.1   108.6
     08/31/11, 12:00      80.0      25.7             84            4.3            6.9     105
     08/31/11, 13:00      83.3      27.5             81            4.3            7.0    86.8
     08/31/11, 14:00      85.4      28.6             77            5.4            8.7    81.1
     08/31/11, 15:00      87.2      29.7             74            4.8            7.7    86.6
     08/31/11, 16:00      88.2      30.2             70            5.0            8.1   113.5
     08/31/11, 17:00      88.7      30.5             69            5.2            8.4     112
     08/31/11, 18:00      89.0      30.6             68            4.2            6.8   114.2
     08/31/11, 19:00      87.7      30.0             73            3.2            5.1   101.9
     08/31/11, 20:00      84.1      27.9             86            2.0            3.3   67.14
     08/31/11, 21:00      80.8      26.1             90            2.5            4.0   67.19
     08/31/11, 22:00      78.7      25.0             94            2.6            4.2    69.6
     08/31/11, 23:00      77.4      24.2             96            3.0            4.8    77.6
      09/01/11, 0:00      76.3      23.6             98            3.5            5.6   104.5
      09/01/11, 1:00      75.3      23.1             99            3.1            4.9   109.5
      09/01/11, 2:00      75.3      23.0             99            3.7            6.0   120.2
      09/01/11, 3:00      74.6      22.7             99            3.6            5.8   123.6
      09/01/11, 4:00      74.7      22.7             98            4.1            6.6   127.1
      09/01/11, 5:00      74.4      22.6             98            3.4            5.5   122.3
      09/01/11, 6:00      73.7      22.2             99            3.6            5.7   140.6
      09/01/11, 7:00      73.1      21.8             99            3.6            5.8     140
      09/01/11, 8:00      73.9      22.3             98            4.1            6.6   145.7
      09/01/11, 9:00      78.2      24.7             93            5.8            9.3   152.9
     09/01/11, 10:00      83.1      27.4             80            7.8           12.6   163.1
     09/01/11, 11:00      85.1      28.5             68            8.2           13.2   171.8
     09/01/11, 12:00      89.2      30.8             63            9.2           14.7   171.6
     09/01/11, 13:00      91.7      32.2             57            9.6           15.5   173.8
     09/01/11, 14:00      93.5      33.1             55           11.5           18.5   167.8
     09/01/11, 15:00      94.5      33.8             50           11.8           19.0   173.3
     09/01/11, 16:00      94.9      33.9             51           10.3           16.6   179.6
     09/01/11, 17:00      94.6      33.8             55            8.8           14.2   170.3
     09/01/11, 18:00      92.9      32.9             60            7.8           12.6   166.6
     09/01/11, 19:00      90.3      31.4             61            9.2           14.8   167.7
     09/01/11, 20:00      86.5      29.3             69            7.5           12.1   159.6
     09/01/11, 21:00      83.8      27.8             73            7.3           11.8   153.2
     09/01/11, 22:00      83.4      27.5             71            7.6           12.2   160.1
     09/01/11, 23:00      81.6      26.6             74            7.2           11.6   157.9
      09/02/11, 0:00      81.4      26.5             76            8.0           12.8   163.8


  

                                                                                             
           Date,Time       Air       Air     % Relative           Wind           Wind    Wind
                        Temp F    Temp C       Humidity      Speed mph     Speed km/h Dir Deg
---------------------------------------------------------------------------------------------
      09/02/11, 1:00      81.5      26.5             76            7.9           12.8   166.1
      09/02/11, 2:00      81.9      26.7             72            9.0           14.5   170.7
      09/02/11, 3:00      80.9      26.1             74            6.8           11.0   172.2
      09/02/11, 4:00      79.6      25.4             76            5.9            9.5   169.9
      09/02/11, 5:00      78.3      24.7             79            6.0            9.7   173.9
      09/02/11, 6:00      78.3      24.7             80            6.8           10.9   176.8
      09/02/11, 7:00      77.0      24.0             94            3.2            5.1   200.7
      09/02/11, 8:00      76.2      23.5             87            4.6            7.5   178.6
      09/02/11, 9:00      78.2      24.6             84            1.3            2.0   209.1
     09/02/11, 10:00      80.7      26.1             82            2.6            4.2   211.1
     09/02/11, 11:00      83.9      27.8             72            3.3            5.3   307.9
     09/02/11, 12:00      86.2      29.1             72            2.0            3.3   300.7
     09/02/11, 13:00      87.7      30.0             66            3.9            6.2   30.65
     09/02/11, 14:00      88.8      30.6             60            4.7            7.6     100
     09/02/11, 15:00      90.4      31.4             60            4.6            7.4     108
     09/02/11, 16:00      91.2      31.9             58            6.0            9.6   115.9
     09/02/11, 17:00      91.5      32.1             56            5.9            9.4     117
     09/02/11, 18:00      90.4      31.4             61            5.3            8.6   132.9
     09/02/11, 19:00      87.4      29.8             71            2.1            3.4   139.9
     09/02/11, 20:00      84.7      28.3             75            0.6            0.9    75.2
     09/02/11, 21:00      82.6      27.1             86            0.5            0.8   54.55
     09/02/11, 22:00      80.0      25.7             90            0.9            1.4    79.9
     09/02/11, 23:00      79.0      25.1             92            0.7            1.1   49.28
      09/03/11, 0:00      77.8      24.5             96            0.5            0.8   123.6
      09/03/11, 1:00      78.1      24.6             93            3.6            5.7   333.9
      09/03/11, 2:00      74.5      22.6             88            5.2            8.4   312.9
      09/03/11, 3:00      71.7      21.1             92            2.0            3.3   356.2
      09/03/11, 4:00      70.8      20.6             93            1.2            2.0   58.59
      09/03/11, 5:00      70.4      20.4             96            2.9            4.6   132.4
      09/03/11, 6:00      71.0      20.6             95            5.7            9.2   119.4
      09/03/11, 7:00      71.5      20.9             92            4.3            6.9   105.9
      09/03/11, 8:00      71.5      21.0             96            2.4            3.8   112.4
      09/03/11, 9:00      72.7      21.6             96            4.9            7.9   11.52
     09/03/11, 10:00      76.5      23.7             88            4.2            6.8   67.09
     09/03/11, 11:00      76.4      23.7             91            4.4            7.0   55.29
     09/03/11, 12:00      73.2      21.9            100            4.1            6.7   321.1
     09/03/11, 13:00      70.6      20.4            100            2.9            4.7   34.33
     09/03/11, 14:00      70.1      20.2            100            4.5            7.2   41.42
     09/03/11, 15:00      70.4      20.3            100            4.2            6.8   103.7
     09/03/11, 16:00      70.4      20.4            100            7.1           11.4   154.9
     09/03/11, 17:00      70.7      20.5            100            1.8            2.9   136.7
     09/03/11, 18:00      71.1      20.7            100            3.9            6.3   169.5
     09/03/11, 19:00      71.5      21.0            100            1.8            2.8   190.6
     09/03/11, 20:00      71.1      20.7            100            3.4            5.4     283
     09/03/11, 21:00      67.1      18.5             98            5.4            8.7   319.5
     09/03/11, 22:00      65.4      17.5             95            4.9            7.9   312.9
     09/03/11, 23:00      63.8      16.7             96            3.6            5.9   306.4
      09/04/11, 0:00      62.0      15.6             98            3.1            5.0   309.9


  

                                                                                             
           Date,Time       Air       Air     % Relative           Wind           Wind    Wind
                        Temp F    Temp C       Humidity      Speed mph     Speed km/h Dir Deg
---------------------------------------------------------------------------------------------
      09/04/11, 1:00      60.5      14.8             98            3.5            5.6   304.4
      09/04/11, 2:00      59.1      14.1             95            4.8            7.7   298.4
      09/04/11, 3:00      57.6      13.2             94            5.4            8.6   297.1
      09/04/11, 4:00      56.6      12.7             93            6.2           10.0   292.5
      09/04/11, 5:00      55.7      12.2             95            5.9            9.5   290.5
      09/04/11, 6:00      54.8      11.7             96            4.6            7.5   294.7
      09/04/11, 7:00      54.1      11.3             97            4.0            6.4   290.5
      09/04/11, 8:00      54.8      11.7             97            4.6            7.5   292.8
      09/04/11, 9:00      57.7      13.3             92            5.6            9.0   304.3
     09/04/11, 10:00      62.0      15.7             86            6.6           10.6   306.8
     09/04/11, 11:00      65.6      17.6             75            7.2           11.5     311
     09/04/11, 12:00      67.8      18.9             60            9.0           14.5   317.5
     09/04/11, 13:00      69.2      19.7             56            9.7           15.6   306.6
     09/04/11, 14:00      70.4      20.4             54            9.0           14.5   309.5
     09/04/11, 15:00      71.5      20.9             51            9.1           14.7   308.1
     09/04/11, 16:00      71.6      21.0             50            8.7           14.0   315.3
     09/04/11, 17:00      71.2      20.8             50            8.5           13.7   322.7
     09/04/11, 18:00      70.1      20.2             52            7.7           12.4   322.4
     09/04/11, 19:00      68.1      19.1             55            6.1            9.8   317.1
     09/04/11, 20:00      64.1      16.8             70            4.5            7.2   305.7
     09/04/11, 21:00      60.2      14.7             80            3.2            5.2     307
     09/04/11, 22:00      58.4      13.7             83            3.9            6.2   328.2
     09/04/11, 23:00      57.3      13.1             83            4.0            6.5   342.8
      09/05/11, 0:00      55.2      11.9             87            3.3            5.4   334.5
      09/05/11, 1:00      53.1      10.7             92            2.3            3.7   319.6
      09/05/11, 2:00      51.8      10.0             93            1.6            2.6   312.8
      09/05/11, 3:00      51.0       9.5             95            1.5            2.5   313.6
      09/05/11, 4:00      50.1       9.1             96            1.9            3.1   312.4
      09/05/11, 5:00      49.8       8.9             97            2.2            3.6   309.4
      09/05/11, 6:00      49.3       8.6             99            2.7            4.3   305.5
      09/05/11, 7:00      48.4       8.1            100            1.8            2.9   309.7
      09/05/11, 8:00      50.3       9.2            100            2.6            4.2   353.6
      09/05/11, 9:00      54.5      11.5             95            4.6            7.4    23.1
     09/05/11, 10:00      58.8      13.9             89            4.4            7.1   27.26
     09/05/11, 11:00      62.4      15.9             77            5.0            8.0   28.08
     09/05/11, 12:00      64.4      17.0             64            6.5           10.5   26.44
     09/05/11, 13:00      66.5      18.2             56            6.2           10.0   11.47
     09/05/11, 14:00      68.0      19.0             52            6.4           10.4   11.26
     09/05/11, 15:00      68.8      19.4             51            6.2           10.0    8.71
     09/05/11, 16:00      69.5      19.8             48            5.9            9.4    12.8
     09/05/11, 17:00      69.7      20.0             47            5.2            8.3   23.82
     09/05/11, 18:00      69.2      19.6             48            4.3            6.9   28.23
     09/05/11, 19:00      67.2      18.6             54            3.7            5.9   32.94
     09/05/11, 20:00      63.4      16.5             63            1.2            1.9    9.24
     09/05/11, 21:00      60.6      14.9             71            1.6            2.5   355.3
     09/05/11, 22:00      58.2      13.6             77            1.6            2.6    7.06
     09/05/11, 23:00      56.7      12.7             79            1.5            2.4   4.499
      09/06/11, 0:00      54.8      11.7             87            1.6            2.6   357.6


  

                                                                                             
           Date,Time       Air       Air     % Relative           Wind           Wind    Wind
                        Temp F    Temp C       Humidity      Speed mph     Speed km/h Dir Deg
---------------------------------------------------------------------------------------------
      09/06/11, 1:00      53.9      11.2             87            1.7            2.8   357.8
      09/06/11, 2:00      53.0      10.7             90            2.0            3.2   337.1
      09/06/11, 3:00      51.3       9.7             97            1.7            2.7   338.9
      09/06/11, 4:00      49.8       8.9             98            1.3            2.2   351.9
      09/06/11, 5:00      49.4       8.7             97            1.0            1.6     348
      09/06/11, 6:00      48.0       7.9            100            1.4            2.3   314.8
      09/06/11, 7:00      47.5       7.6            100            0.7            1.2   329.8
      09/06/11, 8:00      49.2       8.5            100            0.5            0.8   47.13
      09/06/11, 9:00      54.2      11.3             93            2.5            4.0   103.5
     09/06/11, 10:00      58.2      13.6             89            3.4            5.5   114.8
     09/06/11, 11:00      62.2      15.8             77            2.8            4.5     114
     09/06/11, 12:00      65.1      17.4             68            3.1            5.0    79.5
     09/06/11, 13:00      66.4      18.1             64            3.7            6.0    31.3
     09/06/11, 14:00      68.2      19.1             55            3.3            5.3   51.92
     09/06/11, 15:00      69.5      19.9             53            3.7            5.9   37.02
     09/06/11, 16:00      70.4      20.3             52            3.6            5.8   20.96
     09/06/11, 17:00      71.0      20.7             50            2.9            4.7   34.48
     09/06/11, 18:00      70.5      20.4             50            2.9            4.6   21.07
     09/06/11, 19:00      68.7      19.4             55            2.7            4.4    12.4
     09/06/11, 20:00      64.1      16.8             67            1.7            2.7   4.558
     09/06/11, 21:00      60.5      14.8             70            1.6            2.5   344.2
     09/06/11, 22:00      58.5      13.7             81            2.7            4.4   327.4
     09/06/11, 23:00      56.5      12.6             87            2.7            4.3   319.5
      09/07/11, 0:00      53.1      10.7             96            1.8            2.9   315.5
      09/07/11, 1:00      51.6       9.9             99            1.7            2.8   306.6
      09/07/11, 2:00      50.2       9.1            100            1.3            2.1   317.4
      09/07/11, 3:00      50.1       9.0             99            1.3            2.0   326.9
      09/07/11, 4:00      49.4       8.6             99            1.5            2.4   304.3
      09/07/11, 5:00      48.4       8.1            100            1.8            2.8   305.1
      09/07/11, 6:00      47.8       7.8            100            2.0            3.2   313.2
      09/07/11, 7:00      47.9       7.8            100            3.2            5.1   322.2
      09/07/11, 8:00      49.1       8.5            100            3.4            5.5     323
      09/07/11, 9:00      53.1      10.7             95            3.5            5.6   326.8
     09/07/11, 10:00      56.8      12.8             95            3.5            5.6   337.8
     09/07/11, 11:00      64.5      17.1             84            4.3            6.8   351.3
     09/07/11, 12:00      67.6      18.8             63            5.9            9.5    .814
     09/07/11, 13:00      69.5      19.8             55            5.4            8.7   10.46
     09/07/11, 14:00      71.3      20.9             51            4.7            7.6   3.306
     09/07/11, 15:00      72.7      21.6             48            4.9            7.9   355.3
     09/07/11, 16:00      73.5      22.1             46            4.8            7.7   353.7
     09/07/11, 17:00      73.6      22.1             48            4.8            7.8   356.2
     09/07/11, 18:00      72.9      21.7             49            4.7            7.6   355.5
     09/07/11, 19:00      71.1      20.7             54            3.1            4.9   343.5
     09/07/11, 20:00      66.1      17.9             69            0.6            1.0   312.2
     09/07/11, 21:00      62.0      15.7             73            0.7            1.1   330.4
     09/07/11, 22:00      60.4      14.8             83            1.7            2.7   324.7
     09/07/11, 23:00      58.4      13.6             88            2.3            3.6   316.4
      09/08/11, 0:00      56.6      12.7             89            2.4            3.9   312.4


  

                                                                                             
           Date,Time       Air       Air     % Relative           Wind           Wind    Wind
                        Temp F    Temp C       Humidity      Speed mph     Speed km/h Dir Deg
---------------------------------------------------------------------------------------------
      09/08/11, 1:00      55.3      12.0             91            2.5            4.0   313.4
      09/08/11, 2:00      54.6      11.6             92            2.6            4.2   307.9
      09/08/11, 3:00      53.7      11.0             94            3.0            4.8   300.5
      09/08/11, 4:00      52.3      10.3             96            3.0            4.8   307.7
      09/08/11, 5:00      51.8      10.0             97            3.0            4.9     319
      09/08/11, 6:00      51.7       9.9             97            2.9            4.6     317
      09/08/11, 7:00      51.7      10.0             97            2.8            4.6   319.6
      09/08/11, 8:00      54.0      11.3             96            3.2            5.2   320.5
      09/08/11, 9:00      60.1      14.6             89            3.2            5.1   329.2
     09/08/11, 10:00      65.8      17.8             82            5.8            9.4   351.4
     09/08/11, 11:00      69.7      19.9             74            6.9           11.1   354.1
     09/08/11, 12:00      74.1      22.4             66            6.8           11.0   359.3
     09/08/11, 13:00      76.7      23.8             57            7.1           11.4   345.7
     09/08/11, 14:00      78.1      24.6             53            7.2           11.6   352.1
     09/08/11, 15:00      78.9      25.1             51            7.6           12.2   348.6
     09/08/11, 16:00      79.7      25.5             49            7.8           12.6   5.956
     09/08/11, 17:00      79.4      25.3             49            8.8           14.2   5.567
     09/08/11, 18:00      78.8      25.0             48            8.2           13.2   5.238
     09/08/11, 19:00      76.6      23.8             53            6.1            9.9    1.37
     09/08/11, 20:00      72.2      21.3             63            2.9            4.7   350.9
     09/08/11, 21:00      68.2      19.1             72            1.5            2.4   332.2
     09/08/11, 22:00      65.5      17.6             77            1.9            3.0   342.2
     09/08/11, 23:00      63.5      16.5             84            2.1            3.3   299.5
      09/09/11, 0:00      62.2      15.8             88            2.4            3.9   301.6
      09/09/11, 1:00      61.2      15.2             90            2.7            4.3   304.5
      09/09/11, 2:00      60.2      14.7             92            3.0            4.9   301.3
      09/09/11, 3:00      60.2      14.7             93            2.6            4.2   310.2
      09/09/11, 4:00      60.0      14.6             94            2.8            4.5   305.7
      09/09/11, 5:00      59.7      14.4             95            2.6            4.1   306.3
      09/09/11, 6:00      58.4      13.7             98            2.4            3.9   323.8
      09/09/11, 7:00      58.2      13.6             99            3.1            5.0     313
      09/09/11, 8:00      59.4      14.2             99            3.2            5.1   320.7
      09/09/11, 9:00      63.4      16.5             94            3.3            5.4   344.1
     09/09/11, 10:00      67.5      18.7             87            4.4            7.0    .447
     09/09/11, 11:00      71.2      20.8             80            4.8            7.7   15.32
     09/09/11, 12:00      75.0      22.9             75            5.3            8.6    6.92
     09/09/11, 13:00      77.8      24.5             64            5.6            9.1   19.43
     09/09/11, 14:00      79.1      25.2             54            5.4            8.7    3.52
     09/09/11, 15:00      79.6      25.4             50            6.2           10.1   10.84
     09/09/11, 16:00      80.0      25.6             47            6.6           10.7     1.1
     09/09/11, 17:00      79.5      25.4             47            6.6           10.6    8.82
     09/09/11, 18:00      78.4      24.8             47            6.3           10.2    9.94
     09/09/11, 19:00      76.4      23.7             53            4.0            6.4   24.28
     09/09/11, 20:00      72.1      21.3             64            2.0            3.3   16.38
     09/09/11, 21:00      69.1      19.6             69            2.1            3.3   341.6
     09/09/11, 22:00      66.8      18.3             72            2.0            3.2   3.752
     09/09/11, 23:00      65.2      17.5             79            2.3            3.7   325.1
      09/10/11, 0:00      63.3      16.4             86            2.4            3.9   324.3


  

                                                                                             
           Date,Time       Air       Air     % Relative           Wind           Wind    Wind
                        Temp F    Temp C       Humidity      Speed mph     Speed km/h Dir Deg
---------------------------------------------------------------------------------------------
      09/10/11, 1:00      61.7      15.5             91            2.5            4.0     320
      09/10/11, 2:00      60.2      14.7             94            2.7            4.3     318
      09/10/11, 3:00      59.8      14.4             94            4.0            6.4   321.7
      09/10/11, 4:00      59.1      14.1             95            3.9            6.3     328
      09/10/11, 5:00      58.7      13.8             96            3.9            6.2   325.9
      09/10/11, 6:00      57.2      13.0             98            4.0            6.4     326
      09/10/11, 7:00      56.9      12.8             98            3.4            5.5   338.5
      09/10/11, 8:00      57.4      13.1             97            3.1            5.0   341.4
      09/10/11, 9:00      59.9      14.5             95            2.8            4.6   349.6
     09/10/11, 10:00      64.9      17.3             93            3.1            5.1   343.6
     09/10/11, 11:00      72.3      21.4             83            4.5            7.3   352.7
     09/10/11, 12:00      76.3      23.6             68            5.7            9.2   17.66
     09/10/11, 13:00      78.3      24.8             56            5.3            8.5   28.85
     09/10/11, 14:00      79.4      25.3             55            4.9            8.0   21.31
     09/10/11, 15:00      80.6      26.0             51            5.1            8.3   18.38
     09/10/11, 16:00      80.5      25.9             51            5.3            8.5   41.91
     09/10/11, 17:00      81.2      26.4             51            4.5            7.2   19.35
     09/10/11, 18:00      80.2      25.8             54            4.1            6.7   14.88
     09/10/11, 19:00      78.5      24.9             58            2.7            4.3   19.61
     09/10/11, 20:00      75.0      22.9             65            1.4            2.3   331.8
     09/10/11, 21:00      71.8      21.1             73            1.7            2.7     323
     09/10/11, 22:00      68.2      19.1             87            0.3            0.5   322.5
     09/10/11, 23:00      64.9      17.3             95            0.8            1.3   327.5
      09/11/11, 0:00      63.5      16.5             97            0.8            1.3   308.4
      09/11/11, 1:00      62.2      15.8             99            1.1            1.8   302.1
      09/11/11, 2:00      60.9      15.1            100            0.5            0.8   265.3
      09/11/11, 3:00      59.8      14.4            100            0.5            0.7   139.3
      09/11/11, 4:00      58.5      13.8            100            0.8            1.3   309.4
      09/11/11, 5:00      59.0      14.0            100            1.1            1.8   299.7
      09/11/11, 6:00      59.0      14.0            100            1.2            2.0   294.8
      09/11/11, 7:00      58.1      13.5            100            0.1            0.2   331.7
      09/11/11, 8:00      58.9      13.9            100            0.1            0.1   109.5
      09/11/11, 9:00      64.7      17.1             98            1.6            2.5   171.2
     09/11/11, 10:00      70.9      20.6             88            2.3            3.8   221.5
     09/11/11, 11:00      75.6      23.2             75            2.8            4.5   223.8
     09/11/11, 12:00      79.4      25.3             61            3.0            4.8   228.7
     09/11/11, 13:00      81.9      26.7             53            3.3            5.4     267
     09/11/11, 14:00      84.3      28.1             45            2.7            4.4     272
     09/11/11, 15:00      85.3      28.6             42            3.2            5.2   242.1
     09/11/11, 16:00      85.7      28.8             45            3.2            5.1   236.5
     09/11/11, 17:00      85.8      28.9             48            3.3            5.3   223.6
     09/11/11, 18:00      85.0      28.5             48            2.3            3.7   213.5
     09/11/11, 19:00      81.5      26.5             59            2.8            4.5   184.1
     09/11/11, 20:00      75.8      23.3             67            4.1            6.6   185.1
     09/11/11, 21:00      72.9      21.7             69            3.9            6.3   181.6
     09/11/11, 22:00      71.0      20.7             75            3.6            5.8   185.7
     09/11/11, 23:00      69.0      19.6             82            3.1            5.0   188.9
      09/12/11, 0:00      67.4      18.7             88            2.4            3.8   178.8


  

                                                                                             
           Date,Time       Air       Air     % Relative           Wind           Wind    Wind
                        Temp F    Temp C       Humidity      Speed mph     Speed km/h Dir Deg
---------------------------------------------------------------------------------------------
      09/12/11, 1:00      66.4      18.1             89            2.1            3.4   177.7
      09/12/11, 2:00      64.2      16.9             95            1.6            2.5   161.7
      09/12/11, 3:00      62.9      16.1             96            1.9            3.0   171.8
      09/12/11, 4:00      61.3      15.3             97            1.9            3.1   165.2
      09/12/11, 5:00      60.4      14.8             98            1.3            2.2   177.9
      09/12/11, 6:00      59.0      14.0             99            0.8            1.3   156.6
      09/12/11, 7:00      58.6      13.8            100            1.8            2.9   175.6
      09/12/11, 8:00      60.6      14.9            100            2.2            3.6   170.2
      09/12/11, 9:00      67.0      18.5             97            5.4            8.6   176.6
     09/12/11, 10:00      73.5      22.1             81            6.9           11.1   180.4
     09/12/11, 11:00      78.5      24.8             65            8.6           13.8   186.5
     09/12/11, 12:00      81.7      26.6             56           10.0           16.1     188
     09/12/11, 13:00      84.1      27.9             48           11.3           18.2   180.5
     09/12/11, 14:00      86.1      29.0             44           13.1           21.1   181.7
     09/12/11, 15:00      86.9      29.5             43           14.3           23.1   177.1
     09/12/11, 16:00      87.3      29.7             43           14.9           23.9   178.6
     09/12/11, 17:00      87.0      29.5             42           14.5           23.4   181.2
     09/12/11, 18:00      86.0      29.0             45           12.6           20.3   182.1
     09/12/11, 19:00      83.1      27.4             51            9.2           14.9   182.3
     09/12/11, 20:00      78.4      24.8             63            6.0            9.7   179.9
     09/12/11, 21:00      73.7      22.2             74            5.9            9.5   177.4
     09/12/11, 22:00      71.6      21.0             77            5.0            8.1   178.2
     09/12/11, 23:00      70.8      20.5             79            3.8            6.1   190.2
      09/13/11, 0:00      69.7      19.9             84            3.1            5.0   184.8
      09/13/11, 1:00      69.4      19.8             86            3.4            5.4   275.5
      09/13/11, 2:00      68.2      19.1             87            4.0            6.4   314.9
      09/13/11, 3:00      64.9      17.3             88            4.1            6.6   315.2
      09/13/11, 4:00      62.3      15.8             88            3.9            6.2     315
      09/13/11, 5:00      60.1      14.6             90            4.1            6.7   317.5
      09/13/11, 6:00      57.7      13.3             91            3.6            5.9   314.8
      09/13/11, 7:00      56.1      12.4             92            3.6            5.8   305.7
      09/13/11, 8:00      55.3      11.9             93            3.6            5.8   319.2
      09/13/11, 9:00      57.8      13.4             88            4.5            7.3   325.6
     09/13/11, 10:00      61.5      15.4             78            5.5            8.9   343.8
     09/13/11, 11:00      65.1      17.4             63            5.5            8.9   346.4
     09/13/11, 12:00      67.1      18.5             57            5.7            9.2     332
     09/13/11, 13:00      69.5      19.8             53            5.2            8.4     336
     09/13/11, 14:00      71.0      20.6             49            5.7            9.1   329.3
     09/13/11, 15:00      72.7      21.6             46            5.4            8.6     304
     09/13/11, 16:00      74.0      22.3             43            5.1            8.2   313.1
     09/13/11, 17:00      74.4      22.5             42            4.6            7.5   321.1
     09/13/11, 18:00      73.7      22.1             43            3.9            6.3   319.2
     09/13/11, 19:00      71.5      21.0             51            2.1            3.4   317.7
     09/13/11, 20:00      65.7      17.7             62            0.9            1.4   296.9
     09/13/11, 21:00      62.2      15.8             68            1.9            3.0   292.7
     09/13/11, 22:00      59.7      14.4             72            2.0            3.2   299.5
     09/13/11, 23:00      57.7      13.3             76            1.7            2.8   304.8
      09/14/11, 0:00      55.9      12.3             77            0.6            1.0   304.8


  

                                                                                             
           Date,Time       Air       Air     % Relative           Wind           Wind    Wind
                        Temp F    Temp C       Humidity      Speed mph     Speed km/h Dir Deg
---------------------------------------------------------------------------------------------
      09/14/11, 1:00      55.5      12.1             76            1.7            2.7   325.6
      09/14/11, 2:00      54.4      11.4             77            2.5            4.0   317.9
      09/14/11, 3:00      53.3      10.8             85            2.9            4.6   305.9
      09/14/11, 4:00      52.1      10.2             85            3.0            4.8   305.2
      09/14/11, 5:00      52.4      10.3             93            1.5            2.5   290.7
      09/14/11, 6:00      51.8      10.0             96            0.9            1.4   288.8
      09/14/11, 7:00      52.7      10.5             95            3.2            5.2   318.7
      09/14/11, 8:00      54.2      11.3             89            6.2           10.0   348.2
      09/14/11, 9:00      54.2      11.3             90            5.5            8.8   351.7
     09/14/11, 10:00      53.7      11.0             92            5.4            8.7   350.2
     09/14/11, 11:00      54.5      11.5             89            6.0            9.7   345.7
     09/14/11, 12:00      55.6      12.1             78            6.8           10.9   344.9
     09/14/11, 13:00      58.7      13.8             71            8.8           14.1   342.7
     09/14/11, 14:00      60.3      14.8             46            8.5           13.6     335
     09/14/11, 15:00      61.9      15.6             42            8.4           13.5   331.2
     09/14/11, 16:00      62.0      15.7             32            8.4           13.5   340.8
     09/14/11, 17:00      61.1      15.2             27            8.3           13.3   340.5
     09/14/11, 18:00      60.1      14.6             31            7.4           11.8   342.1
     09/14/11, 19:00      58.3      13.6             38            4.8            7.7   342.7
     09/14/11, 20:00      53.3      10.8             54            2.1            3.3   326.4
     09/14/11, 21:00      48.4       8.1             68            1.0            1.5   295.5
     09/14/11, 22:00      46.6       7.1             69            1.3            2.1   298.1
     09/14/11, 23:00      44.5       6.0             72            1.0            1.6   292.4
      09/15/11, 0:00      43.1       5.2             76            1.8            2.9   303.4
      09/15/11, 1:00      41.8       4.4             76            3.0            4.8   297.1
      09/15/11, 2:00      40.9       4.0             81            2.3            3.7   296.4
      09/15/11, 3:00      40.3       3.6             84            1.6            2.6   312.2
      09/15/11, 4:00      40.9       3.9             85            2.5            4.1   338.1
      09/15/11, 5:00      38.2       2.4             93            1.2            1.9   280.9
      09/15/11, 6:00      37.7       2.2             92            2.1            3.4   303.8
      09/15/11, 7:00      38.0       2.3             91            3.4            5.5   352.4
      09/15/11, 8:00      39.0       2.9             89            4.3            6.9     356
      09/15/11, 9:00      41.8       4.4             85            6.1            9.8    9.35
     09/15/11, 10:00      46.2       6.9             76            5.1            8.3    14.3
     09/15/11, 11:00      50.6       9.3             62            5.2            8.4   17.06
     09/15/11, 12:00      53.2      10.8             49            5.6            9.0   28.62
     09/15/11, 13:00      56.1      12.4             40            4.2            6.8   32.35
     09/15/11, 14:00      58.7      13.8             33            4.7            7.6      73
     09/15/11, 15:00      59.4      14.2             31            3.7            5.9   53.67
     09/15/11, 16:00      60.0      14.6             28            3.5            5.6   55.29
     09/15/11, 17:00      59.3      14.2             32            3.1            5.0   63.21
     09/15/11, 18:00      58.2      13.6             37            2.3            3.6    79.1
     09/15/11, 19:00      57.0      12.9             38            1.1            1.8    88.2
     09/15/11, 20:00      54.6      11.6             47            0.4            0.7    96.5
     09/15/11, 21:00      52.6      10.5             53            0.7            1.0    79.7
     09/15/11, 22:00      51.0       9.6             57            1.3            2.2    75.9
     09/15/11, 23:00      50.6       9.3             61            1.6            2.6    98.9
      09/16/11, 0:00      50.2       9.1             61            1.0            1.6    85.8


  

                                                                                             
           Date,Time       Air       Air     % Relative           Wind           Wind    Wind
                        Temp F    Temp C       Humidity      Speed mph     Speed km/h Dir Deg
---------------------------------------------------------------------------------------------
      09/16/11, 1:00      49.6       8.8             65            0.9            1.4    80.3
      09/16/11, 2:00      49.3       8.6             67            1.0            1.7    95.7
      09/16/11, 3:00      49.1       8.5             69            1.3            2.1    89.3
      09/16/11, 4:00      49.1       8.5             69            2.3            3.7   105.4
      09/16/11, 5:00      48.8       8.3             72            3.3            5.3   107.8
      09/16/11, 6:00      48.8       8.3             75            2.5            4.0   114.2
      09/16/11, 7:00      48.3       8.1             79            1.0            1.7    83.7
      09/16/11, 8:00      48.3       8.0             83            0.9            1.5   108.8
      09/16/11, 9:00      47.2       7.4             95            1.7            2.7   164.4
     09/16/11, 10:00      47.6       7.7             95            2.8            4.6   50.54
     09/16/11, 11:00      49.2       8.5             93            4.1            6.6   33.71
     09/16/11, 12:00      50.3       9.1             91            3.4            5.5   63.33
     09/16/11, 13:00      51.8      10.0             88            5.1            8.2    82.3
     09/16/11, 14:00      53.1      10.7             87            5.0            8.0    85.2
     09/16/11, 15:00      53.7      11.0             84            5.3            8.6    84.3
     09/16/11, 16:00      55.0      11.8             79            5.9            9.5   100.6
     09/16/11, 17:00      54.1      11.3             80            6.2           10.0   104.4
     09/16/11, 18:00      53.0      10.7             83            5.2            8.3    98.5
     09/16/11, 19:00      52.5      10.4             84            5.1            8.1   102.2
     09/16/11, 20:00      52.0      10.1             86            4.2            6.7    98.3
     09/16/11, 21:00      51.5       9.8             88            4.3            6.9    94.2
     09/16/11, 22:00      51.3       9.7             88            4.3            6.9    97.9
     09/16/11, 23:00      50.6       9.3             89            4.6            7.4     103
      09/17/11, 0:00      50.6       9.3             88            4.9            8.0   104.3
      09/17/11, 1:00      50.6       9.3             85            4.7            7.6   106.4
      09/17/11, 2:00      50.2       9.1             84            4.3            7.0   103.9
      09/17/11, 3:00      50.2       9.1             86            4.1            6.5   100.5
      09/17/11, 4:00      50.0       9.0             90            2.8            4.5    93.8
      09/17/11, 5:00      50.1       9.1             90            3.2            5.2    97.6
      09/17/11, 6:00      50.3       9.2             89            3.5            5.7    87.4
      09/17/11, 7:00      50.6       9.3             88            4.0            6.5    96.4
      09/17/11, 8:00      51.2       9.7             86            3.8            6.1    95.9
      09/17/11, 9:00      52.2      10.2             85            4.8            7.7    95.2
     09/17/11, 10:00      54.5      11.5             80            5.1            8.2     102
     09/17/11, 11:00      57.3      13.1             73            6.2            9.9   100.9
     09/17/11, 12:00      59.5      14.3             66            7.3           11.7   117.9
     09/17/11, 13:00      60.7      15.0             62            8.5           13.8     126
     09/17/11, 14:00      61.3      15.3             61            8.1           13.1   126.3
     09/17/11, 15:00      61.9      15.6             62            6.9           11.1   123.3
     09/17/11, 16:00      62.0      15.7             62            6.0            9.7     118
     09/17/11, 17:00      61.9      15.6             64            5.9            9.5   130.1
     09/17/11, 18:00      61.2      15.2             70            4.2            6.8   112.5
     09/17/11, 19:00      59.5      14.3             73            4.0            6.4    85.2
     09/17/11, 20:00      59.5      14.3             71            4.5            7.3    92.7
     09/17/11, 21:00      58.5      13.7             77            3.7            5.9    97.6
     09/17/11, 22:00      58.2      13.6             80            3.1            4.9   117.9
     09/17/11, 23:00      58.1      13.5             80            3.0            4.9   110.9
      09/18/11, 0:00      58.7      13.8             79            3.6            5.8     115


  

                                                                                             
           Date,Time       Air       Air     % Relative           Wind           Wind    Wind
                        Temp F    Temp C       Humidity      Speed mph     Speed km/h Dir Deg
---------------------------------------------------------------------------------------------
      09/18/11, 1:00      59.2      14.1             77            4.2            6.8   115.3
      09/18/11, 2:00      59.1      14.1             79            4.1            6.6   105.2
      09/18/11, 3:00      58.7      13.8             83            4.0            6.4   113.9
      09/18/11, 4:00      58.2      13.6             83            4.9            7.9   108.7
      09/18/11, 5:00      59.3      14.1             83            6.3           10.1   118.7
      09/18/11, 6:00      58.9      14.0             87            7.2           11.7     129
      09/18/11, 7:00      57.1      12.9             98            5.5            8.9   139.4
      09/18/11, 8:00      55.7      12.2            100            5.1            8.3     120
      09/18/11, 9:00      56.2      12.5            100            5.7            9.2   124.4
     09/18/11, 10:00      57.1      12.9            100            7.2           11.6   127.4
     09/18/11, 11:00      58.2      13.6            100            6.8           11.0   129.2
     09/18/11, 12:00      59.0      14.0            100            6.7           10.8   127.3
     09/18/11, 13:00      59.8      14.4            100            5.7            9.1   126.9
     09/18/11, 14:00      60.9      15.1            100            4.6            7.4   130.9
     09/18/11, 15:00      61.8      15.5            100            3.7            6.0   141.5
     09/18/11, 16:00      62.4      15.9            100            3.8            6.1   171.1
     09/18/11, 17:00      62.7      16.0            100            3.5            5.7   180.7
     09/18/11, 18:00      62.9      16.2            100            3.4            5.5   179.8
     09/18/11, 19:00      62.7      16.0            100            2.5            4.0   192.5
     09/18/11, 20:00      62.3      15.8            100            1.3            2.1   242.6
     09/18/11, 21:00      61.6      15.4            100            2.2            3.6   283.7
     09/18/11, 22:00      61.0      15.1            100            3.2            5.2   292.7
     09/18/11, 23:00      60.6      14.9            100            3.6            5.8   293.3
      09/19/11, 0:00      60.0      14.6            100            3.2            5.2   292.3
      09/19/11, 1:00      59.5      14.3            100            3.3            5.2   292.2
      09/19/11, 2:00      59.3      14.2            100            2.9            4.7   289.4
      09/19/11, 3:00      59.3      14.2            100            3.1            5.0   285.4
      09/19/11, 4:00      59.5      14.3            100            4.2            6.8     295
      09/19/11, 5:00      59.4      14.2            100            4.5            7.2   300.3
      09/19/11, 6:00      59.0      14.0             99            5.1            8.3   295.4
      09/19/11, 7:00      58.4      13.7            100            4.6            7.5   299.2
      09/19/11, 8:00      57.7      13.3             99            4.4            7.1   303.5
      09/19/11, 9:00      58.5      13.7             96            4.6            7.4   300.2
     09/19/11, 10:00      59.8      14.4             94            4.5            7.3   297.2
     09/19/11, 11:00      63.3      16.4             89            3.8            6.2   290.6
     09/19/11, 12:00      68.3      19.1             83            2.7            4.3   269.8
     09/19/11, 13:00      71.9      21.1             73            3.1            5.0   273.2
     09/19/11, 14:00      74.0      22.3             67            4.0            6.4   263.6
     09/19/11, 15:00      76.1      23.5             61            4.3            6.9   281.1
     09/19/11, 16:00      77.5      24.3             49            5.2            8.4   296.7
     09/19/11, 17:00      77.6      24.3             34            4.7            7.6   300.3
     09/19/11, 18:00      77.1      24.1             36            2.7            4.4   305.3
     09/19/11, 19:00      75.4      23.1             37            0.9            1.5   275.5
     09/19/11, 20:00      69.4      19.8             49            0.4            0.7   239.1
     09/19/11, 21:00      65.0      17.3             66            0.3            0.5    80.6
     09/19/11, 22:00      61.6      15.4             74            1.3            2.0   127.8
     09/19/11, 23:00      59.3      14.2             78            1.1            1.7   101.4
      09/20/11, 0:00      56.7      12.7             87            1.6            2.5    79.8


  

                                                                                             
           Date,Time       Air       Air     % Relative           Wind           Wind    Wind
                        Temp F    Temp C       Humidity      Speed mph     Speed km/h Dir Deg
---------------------------------------------------------------------------------------------
      09/20/11, 1:00      56.3      12.5             82            1.8            2.9    94.2
      09/20/11, 2:00      55.4      12.0             86            1.3            2.1   125.6
      09/20/11, 3:00      53.3      10.9             93            1.3            2.1   114.5
      09/20/11, 4:00      52.9      10.6             93            2.6            4.1   151.8
      09/20/11, 5:00      52.2      10.2             95            2.8            4.4   157.3
      09/20/11, 6:00      51.7       9.9             96            2.4            3.8   154.9
      09/20/11, 7:00      51.3       9.7             98            2.4            3.8   148.6
      09/20/11, 8:00      52.7      10.5             99            3.8            6.2   150.9
      09/20/11, 9:00      57.5      13.2             95            3.0            4.9   148.7
     09/20/11, 10:00      60.4      14.8             93            5.7            9.1   170.1
     09/20/11, 11:00      66.3      18.1             84           10.1           16.3   164.9
     09/20/11, 12:00      73.8      22.3             70           13.7           22.1   171.8
     09/20/11, 13:00      75.8      23.3             53           13.6           21.9   172.7
     09/20/11, 14:00      78.2      24.6             47           15.7           25.3   176.2
     09/20/11, 15:00      79.6      25.4             45           14.7           23.7   182.1
     09/20/11, 16:00      79.6      25.5             45           11.7           18.8   190.1
     09/20/11, 17:00      78.1      24.6             52            7.1           11.4   212.4
     09/20/11, 18:00      75.1      22.9             54            6.0            9.6   266.5
     09/20/11, 19:00      72.3      21.4             58            3.4            5.5   250.7
     09/20/11, 20:00      67.0      18.5             69            1.3            2.1   208.2
     09/20/11, 21:00      63.6      16.5             72            1.6            2.6   220.7
     09/20/11, 22:00      63.2      16.4             68            1.7            2.8     218
     09/20/11, 23:00      61.3      15.3             72            5.1            8.2   280.8
      09/21/11, 0:00      60.2      14.7             63            2.7            4.4   270.6
      09/21/11, 1:00      58.3      13.6             68            2.0            3.3     228
      09/21/11, 2:00      56.4      12.6             70            3.2            5.1   231.2
      09/21/11, 3:00      56.5      12.6             70            3.8            6.0     254
      09/21/11, 4:00      55.4      12.0             71            3.3            5.3   244.2
      09/21/11, 5:00      53.7      11.1             78            3.0            4.8   200.1
      09/21/11, 6:00      51.5       9.8             84            2.8            4.4   200.3
      09/21/11, 7:00      51.8      10.0             85            2.7            4.4   225.7
      09/21/11, 8:00      54.1      11.3             79            4.7            7.6   244.9
      09/21/11, 9:00      57.1      13.0             72            5.2            8.4     231
     09/21/11, 10:00      59.8      14.4             67            6.1            9.8   242.5
     09/21/11, 11:00      61.8      15.6             64            7.2           11.5   251.3
     09/21/11, 12:00      63.5      16.5             60            7.2           11.5   254.4
     09/21/11, 13:00      64.9      17.3             58            9.0           14.5   266.3
     09/21/11, 14:00      65.2      17.4             58            9.1           14.6   275.7
     09/21/11, 15:00      66.1      18.0             58            7.8           12.6   269.1
     09/21/11, 16:00      65.6      17.7             57            7.4           12.0   257.4
     09/21/11, 17:00      64.3      16.9             58            5.7            9.1   255.2
     09/21/11, 18:00      63.4      16.4             60            6.4           10.3   269.9
     09/21/11, 19:00      62.4      15.9             63            3.9            6.3   268.1
     09/21/11, 20:00      60.8      15.0             68            4.7            7.6   287.1
     09/21/11, 21:00      59.3      14.2             72            3.0            4.9   282.8
     09/21/11, 22:00      58.9      13.9             73            3.7            5.9   284.3
     09/21/11, 23:00      57.7      13.3             77            2.3            3.7   276.8
      09/22/11, 0:00      55.3      11.9             86            2.9            4.7   287.8


  

                                                                                             
           Date,Time       Air       Air     % Relative           Wind           Wind    Wind
                        Temp F    Temp C       Humidity      Speed mph     Speed km/h Dir Deg
---------------------------------------------------------------------------------------------
      09/22/11, 1:00      53.2      10.8             90            2.9            4.7   301.6
      09/22/11, 2:00      51.7       9.9             93            3.2            5.2   290.2
      09/22/11, 3:00      49.7       8.8             94            3.7            6.0   282.5
      09/22/11, 4:00      48.3       8.0             96            3.1            5.0   285.3
      09/22/11, 5:00      46.5       7.1             97            3.4            5.5   293.2
      09/22/11, 6:00      45.3       6.4             98            4.1            6.6     296
      09/22/11, 7:00      44.3       5.8             98            3.4            5.5   282.7
      09/22/11, 8:00      44.6       6.0             99            1.3            2.0   215.8
      09/22/11, 9:00      46.7       7.2             98            1.5            2.4   228.7
     09/22/11, 10:00      50.4       9.2             94            3.0            4.8   265.6
     09/22/11, 11:00      54.1      11.3             87            4.2            6.8   268.8
     09/22/11, 12:00      57.3      13.1             71            4.3            7.0   257.8
     09/22/11, 13:00      58.0      13.5             62            4.8            7.7   243.7
     09/22/11, 14:00      59.8      14.4             56            4.9            7.9   249.5
     09/22/11, 15:00      59.9      14.5             57            4.8            7.7   303.8
     09/22/11, 16:00      61.5      15.4             51            3.4            5.5   270.6
     09/22/11, 17:00      62.4      15.9             52            2.9            4.7   319.3
     09/22/11, 18:00      61.4      15.3             54            4.1            6.6   299.8
     09/22/11, 19:00      58.1      13.5             66            2.8            4.5   318.5
     09/22/11, 20:00      54.5      11.5             77            1.6            2.5   324.3
     09/22/11, 21:00      52.0      10.1             85            1.0            1.6   357.5
     09/22/11, 22:00      51.1       9.6             89            0.7            1.1   348.6
     09/22/11, 23:00      49.3       8.6             95            0.7            1.1   297.8
      09/23/11, 0:00      48.3       8.1             98            1.9            3.1   311.7
      09/23/11, 1:00      46.6       7.1             98            2.0            3.2   306.8
      09/23/11, 2:00      45.2       6.3            100            2.5            4.0   320.9
      09/23/11, 3:00      44.1       5.7            100            1.9            3.0   315.9
      09/23/11, 4:00      43.2       5.2            100            1.5            2.5   333.5
      09/23/11, 5:00      42.3       4.7            100            2.1            3.4     307
      09/23/11, 6:00      42.0       4.5            100            2.7            4.3   315.3
      09/23/11, 7:00      40.7       3.8            100            3.0            4.9   310.3
      09/23/11, 8:00      41.4       4.2            100            3.4            5.5   316.8
      09/23/11, 9:00      45.5       6.5            100            2.6            4.1   325.3
     09/23/11, 10:00      52.9      10.6            100            2.3            3.7   331.2
     09/23/11, 11:00      58.0      13.4             80            3.4            5.4   326.8
     09/23/11, 12:00      59.4      14.2             65            2.8            4.6   298.9
     09/23/11, 13:00      62.0      15.7             53            3.0            4.8   344.2
     09/23/11, 14:00      63.6      16.6             50            3.1            5.0   322.8
     09/23/11, 15:00      63.9      16.7             49            3.0            4.8   338.6
     09/23/11, 16:00      63.9      16.7             47            2.9            4.7   352.6
     09/23/11, 17:00      64.4      17.0             49            3.7            6.0     351
     09/23/11, 18:00      62.5      15.9             55            4.1            6.7   16.88
     09/23/11, 19:00      59.8      14.5             61            2.3            3.6   32.75
     09/23/11, 20:00      56.0      12.3             70            2.4            3.8   36.88
     09/23/11, 21:00      53.3      10.8             73            1.4            2.3   64.45
     09/23/11, 22:00      51.9      10.1             77            1.7            2.7    75.8
     09/23/11, 23:00      50.6       9.3             86            0.9            1.4    80.3
      09/24/11, 0:00      49.8       8.9             90            1.4            2.3   10.78


  

                                                                                             
           Date,Time       Air       Air     % Relative           Wind           Wind    Wind
                        Temp F    Temp C       Humidity      Speed mph     Speed km/h Dir Deg
---------------------------------------------------------------------------------------------
      09/24/11, 1:00      50.7       9.4             91            0.8            1.3   44.47
      09/24/11, 2:00      49.3       8.6             92            1.9            3.1    88.7
      09/24/11, 3:00      48.0       7.9             94            1.1            1.8   103.8
      09/24/11, 4:00      46.3       7.0             98            0.4            0.7   63.62
      09/24/11, 5:00      44.4       5.9            100            1.0            1.6   346.4
      09/24/11, 6:00      42.9       5.1            100            2.0            3.3   309.3
      09/24/11, 7:00      40.7       3.8            100            0.9            1.5   308.1
      09/24/11, 8:00      41.2       4.1            100            1.4            2.2   319.9
      09/24/11, 9:00      43.4       5.3            100            1.5            2.5   346.9
     09/24/11, 10:00      48.1       8.0            100            2.1            3.3   4.881
     09/24/11, 11:00      53.5      11.0            100            3.2            5.2   24.16
     09/24/11, 12:00      57.4      13.1             72            3.4            5.5   23.55
     09/24/11, 13:00      61.6      15.4             64            4.3            6.9   12.22
     09/24/11, 14:00      62.5      15.9             52            5.6            8.9   5.466
     09/24/11, 15:00      62.8      16.1             54            4.8            7.7   28.64
     09/24/11, 16:00      63.2      16.4             60            5.3            8.6   31.23
     09/24/11, 17:00      60.5      14.9             63            5.0            8.1   30.18
     09/24/11, 18:00      58.9      13.9             66            4.6            7.4   31.54
     09/24/11, 19:00      56.9      12.8             71            2.5            4.0   19.46
     09/24/11, 20:00      53.6      11.0             83            2.1            3.3   40.78
     09/24/11, 21:00      52.3      10.3             87            1.4            2.3   10.32
     09/24/11, 22:00      50.8       9.4             93            1.8            2.9   322.1
     09/24/11, 23:00      49.0       8.4             96            2.3            3.7   324.8
      09/25/11, 0:00      48.1       7.9             97            2.5            4.0   326.5
      09/25/11, 1:00      47.2       7.4             98            1.7            2.8   340.3
      09/25/11, 2:00      45.8       6.7             97            2.3            3.7   314.9
      09/25/11, 3:00      44.3       5.8             98            3.9            6.4   323.9
      09/25/11, 4:00      43.5       5.4             99            4.1            6.6   333.2
      09/25/11, 5:00      42.8       5.0             99            4.2            6.7   321.3
      09/25/11, 6:00      41.2       4.1            100            3.6            5.7   336.7
      09/25/11, 7:00      42.3       4.7            100            3.1            5.0   325.5
      09/25/11, 8:00      42.9       5.1            100            3.0            4.8   320.2
      09/25/11, 9:00      46.9       7.3            100            3.1            5.0   316.6
     09/25/11, 10:00      52.3      10.3             98            4.3            7.0   342.4
     09/25/11, 11:00      54.8      11.6             92            5.6            9.1   1.875
     09/25/11, 12:00      60.1      14.6             78            9.2           14.8    8.82
     09/25/11, 13:00      61.3      15.3             66            8.4           13.4    9.23
     09/25/11, 14:00      63.1      16.3             59            8.5           13.7   24.22
     09/25/11, 15:00      62.2      15.8             59            6.1            9.8   359.7
     09/25/11, 16:00      63.5      16.5             58            6.1            9.9   346.4
     09/25/11, 17:00      63.9      16.7             56            5.6            9.0   347.2
     09/25/11, 18:00      60.3      14.7             89            5.9            9.6     343
     09/25/11, 19:00      55.2      11.9             93            1.9            3.1   14.21
     09/25/11, 20:00      55.0      11.8             93            1.6            2.6     336
     09/25/11, 21:00      53.2      10.8             95            1.0            1.7   291.9
     09/25/11, 22:00      52.2      10.2             94            2.6            4.1   282.4
     09/25/11, 23:00      51.7       9.9             96            2.3            3.8   319.4
      09/26/11, 0:00      50.8       9.4             99            2.5            4.0   306.4


  

                                                                                             
           Date,Time       Air       Air     % Relative           Wind           Wind    Wind
                        Temp F    Temp C       Humidity      Speed mph     Speed km/h Dir Deg
---------------------------------------------------------------------------------------------
      09/26/11, 1:00      51.1       9.6             99            3.0            4.8   302.6
      09/26/11, 2:00      51.0       9.6            100            3.2            5.2   299.2
      09/26/11, 3:00      50.9       9.5            100            3.9            6.2     295
      09/26/11, 4:00      50.8       9.5            100            4.1            6.5   292.5
      09/26/11, 5:00      50.7       9.4            100            4.2            6.7   300.5
      09/26/11, 6:00      51.2       9.6            100            3.0            4.9   302.8
      09/26/11, 7:00      51.6       9.9            100            4.6            7.4   296.4
      09/26/11, 8:00      50.7       9.4            100            5.3            8.6     302
      09/26/11, 9:00      51.3       9.7            100            5.8            9.4     304
     09/26/11, 10:00      52.6      10.5             99            6.0            9.7   304.2
     09/26/11, 11:00      53.8      11.1             96            8.2           13.2   296.1
     09/26/11, 12:00      55.0      11.8             94            8.0           12.8   280.5
     09/26/11, 13:00      57.2      13.0             92            7.4           11.8   269.3
     09/26/11, 14:00      59.1      14.0             85            8.3           13.3   282.3
     09/26/11, 15:00      59.8      14.5             83            9.0           14.4     276
     09/26/11, 16:00      58.0      13.5             96            8.7           14.0   287.2
     09/26/11, 17:00      57.6      13.2             98            8.8           14.1   287.3
     09/26/11, 18:00      58.6      13.8             99           10.4           16.8   290.2
     09/26/11, 19:00      59.5      14.3             99            9.9           16.0   293.3
     09/26/11, 20:00      60.0      14.6             98            8.5           13.7   297.5
     09/26/11, 21:00      59.5      14.3             97            7.4           12.0   299.3
     09/26/11, 22:00      58.6      13.8             98            5.6            9.1   303.6
     09/26/11, 23:00      57.3      13.1             99            5.2            8.4   294.1
      09/27/11, 0:00      56.8      12.8             99            4.5            7.3     318
      09/27/11, 1:00      56.1      12.4            100            3.5            5.6   317.4
      09/27/11, 2:00      54.6      11.6            100            3.4            5.4   330.8
      09/27/11, 3:00      54.5      11.5            100            2.4            3.9   312.3
      09/27/11, 4:00      53.2      10.8            100            3.1            5.0   294.7
      09/27/11, 5:00      52.6      10.5            100            4.0            6.5   294.9
      09/27/11, 6:00      52.4      10.4            100            4.3            6.8   296.6
      09/27/11, 7:00      51.9      10.1            100            3.3            5.3   295.6
      09/27/11, 8:00      52.3      10.3            100            3.4            5.5   302.4
      09/27/11, 9:00      54.5      11.5            100            3.7            5.9     320
     09/27/11, 10:00      57.2      13.0             97            4.8            7.7   315.6
     09/27/11, 11:00      60.7      14.9             91            5.9            9.4     311
     09/27/11, 12:00      62.0      15.7             84            6.4           10.3   320.7
     09/27/11, 13:00      64.0      16.8             78            5.6            9.0   316.3
     09/27/11, 14:00      65.4      17.6             74            5.4            8.8   325.5
     09/27/11, 15:00      65.9      17.8             70            5.1            8.2   311.7
     09/27/11, 16:00      65.9      17.9             70            4.3            7.0   320.9
     09/27/11, 17:00      67.3      18.6             69            4.9            7.9   312.4
     09/27/11, 18:00      65.7      17.7             74            3.9            6.3   313.6
     09/27/11, 19:00      62.9      16.2             84            2.6            4.2   280.5
     09/27/11, 20:00      60.9      15.0             87            2.1            3.3     294
     09/27/11, 21:00      59.8      14.5             91            1.1            1.7   269.2
     09/27/11, 22:00      59.8      14.5             92            1.2            1.9   247.1
     09/27/11, 23:00      60.5      14.8             91            1.8            2.9   264.4
      09/28/11, 0:00      61.1      15.2             91            2.8            4.6   273.4


  

                                                                                             
           Date,Time       Air       Air     % Relative           Wind           Wind    Wind
                        Temp F    Temp C       Humidity      Speed mph     Speed km/h Dir Deg
---------------------------------------------------------------------------------------------
      09/28/11, 1:00      61.1      15.2             92            3.2            5.2   299.8
      09/28/11, 2:00      59.8      14.5             96            1.8            3.0   299.8
      09/28/11, 3:00      59.5      14.3             97            2.1            3.4   300.2
      09/28/11, 4:00      58.8      13.9             99            3.1            5.0   286.4
      09/28/11, 5:00      59.1      14.1             99            2.6            4.2   295.8
      09/28/11, 6:00      59.1      14.0            100            2.1            3.4   302.3
      09/28/11, 7:00      59.1      14.1            100            1.3            2.1   315.1
      09/28/11, 8:00      59.3      14.2             99            1.2            1.9   295.1
      09/28/11, 9:00      59.8      14.4             99            1.4            2.2   23.71
     09/28/11, 10:00      61.2      15.2             99            1.7            2.7   12.38
     09/28/11, 11:00      64.2      16.9             92            2.0            3.3   341.8
     09/28/11, 12:00      66.6      18.2             83            2.4            3.9   288.5
     09/28/11, 13:00      68.5      19.3             80            2.9            4.6   302.8
     09/28/11, 14:00      71.6      21.0             76            3.5            5.7   298.4
     09/28/11, 15:00      74.4      22.6             70            4.2            6.7   328.7
     09/28/11, 16:00      76.7      23.9             64            4.2            6.7   344.5
     09/28/11, 17:00      77.4      24.3             57            3.4            5.5    9.76
     09/28/11, 18:00      76.2      23.6             60            2.3            3.7   29.81
     09/28/11, 19:00      73.1      21.8             70            1.8            2.9    88.7
     09/28/11, 20:00      68.6      19.3             78            2.1            3.5   108.8
     09/28/11, 21:00      65.1      17.4             86            1.6            2.5     133
     09/28/11, 22:00      63.2      16.3             90            1.1            1.8   144.5
     09/28/11, 23:00      61.1      15.2             95            2.1            3.4   162.1
      09/29/11, 0:00      59.8      14.4             97            2.0            3.2   156.5
      09/29/11, 1:00      57.9      13.4            100            1.8            2.9   155.1
      09/29/11, 2:00      56.8      12.8            100            2.3            3.7   155.5
      09/29/11, 3:00      56.1      12.4            100            2.1            3.4   161.3
      09/29/11, 4:00      55.2      11.9            100            2.3            3.6   174.5
      09/29/11, 5:00      54.2      11.3            100            0.8            1.3   192.1
      09/29/11, 6:00      53.5      10.9            100            1.9            3.1   166.5
      09/29/11, 7:00      55.1      11.8            100            3.1            4.9   240.1
      09/29/11, 8:00      58.7      13.8             90            6.7           10.8   289.8
      09/29/11, 9:00      60.4      14.8             80            6.8           11.0   288.2
     09/29/11, 10:00      63.4      16.4             72            6.7           10.7   296.1
     09/29/11, 11:00      63.3      16.4             67            6.8           10.9   293.3
     09/29/11, 12:00      64.3      16.9             60            7.9           12.8   294.8
     09/29/11, 13:00      68.7      19.4             52           10.2           16.4   291.9
     09/29/11, 14:00      73.0      21.8             33           13.9           22.3   292.6
     09/29/11, 15:00      73.8      22.2             29           16.0           25.7   295.5
     09/29/11, 16:00      73.6      22.1             28           17.1           27.5   294.2
     09/29/11, 17:00      71.5      20.9             33           16.4           26.4   298.4
     09/29/11, 18:00      69.2      19.6             37           13.5           21.8   298.1
     09/29/11, 19:00      66.5      18.2             41           12.1           19.4   299.4
     09/29/11, 20:00      64.4      17.0             41            9.7           15.6   296.7
     09/29/11, 21:00      63.0      16.2             42            9.2           14.7   296.2
     09/29/11, 22:00      62.0      15.7             46            9.5           15.2   296.7
     09/29/11, 23:00      60.7      14.9             50            9.0           14.5   296.8
      09/30/11, 0:00      59.5      14.3             55            7.9           12.7     301


  

                                                                                             
           Date,Time       Air       Air     % Relative           Wind           Wind    Wind
                        Temp F    Temp C       Humidity      Speed mph     Speed km/h Dir Deg
---------------------------------------------------------------------------------------------
      09/30/11, 1:00      58.0      13.5             60            7.5           12.1   299.6
      09/30/11, 2:00      57.1      12.9             65            7.7           12.5   300.2
      09/30/11, 3:00      55.8      12.2             71            7.3           11.7   297.1
      09/30/11, 4:00      54.1      11.3             76            6.8           10.9   294.2
      09/30/11, 5:00      52.5      10.4             83            6.1            9.9   291.5
      09/30/11, 6:00      51.1       9.6             88            5.7            9.1   297.1
      09/30/11, 7:00      49.2       8.6             91            5.0            8.0   295.3
      09/30/11, 8:00      49.0       8.4             92            5.6            8.9     288
      09/30/11, 9:00      51.0       9.6             89            6.1            9.7   294.9
     09/30/11, 10:00      55.1      11.9             84            6.5           10.4   309.2
     09/30/11, 11:00      58.6      13.8             75            6.2            9.9   317.8
     09/30/11, 12:00      62.2      15.8             67            6.4           10.3   302.1
     09/30/11, 13:00      64.9      17.3             57            7.3           11.8   296.5
     09/30/11, 14:00      67.0      18.5             48            7.7           12.3     303
     09/30/11, 15:00      68.4      19.2             41            8.0           12.8   297.8
     09/30/11, 16:00      69.6      19.9             35            7.3           11.8   304.3
     09/30/11, 17:00      69.2      19.7             30            7.3           11.8     308
     09/30/11, 18:00      67.9      18.9             31            6.3           10.1   317.8
     09/30/11, 19:00      64.1      16.8             40            4.0            6.5   321.6
     09/30/11, 20:00      58.8      13.9             50            2.1            3.4   333.7
     09/30/11, 21:00      55.5      12.0             54            2.2            3.5   346.9
     09/30/11, 22:00      53.3      10.8             57            3.6            5.7   2.446
     09/30/11, 23:00      50.8       9.5             61            4.2            6.7    7.76
      10/01/11, 0:00      49.1       8.5             67            3.1            5.0   2.331
      10/01/11, 1:00      47.2       7.4             76            2.0            3.3   324.8
      10/01/11, 2:00      45.4       6.4             79            2.5            4.0   345.6
      10/01/11, 3:00      44.4       5.9             82            1.6            2.5   13.33
      10/01/11, 4:00      43.1       5.2             89            2.9            4.6   344.4
      10/01/11, 5:00      41.9       4.5             91            2.2            3.5   357.1
      10/01/11, 6:00      40.5       3.7             95            2.5            4.0     339
      10/01/11, 7:00      39.0       2.9             97            2.1            3.4   11.95
      10/01/11, 8:00      39.3       3.1             97            2.3            3.7   18.15
      10/01/11, 9:00      44.2       5.8             94            2.4            3.9   45.76
     10/01/11, 10:00      48.5       8.2             85            4.8            7.7    98.5
     10/01/11, 11:00      52.2      10.2             73            3.9            6.2   105.8
     10/01/11, 12:00      56.2      12.4             61            2.9            4.7   119.4
     10/01/11, 13:00      58.8      13.9             52            2.4            3.9   145.1
     10/01/11, 14:00      61.3      15.3             48            3.2            5.2   119.1
     10/01/11, 15:00      62.8      16.1             41            3.1            5.0   164.2
     10/01/11, 16:00      64.5      17.1             38            2.6            4.2   52.61
     10/01/11, 17:00      65.0      17.3             35            2.4            3.8   135.2
     10/01/11, 18:00      64.1      16.8             37            3.1            4.9   124.9
     10/01/11, 19:00      61.3      15.3             43            1.6            2.5    87.4
     10/01/11, 20:00      57.5      13.2             50            1.0            1.6     102
     10/01/11, 21:00      53.8      11.1             59            0.3            0.5    93.3
     10/01/11, 22:00      50.1       9.1             71            0.2            0.3   42.84
     10/01/11, 23:00      48.7       8.3             71            0.9            1.5    91.9
      10/02/11, 0:00      47.2       7.5             70            0.8            1.3   118.7


  

                                                                                             
           Date,Time       Air       Air     % Relative           Wind           Wind    Wind
                        Temp F    Temp C       Humidity      Speed mph     Speed km/h Dir Deg
---------------------------------------------------------------------------------------------
      10/02/11, 1:00      45.6       6.5             74            1.1            1.7    89.2
      10/02/11, 2:00      44.5       6.0             75            0.9            1.4    96.5
      10/02/11, 3:00      43.3       5.3             75            0.9            1.5   102.6
      10/02/11, 4:00      42.0       4.5             80            0.8            1.3    94.7
      10/02/11, 5:00      41.8       4.5             79            0.4            0.6   120.4
      10/02/11, 6:00      40.2       3.5             85            0.6            1.0    92.1
      10/02/11, 7:00      40.1       3.5             84            1.0            1.6   108.3
      10/02/11, 8:00      40.6       3.8             84            0.4            0.6   146.5
      10/02/11, 9:00      44.6       6.0             84            1.0            1.7   129.6
     10/02/11, 10:00      52.5      10.4             81            3.6            5.9   166.7
     10/02/11, 11:00      59.7      14.4             52            5.0            8.1   190.7
     10/02/11, 12:00      64.9      17.3             42            5.0            8.1   197.3
     10/02/11, 13:00      68.6      19.4             35            4.0            6.5   199.9
     10/02/11, 14:00      71.2      20.8             31            3.6            5.8   188.1
     10/02/11, 15:00      73.8      22.2             28            2.3            3.7   183.8
     10/02/11, 16:00      74.6      22.6             26            3.3            5.3   176.9
     10/02/11, 17:00      74.6      22.6             24            3.3            5.3   171.4
     10/02/11, 18:00      73.0      21.8             26            3.5            5.7   170.9
     10/02/11, 19:00      68.3      19.2             30            1.5            2.5   203.9
     10/02/11, 20:00      64.6      17.1             31            0.2            0.3   225.4
     10/02/11, 21:00      60.1      14.6             56            0.0            0.0       0
     10/02/11, 22:00      55.0      11.8             60            0.0            0.0    71.1
     10/02/11, 23:00      52.3      10.3             76            0.1            0.2   144.4
      10/03/11, 0:00      51.8      10.0             64            0.2            0.3   182.2
      10/03/11, 1:00      49.7       8.9             74            0.2            0.3   303.2
      10/03/11, 2:00      48.3       8.0             74            0.0            0.0       0
      10/03/11, 3:00      46.7       7.2             85            0.2            0.3    9.48
      10/03/11, 4:00      46.0       6.8             86            0.4            0.6   357.3
      10/03/11, 5:00      45.2       6.3             89            0.7            1.1   305.7
      10/03/11, 6:00      43.6       5.4             92            0.6            1.0   352.5
      10/03/11, 7:00      42.2       4.7             93            0.2            0.3   313.9
      10/03/11, 8:00      44.1       5.7             92            0.2            0.3   328.4
      10/03/11, 9:00      50.4       9.2             93            0.1            0.2    76.8
     10/03/11, 10:00      58.4      13.7             86            0.9            1.5   130.2
     10/03/11, 11:00      68.4      19.2             47            1.9            3.0   194.3
     10/03/11, 12:00      73.8      22.3             32            2.5            3.9   151.5
     10/03/11, 13:00      76.0      23.5             28            4.6            7.4   135.5
     10/03/11, 14:00      77.9      24.5             25            4.5            7.3   117.1
     10/03/11, 15:00      79.5      25.4             22            4.3            6.9   135.6
     10/03/11, 16:00      79.9      25.6             19            4.7            7.6   139.5
     10/03/11, 17:00      79.8      25.6             18            4.5            7.2   136.3
     10/03/11, 18:00      78.4      24.8             22            3.5            5.7   139.9
     10/03/11, 19:00      73.2      21.9             25            1.9            3.0     153
     10/03/11, 20:00      69.4      19.8             31            1.3            2.0    78.3
     10/03/11, 21:00      65.3      17.5             40            1.2            2.0    79.1
     10/03/11, 22:00      63.0      16.2             40            1.2            1.9    91.1
     10/03/11, 23:00      60.4      14.8             54            0.4            0.6   107.8
      10/04/11, 0:00      57.0      12.9             65            0.3            0.6    84.3


  

                                                                                             
           Date,Time       Air       Air     % Relative           Wind           Wind    Wind
                        Temp F    Temp C       Humidity      Speed mph     Speed km/h Dir Deg
---------------------------------------------------------------------------------------------
      10/04/11, 1:00      55.6      12.1             63            1.3            2.0    90.5
      10/04/11, 2:00      55.4      12.0             54            0.6            1.0   120.5
      10/04/11, 3:00      53.3      10.8             65            0.7            1.1    94.9
      10/04/11, 4:00      52.5      10.4             62            1.4            2.2    91.6
      10/04/11, 5:00      52.2      10.2             61            0.8            1.4   111.7
      10/04/11, 6:00      51.2       9.7             65            0.5            0.9   137.3
      10/04/11, 7:00      50.4       9.2             70            0.6            1.0   132.7
      10/04/11, 8:00      48.5       8.2             77            1.4            2.2   110.2
      10/04/11, 9:00      53.1      10.7             68            2.5            4.1   121.9
     10/04/11, 10:00      59.7      14.4             63            4.9            7.9   130.8
     10/04/11, 11:00      68.4      19.2             51            5.9            9.5   132.4
     10/04/11, 12:00      75.9      23.4             38            8.8           14.2   145.5
     10/04/11, 13:00      79.8      25.6             27            9.2           14.8   154.8
     10/04/11, 14:00      82.2      26.9             24            9.5           15.3   145.6
     10/04/11, 15:00      83.8      27.8             19            9.6           15.5   149.9
     10/04/11, 16:00      84.5      28.1             19            9.3           14.9   145.9
     10/04/11, 17:00      83.9      27.9             21            9.1           14.7   144.6
     10/04/11, 18:00      82.2      26.9             26            7.1           11.4   141.7
     10/04/11, 19:00      76.0      23.5             33            4.0            6.5   142.6
     10/04/11, 20:00      70.6      20.4             37            3.7            5.9   140.5
     10/04/11, 21:00      67.8      18.9             40            3.2            5.2   149.9
     10/04/11, 22:00      64.8      17.2             44            2.9            4.7   145.6
     10/04/11, 23:00      62.9      16.2             49            3.2            5.2   148.9
      10/05/11, 0:00      60.9      15.0             52            3.0            4.8   143.2
      10/05/11, 1:00      59.1      14.0             56            2.7            4.4     150
      10/05/11, 2:00      57.5      13.2             60            2.8            4.4   150.5
      10/05/11, 3:00      56.3      12.5             64            2.2            3.5     153
      10/05/11, 4:00      54.8      11.7             66            2.5            4.1   143.6
      10/05/11, 5:00      54.4      11.5             67            2.1            3.4   147.5
      10/05/11, 6:00      53.0      10.7             72            2.3            3.7     138
      10/05/11, 7:00      52.8      10.6             72            2.3            3.6   130.5
      10/05/11, 8:00      52.7      10.5             73            2.3            3.7   131.4
      10/05/11, 9:00      56.0      12.3             73            2.9            4.6   129.6
     10/05/11, 10:00      62.1      15.7             66            4.8            7.8     136
     10/05/11, 11:00      71.0      20.6             56            5.1            8.1   147.6
     10/05/11, 12:00      77.1      24.1             42            5.6            9.0   156.1
     10/05/11, 13:00      80.9      26.2             34            7.8           12.5   154.4
     10/05/11, 14:00      82.9      27.3             31            8.7           14.0   142.2
     10/05/11, 15:00      83.8      27.8             28            9.0           14.5   150.6
     10/05/11, 16:00      84.0      27.9             26            9.2           14.8   140.7
     10/05/11, 17:00      83.4      27.6             26            8.9           14.3   139.3
     10/05/11, 18:00      81.8      26.7             27            7.5           12.0   131.9
     10/05/11, 19:00      76.2      23.6             32            5.3            8.6   143.5
     10/05/11, 20:00      70.4      20.3             39            3.2            5.2   143.2
     10/05/11, 21:00      67.1      18.5             44            2.8            4.5   136.3
     10/05/11, 22:00      64.9      17.3             50            3.3            5.3   130.2
     10/05/11, 23:00      62.8      16.1             55            4.3            6.9   139.3
      10/06/11, 0:00      61.0      15.1             60            4.2            6.8   136.4


  

                                                                                             
           Date,Time       Air       Air     % Relative           Wind           Wind    Wind
                        Temp F    Temp C       Humidity      Speed mph     Speed km/h Dir Deg
---------------------------------------------------------------------------------------------
      10/06/11, 1:00      59.4      14.2             63            3.1            4.9   125.3
      10/06/11, 2:00      57.5      13.2             67            3.0            4.9   129.4
      10/06/11, 3:00      56.3      12.5             69            2.7            4.3   130.1
      10/06/11, 4:00      55.6      12.1             71            2.7            4.4   117.3
      10/06/11, 5:00      54.6      11.6             75            2.2            3.5   125.6
      10/06/11, 6:00      53.2      10.8             80            2.6            4.1   122.6
      10/06/11, 7:00      52.5      10.4             84            2.5            4.0   123.4
      10/06/11, 8:00      52.4      10.3             86            3.7            5.9   130.6
      10/06/11, 9:00      56.2      12.4             83            4.6            7.5   132.1
     10/06/11, 10:00      62.6      16.0             75            5.7            9.1   126.9
     10/06/11, 11:00      70.1      20.2             58            7.8           12.6   138.8
     10/06/11, 12:00      75.3      23.1             45           10.1           16.3   148.5
     10/06/11, 13:00      78.3      24.8             38           11.7           18.9   143.3
     10/06/11, 14:00      80.4      25.9             32           11.8           19.0     140
     10/06/11, 15:00      80.3      25.8             30           12.2           19.6   144.1
     10/06/11, 16:00      79.9      25.6             29           11.2           18.0     144
     10/06/11, 17:00      80.8      26.1             31           10.9           17.6   124.8
     10/06/11, 18:00      80.4      25.9             32           10.6           17.1   135.5
     10/06/11, 19:00      77.2      24.1             37            8.4           13.5   131.6
     10/06/11, 20:00      72.8      21.7             46            5.6            9.0   125.3
     10/06/11, 21:00      70.1      20.1             50            6.7           10.8   123.3
     10/06/11, 22:00      70.5      20.4             50            9.1           14.7   127.7
     10/06/11, 23:00      69.3      19.8             56            9.5           15.3   127.4
      10/07/11, 0:00      67.7      18.9             61            8.3           13.4   131.4
      10/07/11, 1:00      66.7      18.3             64            7.6           12.2   133.3
      10/07/11, 2:00      67.0      18.5             64            8.5           13.6   143.5
      10/07/11, 3:00      67.2      18.5             64            8.2           13.1   142.5
      10/07/11, 4:00      65.7      17.7             68            7.6           12.2   144.8
      10/07/11, 5:00      64.2      16.9             71            6.7           10.8   138.7
      10/07/11, 6:00      62.5      15.9             74            7.1           11.5   133.1
      10/07/11, 7:00      61.8      15.6             75            7.8           12.6   133.3
      10/07/11, 8:00      62.1      15.7             75            8.6           13.8   138.9
      10/07/11, 9:00      65.2      17.4             71           11.1           17.9     146
     10/07/11, 10:00      69.5      19.8             64           13.6           21.8   150.9
     10/07/11, 11:00      75.0      22.9             54           14.9           24.0   160.9
     10/07/11, 12:00      78.4      24.8             48           16.7           26.9   154.9
     10/07/11, 13:00      81.8      26.7             46           15.7           25.3     157
     10/07/11, 14:00      83.9      27.9             44           17.0           27.3   160.3
     10/07/11, 15:00      85.0      28.4             41           16.6           26.7   169.6
     10/07/11, 16:00      85.3      28.6             40           16.9           27.1   165.4
     10/07/11, 17:00      84.9      28.4             39           16.3           26.2   155.7
     10/07/11, 18:00      83.3      27.5             38           13.2           21.3     156
     10/07/11, 19:00      80.2      25.8             42           12.0           19.4   152.2
     10/07/11, 20:00      76.2      23.5             47            8.5           13.7   146.2
     10/07/11, 21:00      73.0      21.8             48            8.3           13.3   145.7
     10/07/11, 22:00      71.7      21.1             50            9.0           14.5   146.8
     10/07/11, 23:00      70.0      20.1             52            8.6           13.9   149.4
      10/08/11, 0:00      69.2      19.7             53            8.2           13.2     154


  

                                                                                             
           Date,Time       Air       Air     % Relative           Wind           Wind    Wind
                        Temp F    Temp C       Humidity      Speed mph     Speed km/h Dir Deg
---------------------------------------------------------------------------------------------
      10/08/11, 1:00      66.4      18.1             60            6.2           10.1   154.4
      10/08/11, 2:00      64.4      17.0             64            6.2           10.0   148.4
      10/08/11, 3:00      63.2      16.4             66            6.8           10.9   145.8
      10/08/11, 4:00      62.7      16.0             69            7.2           11.6   144.7
      10/08/11, 5:00      61.5      15.4             73            6.9           11.1   144.3
      10/08/11, 6:00      60.9      15.1             76            6.8           11.0     140
      10/08/11, 7:00      60.4      14.8             78            7.7           12.4   142.1
      10/08/11, 8:00      61.4      15.3             78            9.4           15.2   145.9
      10/08/11, 9:00      64.7      17.2             72           11.0           17.6   145.6
     10/08/11, 10:00      68.8      19.5             66           12.4           19.9   151.1
     10/08/11, 11:00      74.0      22.3             59           13.5           21.8   161.8
     10/08/11, 12:00      78.2      24.6             51           13.1           21.1   162.9
     10/08/11, 13:00      81.7      26.6             47           13.2           21.2   172.6
     10/08/11, 14:00      83.1      27.4             43           14.0           22.5   171.6
     10/08/11, 15:00      83.0      27.3             41           12.1           19.5   180.5
     10/08/11, 16:00      83.7      27.7             41           10.5           16.9   169.1
     10/08/11, 17:00      82.5      27.1             41           10.1           16.3   154.7
     10/08/11, 18:00      82.0      26.8             36           10.3           16.6   149.2
     10/08/11, 19:00      77.7      24.4             48            6.2            9.9   145.5
     10/08/11, 20:00      72.8      21.7             52            5.2            8.4   132.9
     10/08/11, 21:00      70.3      20.3             56            4.5            7.2   143.7
     10/08/11, 22:00      67.5      18.7             61            3.0            4.9   128.1
     10/08/11, 23:00      65.9      17.8             62            4.5            7.3   131.2
      10/09/11, 0:00      65.9      17.9             62            6.6           10.6   130.7
      10/09/11, 1:00      63.1      16.3             71            4.9            7.9   131.1
      10/09/11, 2:00      60.6      14.9             77            3.2            5.1   134.9
      10/09/11, 3:00      58.8      13.9             82            3.6            5.8   130.5
      10/09/11, 4:00      58.4      13.7             83            2.5            3.9     116
      10/09/11, 5:00      57.1      13.0             87            2.8            4.5   124.9
      10/09/11, 6:00      56.8      12.8             89            3.4            5.5   119.8
      10/09/11, 7:00      56.5      12.6             90            3.7            6.0   111.8
      10/09/11, 8:00      56.6      12.7             91            3.9            6.2     117
      10/09/11, 9:00      59.3      14.2             90            4.1            6.6     121
     10/09/11, 10:00      64.5      17.1             84            6.2           10.0   130.8
     10/09/11, 11:00      69.9      20.0             72            7.7           12.4   146.5
     10/09/11, 12:00      74.7      22.7             60            8.3           13.3   146.6
     10/09/11, 13:00      77.9      24.5             53            8.8           14.1   143.7
     10/09/11, 14:00      80.3      25.8             43            9.6           15.4   127.6
     10/09/11, 15:00      80.9      26.2             38            9.6           15.5   125.1
     10/09/11, 16:00      81.2      26.3             37            9.8           15.8     118
     10/09/11, 17:00      80.8      26.1             36           10.5           16.9   124.4
     10/09/11, 18:00      79.5      25.4             40            9.7           15.7   122.7
     10/09/11, 19:00      75.4      23.1             46            5.7            9.2     121
     10/09/11, 20:00      71.2      20.8             54            3.8            6.1   115.1
     10/09/11, 21:00      68.2      19.1             58            3.9            6.2     118
     10/09/11, 22:00      66.4      18.1             63            4.1            6.5   116.7
     10/09/11, 23:00      64.7      17.2             66            4.8            7.7   114.5
      10/10/11, 0:00      63.2      16.3             68            4.6            7.4   111.2


  

                                                                                             
           Date,Time       Air       Air     % Relative           Wind           Wind    Wind
                        Temp F    Temp C       Humidity      Speed mph     Speed km/h Dir Deg
---------------------------------------------------------------------------------------------
      10/10/11, 1:00      61.0      15.1             71            3.2            5.1   118.7
      10/10/11, 2:00      59.6      14.3             74            3.2            5.1   112.5
      10/10/11, 3:00      58.0      13.4             78            3.1            5.0   127.3
      10/10/11, 4:00      56.6      12.6             82            3.2            5.1   127.7
      10/10/11, 5:00      55.3      12.0             84            2.9            4.6   139.9
      10/10/11, 6:00      55.2      11.9             84            2.4            3.8   113.7
      10/10/11, 7:00      55.3      12.0             84            3.9            6.2   115.1
      10/10/11, 8:00      55.8      12.2             84            4.3            6.9   115.8
      10/10/11, 9:00      57.2      13.0             82            5.4            8.7   115.1
     10/10/11, 10:00      61.7      15.5             77            6.3           10.2     121
     10/10/11, 11:00      68.2      19.1             63            8.3           13.4   144.7
     10/10/11, 12:00      70.3      20.3             51            8.0           12.9   142.1
     10/10/11, 13:00      71.8      21.1             50            7.2           11.6   132.1
     10/10/11, 14:00      75.2      23.0             47            8.2           13.1   132.6
     10/10/11, 15:00      76.0      23.4             47            9.6           15.5   143.4
     10/10/11, 16:00      76.4      23.7             47            9.5           15.2   153.2
     10/10/11, 17:00      74.9      22.8             50            9.0           14.6   157.4
     10/10/11, 18:00      73.3      22.0             53            6.3           10.1     181
     10/10/11, 19:00      71.1      20.7             63            2.6            4.2   201.3
     10/10/11, 20:00      66.6      18.2             84            0.9            1.5   266.6
     10/10/11, 21:00      63.3      16.4             90            1.2            1.9   335.6
     10/10/11, 22:00      61.3      15.3             97            0.4            0.6   53.17
     10/10/11, 23:00      59.9      14.5             99            0.4            0.7     121
      10/11/11, 0:00      58.0      13.4            100            0.6            1.0      67
      10/11/11, 1:00      57.7      13.3            100            0.9            1.4   108.6
      10/11/11, 2:00      57.1      13.0            100            1.5            2.4   139.9
      10/11/11, 3:00      57.4      13.1             98            1.6            2.6   141.9
      10/11/11, 4:00      57.1      12.9             98            0.8            1.4   144.3
      10/11/11, 5:00      57.2      13.0             99            1.0            1.5   161.3
      10/11/11, 6:00      57.9      13.4             99            3.0            4.9   165.1
      10/11/11, 7:00      56.8      12.8             99            1.3            2.1     160
      10/11/11, 8:00      55.6      12.1            100            1.1            1.8   114.8
      10/11/11, 9:00      57.1      12.9            100            2.3            3.7   148.7
     10/11/11, 10:00      62.7      16.1            100            3.6            5.7   146.7
     10/11/11, 11:00      67.2      18.5             93            4.7            7.6   153.2
     10/11/11, 12:00      71.5      20.9             81            5.9            9.5     140
     10/11/11, 13:00      74.0      22.3             66            6.1            9.8   148.3
     10/11/11, 14:00      76.5      23.7             50            6.9           11.2   161.4
     10/11/11, 15:00      77.1      24.0             49            6.6           10.6   159.5
     10/11/11, 16:00      78.7      25.0             46            6.6           10.6   152.7
     10/11/11, 17:00      78.5      24.8             39            6.8           10.9   154.9
     10/11/11, 18:00      76.0      23.5             45            5.7            9.1   149.8
     10/11/11, 19:00      71.6      21.0             56            3.8            6.2   132.6
     10/11/11, 20:00      67.4      18.7             60            2.5            4.1   130.9
     10/11/11, 21:00      65.9      17.9             65            3.7            6.0   108.4
     10/11/11, 22:00      63.7      16.6             74            3.0            4.9   126.7
     10/11/11, 23:00      62.0      15.7             82            3.7            5.9   120.9
      10/12/11, 0:00      61.1      15.2             90            4.6            7.5     130


  

                                                                                             
           Date,Time       Air       Air     % Relative           Wind           Wind    Wind
                        Temp F    Temp C       Humidity      Speed mph     Speed km/h Dir Deg
---------------------------------------------------------------------------------------------
      10/12/11, 1:00      60.7      15.0             92            3.8            6.1     124
      10/12/11, 2:00      60.0      14.6             95            3.3            5.3   121.8
      10/12/11, 3:00      58.9      14.0             97            3.3            5.2   130.1
      10/12/11, 4:00      58.2      13.6             99            2.8            4.5   120.4
      10/12/11, 5:00      57.6      13.2            100            2.9            4.6   131.6
      10/12/11, 6:00      57.6      13.2            100            1.7            2.7   120.2
      10/12/11, 7:00      58.0      13.4            100            2.2            3.5   111.2
      10/12/11, 8:00      58.6      13.8            100            2.4            3.9   116.6
      10/12/11, 9:00      59.3      14.1            100            4.2            6.8   104.9
     10/12/11, 10:00      61.2      15.2            100            7.1           11.4   110.4
     10/12/11, 11:00      61.6      15.5             99            9.1           14.6   125.4
     10/12/11, 12:00      63.4      16.5             96            4.4            7.1   169.2
     10/12/11, 13:00      66.0      17.9             92            5.3            8.6   113.8
     10/12/11, 14:00      66.7      18.3             89            5.2            8.3    88.4
     10/12/11, 15:00      66.5      18.2             89            4.3            7.0      72
     10/12/11, 16:00      59.1      14.0             96            5.0            8.1   282.3
     10/12/11, 17:00      58.0      13.5            100            1.5            2.4   38.36
     10/12/11, 18:00      58.0      13.5            100            0.5            0.8   147.7
     10/12/11, 19:00      58.6      13.8            100            2.1            3.3   279.2
     10/12/11, 20:00      59.0      14.0            100            4.6            7.4   288.5
     10/12/11, 21:00      58.3      13.6            100            3.5            5.6   276.3
     10/12/11, 22:00      58.0      13.5            100            2.6            4.2   269.2
     10/12/11, 23:00      58.6      13.8            100            2.7            4.3   269.7
      10/13/11, 0:00      59.3      14.1            100            4.4            7.1   279.3
      10/13/11, 1:00      59.0      14.0             98            6.2           10.0   293.2
      10/13/11, 2:00      57.7      13.3             98            6.8           11.0   288.9
      10/13/11, 3:00      57.6      13.2             98            8.0           12.9   291.3
      10/13/11, 4:00      56.6      12.7             99            7.2           11.6     290
      10/13/11, 5:00      54.8      11.7            100            6.3           10.1   289.4
      10/13/11, 6:00      53.9      11.2            100            6.0            9.7   285.9
      10/13/11, 7:00      52.8      10.6            100            5.5            8.8   280.4
      10/13/11, 8:00      51.8      10.0            100            6.5           10.4   286.7
      10/13/11, 9:00      53.0      10.7             93            7.9           12.7   288.9
     10/13/11, 10:00      56.3      12.5             89            8.4           13.6   288.3
     10/13/11, 11:00      60.4      14.8             82            8.5           13.6   291.3
     10/13/11, 12:00      63.4      16.4             75           10.0           16.1     288
     10/13/11, 13:00      66.1      18.0             67           10.5           16.8     291
     10/13/11, 14:00      67.8      18.9             57           12.6           20.2   287.9
     10/13/11, 15:00      69.5      19.8             43           11.8           19.0     292
     10/13/11, 16:00      69.5      19.8             41           12.6           20.3   292.5
     10/13/11, 17:00      68.4      19.2             43           11.2           18.0   289.9
     10/13/11, 18:00      66.8      18.3             47            7.9           12.8   287.9
     10/13/11, 19:00      63.3      16.4             52            6.3           10.1   291.3
     10/13/11, 20:00      59.6      14.3             62            4.9            7.9     297
     10/13/11, 21:00      56.9      12.8             65            4.5            7.2   292.1
     10/13/11, 22:00      56.0      12.3             69            5.3            8.6   294.7
     10/13/11, 23:00      51.8      10.0             79            2.8            4.6   262.8
      10/14/11, 0:00      50.4       9.2             81            2.7            4.4   248.7


  

                                                                                             
           Date,Time       Air       Air     % Relative           Wind           Wind    Wind
                        Temp F    Temp C       Humidity      Speed mph     Speed km/h Dir Deg
---------------------------------------------------------------------------------------------
      10/14/11, 1:00      50.3       9.2             80            2.8            4.4   240.7
      10/14/11, 2:00      50.1       9.1             75            4.2            6.8   259.2
      10/14/11, 3:00      49.7       8.8             70            6.3           10.2   284.4
      10/14/11, 4:00      48.4       8.1             77            4.8            7.7     275
      10/14/11, 5:00      46.1       6.8             78            3.9            6.2   269.8
      10/14/11, 6:00      46.0       6.8             81            4.5            7.2   275.9
      10/14/11, 7:00      45.4       6.5             83            4.0            6.5   267.8
      10/14/11, 8:00      45.8       6.7             84            4.7            7.6   262.8
      10/14/11, 9:00      48.2       8.0             82            5.7            9.2   268.9
     10/14/11, 10:00      52.0      10.1             75            8.9           14.4   281.7
     10/14/11, 11:00      55.1      11.8             71           10.1           16.3   284.9
     10/14/11, 12:00      55.8      12.2             68           11.1           17.9     283
     10/14/11, 13:00      57.7      13.3             63            8.8           14.2     282
     10/14/11, 14:00      58.4      13.7             61            9.8           15.8   283.4
     10/14/11, 15:00      61.3      15.3             54           11.2           18.0   280.3
     10/14/11, 16:00      61.5      15.4             50           10.9           17.5   288.5
     10/14/11, 17:00      62.4      15.9             42           12.6           20.3   286.6
     10/14/11, 18:00      61.0      15.1             42           10.8           17.3   288.1
     10/14/11, 19:00      58.4      13.7             43            8.8           14.2   282.5
     10/14/11, 20:00      53.9      11.2             53            4.0            6.4   276.8
     10/14/11, 21:00      50.7       9.4             57            3.5            5.6   278.9
     10/14/11, 22:00      52.6      10.4             57            8.2           13.2     290
     10/14/11, 23:00      50.6       9.3             67            6.2           10.0   284.6
      10/15/11, 0:00      47.9       7.8             70            4.2            6.8   269.9
      10/15/11, 1:00      46.3       6.9             74            3.6            5.9   267.3
      10/15/11, 2:00      45.8       6.7             75            4.3            6.9   258.4
      10/15/11, 3:00      44.6       6.0             80            3.7            6.0   268.9
      10/15/11, 4:00      43.3       5.3             84            3.7            5.9   264.7
      10/15/11, 5:00      42.3       4.7             87            3.3            5.3   257.3
      10/15/11, 6:00      42.1       4.6             88            3.4            5.5   257.8
      10/15/11, 7:00      41.7       4.4             89            3.1            4.9   253.6
      10/15/11, 8:00      41.6       4.3             89            2.9            4.7   244.2
      10/15/11, 9:00      44.5       5.9             87            2.8            4.4   255.9
     10/15/11, 10:00      49.7       8.8             80            4.7            7.6   254.1
     10/15/11, 11:00      54.0      11.2             67            6.5           10.4   278.2
     10/15/11, 12:00      58.2      13.5             58            7.7           12.4     270
     10/15/11, 13:00      61.8      15.6             47            7.5           12.1   270.2
     10/15/11, 14:00      64.8      17.2             37            7.8           12.6     264
     10/15/11, 15:00      66.5      18.2             30            7.0           11.2   260.4
     10/15/11, 16:00      67.8      18.9             28            5.3            8.6   240.3
     10/15/11, 17:00      68.4      19.2             26            5.1            8.1   214.5
     10/15/11, 18:00      67.2      18.6             29            3.6            5.9   196.3
     10/15/11, 19:00      62.5      15.9             36            1.9            3.1     197
     10/15/11, 20:00      58.8      13.9             41            3.4            5.5   182.3
     10/15/11, 21:00      55.8      12.2             50            2.2            3.5   165.3
     10/15/11, 22:00      53.6      11.0             55            1.9            3.0     123
     10/15/11, 23:00      51.6       9.9             62            2.1            3.4      95
      10/16/11, 0:00      51.0       9.6             60            3.0            4.7   139.5


  

                                                                                             
           Date,Time       Air       Air     % Relative           Wind           Wind    Wind
                        Temp F    Temp C       Humidity      Speed mph     Speed km/h Dir Deg
---------------------------------------------------------------------------------------------
      10/16/11, 1:00      50.0       9.0             64            3.2            5.2     137
      10/16/11, 2:00      50.3       9.2             63            1.9            3.1   106.4
      10/16/11, 3:00      50.0       9.0             68            2.7            4.4    8.05
      10/16/11, 4:00      49.3       8.6             78            1.7            2.7   330.4
      10/16/11, 5:00      48.5       8.2             79            4.1            6.6   341.2
      10/16/11, 6:00      48.0       7.9             80            3.7            5.9   12.45
      10/16/11, 7:00      48.1       7.9             82            5.8            9.3   341.5
      10/16/11, 8:00      48.6       8.3             84            5.0            8.0   336.7
      10/16/11, 9:00      49.0       8.4             86            3.1            5.1   324.7
     10/16/11, 10:00      51.3       9.7             83            4.6            7.4   314.1
     10/16/11, 11:00      54.3      11.4             66            7.1           11.4   310.2
     10/16/11, 12:00      55.1      11.8             63            6.5           10.4   294.5
     10/16/11, 13:00      57.9      13.4             61            7.5           12.1   290.8
     10/16/11, 14:00      60.0      14.5             50            8.2           13.1     292
     10/16/11, 15:00      61.8      15.5             40            9.0           14.5   291.9
     10/16/11, 16:00      62.8      16.1             35            9.2           14.8   289.3
     10/16/11, 17:00      62.5      15.9             35            9.2           14.9   295.2
     10/16/11, 18:00      60.5      14.8             36            7.1           11.5     294
     10/16/11, 19:00      56.9      12.8             40            4.0            6.4   286.8
     10/16/11, 20:00      51.8      10.0             46            3.2            5.2   281.1
     10/16/11, 21:00      49.0       8.5             51            2.6            4.2   277.3
     10/16/11, 22:00      48.3       8.1             52            2.6            4.2   265.4
     10/16/11, 23:00      45.8       6.7             57            4.3            6.9   281.4
      10/17/11, 0:00      44.8       6.1             58            4.7            7.5   282.4
      10/17/11, 1:00      43.3       5.3             60            4.2            6.8   279.4
      10/17/11, 2:00      41.4       4.2             68            2.4            3.9   257.2
      10/17/11, 3:00      39.3       3.1             70            2.2            3.5   245.2
      10/17/11, 4:00      38.1       2.4             76            2.1            3.4   237.9
      10/17/11, 5:00      37.4       2.0             78            2.8            4.5   254.4
      10/17/11, 6:00      37.9       2.3             79            4.2            6.8   276.7
      10/17/11, 7:00      37.8       2.2             78            2.2            3.6   267.2
      10/17/11, 8:00      38.7       2.7             78            1.5            2.4   260.6
      10/17/11, 9:00      41.0       4.0             77            2.1            3.4   282.2
     10/17/11, 10:00      42.9       5.1             73            2.7            4.3   263.2
     10/17/11, 11:00      44.6       6.0             72            1.9            3.1   262.8
     10/17/11, 12:00      46.8       7.3             69            3.0            4.7   225.5
     10/17/11, 13:00      48.2       8.0             66            4.8            7.7   204.6
     10/17/11, 14:00      50.0       9.0             66            4.7            7.6   236.8
     10/17/11, 15:00      51.3       9.7             60            4.7            7.5   229.7
     10/17/11, 16:00      52.6      10.5             59            4.8            7.8   249.2
     10/17/11, 17:00      54.1      11.3             52            5.0            8.1     265
     10/17/11, 18:00      53.2      10.8             57            3.3            5.3   231.2
     10/17/11, 19:00      48.9       8.4             69            3.3            5.4   202.2
     10/17/11, 20:00      46.0       6.8             80            2.5            4.0   209.1
     10/17/11, 21:00      45.1       6.3             86            2.5            4.0   212.8
     10/17/11, 22:00      44.4       5.9             89            2.4            3.8   229.4
     10/17/11, 23:00      44.7       6.1             89            2.7            4.4   250.8
      10/18/11, 0:00      44.8       6.1             79            2.2            3.5   271.3


  

                                                                                             
           Date,Time       Air       Air     % Relative           Wind           Wind    Wind
                        Temp F    Temp C       Humidity      Speed mph     Speed km/h Dir Deg
---------------------------------------------------------------------------------------------
      10/18/11, 1:00      45.6       6.5             71            1.6            2.6   260.2
      10/18/11, 2:00      45.2       6.3             76            1.6            2.5   215.5
      10/18/11, 3:00      44.9       6.2             77            2.4            3.8   258.6
      10/18/11, 4:00      47.2       7.4             64            4.6            7.4   282.4
      10/18/11, 5:00      46.8       7.2             59            6.2           10.1     293
      10/18/11, 6:00      45.7       6.6             62            6.0            9.6   293.6
      10/18/11, 7:00      44.9       6.1             64            6.1            9.8   296.6
      10/18/11, 8:00      43.8       5.6             66            6.3           10.2   300.6
      10/18/11, 9:00      42.9       5.0             68            6.1            9.8   305.2
     10/18/11, 10:00      42.7       4.9             69            6.2           10.0   305.9
     10/18/11, 11:00      45.2       6.3             68            7.7           12.3   310.8
     10/18/11, 12:00      48.6       8.2             63            7.7           12.4   317.7
     10/18/11, 13:00      48.7       8.3             63            8.3           13.3   319.2
     10/18/11, 14:00      47.1       7.4             67            7.8           12.5   319.5
     10/18/11, 15:00      45.8       6.7             70            8.2           13.1   308.5
     10/18/11, 16:00      45.6       6.5             71            6.9           11.2   317.2
     10/18/11, 17:00      45.5       6.5             68            7.7           12.4   311.5
     10/18/11, 18:00      45.1       6.3             69            7.3           11.8   311.6
     10/18/11, 19:00      44.6       6.0             70            7.6           12.3   312.7
     10/18/11, 20:00      44.0       5.7             70            8.1           13.0     304
     10/18/11, 21:00      43.5       5.4             70            6.5           10.5   309.5
     10/18/11, 22:00      43.6       5.5             69            7.3           11.7   320.8
     10/18/11, 23:00      43.4       5.3             70            6.8           10.9   326.3
      10/19/11, 0:00      41.5       4.3             75            5.0            8.1   307.3
      10/19/11, 1:00      40.7       3.9             75            5.6            9.1   307.4
      10/19/11, 2:00      40.5       3.7             77            5.3            8.5   312.5
      10/19/11, 3:00      42.0       4.5             73            6.5           10.4     322
      10/19/11, 4:00      40.8       3.9             79            5.8            9.3   304.3
      10/19/11, 5:00      40.0       3.4             80            5.9            9.5   304.7
      10/19/11, 6:00      40.7       3.8             82            5.7            9.1   320.7
      10/19/11, 7:00      42.0       4.6             85            7.5           12.0   333.6
      10/19/11, 8:00      41.5       4.3             89            6.8           10.9   332.5
      10/19/11, 9:00      41.3       4.1             91            6.7           10.8   331.9
     10/19/11, 10:00      42.1       4.6             89            8.4           13.6   338.6
     10/19/11, 11:00      44.7       6.1             84           10.1           16.3   344.8
     10/19/11, 12:00      47.4       7.6             70           10.3           16.5   342.8
     10/19/11, 13:00      47.6       7.7             65            9.9           15.9   344.7
     10/19/11, 14:00      47.1       7.4             65            9.8           15.8   328.1
     10/19/11, 15:00      47.6       7.6             64            8.6           13.8     326
     10/19/11, 16:00      48.7       8.3             60            8.6           13.9   322.6
     10/19/11, 17:00      49.0       8.5             58            8.8           14.2   319.3
     10/19/11, 18:00      48.1       8.0             60            8.1           13.1   316.6
     10/19/11, 19:00      47.0       7.4             63            9.1           14.6   314.7
     10/19/11, 20:00      45.8       6.7             65            8.1           13.0   321.3
     10/19/11, 21:00      44.7       6.1             67            7.8           12.5   308.8
     10/19/11, 22:00      43.7       5.5             67            8.0           12.9   305.8
     10/19/11, 23:00      42.8       5.0             69            8.2           13.2   307.8
      10/20/11, 0:00      40.4       3.6             77            7.5           12.1   299.2


  

                                                                                             
           Date,Time       Air       Air     % Relative           Wind           Wind    Wind
                        Temp F    Temp C       Humidity      Speed mph     Speed km/h Dir Deg
---------------------------------------------------------------------------------------------
      10/20/11, 1:00      38.6       2.7             79            7.5           12.1   299.6
      10/20/11, 2:00      39.1       2.9             79            7.8           12.6   299.4
      10/20/11, 3:00      39.6       3.2             77            7.6           12.2   302.1
      10/20/11, 4:00      38.3       2.5             84            6.2           10.0   300.8
      10/20/11, 5:00      36.8       1.7             87            6.7           10.8     297
      10/20/11, 6:00      35.1       0.7             91            6.6           10.6   297.8
      10/20/11, 7:00      34.2       0.2             92            7.4           11.9   297.2
      10/20/11, 8:00      34.0       0.1             93            7.6           12.3   296.3
      10/20/11, 9:00      35.2       0.8             92            8.5           13.6   297.2
     10/20/11, 10:00      39.7       3.3             87            9.0           14.6   300.5
     10/20/11, 11:00      44.0       5.6             77            9.8           15.8   305.9
     10/20/11, 12:00      46.8       7.2             67            9.7           15.6   310.3
     10/20/11, 13:00      48.1       7.9             62           10.7           17.3   309.6
     10/20/11, 14:00      51.4       9.8             56           11.2           18.0   302.4
     10/20/11, 15:00      54.2      11.3             49           11.5           18.5   298.3
     10/20/11, 16:00      55.6      12.1             41           11.0           17.8     303
     10/20/11, 17:00      55.8      12.2             37            9.8           15.8   304.2
     10/20/11, 18:00      54.2      11.3             38            9.4           15.2   300.4
     10/20/11, 19:00      51.1       9.6             45            7.0           11.3   293.9
     10/20/11, 20:00      47.6       7.7             53            5.1            8.2     284
     10/20/11, 21:00      46.2       6.9             53            6.0            9.6   286.5
     10/20/11, 22:00      44.8       6.1             58            5.2            8.4   291.1
     10/20/11, 23:00      41.3       4.2             66            4.3            7.0   280.6
      10/21/11, 0:00      40.5       3.7             67            4.6            7.4     284
      10/21/11, 1:00      40.0       3.4             70            4.8            7.7   279.4
      10/21/11, 2:00      37.2       1.9             76            3.0            4.9   275.8
      10/21/11, 3:00      35.1       0.7             78            2.0            3.2   273.7
      10/21/11, 4:00      33.4      -0.2             82            1.6            2.6   270.1
      10/21/11, 5:00      32.4      -0.8             87            1.4            2.3   279.4
      10/21/11, 6:00      31.8      -1.1             87            1.0            1.6     262
      10/21/11, 7:00      30.9      -1.6             89            0.8            1.3     276
      10/21/11, 8:00      30.7      -1.7             90            0.8            1.3   269.3
      10/21/11, 9:00      34.3       0.3             87            0.7            1.1   248.5
     10/21/11, 10:00      42.1       4.6             78            1.5            2.5   252.1
     10/21/11, 11:00      48.3       8.0             66            3.0            4.8   218.3
     10/21/11, 12:00      53.0      10.7             54            4.8            7.8   192.5
     10/21/11, 13:00      56.1      12.4             43            5.3            8.5   189.2
     10/21/11, 14:00      59.0      14.0             40            5.3            8.6   201.7
     10/21/11, 15:00      61.5      15.4             35            5.1            8.2   194.6
     10/21/11, 16:00      62.8      16.1             34            5.3            8.5   195.6
     10/21/11, 17:00      63.4      16.4             33            5.1            8.2   190.4
     10/21/11, 18:00      62.3      15.8             39            4.2            6.8   184.9
     10/21/11, 19:00      57.6      13.2             48            3.4            5.5   174.5
     10/21/11, 20:00      55.0      11.8             51            3.6            5.8   166.7
     10/21/11, 21:00      52.0      10.1             56            2.9            4.7     162
     10/21/11, 22:00      50.1       9.1             59            2.8            4.6   164.3
     10/21/11, 23:00      48.1       8.0             62            2.0            3.1   167.3
      10/22/11, 0:00      46.6       7.1             67            1.5            2.4   170.7


  

                                                                                             
           Date,Time       Air       Air     % Relative           Wind           Wind    Wind
                        Temp F    Temp C       Humidity      Speed mph     Speed km/h Dir Deg
---------------------------------------------------------------------------------------------
      10/22/11, 1:00      45.4       6.5             70            1.3            2.1   185.8
      10/22/11, 2:00      43.8       5.5             75            1.0            1.5   178.7
      10/22/11, 3:00      44.0       5.6             75            1.0            1.6   207.6
      10/22/11, 4:00      43.4       5.3             78            0.2            0.3   265.1
      10/22/11, 5:00      45.8       6.6             78            2.4            3.9   283.1
      10/22/11, 6:00      44.9       6.2             78            2.4            3.8   306.4
      10/22/11, 7:00      43.7       5.5             80            2.5            4.1   293.2
      10/22/11, 8:00      42.1       4.6             86            2.4            3.9   314.2
      10/22/11, 9:00      44.0       5.7             86            2.4            3.8   293.9
     10/22/11, 10:00      47.8       7.8             78            4.6            7.4   295.1
     10/22/11, 11:00      53.8      11.1             72            4.0            6.4   309.3
     10/22/11, 12:00      59.3      14.1             58            5.4            8.8   318.1
     10/22/11, 13:00      63.0      16.2             50            5.7            9.1     317
     10/22/11, 14:00      65.3      17.5             42            6.0            9.6   325.8
     10/22/11, 15:00      67.0      18.5             37            5.0            8.0   318.8
     10/22/11, 16:00      67.4      18.7             31            4.2            6.7   317.7
     10/22/11, 17:00      66.5      18.1             32            2.9            4.6   307.7
     10/22/11, 18:00      64.1      16.8             37            0.9            1.4   244.5
     10/22/11, 19:00      61.6      15.5             41            0.7            1.0   273.7
     10/22/11, 20:00      59.6      14.3             44            1.4            2.3     270
     10/22/11, 21:00      57.0      12.9             46            2.2            3.6   288.8
     10/22/11, 22:00      54.5      11.5             59            1.9            3.0   317.4
     10/22/11, 23:00      49.4       8.6             68            0.7            1.1   1.973
      10/23/11, 0:00      47.0       7.3             75            0.4            0.7   359.1
      10/23/11, 1:00      44.9       6.2             82            0.6            0.9   335.7
      10/23/11, 2:00      45.1       6.3             83            1.1            1.8   280.8
      10/23/11, 3:00      45.5       6.5             85            1.2            1.9   263.8
      10/23/11, 4:00      46.5       7.0             85            1.7            2.7   189.4
      10/23/11, 5:00      45.8       6.7             84            1.3            2.0   316.4
      10/23/11, 6:00      45.1       6.3             86            0.4            0.6   138.3
      10/23/11, 7:00      45.2       6.3             80            0.0            0.0    72.4
      10/23/11, 8:00      44.5       5.9             83            0.5            0.8   162.2
      10/23/11, 9:00      44.8       6.1             86            1.4            2.3   144.4
     10/23/11, 10:00      51.5       9.8             85            2.2            3.5   174.5
     10/23/11, 11:00      59.6      14.3             76            5.6            9.1   192.5
     10/23/11, 12:00      65.7      17.7             61            8.7           14.0   192.8
     10/23/11, 13:00      67.5      18.7             50            8.5           13.7   197.6
     10/23/11, 14:00      70.1      20.1             46            9.0           14.6   195.7
     10/23/11, 15:00      71.5      21.0             40            8.4           13.4   196.9
     10/23/11, 16:00      73.0      21.8             37            8.4           13.4   196.1
     10/23/11, 17:00      73.4      22.0             36            7.7           12.4     199
     10/23/11, 18:00      70.9      20.6             44            5.7            9.2   193.6
     10/23/11, 19:00      65.6      17.6             55            4.0            6.4     184
     10/23/11, 20:00      62.4      15.9             57            5.8            9.3   183.1
     10/23/11, 21:00      61.2      15.2             77            5.0            8.0   278.4
     10/23/11, 22:00      59.4      14.2             76            6.8           11.0   308.3
     10/23/11, 23:00      56.3      12.5             70            4.4            7.1   307.9
      10/24/11, 0:00      53.4      10.9             74            3.1            5.0   295.2


  

                                                                                             
           Date,Time       Air       Air     % Relative           Wind           Wind    Wind
                        Temp F    Temp C       Humidity      Speed mph     Speed km/h Dir Deg
---------------------------------------------------------------------------------------------
      10/24/11, 1:00      51.1       9.6             78            3.1            5.0   297.3
      10/24/11, 2:00      47.9       7.9             88            1.9            3.1   272.6
      10/24/11, 3:00      44.4       5.9             93            1.4            2.3   262.4
      10/24/11, 4:00      43.4       5.3             95            0.8            1.2   290.7
      10/24/11, 5:00      42.5       4.8             97            1.3            2.0   290.4
      10/24/11, 6:00      41.5       4.3             97            0.7            1.1     272
      10/24/11, 7:00      39.1       3.0            100            0.7            1.1     246
      10/24/11, 8:00      39.1       2.9            100            0.1            0.2   321.2
      10/24/11, 9:00      41.1       4.1            100            0.3            0.5   113.1
     10/24/11, 10:00      47.2       7.4            100            1.0            1.7   131.8
     10/24/11, 11:00      54.8      11.7             86            3.6            5.8   185.2
     10/24/11, 12:00      60.9      15.1             68            6.6           10.6     170
     10/24/11, 13:00      65.6      17.6             55            8.1           13.1   175.2
     10/24/11, 14:00      69.0      19.6             45            8.5           13.7   186.2
     10/24/11, 15:00      71.8      21.1             38            7.6           12.3     192
     10/24/11, 16:00      72.9      21.8             32            7.2           11.6   191.8
     10/24/11, 17:00      72.4      21.4             32            6.0            9.6   182.6
     10/24/11, 18:00      69.5      19.8             38            4.5            7.2   172.4
     10/24/11, 19:00      64.5      17.0             45            2.9            4.6   153.1
     10/24/11, 20:00      61.3      15.3             49            2.6            4.3   140.7
     10/24/11, 21:00      59.4      14.2             52            3.7            6.0   122.3
     10/24/11, 22:00      58.1      13.5             57            5.5            8.8   125.6
     10/24/11, 23:00      58.4      13.7             57            7.0           11.2   125.2
      10/25/11, 0:00      58.0      13.5             58            8.6           13.8   126.1
      10/25/11, 1:00      56.7      12.7             60            7.9           12.8   129.9
      10/25/11, 2:00      56.1      12.4             64            7.3           11.8   134.9
      10/25/11, 3:00      55.2      11.9             67            6.3           10.1     143
      10/25/11, 4:00      56.2      12.4             73            6.3           10.1   149.6
      10/25/11, 5:00      60.2      14.7             74            7.1           11.3   157.6
      10/25/11, 6:00      63.0      16.2             67            8.0           12.9   165.9
      10/25/11, 7:00      63.5      16.5             66            8.5           13.7   170.2
      10/25/11, 8:00      62.0      15.7             71            6.7           10.8   170.5
      10/25/11, 9:00      62.7      16.1             70            7.2           11.7   164.5
     10/25/11, 10:00      66.1      17.9             64           11.3           18.2   173.9
     10/25/11, 11:00      68.0      19.0             59           11.8           19.1   181.4
     10/25/11, 12:00      72.0      21.2             56           14.1           22.7   189.3
     10/25/11, 13:00      74.7      22.7             52           11.7           18.8   190.5
     10/25/11, 14:00      76.1      23.5             50            9.7           15.7   194.6
     10/25/11, 15:00      75.9      23.4             48            7.4           11.9   198.4
     10/25/11, 16:00      76.1      23.5             48            6.1            9.8   208.5
     10/25/11, 17:00      76.4      23.7             45            5.0            8.1     232
     10/25/11, 18:00      74.4      22.6             52            2.9            4.6   220.3
     10/25/11, 19:00      70.0      20.1             59            1.5            2.4   205.9
     10/25/11, 20:00      66.3      18.1             61            8.3           13.4   294.5
     10/25/11, 21:00      60.7      14.9             71            9.7           15.5   307.9
     10/25/11, 22:00      53.7      11.0             77            8.2           13.2   322.3
     10/25/11, 23:00      50.4       9.2             82            8.4           13.5   313.7
      10/26/11, 0:00      48.2       8.0             86            8.5           13.7   317.2


  

                                                                                             
           Date,Time       Air       Air     % Relative           Wind           Wind    Wind
                        Temp F    Temp C       Humidity      Speed mph     Speed km/h Dir Deg
---------------------------------------------------------------------------------------------
      10/26/11, 1:00      47.7       7.7             87            7.3           11.7   320.8
      10/26/11, 2:00      48.3       8.0             86            9.3           14.9   342.4
      10/26/11, 3:00      47.7       7.7             87            7.0           11.2   322.5
      10/26/11, 4:00      46.9       7.3             89            8.3           13.4   316.3
      10/26/11, 5:00      45.9       6.7             90            7.3           11.7   325.8
      10/26/11, 6:00      45.7       6.6             89            5.9            9.5   319.1
      10/26/11, 7:00      45.4       6.4             89            6.6           10.6   328.3
      10/26/11, 8:00      44.1       5.7             87            6.2            9.9   314.5
      10/26/11, 9:00      43.2       5.2             86            7.1           11.4   330.8
     10/26/11, 10:00      43.9       5.6             86            7.8           12.5   337.8
     10/26/11, 11:00      45.2       6.3             84            7.4           11.9     338
     10/26/11, 12:00      46.8       7.2             81            6.9           11.1   342.1
     10/26/11, 13:00      49.1       8.5             79            6.6           10.7   343.1
     10/26/11, 14:00      49.7       8.8             73            6.4           10.4   323.3
     10/26/11, 15:00      49.6       8.8             71            6.5           10.5   327.9
     10/26/11, 16:00      50.1       9.1             69            5.9            9.6   333.9
     10/26/11, 17:00      51.0       9.5             67            4.4            7.0   343.5
     10/26/11, 18:00      50.8       9.4             64            4.9            7.9   340.3
     10/26/11, 19:00      49.4       8.6             67            3.1            5.0   321.1
     10/26/11, 20:00      47.7       7.7             70            2.4            3.9   311.8
     10/26/11, 21:00      46.4       7.0             72            1.8            3.0   298.6
     10/26/11, 22:00      45.9       6.7             73            1.7            2.8   303.7
     10/26/11, 23:00      45.3       6.4             74            1.6            2.6   316.1
      10/27/11, 0:00      44.7       6.1             75            1.7            2.8   292.2
      10/27/11, 1:00      44.2       5.8             75            2.1            3.4   295.4
      10/27/11, 2:00      43.7       5.5             78            3.0            4.8   288.4
      10/27/11, 3:00      43.1       5.2             79            2.1            3.4   298.3
      10/27/11, 4:00      43.2       5.2             79            2.5            4.1   290.6
      10/27/11, 5:00      42.9       5.1             81            4.1            6.6   285.5
      10/27/11, 6:00      42.3       4.7             86            4.2            6.7   292.4
      10/27/11, 7:00      41.5       4.3             90            4.3            6.9   287.9
      10/27/11, 8:00      39.0       2.9             93            4.4            7.0     297
      10/27/11, 9:00      38.3       2.5             93            3.5            5.6   308.5
     10/27/11, 10:00      42.2       4.7             90            3.1            5.0   316.4
     10/27/11, 11:00      46.8       7.2             81            3.9            6.2     299
     10/27/11, 12:00      51.0       9.6             65            4.2            6.7   291.4
     10/27/11, 13:00      53.7      11.1             54            5.5            8.8   294.6
     10/27/11, 14:00      53.9      11.2             46            5.8            9.3   288.1
     10/27/11, 15:00      54.8      11.7             32            6.7           10.7     289
     10/27/11, 16:00      56.0      12.3             30            6.4           10.3   292.2
     10/27/11, 17:00      55.1      11.8             28            6.6           10.6   289.7
     10/27/11, 18:00      53.0      10.7             29            4.6            7.3   285.4
     10/27/11, 19:00      50.4       9.2             32            2.2            3.5   300.1
     10/27/11, 20:00      47.2       7.4             39            0.9            1.4   287.1
     10/27/11, 21:00      44.5       6.0             45            0.6            1.0   353.6
     10/27/11, 22:00      41.0       4.0             53            0.0            0.0       0
     10/27/11, 23:00      38.9       2.8             61            0.1            0.2   359.5
      10/28/11, 0:00      39.1       2.9             60            0.8            1.2   177.8


  

                                                                                             
           Date,Time       Air       Air     % Relative           Wind           Wind    Wind
                        Temp F    Temp C       Humidity      Speed mph     Speed km/h Dir Deg
---------------------------------------------------------------------------------------------
      10/28/11, 1:00      36.8       1.7             74            0.0            0.0   306.2
      10/28/11, 2:00      35.9       1.2             74            0.0            0.0       0
      10/28/11, 3:00      35.1       0.7             73            0.1            0.1   239.7
      10/28/11, 4:00      33.6      -0.1             85            0.0            0.0       0
      10/28/11, 5:00      33.2      -0.3             78            0.0            0.0       0
      10/28/11, 6:00      31.0      -1.6             92            0.3            0.4   168.9
      10/28/11, 7:00      30.3      -2.0             92            0.6            1.0   142.8
      10/28/11, 8:00      29.8      -2.2             91            1.9            3.0   139.2
      10/28/11, 9:00      31.2      -1.4             90            1.7            2.8   142.6
     10/28/11, 10:00      39.9       3.4             89            4.8            7.8   168.9
     10/28/11, 11:00      48.2       8.0             63            7.4           11.8   189.4
     10/28/11, 12:00      54.9      11.7             42            6.5           10.5     208
     10/28/11, 13:00      56.1      12.4             35            6.2            9.9   217.6
     10/28/11, 14:00      57.4      13.1             34            7.1           11.4     265
     10/28/11, 15:00      57.5      13.2             35            8.6           13.8   287.1
     10/28/11, 16:00      57.7      13.3             36            8.6           13.8   289.3
     10/28/11, 17:00      57.2      13.0             34            9.4           15.2   295.5
     10/28/11, 18:00      54.8      11.7             27            8.5           13.7   295.8
     10/28/11, 19:00      50.8       9.5             32            5.1            8.2   292.4
     10/28/11, 20:00      47.8       7.8             40            3.6            5.8     279
     10/28/11, 21:00      43.5       5.4             44            1.5            2.4   255.4
     10/28/11, 22:00      41.5       4.3             46            1.6            2.6   229.3
     10/28/11, 23:00      39.9       3.4             51            1.6            2.6   224.5
      10/29/11, 0:00      39.8       3.3             52            2.8            4.6   250.2
      10/29/11, 1:00      39.2       3.0             52            3.0            4.8   254.8
      10/29/11, 2:00      37.0       1.8             58            3.2            5.2   265.2
      10/29/11, 3:00      35.4       0.9             60            3.0            4.8   276.9
      10/29/11, 4:00      33.4      -0.2             65            1.4            2.2   259.6
      10/29/11, 5:00      31.8      -1.1             68            1.2            1.9   254.5
      10/29/11, 6:00      31.5      -1.3             69            1.2            2.0   275.4
      10/29/11, 7:00      30.7      -1.7             71            0.5            0.8   256.8
      10/29/11, 8:00      29.5      -2.4             76            0.5            0.7   258.7
      10/29/11, 9:00      30.2      -2.0             82            0.1            0.1   311.7
     10/29/11, 10:00      38.2       2.4             73            0.6            1.0   239.3
     10/29/11, 11:00      45.0       6.2             55            1.7            2.8   242.2
     10/29/11, 12:00      51.2       9.7             44            2.3            3.7   200.9
     10/29/11, 13:00      55.5      12.1             32            3.1            5.1     195
     10/29/11, 14:00      56.8      12.8             27            4.3            7.0   162.1
     10/29/11, 15:00      58.3      13.6             25            4.4            7.1   174.8
     10/29/11, 16:00      57.8      13.3             24            5.1            8.2   163.3
     10/29/11, 17:00      56.9      12.9             26            4.3            7.0   116.8
     10/29/11, 18:00      55.2      11.9             30            4.4            7.1   103.6
     10/29/11, 19:00      52.1      10.2             34            4.7            7.6   106.4
     10/29/11, 20:00      50.1       9.1             35            6.7           10.8   108.8
     10/29/11, 21:00      49.4       8.6             36            6.7           10.8   117.8
     10/29/11, 22:00      48.0       7.9             39            5.4            8.8   111.1
     10/29/11, 23:00      48.6       8.2             38            6.8           11.0   115.5
      10/30/11, 0:00      49.3       8.6             38            9.2           14.8   121.5


  

                                                                                             
           Date,Time       Air       Air     % Relative           Wind           Wind    Wind
                        Temp F    Temp C       Humidity      Speed mph     Speed km/h Dir Deg
---------------------------------------------------------------------------------------------
      10/30/11, 1:00      49.2       8.6             38           11.1           17.9   128.8
      10/30/11, 2:00      48.7       8.3             43            9.7           15.7   127.8
      10/30/11, 3:00      48.8       8.3             45            7.5           12.0   138.6
      10/30/11, 4:00      49.0       8.5             55            6.0            9.7   147.7
      10/30/11, 5:00      49.2       8.5             92           10.3           16.6   179.2
      10/30/11, 6:00      47.0       7.3             95            6.7           10.8   159.3
      10/30/11, 7:00      46.8       7.2             94            7.2           11.6   163.1
      10/30/11, 8:00      46.8       7.2             92            8.4           13.5   168.7
      10/30/11, 9:00      47.4       7.6             89            6.9           11.2   187.8
     10/30/11, 10:00      49.5       8.7             78            4.6            7.4   243.3
     10/30/11, 11:00      49.7       8.8             77            7.1           11.5   268.2
     10/30/11, 12:00      52.0      10.1             77            6.7           10.8   259.9
     10/30/11, 13:00      54.8      11.6             69            7.8           12.6   267.7
     10/30/11, 14:00      54.9      11.7             62            7.9           12.7     255
     10/30/11, 15:00      55.4      12.0             55            8.7           14.0   266.5
     10/30/11, 16:00      56.1      12.4             49            8.8           14.2   265.9
     10/30/11, 17:00      55.8      12.2             38            9.4           15.2   272.2
     10/30/11, 18:00      54.1      11.3             40            7.3           11.7   270.7
     10/30/11, 19:00      50.1       9.1             47            4.1            6.7     283
     10/30/11, 20:00      47.5       7.6             52            1.8            2.9   272.6
     10/30/11, 21:00      45.0       6.2             54            2.5            4.0     270
     10/30/11, 22:00      42.9       5.1             58            2.3            3.6   261.7
     10/30/11, 23:00      41.4       4.2             61            4.2            6.8   279.2
      10/31/11, 0:00      40.5       3.7             66            2.9            4.7   268.8
      10/31/11, 1:00      41.7       4.4             66            2.6            4.1   262.1
      10/31/11, 2:00      40.5       3.7             70            2.0            3.2   252.8
      10/31/11, 3:00      38.6       2.7             73            2.3            3.6   253.3
      10/31/11, 4:00      36.5       1.5             78            3.3            5.4     269
      10/31/11, 5:00      35.4       0.9             84            2.6            4.3   274.3
      10/31/11, 6:00      33.7      -0.1             85            2.1            3.4   258.6
      10/31/11, 7:00      31.9      -1.1             88            1.9            3.1   248.1
      10/31/11, 8:00      30.9      -1.6             90            2.6            4.1   282.9
      10/31/11, 9:00      32.5      -0.7             89            0.8            1.3   253.8
     10/31/11, 10:00      36.4       1.5             87            2.4            3.9   243.2
     10/31/11, 11:00      42.5       4.8             79            2.2            3.6     269
     10/31/11, 12:00      46.8       7.2             70            3.9            6.2   225.5
     10/31/11, 13:00      48.9       8.4             62            4.7            7.5   215.2
     10/31/11, 14:00      51.6       9.9             53            4.0            6.5   249.6
     10/31/11, 15:00      53.9      11.2             45            4.2            6.7     222
     10/31/11, 16:00      54.8      11.7             40            4.8            7.8   195.2
     10/31/11, 17:00      55.3      11.9             37            4.6            7.4     182
     10/31/11, 18:00      53.4      10.9             44            3.5            5.6   156.4
     10/31/11, 19:00      49.2       8.6             47            2.0            3.2   131.6
     10/31/11, 20:00      47.6       7.7             52            3.5            5.6   109.9
     10/31/11, 21:00      44.6       6.0             57            4.5            7.2   125.9
     10/31/11, 22:00      43.6       5.4             59            4.3            6.9   127.9
     10/31/11, 23:00      43.2       5.2             60            5.1            8.1   124.8
      11/01/11, 0:00      42.2       4.7             62            4.8            7.7     136


  

                                                                                             
           Date,Time       Air       Air     % Relative           Wind           Wind    Wind
                        Temp F    Temp C       Humidity      Speed mph     Speed km/h Dir Deg
---------------------------------------------------------------------------------------------
      11/01/11, 1:00      41.7       4.4             63            5.5            8.9   127.1
      11/01/11, 2:00      42.0       4.6             63            5.9            9.5   123.9
      11/01/11, 3:00      42.4       4.8             62            6.8           11.0   128.8
      11/01/11, 4:00      42.0       4.5             63            6.7           10.8   130.1
      11/01/11, 5:00      41.8       4.4             65            6.8           11.0   132.8
      11/01/11, 6:00      41.4       4.3             68            6.4           10.3   133.6
      11/01/11, 7:00      41.2       4.1             71            6.4           10.3   132.2
      11/01/11, 8:00      40.7       3.8             74            5.2            8.4   141.7
      11/01/11, 9:00      42.3       4.7             74            5.8            9.3   138.6
     11/01/11, 10:00      48.7       8.3             70            8.1           13.0   141.7
     11/01/11, 11:00      56.5      12.6             61            9.1           14.6   156.2
     11/01/11, 12:00      64.2      16.9             54           11.2           18.1   164.3
     11/01/11, 13:00      69.7      20.0             47           12.6           20.3   175.2
     11/01/11, 14:00      72.6      21.5             42           12.7           20.4   175.1
     11/01/11, 15:00      74.7      22.7             39           12.2           19.6   166.1
     11/01/11, 16:00      75.0      22.9             37           13.2           21.3   167.8
     11/01/11, 17:00      75.1      22.9             36           12.0           19.2     179
     11/01/11, 18:00      72.4      21.4             44            7.7           12.4   178.3
     11/01/11, 19:00      68.4      19.2             49            5.0            8.1   178.5
     11/01/11, 20:00      67.4      18.7             51            2.2            3.5   225.3
     11/01/11, 21:00      66.4      18.1             54            0.6            1.0   116.4
     11/01/11, 22:00      64.8      17.2             56            0.4            0.7   217.3
     11/01/11, 23:00      63.0      16.2             64            1.9            3.0   306.3
      11/02/11, 0:00      57.2      13.0             69            3.6            5.8     336
      11/02/11, 1:00      55.0      11.8             69            4.4            7.0   340.3
      11/02/11, 2:00      53.1      10.7             72            3.2            5.2   329.7
      11/02/11, 3:00      51.3       9.7             72            4.0            6.5   324.5
      11/02/11, 4:00      48.6       8.3             76            5.2            8.4   331.4
      11/02/11, 5:00      46.8       7.2             77            5.3            8.6     326
      11/02/11, 6:00      48.1       7.9             75            6.1            9.8   334.8
      11/02/11, 7:00      48.9       8.4             69            6.9           11.2   347.9
      11/02/11, 8:00      48.8       8.4             70            5.7            9.1   342.3
      11/02/11, 9:00      49.4       8.6             77            5.0            8.0   334.4
     11/02/11, 10:00      48.1       7.9             90            6.9           11.1   343.7
     11/02/11, 11:00      46.8       7.2             95            6.3           10.2   336.1
     11/02/11, 12:00      44.9       6.1             98            7.1           11.4   347.3
     11/02/11, 13:00      44.0       5.7             98            8.5           13.6   346.5
     11/02/11, 14:00      43.2       5.2             98            7.9           12.8   340.8
     11/02/11, 15:00      41.5       4.3             98           10.1           16.2   337.8
     11/02/11, 16:00      39.9       3.4             98           11.6           18.7   343.1
     11/02/11, 17:00      39.0       2.9             98           11.3           18.1   343.8
     11/02/11, 18:00      38.8       2.8             98           12.3           19.7   353.8
     11/02/11, 19:00      39.7       3.3             97           13.1           21.1   357.1
     11/02/11, 20:00      39.3       3.1             97           11.0           17.7   350.6
     11/02/11, 21:00      39.0       2.9             97           11.7           18.8   354.7
     11/02/11, 22:00      39.9       3.4             95           13.4           21.6     9.2
     11/02/11, 23:00      40.3       3.6             93            9.4           15.2   2.058
      11/03/11, 0:00      39.9       3.4             94            7.4           11.9   358.7


  

                                                                                             
           Date,Time       Air       Air     % Relative           Wind           Wind    Wind
                        Temp F    Temp C       Humidity      Speed mph     Speed km/h Dir Deg
---------------------------------------------------------------------------------------------
      11/03/11, 1:00      39.7       3.3             96            7.1           11.4     357
      11/03/11, 2:00      39.7       3.3             97            5.3            8.5   340.7
      11/03/11, 3:00      39.7       3.3             97            6.0            9.7   341.3
      11/03/11, 4:00      39.8       3.3             96            8.3           13.3   340.4
      11/03/11, 5:00      40.6       3.8             89            8.8           14.1   337.2
      11/03/11, 6:00      40.1       3.5             87            9.0           14.4   338.3
      11/03/11, 7:00      39.9       3.4             85           10.9           17.5   338.3
      11/03/11, 8:00      40.0       3.4             84           11.0           17.7   336.8
      11/03/11, 9:00      39.9       3.4             82           11.9           19.2   342.7
     11/03/11, 10:00      41.1       4.1             78           10.8           17.3   359.5
     11/03/11, 11:00      42.5       4.8             76            9.8           15.7   351.7
     11/03/11, 12:00      44.0       5.7             74           10.7           17.2   358.8
     11/03/11, 13:00      47.1       7.4             68           12.3           19.8   6.739
     11/03/11, 14:00      50.1       9.1             55           11.0           17.7   2.001
     11/03/11, 15:00      51.8      10.0             47            9.9           15.9   350.2
     11/03/11, 16:00      52.1      10.2             45            9.8           15.7   343.2
     11/03/11, 17:00      51.3       9.7             49            8.5           13.7   344.6
     11/03/11, 18:00      48.8       8.3             56            5.8            9.3   339.6
     11/03/11, 19:00      44.5       6.0             67            2.5            4.0   309.9
     11/03/11, 20:00      40.8       3.9             77            2.0            3.3   299.3
     11/03/11, 21:00      39.2       3.0             77            2.2            3.6   292.3
     11/03/11, 22:00      37.8       2.2             78            2.1            3.4   320.5
     11/03/11, 23:00      36.8       1.7             81            2.9            4.6   318.9
      11/04/11, 0:00      36.4       1.4             78            3.5            5.7   327.1
      11/04/11, 1:00      36.2       1.3             78            3.4            5.4   343.9
      11/04/11, 2:00      34.8       0.5             81            3.8            6.1   330.1
      11/04/11, 3:00      32.8      -0.6             90            2.2            3.5    70.2
      11/04/11, 4:00      31.5      -1.3             91            1.5            2.5   102.9
      11/04/11, 5:00      31.6      -1.2             91            0.6            0.9   220.2
      11/04/11, 6:00      32.0      -1.0             90            2.2            3.6     331
      11/04/11, 7:00      28.9      -2.7             94            3.4            5.5   315.9
      11/04/11, 8:00      26.4      -4.1             96            2.5            4.0   329.2
      11/04/11, 9:00      29.7      -2.3             96            1.8            2.8   32.09
     11/04/11, 10:00      35.5       1.0             89            3.1            5.0    83.9
     11/04/11, 11:00      42.0       4.6             81            5.6            8.9   120.8
     11/04/11, 12:00      45.8       6.7             78            6.7           10.7   129.5
     11/04/11, 13:00      49.0       8.4             72            7.8           12.6     130
     11/04/11, 14:00      51.2       9.7             66            8.3           13.3   128.5
     11/04/11, 15:00      53.2      10.8             64            8.0           12.8   132.4
     11/04/11, 16:00      54.5      11.5             56            9.1           14.6   127.4
     11/04/11, 17:00      54.4      11.5             51            8.2           13.1     120
     11/04/11, 18:00      52.3      10.3             59            6.1            9.9   113.4
     11/04/11, 19:00      47.8       7.8             66            5.1            8.2   114.4
     11/04/11, 20:00      44.9       6.2             72            6.1            9.8   108.3
     11/04/11, 21:00      43.5       5.4             77            6.8           10.9   116.2
     11/04/11, 22:00      42.7       5.0             78            7.2           11.6   120.8
     11/04/11, 23:00      42.4       4.8             77            8.5           13.7   120.9
      11/05/11, 0:00      42.0       4.6             77            9.7           15.6   128.5


  

                                                                                             
           Date,Time       Air       Air     % Relative           Wind           Wind    Wind
                        Temp F    Temp C       Humidity      Speed mph     Speed km/h Dir Deg
---------------------------------------------------------------------------------------------
      11/05/11, 1:00      41.4       4.2             79            9.3           14.9   132.6
      11/05/11, 2:00      40.7       3.8             84            8.4           13.5   124.1
      11/05/11, 3:00      39.9       3.4             87            7.8           12.6     128
      11/05/11, 4:00      39.0       2.9             89            7.4           11.8     127
      11/05/11, 5:00      39.3       3.1             90            8.8           14.2   125.3
      11/05/11, 6:00      39.4       3.1             91            8.6           13.9   124.5
      11/05/11, 7:00      38.8       2.8             95            7.6           12.2   123.4
      11/05/11, 8:00      38.3       2.5             97            8.1           13.0   125.1
      11/05/11, 9:00      38.6       2.6             98            8.9           14.2   124.5
     11/05/11, 10:00      40.9       3.9             99           10.7           17.2   141.1
     11/05/11, 11:00      42.9       5.1            100           11.6           18.7   145.7
     11/05/11, 12:00      44.5       6.0             99           12.6           20.2   143.4
     11/05/11, 13:00      46.0       6.8             96           12.4           19.9   143.8
     11/05/11, 14:00      47.2       7.4             94           13.4           21.6   141.4
     11/05/11, 15:00      48.1       8.0             90           13.1           21.1   134.2
     11/05/11, 16:00      48.5       8.2             89           12.4           20.0   130.8
     11/05/11, 17:00      49.3       8.6             87           12.9           20.8   125.7
     11/05/11, 18:00      49.1       8.5             88           12.3           19.8   123.1
     11/05/11, 19:00      47.9       7.8             91           11.1           17.9   126.4
     11/05/11, 20:00      46.5       7.1             93            7.7           12.3   118.8
     11/05/11, 21:00      46.9       7.3             93            9.3           15.0   127.6
     11/05/11, 22:00      47.0       7.4             92           10.5           17.0   125.7
     11/05/11, 23:00      47.2       7.5             93            9.9           16.0   122.6
      11/06/11, 0:00      47.3       7.5             93           11.1           17.9   137.2
      11/06/11, 1:00      46.6       7.1             94           10.3           16.5   142.2
      11/06/11, 2:00      47.2       7.4             93           10.6           17.1   140.3
      11/06/11, 3:00      47.5       7.6             92           10.8           17.3   139.8
      11/06/11, 4:00      48.0       7.9             91           10.8           17.3   136.6
      11/06/11, 5:00      47.6       7.7             93            6.8           11.0   119.1
      11/06/11, 6:00      48.7       8.3             95            8.1           13.0   138.7
      11/06/11, 7:00      51.6       9.9             86           13.5           21.7   160.7
      11/06/11, 8:00      53.3      10.8             84           15.7           25.3   163.8
      11/06/11, 9:00      54.4      11.4             81           16.7           26.9   167.3
     11/06/11, 10:00      55.8      12.3             80           17.6           28.3   176.6
     11/06/11, 11:00      57.3      13.1             76           18.8           30.3   183.5
     11/06/11, 12:00      58.4      13.7             72           16.3           26.2     190
     11/06/11, 13:00      60.2      14.7             66           11.5           18.6   201.1
     11/06/11, 14:00      61.0      15.1             53            9.2           14.8   215.4
     11/06/11, 15:00      61.2      15.2             50            7.7           12.4   214.3
     11/06/11, 16:00      61.0      15.1             47            5.8            9.3   234.2
     11/06/11, 17:00      60.7      14.9             47            4.5            7.2   234.4
     11/06/11, 18:00      56.5      12.6             49            3.0            4.8   234.2
     11/06/11, 19:00      51.5       9.8             55            1.6            2.6   253.1
     11/06/11, 20:00      48.7       8.3             59            1.2            2.0   265.3
     11/06/11, 21:00      47.8       7.8             61            2.0            3.2   271.7
     11/06/11, 22:00      45.6       6.5             68            1.6            2.6   320.1
     11/06/11, 23:00      43.8       5.5             69            3.9            6.2   321.6
      11/07/11, 0:00      42.5       4.8             72            3.2            5.2   327.9


  

                                                                                             
           Date,Time       Air       Air     % Relative           Wind           Wind    Wind
                        Temp F    Temp C       Humidity      Speed mph     Speed km/h Dir Deg
---------------------------------------------------------------------------------------------
      11/07/11, 1:00      40.0       3.5             83            1.6            2.6   103.5
      11/07/11, 2:00      38.3       2.5             84            1.6            2.6   180.3
      11/07/11, 3:00      37.7       2.2             83            0.4            0.6   162.4
      11/07/11, 4:00      35.7       1.1             90            0.6            0.9    94.7
      11/07/11, 5:00      35.3       0.8             92            0.3            0.5   110.7
      11/07/11, 6:00      33.9       0.1             94            0.4            0.7   140.4
      11/07/11, 7:00      34.6       0.5             92            0.3            0.5   23.99
      11/07/11, 8:00      32.4      -0.8             96            0.5            0.7   123.1
      11/07/11, 9:00      34.3       0.3             96            0.4            0.7    87.1
     11/07/11, 10:00      35.8       1.1             95            1.2            2.0   335.1
     11/07/11, 11:00      43.9       5.6             90            2.0            3.3     329
     11/07/11, 12:00      53.3      10.8             70            2.5            3.9   333.7
     11/07/11, 13:00      58.4      13.7             49            2.9            4.7   18.22
     11/07/11, 14:00      60.9      15.0             37            3.7            6.0   51.79
     11/07/11, 15:00      61.5      15.4             29            4.2            6.8   46.72
     11/07/11, 16:00      60.8      15.0             30            4.2            6.7   50.96
     11/07/11, 17:00      58.6      13.8             33            3.4            5.5   52.28
     11/07/11, 18:00      56.7      12.7             40            2.6            4.2   48.18
     11/07/11, 19:00      54.9      11.7             44            2.7            4.3   20.73
     11/07/11, 20:00      52.9      10.6             51            2.6            4.2   352.4
     11/07/11, 21:00      52.3      10.3             51            2.4            3.9   24.76
     11/07/11, 22:00      51.5       9.8             52            3.4            5.5   352.5
     11/07/11, 23:00      50.4       9.2             55            4.8            7.7   353.4
      11/08/11, 0:00      49.7       8.8             64            8.1           13.1   6.944
      11/08/11, 1:00      46.4       7.0             80            7.1           11.5   40.51
      11/08/11, 2:00      45.5       6.5             90            9.8           15.8   19.03
      11/08/11, 3:00      43.6       5.5             93           12.7           20.4   2.546
      11/08/11, 4:00      44.4       5.9             89           10.8           17.4   22.43
      11/08/11, 5:00      44.1       5.7             89           10.2           16.3   22.43
      11/08/11, 6:00      43.8       5.6             89           10.2           16.4   18.43
      11/08/11, 7:00      42.9       5.1             96           10.5           16.9   13.07
      11/08/11, 8:00      42.5       4.8             98           12.1           19.5   12.98
      11/08/11, 9:00      42.5       4.8             98           11.4           18.4   10.51
     11/08/11, 10:00      42.3       4.7             99           10.4           16.8   18.85
     11/08/11, 11:00      42.7       5.0             99            9.4           15.2   27.59
     11/08/11, 12:00      43.1       5.2             98            8.6           13.9    30.5
     11/08/11, 13:00      43.1       5.2             99            9.2           14.8   17.67
     11/08/11, 14:00      43.6       5.5             97            9.3           14.9   16.25
     11/08/11, 15:00      44.1       5.7             97            9.4           15.1    20.3
     11/08/11, 16:00      43.4       5.3             98           10.4           16.7   13.18
     11/08/11, 17:00      43.2       5.2             99            8.2           13.2   14.32
     11/08/11, 18:00      42.8       5.0             99            9.6           15.5   13.33
     11/08/11, 19:00      42.7       5.0            100            8.9           14.4    7.16
     11/08/11, 20:00      42.6       4.9            100            9.6           15.5    7.84
     11/08/11, 21:00      42.3       4.7             99            9.7           15.6    8.83
     11/08/11, 22:00      42.0       4.6            100            8.0           12.9   358.5
     11/08/11, 23:00      40.9       3.9            100           10.8           17.4   357.8
      11/09/11, 0:00      39.4       3.1             99           12.0           19.3    .357


  

                                                                                             
           Date,Time       Air       Air     % Relative           Wind           Wind    Wind
                        Temp F    Temp C       Humidity      Speed mph     Speed km/h Dir Deg
---------------------------------------------------------------------------------------------
      11/09/11, 1:00      38.2       2.5             99           11.8           19.0   352.2
      11/09/11, 2:00      37.2       1.9             99           11.1           17.9   340.4
      11/09/11, 3:00      35.5       0.9            100           11.2           18.0     338
      11/09/11, 4:00      35.3       0.8            100           10.1           16.3   328.8
      11/09/11, 5:00      34.6       0.4            100           12.7           20.5   328.8
      11/09/11, 6:00      34.6       0.4            100           12.0           19.3   322.1
      11/09/11, 7:00      33.6      -0.1            100           12.4           20.0   317.4
      11/09/11, 8:00      33.9       0.0            100           12.8           20.6   315.8
      11/09/11, 9:00      35.3       0.9            100           11.9           19.2   324.1
     11/09/11, 10:00      35.5       1.0             98            7.2           11.6   302.3
     11/09/11, 11:00      36.2       1.3             98            5.3            8.5   283.5
     11/09/11, 12:00      39.7       3.3             87            8.4           13.6   292.2
     11/09/11, 13:00      43.7       5.5             75           10.6           17.1   291.9
     11/09/11, 14:00      46.6       7.1             68            9.6           15.4     289
     11/09/11, 15:00      48.5       8.2             61           10.3           16.6   283.1
     11/09/11, 16:00      50.1       9.1             58            8.6           13.8   281.7
     11/09/11, 17:00      49.6       8.8             54            8.9           14.3   287.9
     11/09/11, 18:00      47.4       7.6             57            6.8           11.0   290.7
     11/09/11, 19:00      43.4       5.3             66            4.8            7.7   272.2
     11/09/11, 20:00      41.1       4.0             69            5.4            8.7     270
     11/09/11, 21:00      38.5       2.6             70            4.7            7.6   275.9
     11/09/11, 22:00      36.9       1.7             70            4.8            7.7   275.4
     11/09/11, 23:00      36.4       1.4             69            5.5            8.9   269.5
      11/10/11, 0:00      35.3       0.8             70            4.9            8.0   270.7
      11/10/11, 1:00      33.8       0.0             71            3.8            6.1   260.1
      11/10/11, 2:00      33.9       0.1             72            5.1            8.3   257.8
      11/10/11, 3:00      33.6      -0.1             72            5.6            9.1   254.2
      11/10/11, 4:00      33.1      -0.4             74            5.7            9.2   259.8
      11/10/11, 5:00      32.3      -0.8             75            5.3            8.5   269.1
      11/10/11, 6:00      31.6      -1.2             77            5.3            8.5   262.5
      11/10/11, 7:00      30.6      -1.8             78            5.4            8.7   266.7
      11/10/11, 8:00      29.7      -2.3             81            5.5            8.9   266.6
      11/10/11, 9:00      29.7      -2.3             81            5.5            8.8   260.2
     11/10/11, 10:00      32.2      -0.9             77            8.0           12.9   276.6
     11/10/11, 11:00      34.8       0.5             73           10.3           16.6     286
     11/10/11, 12:00      37.1       1.8             69           10.3           16.5   284.8
     11/10/11, 13:00      38.7       2.7             67            9.9           16.0   285.3
     11/10/11, 14:00      40.3       3.6             65            9.5           15.3   287.7
     11/10/11, 15:00      41.4       4.2             59            8.8           14.2   278.5
     11/10/11, 16:00      41.7       4.4             55            8.9           14.3   290.2
     11/10/11, 17:00      41.8       4.5             54            7.1           11.4   276.2
     11/10/11, 18:00      40.2       3.5             59            4.7            7.5   261.8
     11/10/11, 19:00      36.4       1.5             67            2.5            4.0   228.2
     11/10/11, 20:00      33.3      -0.3             72            2.1            3.4   210.9
     11/10/11, 21:00      31.7      -1.2             73            1.9            3.0     205
     11/10/11, 22:00      30.7      -1.7             75            2.0            3.2   209.7
     11/10/11, 23:00      30.4      -1.9             74            1.7            2.8   201.1
      11/11/11, 0:00      29.8      -2.2             75            1.9            3.0   199.1


  

                                                                                             
           Date,Time       Air       Air     % Relative           Wind           Wind    Wind
                        Temp F    Temp C       Humidity      Speed mph     Speed km/h Dir Deg
---------------------------------------------------------------------------------------------
      11/11/11, 1:00      29.6      -2.3             77            3.0            4.9   195.8
      11/11/11, 2:00      29.7      -2.3             78            2.9            4.6   182.8
      11/11/11, 3:00      29.8      -2.2             84            2.0            3.2     154
      11/11/11, 4:00      29.6      -2.3             87            2.4            3.8   130.8
      11/11/11, 5:00      27.7      -3.4             92            3.5            5.6   145.5
      11/11/11, 6:00      28.3      -3.0             89            5.0            8.1   137.3
      11/11/11, 7:00      28.0      -3.2             86            5.5            8.8   138.5
      11/11/11, 8:00      28.1      -3.2             84            5.0            8.0   137.3
      11/11/11, 9:00      29.8      -2.2             81            7.1           11.5   136.7
     11/11/11, 10:00      33.3      -0.3             74            7.9           12.6   129.4
     11/11/11, 11:00      37.6       2.1             65            9.5           15.4   136.2
     11/11/11, 12:00      42.7       4.9             63            9.3           15.0   143.5
     11/11/11, 13:00      46.6       7.1             49           10.1           16.3     159
     11/11/11, 14:00      49.8       8.9             48            7.8           12.5   188.4
     11/11/11, 15:00      51.3       9.7             49            7.4           12.0   193.2
     11/11/11, 16:00      53.0      10.7             47            6.3           10.1   198.5
     11/11/11, 17:00      52.8      10.6             49            5.5            8.9   196.6
     11/11/11, 18:00      50.0       9.0             59            3.7            5.9     195
     11/11/11, 19:00      44.4       5.9             69            2.8            4.4   176.6
     11/11/11, 20:00      42.6       4.9             71            3.2            5.1   172.6
     11/11/11, 21:00      41.5       4.3             76            2.9            4.6   183.4
     11/11/11, 22:00      39.4       3.1             80            2.5            4.0   168.5
     11/11/11, 23:00      40.4       3.6             82            3.4            5.5   195.3
      11/12/11, 0:00      41.6       4.3             82            3.6            5.9   194.4
      11/12/11, 1:00      39.4       3.1             85            2.0            3.3   149.8
      11/12/11, 2:00      40.5       3.7             86            5.3            8.5   179.3
      11/12/11, 3:00      40.8       3.9             80            4.3            6.9   186.7
      11/12/11, 4:00      39.0       2.9             83            2.2            3.5   147.7
      11/12/11, 5:00      37.1       1.8             88            3.1            4.9   147.6
      11/12/11, 6:00      35.3       0.8             91            2.6            4.2     147
      11/12/11, 7:00      34.5       0.4             93            3.8            6.1   152.1
      11/12/11, 8:00      34.0       0.1             96            3.0            4.8   139.1
      11/12/11, 9:00      35.3       0.8             95            4.3            7.0   150.8
     11/12/11, 10:00      39.0       2.9             94            6.3           10.1   149.2
     11/12/11, 11:00      44.5       5.9             88            8.9           14.4   150.8
     11/12/11, 12:00      48.9       8.4             80            9.1           14.6   149.8
     11/12/11, 13:00      54.2      11.3             65           10.8           17.4   155.2
     11/12/11, 14:00      56.5      12.6             51           11.2           18.0   152.3
     11/12/11, 15:00      58.8      13.9             48           12.4           20.0     157
     11/12/11, 16:00      59.4      14.2             43           11.7           18.8   157.7
     11/12/11, 17:00      58.2      13.5             46           10.1           16.3   154.6
     11/12/11, 18:00      56.0      12.3             49           10.7           17.2   161.1
     11/12/11, 19:00      54.2      11.4             53           10.6           17.1     159
     11/12/11, 20:00      54.8      11.7             51           12.1           19.5   162.6
     11/12/11, 21:00      53.5      10.9             56           10.1           16.2   158.1
     11/12/11, 22:00      50.2       9.1             64            8.2           13.2   150.8
     11/12/11, 23:00      48.1       8.0             70            7.8           12.5     158
      11/13/11, 0:00      50.1       9.1             70           10.1           16.2   166.1


  

                                                                                             
           Date,Time       Air       Air     % Relative           Wind           Wind    Wind
                        Temp F    Temp C       Humidity      Speed mph     Speed km/h Dir Deg
---------------------------------------------------------------------------------------------
      11/13/11, 1:00      48.0       7.9             77            8.8           14.2   171.7
      11/13/11, 2:00      45.9       6.7             81            8.0           12.9   174.1
      11/13/11, 3:00      45.6       6.5             82            6.5           10.4   170.8
      11/13/11, 4:00      46.7       7.2             82            5.9            9.4   174.8
      11/13/11, 5:00      44.9       6.2             86            3.7            5.9   129.7
      11/13/11, 6:00      45.1       6.3             87            5.0            8.1   140.1
      11/13/11, 7:00      47.2       7.4             86            4.5            7.2   130.7
      11/13/11, 8:00      48.1       7.9             92            5.7            9.1   144.4
      11/13/11, 9:00      51.5       9.9             91            9.0           14.5   177.9
     11/13/11, 10:00      52.9      10.6             83            9.1           14.6   193.8
     11/13/11, 11:00      54.7      11.6             73           10.0           16.0     198
     11/13/11, 12:00      56.8      12.8             63           10.8           17.4   209.4
     11/13/11, 13:00      57.7      13.3             57           10.3           16.7   199.3
     11/13/11, 14:00      54.8      11.7             53           11.0           17.8   211.1
     11/13/11, 15:00      53.7      11.1             44            8.5           13.7   212.8
     11/13/11, 16:00      54.1      11.3             43            9.0           14.5   212.4
     11/13/11, 17:00      54.3      11.4             46            7.3           11.8   215.4
     11/13/11, 18:00      53.2      10.8             53            5.8            9.4   215.8
     11/13/11, 19:00      50.4       9.2             60            4.7            7.6   217.7
     11/13/11, 20:00      48.4       8.1             67            5.5            8.8   208.2
     11/13/11, 21:00      45.6       6.6             70            3.4            5.5   209.6
     11/13/11, 22:00      44.5       5.9             71            4.3            6.8   197.4
     11/13/11, 23:00      42.9       5.0             73            2.5            4.0   205.3
      11/14/11, 0:00      42.5       4.8             74            0.9            1.5   236.7
      11/14/11, 1:00      41.8       4.5             80            1.0            1.6   205.7
      11/14/11, 2:00      40.9       3.9             78            1.4            2.3   169.8
      11/14/11, 3:00      39.5       3.2             87            1.0            1.7      90
      11/14/11, 4:00      39.0       2.9             89            2.7            4.3   124.1
      11/14/11, 5:00      39.6       3.2             88            2.4            3.8   132.7
      11/14/11, 6:00      39.4       3.1             87            2.4            3.8     127
      11/14/11, 7:00      39.8       3.3             88            4.9            7.9   151.8
      11/14/11, 8:00      39.7       3.3             87            2.2            3.6   146.3
      11/14/11, 9:00      40.3       3.6             89            2.2            3.6   214.5
     11/14/11, 10:00      42.9       5.1             86            3.8            6.2   138.7
     11/14/11, 11:00      49.1       8.5             76            7.8           12.5   142.3
     11/14/11, 12:00      55.0      11.8             58            9.4           15.1     158
     11/14/11, 13:00      59.1      14.0             48           12.0           19.3   175.8
     11/14/11, 14:00      62.1      15.7             40           10.5           16.8   193.8
     11/14/11, 15:00      63.6      16.5             34            7.8           12.6   234.3
     11/14/11, 16:00      61.8      15.5             36            6.9           11.1   262.4
     11/14/11, 17:00      60.5      14.8             33            5.5            8.8   262.8
     11/14/11, 18:00      56.9      12.9             39            3.0            4.8   258.7
     11/14/11, 19:00      52.0      10.1             42            2.5            4.0   262.8
     11/14/11, 20:00      50.7       9.4             43            4.5            7.2   283.6
     11/14/11, 21:00      48.5       8.2             53            2.3            3.8   254.7
     11/14/11, 22:00      45.6       6.6             53            0.8            1.3   215.6
     11/14/11, 23:00      44.1       5.7             60            1.2            2.0   173.6
      11/15/11, 0:00      41.6       4.4             66            1.9            3.0   129.8


  

                                                                                             
           Date,Time       Air       Air     % Relative           Wind           Wind    Wind
                        Temp F    Temp C       Humidity      Speed mph     Speed km/h Dir Deg
---------------------------------------------------------------------------------------------
      11/15/11, 1:00      40.6       3.8             70            2.6            4.2   150.2
      11/15/11, 2:00      38.5       2.6             80            2.5            4.0   150.8
      11/15/11, 3:00      36.3       1.4             83            2.8            4.6   146.8
      11/15/11, 4:00      36.3       1.4             85            4.7            7.6   146.4
      11/15/11, 5:00      36.9       1.7             87            5.0            8.0   148.8
      11/15/11, 6:00      39.1       2.9             85            8.4           13.5   150.7
      11/15/11, 7:00      41.2       4.1             78           10.0           16.1   164.8
      11/15/11, 8:00      41.0       4.0             78            9.5           15.2   167.8
      11/15/11, 9:00      40.9       4.0             74            5.3            8.5   160.4
     11/15/11, 10:00      44.7       6.0             72            4.7            7.5   167.9
     11/15/11, 11:00      50.6       9.3             60            4.3            6.9   209.4
     11/15/11, 12:00      52.4      10.3             51            4.3            7.0   219.9
     11/15/11, 13:00      54.2      11.3             50            4.6            7.4   258.6
     11/15/11, 14:00      57.1      13.0             44            5.2            8.4   278.6
     11/15/11, 15:00      59.1      14.1             35            6.4           10.3   294.1
     11/15/11, 16:00      59.1      14.1             31            7.5           12.1   288.6
     11/15/11, 17:00      57.8      13.4             27            6.9           11.1     297
     11/15/11, 18:00      54.0      11.2             36            6.3           10.2   296.8
     11/15/11, 19:00      49.7       8.8             43            5.1            8.2   289.1
     11/15/11, 20:00      46.7       7.1             48            6.1            9.9   294.9
     11/15/11, 21:00      44.1       5.7             51            8.9           14.4   296.1
     11/15/11, 22:00      41.2       4.1             53            7.8           12.6     295
     11/15/11, 23:00      38.5       2.6             57            6.9           11.1   292.6
      11/16/11, 0:00      36.0       1.2             60            5.1            8.2   295.8
      11/16/11, 1:00      34.3       0.3             60            4.4            7.2   293.1
      11/16/11, 2:00      33.1      -0.4             58            5.4            8.7   288.7
      11/16/11, 3:00      32.9      -0.5             56            5.7            9.2   288.7
      11/16/11, 4:00      31.2      -1.4             60            5.0            8.0   287.9
      11/16/11, 5:00      28.0      -3.2             68            4.2            6.8   299.8
      11/16/11, 6:00      26.4      -4.1             72            3.7            6.0     284
      11/16/11, 7:00      23.7      -5.6             79            0.4            0.7   252.8
      11/16/11, 8:00      23.7      -5.6             77            1.0            1.7   259.9
      11/16/11, 9:00      24.1      -5.4             78            1.6            2.6     289
     11/16/11, 10:00      28.6      -2.9             75            3.3            5.3   279.5
     11/16/11, 11:00      33.6      -0.1             64            5.5            8.9   298.1
     11/16/11, 12:00      36.6       1.5             56            6.1            9.7   301.8
     11/16/11, 13:00      39.6       3.2             46            7.2           11.6   303.4
     11/16/11, 14:00      41.3       4.2             35            7.6           12.3   300.7
     11/16/11, 15:00      42.4       4.8             31            7.8           12.6   288.3
     11/16/11, 16:00      42.7       5.0             31            7.4           11.9   291.9
     11/16/11, 17:00      42.7       4.9             27            7.3           11.7   281.5
     11/16/11, 18:00      39.9       3.4             31            3.5            5.6   243.9
     11/16/11, 19:00      33.5      -0.1             45            1.8            3.0   203.5
     11/16/11, 20:00      31.5      -1.3             47            1.9            3.0   208.2
     11/16/11, 21:00      29.4      -2.4             51            2.2            3.5   201.1
     11/16/11, 22:00      29.5      -2.4             52            2.5            4.0     227
     11/16/11, 23:00      31.4      -1.3             49            6.6           10.6   286.7
      11/17/11, 0:00      31.2      -1.5             48            6.4           10.3   288.2


  

                                                                                             
           Date,Time       Air       Air     % Relative           Wind           Wind    Wind
                        Temp F    Temp C       Humidity      Speed mph     Speed km/h Dir Deg
---------------------------------------------------------------------------------------------
      11/17/11, 1:00      28.6      -2.9             53            5.8            9.4   289.6
      11/17/11, 2:00      25.9      -4.4             58            3.8            6.2   268.8
      11/17/11, 3:00      23.9      -5.5             62            2.2            3.6   233.5
      11/17/11, 4:00      22.8      -6.1             67            3.0            4.8   257.2
      11/17/11, 5:00      22.2      -6.5             69            3.0            4.8     264
      11/17/11, 6:00      21.4      -6.9             69            2.8            4.6   264.9
      11/17/11, 7:00      20.9      -7.2             71            2.4            3.9   248.5
      11/17/11, 8:00      19.5      -7.9             75            1.8            2.9   265.5
      11/17/11, 9:00      20.2      -7.5             74            0.9            1.5   258.1
     11/17/11, 10:00      24.1      -5.4             73            2.2            3.5   203.7
     11/17/11, 11:00      29.1      -2.6             65            3.0            4.8   217.7
     11/17/11, 12:00      34.7       0.5             53            4.3            6.9   227.3
     11/17/11, 13:00      38.6       2.7             40            4.7            7.5   231.5
     11/17/11, 14:00      41.2       4.1             37            6.3           10.2   210.7
     11/17/11, 15:00      44.4       5.9             35            5.0            8.1   212.2
     11/17/11, 16:00      46.5       7.1             31            5.3            8.6   222.1
     11/17/11, 17:00      45.9       6.7             30            6.7           10.8   198.5
     11/17/11, 18:00      42.6       4.9             41            7.4           11.9     185
     11/17/11, 19:00      37.3       2.0             51            5.6            8.9   164.6
     11/17/11, 20:00      34.6       0.4             53            6.0            9.6   152.1
     11/17/11, 21:00      34.4       0.3             53            7.6           12.2   161.7
     11/17/11, 22:00      33.3      -0.3             57            7.3           11.8   151.7
     11/17/11, 23:00      33.0      -0.4             63            8.2           13.2   147.8
      11/18/11, 0:00      31.5      -1.3             69            7.3           11.7   146.5
      11/18/11, 1:00      32.3      -0.9             71            7.9           12.7   151.8
      11/18/11, 2:00      35.4       0.9             70           11.3           18.3     164
      11/18/11, 3:00      36.0       1.2             69           11.8           19.0   167.4
      11/18/11, 4:00      36.1       1.3             67           10.8           17.5   163.5
      11/18/11, 5:00      37.0       1.8             64           11.6           18.7   167.7
      11/18/11, 6:00      36.9       1.7             64           11.4           18.3   165.4
      11/18/11, 7:00      37.0       1.8             65           10.4           16.8   163.9
      11/18/11, 8:00      36.0       1.2             66            8.9           14.3   156.9
      11/18/11, 9:00      37.4       2.0             64           10.7           17.2   158.8
     11/18/11, 10:00      40.2       3.6             57           14.7           23.7   170.3
     11/18/11, 11:00      43.4       5.3             53           16.2           26.0   176.7
     11/18/11, 12:00      47.6       7.7             50           20.7           33.3   179.5
     11/18/11, 13:00      50.9       9.5             45           22.4           36.0   179.1
     11/18/11, 14:00      53.1      10.7             43           18.9           30.5   180.5
     11/18/11, 15:00      55.1      11.9             41           19.0           30.5   179.3
     11/18/11, 16:00      55.5      12.1             41           19.0           30.6   177.6
     11/18/11, 17:00      54.7      11.6             45           14.4           23.3   173.1
     11/18/11, 18:00      52.6      10.4             51            9.8           15.7   170.1
     11/18/11, 19:00      49.4       8.7             56            7.3           11.8   168.6
     11/18/11, 20:00      47.6       7.6             61            5.3            8.5   164.6
     11/18/11, 21:00      44.5       6.0             67            4.2            6.8   157.9
     11/18/11, 22:00      43.4       5.4             69            4.7            7.6   154.2
     11/18/11, 23:00      47.3       7.5             66            6.7           10.8   159.9
      11/19/11, 0:00      47.6       7.7             65            7.7           12.3   163.2


  

                                                                                             
           Date,Time       Air       Air     % Relative           Wind           Wind    Wind
                        Temp F    Temp C       Humidity      Speed mph     Speed km/h Dir Deg
---------------------------------------------------------------------------------------------
      11/19/11, 1:00      46.5       7.1             65            7.7           12.5   162.4
      11/19/11, 2:00      44.9       6.2             70            7.1           11.4   157.2
      11/19/11, 3:00      42.6       4.9             71            5.7            9.1   155.6
      11/19/11, 4:00      42.6       4.9             70            5.6            9.1   136.7
      11/19/11, 5:00      44.8       6.1             64            6.2            9.9   135.6
      11/19/11, 6:00      44.9       6.1             59            6.0            9.6   126.6
      11/19/11, 7:00      44.9       6.2             58            6.2           10.0   130.1
      11/19/11, 8:00      45.9       6.7             57            7.3           11.7   127.7
      11/19/11, 9:00      45.9       6.7             58           10.1           16.3   127.8
     11/19/11, 10:00      47.1       7.4             60           10.4           16.7   125.8
     11/19/11, 11:00      50.0       9.0             60            9.6           15.4     141
     11/19/11, 12:00      52.4      10.3             60           10.4           16.7   154.5
     11/19/11, 13:00      53.4      10.9             61           12.8           20.7     158
     11/19/11, 14:00      56.0      12.3             60           13.9           22.4   154.8
     11/19/11, 15:00      57.3      13.1             63           12.4           20.0   169.1
     11/19/11, 16:00      56.6      12.7             66            6.8           11.0   167.2
     11/19/11, 17:00      56.3      12.5             69            4.0            6.5   182.6
     11/19/11, 18:00      54.6      11.6             77            9.0           14.5   252.2
     11/19/11, 19:00      43.8       5.5             87           12.2           19.6   284.4
     11/19/11, 20:00      36.5       1.5             91           11.4           18.3   292.4
     11/19/11, 21:00      34.4       0.4             91           11.4           18.4     290
     11/19/11, 22:00      32.8      -0.5             89            9.9           15.9   289.2
     11/19/11, 23:00      32.1      -1.0             86           11.1           17.9   297.7
      11/20/11, 0:00      31.3      -1.4             86           11.0           17.6   300.8
      11/20/11, 1:00      30.6      -1.8             87            9.6           15.4   303.4
      11/20/11, 2:00      30.1      -2.1             87            6.8           11.0   303.6
      11/20/11, 3:00      30.0      -2.1             87            5.6            9.0   296.3
      11/20/11, 4:00      29.8      -2.2             86            6.5           10.5   301.8
      11/20/11, 5:00      28.6      -2.9             87            6.9           11.2   299.6
      11/20/11, 6:00      27.4      -3.6             89            6.3           10.1   310.1
      11/20/11, 7:00      27.4      -3.5             90            5.6            8.9   324.5
      11/20/11, 8:00      27.6      -3.5             90            4.0            6.4   314.8
      11/20/11, 9:00      27.6      -3.4             91            4.9            7.9   336.3
     11/20/11, 10:00      27.9      -3.3             91            4.4            7.1   329.4
     11/20/11, 11:00      29.2      -2.5             85            5.0            8.1   340.6
     11/20/11, 12:00      31.2      -1.4             83            5.3            8.6   348.1
     11/20/11, 13:00      32.7      -0.6             78            4.8            7.7   352.2
     11/20/11, 14:00      34.4       0.3             76            4.3            7.0   354.2
     11/20/11, 15:00      36.7       1.6             72            4.9            7.8   1.613
     11/20/11, 16:00      38.6       2.7             66            5.1            8.2   358.3
     11/20/11, 17:00      37.6       2.1             66            6.0            9.6    7.65
     11/20/11, 18:00      35.9       1.2             72            5.2            8.3    8.29
     11/20/11, 19:00      33.2      -0.3             76            5.6            9.0   3.275
     11/20/11, 20:00      31.9      -1.1             78            3.7            6.0    9.84
     11/20/11, 21:00      31.0      -1.6             81            3.2            5.2    .865
     11/20/11, 22:00      30.0      -2.1             85            3.5            5.6   12.06
     11/20/11, 23:00      28.8      -2.8             90            4.0            6.5   359.3
      11/21/11, 0:00      28.1      -3.2             92            3.8            6.1   18.79


  

                                                                                             
           Date,Time       Air       Air     % Relative           Wind           Wind    Wind
                        Temp F    Temp C       Humidity      Speed mph     Speed km/h Dir Deg
---------------------------------------------------------------------------------------------
      11/21/11, 1:00      28.1      -3.2             93            3.2            5.2   12.88
      11/21/11, 2:00      27.5      -3.5             95            4.4            7.1    9.56
      11/21/11, 3:00      27.4      -3.5             96            3.6            5.9   15.78
      11/21/11, 4:00      26.7      -3.9             97            4.5            7.2   352.2
      11/21/11, 5:00      26.8      -3.9             98            3.3            5.3   10.32
      11/21/11, 6:00      26.7      -4.0             99            3.8            6.1   11.01
      11/21/11, 7:00      30.2      -2.0             99            3.5            5.7   55.63
      11/21/11, 8:00      32.2      -0.9             96            2.9            4.7   58.04
      11/21/11, 9:00      32.7      -0.6             95            4.4            7.1   50.35
     11/21/11, 10:00      33.7      -0.1             94            5.2            8.3    69.3
     11/21/11, 11:00      36.2       1.3             92            5.4            8.7    84.8
     11/21/11, 12:00      40.9       3.9             84            5.5            8.8    92.7
     11/21/11, 13:00      43.3       5.3             77            4.2            6.8   103.5
     11/21/11, 14:00      43.7       5.5             75            3.8            6.1   32.96
     11/21/11, 15:00      45.9       6.7             71            5.2            8.3   51.34
     11/21/11, 16:00      45.5       6.5             70            5.7            9.2    61.9
     11/21/11, 17:00      45.2       6.4             70            5.2            8.4   63.14
     11/21/11, 18:00      43.9       5.6             72            3.7            5.9    65.7
     11/21/11, 19:00      42.4       4.8             76            3.2            5.2   55.28
     11/21/11, 20:00      41.0       4.0             79            3.3            5.3   37.65
     11/21/11, 21:00      40.3       3.6             83            3.2            5.2   39.28
     11/21/11, 22:00      41.4       4.2             82            4.6            7.4   57.52
     11/21/11, 23:00      41.7       4.4             81            5.2            8.4    71.6
      11/22/11, 0:00      42.0       4.6             81            6.1            9.8    70.7
      11/22/11, 1:00      41.6       4.3             93            4.7            7.6   61.17
      11/22/11, 2:00      40.7       3.8             98            4.4            7.1   65.87
      11/22/11, 3:00      41.0       4.0             97            3.9            6.3    53.7
      11/22/11, 4:00      40.7       3.8             94            4.5            7.2   42.01
      11/22/11, 5:00      39.9       3.4             96            4.7            7.5   44.72
      11/22/11, 6:00      39.8       3.3             96            4.4            7.0   40.52
      11/22/11, 7:00      39.6       3.2             97            3.7            5.9   27.28
      11/22/11, 8:00      39.2       3.0             98            3.7            6.0   21.26
      11/22/11, 9:00      38.8       2.8            100            4.7            7.6   32.29
     11/22/11, 10:00      38.2       2.4            100            4.7            7.6   16.23
     11/22/11, 11:00      38.3       2.5            100            4.4            7.0   359.3
     11/22/11, 12:00      38.7       2.7            100            5.4            8.6   355.2
     11/22/11, 13:00      39.7       3.3            100            5.7            9.3     354
     11/22/11, 14:00      41.3       4.2             98            5.9            9.5   349.7
     11/22/11, 15:00      42.3       4.7             95            5.7            9.2   354.1
     11/22/11, 16:00      43.6       5.4             92            4.6            7.4   342.3
     11/22/11, 17:00      45.0       6.2             89            3.2            5.2   310.2
     11/22/11, 18:00      43.2       5.2             92            3.0            4.8   279.6
     11/22/11, 19:00      40.6       3.8             95            3.1            5.0   276.8
     11/22/11, 20:00      39.4       3.1             96            3.9            6.3   283.2
     11/22/11, 21:00      38.3       2.5             97            3.7            6.0     295
     11/22/11, 22:00      37.1       1.8             99            2.3            3.8   307.2
     11/22/11, 23:00      35.8       1.1            100            3.4            5.5   287.1
      11/23/11, 0:00      34.7       0.5            100            2.4            3.8   308.4


  

                                                                                             
           Date,Time       Air       Air     % Relative           Wind           Wind    Wind
                        Temp F    Temp C       Humidity      Speed mph     Speed km/h Dir Deg
---------------------------------------------------------------------------------------------
      11/23/11, 1:00      33.6      -0.1            100            3.1            5.0     309
      11/23/11, 2:00      32.5      -0.7            100            2.7            4.4   306.7
      11/23/11, 3:00      32.4      -0.8            100            2.1            3.3   314.9
      11/23/11, 4:00      34.4       0.4            100            1.3            2.2   310.9
      11/23/11, 5:00      34.9       0.6            100            0.3            0.5   119.1
      11/23/11, 6:00      35.8       1.1            100            1.3            2.0   185.7
      11/23/11, 7:00      36.9       1.7            100            0.2            0.3   154.3
      11/23/11, 8:00      37.4       2.0            100            0.8            1.2   207.2
      11/23/11, 9:00      38.6       2.7            100            1.1            1.7   187.4
     11/23/11, 10:00      39.6       3.2            100            2.0            3.1   159.2
     11/23/11, 11:00      41.0       4.0            100            4.3            6.9   159.7
     11/23/11, 12:00      42.2       4.7            100            5.4            8.7   166.6
     11/23/11, 13:00      43.0       5.1             97            6.9           11.0   170.5
     11/23/11, 14:00      43.7       5.5             93            7.2           11.5   171.3
     11/23/11, 15:00      44.3       5.8             93            8.0           12.8   162.4
     11/23/11, 16:00      44.2       5.8             93            8.8           14.2   174.1
     11/23/11, 17:00      43.8       5.5             93            8.2           13.2   170.1
     11/23/11, 18:00      43.3       5.3             94            6.5           10.5   160.9
     11/23/11, 19:00      42.5       4.8             96            6.4           10.3   155.7
     11/23/11, 20:00      40.5       3.7             99            6.6           10.6   149.8
     11/23/11, 21:00      38.4       2.5            100            7.0           11.3   149.7
     11/23/11, 22:00      37.2       1.9            100            6.5           10.4   150.5
     11/23/11, 23:00      36.7       1.6            100            6.4           10.2   151.2
      11/24/11, 0:00      37.9       2.3            100            7.8           12.6   150.7
      11/24/11, 1:00      38.7       2.7            100            7.1           11.4     146
      11/24/11, 2:00      37.8       2.2            100            6.1            9.9   142.7
      11/24/11, 3:00      37.4       2.0            100            6.7           10.8   139.9
      11/24/11, 4:00      37.2       1.9            100            7.1           11.4   144.9
      11/24/11, 5:00      37.8       2.2            100            8.0           12.9   146.6
      11/24/11, 6:00      38.1       2.4            100            8.3           13.4   146.9
      11/24/11, 7:00      39.1       2.9            100            8.5           13.7   148.5
      11/24/11, 8:00      39.8       3.3            100           10.0           16.1   146.8
      11/24/11, 9:00      40.2       3.6            100            9.8           15.8   146.3
     11/24/11, 10:00      40.1       3.5            100            8.9           14.3   146.9
     11/24/11, 11:00      43.6       5.4            100            9.8           15.7   150.1
     11/24/11, 12:00      49.6       8.8            100           10.1           16.2   157.9
     11/24/11, 13:00      55.0      11.8             82           11.9           19.2   163.4
     11/24/11, 14:00      59.4      14.2             71           13.7           22.0   169.1
     11/24/11, 15:00      61.1      15.2             62           13.3           21.4     168
     11/24/11, 16:00      62.5      16.0             60           13.6           21.9   164.6
     11/24/11, 17:00      62.9      16.2             58           12.0           19.2   160.6
     11/24/11, 18:00      60.2      14.7             62           10.6           17.0   159.4
     11/24/11, 19:00      56.1      12.4             68            9.1           14.7   152.8
     11/24/11, 20:00      54.4      11.5             69            9.8           15.8   157.3
     11/24/11, 21:00      52.0      10.1             72            8.7           14.0   155.1
     11/24/11, 22:00      51.3       9.7             73            8.7           14.1   161.3
     11/24/11, 23:00      52.7      10.5             70           10.3           16.5   167.8
      11/25/11, 0:00      52.9      10.6             64            9.1           14.6   171.5


  

                                                                                             
           Date,Time       Air       Air     % Relative           Wind           Wind    Wind
                        Temp F    Temp C       Humidity      Speed mph     Speed km/h Dir Deg
---------------------------------------------------------------------------------------------
      11/25/11, 1:00      51.1       9.6             66            9.7           15.6   171.3
      11/25/11, 2:00      51.4       9.8             67           13.2           21.2   172.6
      11/25/11, 3:00      50.9       9.5             73           14.1           22.7     178
      11/25/11, 4:00      49.8       8.9             77           11.7           18.8   175.9
      11/25/11, 5:00      48.5       8.2             81            9.9           15.9   174.7
      11/25/11, 6:00      46.9       7.3             87            7.8           12.6   168.5
      11/25/11, 7:00      46.1       6.8             87            9.2           14.8   172.8
      11/25/11, 8:00      45.9       6.7             89            8.5           13.7   168.3
      11/25/11, 9:00      46.0       6.8             91            9.4           15.2   171.1
     11/25/11, 10:00      47.4       7.6             90           14.3           23.0   180.3
     11/25/11, 11:00      48.3       8.1             89           14.8           23.8     184
     11/25/11, 12:00      49.5       8.7             87           12.8           20.6   187.1
     11/25/11, 13:00      50.2       9.1             86           12.1           19.5     185
     11/25/11, 14:00      50.9       9.5             85           12.2           19.7   178.4
     11/25/11, 15:00      51.4       9.8             84           13.3           21.4   170.8
     11/25/11, 16:00      51.9      10.1             83           12.3           19.8   171.4
     11/25/11, 17:00      51.7      10.0             86            9.3           15.0     160
     11/25/11, 18:00      51.4       9.8             88            8.7           14.0   155.9
     11/25/11, 19:00      51.5       9.8             90            9.8           15.8   151.8
     11/25/11, 20:00      52.0      10.1             90           10.1           16.2     155
     11/25/11, 21:00      53.0      10.7             88           11.1           17.9   156.4
     11/25/11, 22:00      53.5      10.9             88            8.5           13.7   150.3
     11/25/11, 23:00      53.0      10.7             90            8.0           12.9   145.5
      11/26/11, 0:00      53.4      10.9             89            8.3           13.3   155.6
      11/26/11, 1:00      53.5      10.9             90            6.0            9.7   154.3
      11/26/11, 2:00      53.3      10.8             90            6.3           10.2   157.7
      11/26/11, 3:00      53.2      10.8             98           10.1           16.3   175.9
      11/26/11, 4:00      52.5      10.4             99           11.5           18.5   178.5
      11/26/11, 5:00      52.8      10.6            100            9.2           14.8   182.5
      11/26/11, 6:00      52.5      10.4            100            5.4            8.7   186.6
      11/26/11, 7:00      52.3      10.3            100            4.4            7.1   181.4
      11/26/11, 8:00      52.3      10.3            100            4.8            7.7   207.2
      11/26/11, 9:00      46.3       6.9            100            7.1           11.4   274.5
     11/26/11, 10:00      41.7       4.4             96            8.2           13.2   285.5
     11/26/11, 11:00      41.5       4.3             96            7.2           11.6   291.7
     11/26/11, 12:00      42.0       4.6             98            7.3           11.8   282.7
     11/26/11, 13:00      42.3       4.7             97            8.7           14.0     292
     11/26/11, 14:00      41.1       4.1             95           10.1           16.2   294.5
     11/26/11, 15:00      40.9       3.9             94           10.0           16.1   292.4
     11/26/11, 16:00      40.5       3.7             92           11.5           18.4   297.4
     11/26/11, 17:00      39.9       3.4             91            9.9           16.0   297.4
     11/26/11, 18:00      40.1       3.5             88           11.8           19.0   304.9
     11/26/11, 19:00      39.8       3.3             88           13.1           21.1   300.6
     11/26/11, 20:00      38.7       2.7             89           12.9           20.8   304.1
     11/26/11, 21:00      38.0       2.3             87           12.8           20.7   299.7
     11/26/11, 22:00      37.7       2.2             86           12.9           20.8   301.1
     11/26/11, 23:00      37.7       2.2             86           11.5           18.5   306.4
      11/27/11, 0:00      37.8       2.2             86           12.3           19.7   309.8


  

                                                                                             
           Date,Time       Air       Air     % Relative           Wind           Wind    Wind
                        Temp F    Temp C       Humidity      Speed mph     Speed km/h Dir Deg
---------------------------------------------------------------------------------------------
      11/27/11, 1:00      37.9       2.3             86           11.9           19.1   312.3
      11/27/11, 2:00      37.8       2.2             85           11.3           18.2     311
      11/27/11, 3:00      36.8       1.6             87           11.2           18.0   304.8
      11/27/11, 4:00      36.3       1.4             86           11.0           17.7   304.5
      11/27/11, 5:00      36.0       1.2             84           10.4           16.7   307.3
      11/27/11, 6:00      35.6       1.0             84           10.4           16.8   302.6
      11/27/11, 7:00      35.2       0.8             83           10.7           17.2   299.7
      11/27/11, 8:00      34.8       0.6             81           10.0           16.2   304.6
      11/27/11, 9:00      34.8       0.6             80            9.2           14.9   301.8
     11/27/11, 10:00      35.0       0.7             80            8.4           13.5   303.8
     11/27/11, 11:00      35.5       0.9             78            9.6           15.4   308.4
     11/27/11, 12:00      35.9       1.2             77            8.5           13.7   309.5
     11/27/11, 13:00      36.3       1.4             77            9.4           15.1   309.1
     11/27/11, 14:00      36.4       1.5             76            8.9           14.3   313.2
     11/27/11, 15:00      36.2       1.3             76            8.9           14.3     309
     11/27/11, 16:00      35.7       1.1             76            8.7           14.1   309.6
     11/27/11, 17:00      35.1       0.7             77            7.3           11.7   309.8
     11/27/11, 18:00      34.5       0.4             78            6.5           10.5   304.6
     11/27/11, 19:00      34.1       0.2             78            6.3           10.1   307.9
     11/27/11, 20:00      33.6      -0.1             79            5.2            8.4     320
     11/27/11, 21:00      33.3      -0.3             81            4.8            7.7   322.7
     11/27/11, 22:00      32.9      -0.5             83            4.5            7.2   329.4
     11/27/11, 23:00      32.6      -0.7             83            4.5            7.2     330
      11/28/11, 0:00      32.4      -0.8             84            2.5            4.0   339.1
      11/28/11, 1:00      32.2      -0.9             84            2.2            3.5   343.1
      11/28/11, 2:00      31.9      -1.0             84            2.9            4.7   334.4
      11/28/11, 3:00      31.6      -1.2             86            2.8            4.4   321.4
      11/28/11, 4:00      31.2      -1.5             87            2.9            4.7   326.6
      11/28/11, 5:00      30.6      -1.8             88            2.7            4.4   322.9
      11/28/11, 6:00      30.3      -1.9             89            1.7            2.7   14.34
      11/28/11, 7:00      30.1      -2.0             89            2.5            4.0   56.19
      11/28/11, 8:00      29.8      -2.2             88            1.4            2.2   50.33
      11/28/11, 9:00      29.8      -2.2             88            2.3            3.7    96.6
     11/28/11, 10:00      30.3      -1.9             87            3.5            5.6   143.9
     11/28/11, 11:00      30.9      -1.6             87            2.7            4.3   188.2
     11/28/11, 12:00      31.5      -1.3             86            2.4            3.9   160.2
     11/28/11, 13:00      32.3      -0.8             84            2.2            3.5   210.8
     11/28/11, 14:00      33.2      -0.3             83            2.9            4.6   161.4
     11/28/11, 15:00      35.8       1.1             78            2.8            4.5   114.5
     11/28/11, 16:00      38.0       2.3             72            1.9            3.0    79.3
     11/28/11, 17:00      37.3       1.9             72            2.4            3.9   304.4
     11/28/11, 18:00      35.9       1.2             76            1.2            2.0   319.3
     11/28/11, 19:00      34.2       0.2             81            0.3            0.5   321.6
     11/28/11, 20:00      33.4      -0.2             85            2.0            3.3   312.3
     11/28/11, 21:00      30.3      -2.0             91            2.1            3.4   321.2
     11/28/11, 22:00      29.6      -2.3             92            1.5            2.5     313
     11/28/11, 23:00      28.4      -3.0             95            1.7            2.7   316.8
      11/29/11, 0:00      28.5      -2.9             96            2.5            4.0   1.419


  

                                                                                             
           Date,Time       Air       Air     % Relative           Wind           Wind    Wind
                        Temp F    Temp C       Humidity      Speed mph     Speed km/h Dir Deg
---------------------------------------------------------------------------------------------
      11/29/11, 1:00      28.4      -3.0             96            2.0            3.2   22.23
      11/29/11, 2:00      27.0      -3.8             97            1.4            2.3   323.8
      11/29/11, 3:00      29.3      -2.5             98            4.8            7.8   323.6
      11/29/11, 4:00      33.6      -0.1             89            8.9           14.3   339.2
      11/29/11, 5:00      33.8       0.0             86            9.0           14.5   341.8
      11/29/11, 6:00      32.7      -0.6             86            9.3           15.0   338.9
      11/29/11, 7:00      31.5      -1.3             85            8.9           14.3   339.6
      11/29/11, 8:00      30.3      -2.0             86            8.4           13.5   335.8
      11/29/11, 9:00      29.6      -2.3             85            8.5           13.7   331.4
     11/29/11, 10:00      30.9      -1.6             83            7.6           12.3   336.6
     11/29/11, 11:00      33.1      -0.4             76           10.6           17.0   346.3
     11/29/11, 12:00      35.5       0.9             70           10.0           16.0   351.5
     11/29/11, 13:00      38.2       2.5             62            9.5           15.3     334
     11/29/11, 14:00      40.0       3.4             49            9.6           15.5   328.1
     11/29/11, 15:00      41.3       4.2             42            9.3           15.0   324.8
     11/29/11, 16:00      42.2       4.7             34           10.1           16.2   327.6
     11/29/11, 17:00      41.9       4.5             28            8.1           13.1     329
     11/29/11, 18:00      38.4       2.6             35            5.4            8.7   319.3
     11/29/11, 19:00      34.8       0.5             41            5.3            8.5   308.9
     11/29/11, 20:00      32.4      -0.8             51            5.7            9.2   297.2
     11/29/11, 21:00      30.4      -1.9             60            4.8            7.8     301
     11/29/11, 22:00      28.2      -3.1             65            3.9            6.2   306.3
     11/29/11, 23:00      25.6      -4.5             70            3.1            5.0   309.1
      11/30/11, 0:00      24.8      -5.0             71            3.9            6.3   304.7
      11/30/11, 1:00      23.3      -5.9             74            2.7            4.3   301.5
      11/30/11, 2:00      21.9      -6.6             77            1.8            3.0   280.4
      11/30/11, 3:00      21.5      -6.9             78            2.7            4.4   299.2
      11/30/11, 4:00      20.2      -7.6             78            2.4            3.8   276.7
      11/30/11, 5:00      18.5      -8.5             80            0.7            1.1   267.7
      11/30/11, 6:00      17.9      -8.8             81            1.1            1.8   229.3
      11/30/11, 7:00      17.6      -9.0             78            2.0            3.3     194
      11/30/11, 8:00      17.8      -8.9             78            1.8            2.9   188.9
      11/30/11, 9:00      17.1      -9.3             82            0.6            1.0   159.6
     11/30/11, 10:00      22.4      -6.3             84            2.6            4.2   154.4
     11/30/11, 11:00      31.9      -1.1             74            4.8            7.8   161.8
     11/30/11, 12:00      37.8       2.2             55            7.7           12.4   167.1
     11/30/11, 13:00      42.6       4.9             38            9.3           15.0   173.4
     11/30/11, 14:00      46.2       6.9             27           10.3           16.6     171
     11/30/11, 15:00      47.7       7.7             23           11.4           18.4   169.2
     11/30/11, 16:00      48.2       8.0             22           10.9           17.6   164.1
     11/30/11, 17:00      47.3       7.5             26           10.9           17.5   159.2
     11/30/11, 18:00      42.5       4.9             36            8.5           13.7   145.7
     11/30/11, 19:00      39.5       3.2             41            7.6           12.3   148.9
     11/30/11, 20:00      36.9       1.7             48            6.8           11.0     146
     11/30/11, 21:00      36.9       1.7             48            7.5           12.1   147.7
     11/30/11, 22:00      38.0       2.3             46            7.9           12.8   147.2
     11/30/11, 23:00      38.2       2.4             43            8.9           14.4   153.8
      12/01/11, 0:00      36.2       1.3             49            6.5           10.4   155.7


  

                                                                                             
           Date,Time       Air       Air     % Relative           Wind           Wind    Wind
                        Temp F    Temp C       Humidity      Speed mph     Speed km/h Dir Deg
---------------------------------------------------------------------------------------------
      12/01/11, 1:00      33.9       0.1             54            4.6            7.4   146.1
      12/01/11, 2:00      33.4      -0.2             54            3.0            4.8     154
      12/01/11, 3:00      33.0      -0.5             57            2.3            3.7   131.1
      12/01/11, 4:00      31.9      -1.1             61            2.4            3.9   151.9
      12/01/11, 5:00      32.0      -1.0             61            2.4            3.9   139.2
      12/01/11, 6:00      31.0      -1.6             65            2.6            4.2   144.1
      12/01/11, 7:00      30.7      -1.7             66            2.1            3.4   135.2
      12/01/11, 8:00      31.0      -1.6             65            0.8            1.4   130.7
      12/01/11, 9:00      30.8      -1.7             65            0.1            0.2   176.5
     12/01/11, 10:00      31.4      -1.3             73            0.2            0.4   294.6
     12/01/11, 11:00      34.2       0.2             68            3.0            4.8   329.4
     12/01/11, 12:00      37.4       2.0             57            5.4            8.6   321.3
     12/01/11, 13:00      39.6       3.2             65            7.4           12.0   330.7
     12/01/11, 14:00      39.2       3.0             73            8.1           13.0   333.9
     12/01/11, 15:00      38.3       2.5             77            8.1           13.1   330.1
     12/01/11, 16:00      36.9       1.7             92            8.9           14.4   336.7
     12/01/11, 17:00      35.0       0.7             98            8.0           12.9   334.7
     12/01/11, 18:00      33.9       0.0            100            6.7           10.8   330.8
     12/01/11, 19:00      32.8      -0.5            100            7.0           11.2   328.1
     12/01/11, 20:00      32.1      -0.9            100            6.5           10.5   322.7
     12/01/11, 21:00      31.4      -1.3            100            7.2           11.6   325.3
     12/01/11, 22:00      30.7      -1.7             90            6.4           10.3   322.8
     12/01/11, 23:00      29.0      -2.7             89            4.9            7.9   314.2
      12/02/11, 0:00      28.7      -2.9             89            5.2            8.3   320.3
      12/02/11, 1:00      26.7      -4.0             85            5.0            8.1   318.4
      12/02/11, 2:00      23.9      -5.5             91            4.7            7.5   309.7
      12/02/11, 3:00      21.3      -6.9             90            4.3            7.0     305
      12/02/11, 4:00      19.5      -8.0             90            3.9            6.3   300.3
      12/02/11, 5:00      17.5      -9.1             92            3.2            5.1   314.9
      12/02/11, 6:00      15.6     -10.1             92            3.3            5.2   325.9
      12/02/11, 7:00      14.8     -10.6             92            2.4            3.9   317.7
      12/02/11, 8:00      13.3     -11.4             93            1.2            1.9   284.4
      12/02/11, 9:00      11.9     -12.2             94            0.8            1.3   250.1
     12/02/11, 10:00      15.7     -10.1             94            1.6            2.6   335.3
     12/02/11, 11:00      21.3      -6.9             89            2.3            3.7   42.86
     12/02/11, 12:00      24.8      -5.0             87            5.7            9.2   136.2
     12/02/11, 13:00      28.2      -3.1             87            7.2           11.6     140
     12/02/11, 14:00      32.3      -0.8             85            6.2           10.0   128.5
     12/02/11, 15:00      35.4       0.9             78            9.0           14.5   138.8
     12/02/11, 16:00      37.2       1.9             74           10.5           16.9   139.1
     12/02/11, 17:00      37.7       2.1             69            8.7           14.0   136.3
     12/02/11, 18:00      35.3       0.8             77            6.2           10.0   123.1
     12/02/11, 19:00      34.0       0.1             86            8.9           14.3   134.1
     12/02/11, 20:00      31.6      -1.2             94           12.5           20.1   144.2
     12/02/11, 21:00      32.1      -0.9             95           10.5           17.0   148.6
     12/02/11, 22:00      32.9      -0.5             95            9.5           15.3   142.6
     12/02/11, 23:00      33.8      -0.0             94            9.4           15.2   137.3
      12/03/11, 0:00      34.6       0.4             94            9.5           15.3   141.9


  

                                                                                             
           Date,Time       Air       Air     % Relative           Wind           Wind    Wind
                        Temp F    Temp C       Humidity      Speed mph     Speed km/h Dir Deg
---------------------------------------------------------------------------------------------
      12/03/11, 1:00      35.6       1.0             94            8.3           13.4     136
      12/03/11, 2:00      36.9       1.7             92            7.1           11.4     135
      12/03/11, 3:00      37.0       1.8             99            6.3           10.1   145.3
      12/03/11, 4:00      37.3       2.0            100            4.4            7.1     149
      12/03/11, 5:00      37.9       2.3            100            3.6            5.9     143
      12/03/11, 6:00      39.2       3.0            100            3.1            5.1   148.1
      12/03/11, 7:00      40.3       3.6            100            3.8            6.0   155.3
      12/03/11, 8:00      41.7       4.4            100            6.1            9.8   172.3
      12/03/11, 9:00      42.2       4.7            100            5.9            9.5   167.5
     12/03/11, 10:00      42.4       4.8            100            6.9           11.2   147.9
     12/03/11, 11:00      43.0       5.1            100            9.9           16.0   148.1
     12/03/11, 12:00      43.6       5.5            100            9.6           15.4   140.8
     12/03/11, 13:00      44.5       5.9            100            8.7           14.0   135.6
     12/03/11, 14:00      45.3       6.4            100            9.2           14.8   142.4
     12/03/11, 15:00      45.9       6.7            100            8.8           14.2   145.1
     12/03/11, 16:00      45.7       6.6            100            7.2           11.7   120.7
     12/03/11, 17:00      45.5       6.5            100            6.3           10.1   126.9
     12/03/11, 18:00      45.3       6.4            100            6.5           10.5   112.3
     12/03/11, 19:00      45.4       6.4            100            3.2            5.2   274.4
     12/03/11, 20:00      45.0       6.2            100            3.4            5.5   332.4
     12/03/11, 21:00      44.5       5.9            100            3.2            5.2   350.2
     12/03/11, 22:00      40.3       3.6            100            6.4           10.4   325.1
     12/03/11, 23:00      37.2       1.9            100            7.0           11.2     329
      12/04/11, 0:00      36.1       1.3            100            6.9           11.1   317.2
      12/04/11, 1:00      34.3       0.3            100            8.3           13.3   306.8
      12/04/11, 2:00      33.0      -0.4            100            7.8           12.5   307.9
      12/04/11, 3:00      32.3      -0.8            100            8.6           13.8     303
      12/04/11, 4:00      32.3      -0.9            100            7.8           12.6   303.9
      12/04/11, 5:00      32.0      -1.0             98            8.3           13.4   295.9
      12/04/11, 6:00      31.2      -1.4             96            8.0           12.9   297.5
      12/04/11, 7:00      29.8      -2.2             97            8.6           13.8   295.7
      12/04/11, 8:00      27.9      -3.3             97            5.8            9.4     299
      12/04/11, 9:00      26.8      -3.9             97            5.9            9.5   292.2
     12/04/11, 10:00      26.2      -4.2             97            6.0            9.6   283.9
     12/04/11, 11:00      28.4      -3.0             96            5.9            9.5   292.9
     12/04/11, 12:00      30.2      -2.0             91            6.2            9.9   282.7
     12/04/11, 13:00      31.1      -1.5             90            5.8            9.3   281.7
     12/04/11, 14:00      30.8      -1.7             89            5.4            8.7   295.4
     12/04/11, 15:00      30.6      -1.8             89            5.8            9.4   282.2
     12/04/11, 16:00      29.9      -2.1             87            6.4           10.4   288.8
     12/04/11, 17:00      29.4      -2.4             85            5.6            9.0   281.4
     12/04/11, 18:00      28.7      -2.8             85            5.8            9.3   282.8
     12/04/11, 19:00      28.1      -3.2             83            4.3            6.9   300.9
     12/04/11, 20:00      27.6      -3.4             83            4.4            7.1   299.8
     12/04/11, 21:00      27.2      -3.7             85            4.6            7.4   300.3
     12/04/11, 22:00      26.6      -4.0             86            4.5            7.3   306.6
     12/04/11, 23:00      25.6      -4.6             86            5.2            8.4     312
      12/05/11, 0:00      24.9      -4.9             87            4.7            7.6   316.6


  

                                                                                             
           Date,Time       Air       Air     % Relative           Wind           Wind    Wind
                        Temp F    Temp C       Humidity      Speed mph     Speed km/h Dir Deg
---------------------------------------------------------------------------------------------
      12/05/11, 1:00      24.6      -5.1             88            4.6            7.4   328.2
      12/05/11, 2:00      24.3      -5.3             87            5.2            8.4   316.3
      12/05/11, 3:00      23.9      -5.5             87            5.4            8.7   307.9
      12/05/11, 4:00      24.2      -5.4             87            4.5            7.3   304.8
      12/05/11, 5:00      24.4      -5.2             85            5.1            8.2   298.3
      12/05/11, 6:00      24.6      -5.1             89            4.8            7.8     315
      12/05/11, 7:00      24.2      -5.3             89            4.9            7.8   330.9
      12/05/11, 8:00      23.9      -5.5             88            5.7            9.1   327.7
      12/05/11, 9:00      23.8      -5.5             88            5.1            8.2   317.5
     12/05/11, 10:00      24.1      -5.4             87            5.7            9.1   323.8
     12/05/11, 11:00      24.0      -5.4             86            6.4           10.4   319.6
     12/05/11, 12:00      23.8      -5.5             85            8.0           12.9   308.2
     12/05/11, 13:00      23.0      -6.0             86            8.7           13.9   312.2
     12/05/11, 14:00      23.6      -5.7             85            7.9           12.7   303.9
     12/05/11, 15:00      23.9      -5.5             84            8.5           13.6   301.4
     12/05/11, 16:00      23.7      -5.6             85            8.5           13.7   301.1
     12/05/11, 17:00      23.1      -5.9             86            7.2           11.6     318
     12/05/11, 18:00      22.0      -6.6             88            7.0           11.3   312.5
     12/05/11, 19:00      21.4      -6.9             89            6.9           11.1   321.8
     12/05/11, 20:00      22.0      -6.6             88            7.8           12.5   332.4
     12/05/11, 21:00      21.7      -6.7             89            6.2           10.1   333.5
     12/05/11, 22:00      21.4      -6.9             88            7.4           11.9   337.7
     12/05/11, 23:00      21.0      -7.1             90            6.9           11.2   338.5
      12/06/11, 0:00      20.1      -7.6             92            6.4           10.3     334
      12/06/11, 1:00      19.8      -7.8             92            5.2            8.3   321.1
      12/06/11, 2:00      20.2      -7.5             93            4.7            7.6   321.2
      12/06/11, 3:00      20.5      -7.4             93            4.6            7.5   308.5
      12/06/11, 4:00      20.7      -7.3             93            5.7            9.2     298
      12/06/11, 5:00      20.7      -7.3             94            5.3            8.6     305
      12/06/11, 6:00      20.2      -7.5             95            6.7           10.7   312.8
      12/06/11, 7:00      20.1      -7.6             95            6.3           10.1   316.7
      12/06/11, 8:00      20.3      -7.5             94            5.2            8.4   325.8
      12/06/11, 9:00      20.6      -7.3             93            4.7            7.6   319.6
     12/06/11, 10:00      20.9      -7.1             92            4.7            7.6   313.8
     12/06/11, 11:00      21.3      -7.0             92            4.5            7.3   304.7
     12/06/11, 12:00      22.0      -6.6             91            5.0            8.1   302.1
     12/06/11, 13:00      22.7      -6.2             90            5.8            9.3   300.3
     12/06/11, 14:00      23.2      -5.9             89            5.5            8.8   311.3
     12/06/11, 15:00      23.8      -5.5             89            5.3            8.5   311.6
     12/06/11, 16:00      24.2      -5.4             87            4.3            7.0   311.6
     12/06/11, 17:00      23.8      -5.5             89            3.2            5.1   278.1
     12/06/11, 18:00      23.2      -5.9             90            2.7            4.4   269.3
     12/06/11, 19:00      22.3      -6.4             90            3.7            5.9   268.9
     12/06/11, 20:00      20.6      -7.3             88            2.6            4.1   267.2
     12/06/11, 21:00      17.1      -9.3             91            1.6            2.6   261.8
     12/06/11, 22:00      13.8     -11.1             94            2.3            3.6     271
     12/06/11, 23:00      12.6     -11.8             95            1.0            1.6   240.7
      12/07/11, 0:00      11.2     -12.5             95            0.8            1.3   228.4


  

                                                                                             
           Date,Time       Air       Air     % Relative           Wind           Wind    Wind
                        Temp F    Temp C       Humidity      Speed mph     Speed km/h Dir Deg
---------------------------------------------------------------------------------------------
      12/07/11, 1:00      10.0     -13.2             96            0.5            0.8   234.5
      12/07/11, 2:00       9.5     -13.5             96            0.8            1.2   225.8
      12/07/11, 3:00       8.6     -14.0             95            1.1            1.8   185.9
      12/07/11, 4:00       9.0     -13.8             96            2.3            3.7     170
      12/07/11, 5:00       9.3     -13.6             95            2.5            3.9   154.2
      12/07/11, 6:00      10.6     -12.9             94            3.2            5.2     176
      12/07/11, 7:00      12.8     -11.7             92            4.2            6.8   174.2
      12/07/11, 8:00      13.5     -11.3             91            4.5            7.2   175.9
      12/07/11, 9:00      14.8     -10.6             90            5.1            8.1   180.4
     12/07/11, 10:00      18.1      -8.7             90            5.8            9.3   192.7
     12/07/11, 11:00      21.6      -6.8             86            5.4            8.6   202.1
     12/07/11, 12:00      24.7      -5.1             83            5.0            8.1   232.7
     12/07/11, 13:00      26.4      -4.1             77            4.4            7.0   241.6
     12/07/11, 14:00      29.1      -2.6             71            4.9            7.8   257.6
     12/07/11, 15:00      30.6      -1.8             67            5.4            8.7   265.4
     12/07/11, 16:00      30.2      -2.0             67            5.0            8.1   268.3
     12/07/11, 17:00      29.8      -2.2             68            4.9            7.8   275.2
     12/07/11, 18:00      29.0      -2.7             74            3.2            5.1   257.8
     12/07/11, 19:00      27.6      -3.4             78            2.8            4.6     279
     12/07/11, 20:00      26.8      -3.9             80            4.0            6.4   292.9
     12/07/11, 21:00      25.3      -4.7             86            4.4            7.0   290.1
     12/07/11, 22:00      22.6      -6.2             91            2.0            3.1   257.3
     12/07/11, 23:00      21.3      -6.9             93            1.5            2.5   238.1
      12/08/11, 0:00      22.3      -6.4             94            1.7            2.7   232.5
      12/08/11, 1:00      23.3      -5.8             94            2.0            3.2   229.1
      12/08/11, 2:00      23.3      -5.8             93            2.2            3.6     250
      12/08/11, 3:00      23.2      -5.9             95            3.6            5.8   277.5
      12/08/11, 4:00      24.7      -5.1             93            2.9            4.6   287.4
      12/08/11, 5:00      24.9      -5.0             95            1.1            1.8   200.1
      12/08/11, 6:00      25.3      -4.7             95            1.7            2.8   269.6
      12/08/11, 7:00      25.4      -4.7             94            1.3            2.1   274.1
      12/08/11, 8:00      25.6      -4.6             95            2.0            3.3   214.2
      12/08/11, 9:00      25.2      -4.8             96            0.7            1.2     249
     12/08/11, 10:00      26.5      -4.0             97            1.5            2.4   302.7
     12/08/11, 11:00      28.6      -2.9             93            3.4            5.5   325.2
     12/08/11, 12:00      30.6      -1.8             89            2.9            4.6   343.2
     12/08/11, 13:00      32.7      -0.6             78            2.2            3.6   13.34
     12/08/11, 14:00      34.1       0.2             71            1.9            3.0   48.78
     12/08/11, 15:00      35.0       0.7             67            3.7            6.0   322.4
     12/08/11, 16:00      34.6       0.4             66            4.7            7.6   321.2
     12/08/11, 17:00      33.2      -0.3             67            4.0            6.5   305.6
     12/08/11, 18:00      31.8      -1.1             76            4.1            6.6   296.5
     12/08/11, 19:00      29.5      -2.4             76            4.9            7.9     308
     12/08/11, 20:00      28.5      -2.9             82            5.5            8.8   299.5
     12/08/11, 21:00      25.2      -4.8             95            6.1            9.9   303.5
     12/08/11, 22:00      24.0      -5.5             95            4.8            7.7   303.3
     12/08/11, 23:00      23.5      -5.7             97            4.1            6.6   301.9
      12/09/11, 0:00      22.5      -6.3             98            3.8            6.2   299.8


  

                                                                                             
           Date,Time       Air       Air     % Relative           Wind           Wind    Wind
                        Temp F    Temp C       Humidity      Speed mph     Speed km/h Dir Deg
---------------------------------------------------------------------------------------------
      12/09/11, 1:00      22.3      -6.4             98            3.6            5.8   290.3
      12/09/11, 2:00      22.3      -6.4             98            2.6            4.2   254.7
      12/09/11, 3:00      22.2      -6.4             98            2.9            4.6   253.1
      12/09/11, 4:00      22.2      -6.5             98            3.3            5.4   262.1
      12/09/11, 5:00      22.1      -6.5             97            3.9            6.2   284.5
      12/09/11, 6:00      19.2      -8.1             90            3.9            6.3   307.2
      12/09/11, 7:00      15.7     -10.1             78            2.3            3.8     302
      12/09/11, 8:00      13.5     -11.3             87            2.4            3.8   275.3
      12/09/11, 9:00      12.6     -11.8             81            1.7            2.7   266.8
     12/09/11, 10:00      14.2     -10.9             75            2.6            4.1   275.3
     12/09/11, 11:00      17.5      -9.1             72            4.2            6.7   276.9
     12/09/11, 12:00      19.4      -8.0             70            4.8            7.7   267.8
     12/09/11, 13:00      19.9      -7.7             68            5.0            8.1   266.8
     12/09/11, 14:00      22.1      -6.5             65            6.2           10.0   271.8
     12/09/11, 15:00      23.8      -5.5             60            8.1           13.0   279.4
     12/09/11, 16:00      23.3      -5.8             51            8.2           13.2   286.5
     12/09/11, 17:00      22.1      -6.5             55            7.0           11.3   283.2
     12/09/11, 18:00      18.1      -8.7             64            4.4            7.2   274.6
     12/09/11, 19:00      14.9     -10.5             65            3.1            5.1   265.2
     12/09/11, 20:00      12.8     -11.7             68            3.0            4.8     264
     12/09/11, 21:00      10.7     -12.8             72            2.9            4.7   266.6
     12/09/11, 22:00       9.9     -13.3             75            2.6            4.1   263.8
     12/09/11, 23:00       8.0     -14.3             76            1.5            2.5   249.6
      12/10/11, 0:00       7.1     -14.8             78            0.6            0.9   241.8
      12/10/11, 1:00       5.2     -15.9             82            2.1            3.3   205.8
      12/10/11, 2:00       5.8     -15.6             79            2.0            3.3   218.1
      12/10/11, 3:00       5.0     -16.0             81            0.5            0.9   230.4
      12/10/11, 4:00       6.0     -15.4             83            1.0            1.6   218.4
      12/10/11, 5:00       5.8     -15.6             88            1.4            2.3   185.1
      12/10/11, 6:00       5.5     -15.7             91            1.4            2.3   178.9
      12/10/11, 7:00       5.2     -15.9             92            2.0            3.3   167.3
      12/10/11, 8:00       5.3     -15.9             93            3.4            5.4   164.3
      12/10/11, 9:00       5.9     -15.5             93            2.1            3.5   145.9
     12/10/11, 10:00      10.0     -13.2             93            4.5            7.2   148.4
     12/10/11, 11:00      15.6     -10.1             93            7.3           11.7   169.5
     12/10/11, 12:00      19.0      -8.2             94            7.7           12.4   168.7
     12/10/11, 13:00      22.8      -6.1             92            9.4           15.1   164.7
     12/10/11, 14:00      27.6      -3.5             87           11.2           18.1     167
     12/10/11, 15:00      31.6      -1.2             80           11.4           18.3   178.9
     12/10/11, 16:00      33.8       0.0             78            9.9           15.9   181.8
     12/10/11, 17:00      34.3       0.3             80            9.2           14.8   172.4
     12/10/11, 18:00      32.9      -0.5             87            6.2           10.1   164.8
     12/10/11, 19:00      30.0      -2.1             93            5.1            8.2     155
     12/10/11, 20:00      28.7      -2.8             94            5.6            8.9   156.5
     12/10/11, 21:00      26.9      -3.8             95            5.0            8.0   146.1
     12/10/11, 22:00      27.2      -3.7             96            6.2            9.9   154.9
     12/10/11, 23:00      27.5      -3.5             94            5.8            9.3     158
      12/11/11, 0:00      27.6      -3.4             93            5.3            8.6   164.3


  

                                                                                             
           Date,Time       Air       Air     % Relative           Wind           Wind    Wind
                        Temp F    Temp C       Humidity      Speed mph     Speed km/h Dir Deg
---------------------------------------------------------------------------------------------
      12/11/11, 1:00      28.3      -3.1             93            5.5            8.9   174.6
      12/11/11, 2:00      29.5      -2.4             92            6.9           11.1   174.6
      12/11/11, 3:00      27.8      -3.3             96            4.5            7.3   160.5
      12/11/11, 4:00      26.0      -4.4             96            4.5            7.3   154.4
      12/11/11, 5:00      26.0      -4.3             97            4.5            7.2   163.9
      12/11/11, 6:00      24.7      -5.1             99            4.3            6.9   155.7
      12/11/11, 7:00      24.1      -5.4             99            5.0            8.0   160.5
      12/11/11, 8:00      23.4      -5.8            100            5.1            8.2   158.7
      12/11/11, 9:00      23.9      -5.5            100            5.9            9.4   160.7